
Distance (Route):
Temperature : 3.5°C
Humidity : 67.2%
Pressure : 0hPa| Receiver | Frames | First received | Last received |
|---|---|---|---|
| DO3MHA-11 | 339 | 2026-08-31 11:30:56 | 2026-08-31 13:04:51 |
| OE8JPQ-2 | 256 | 2026-08-31 11:23:35 | 2026-08-31 13:23:40 |
| 9A1FER-3 | 245 | 2026-08-31 11:31:08 | 2026-08-31 13:14:32 |
| 9A1FER-10 | 242 | 2026-08-31 11:30:23 | 2026-08-31 13:15:31 |
| OE5DRO-10 | 173 | 2026-08-31 11:39:56 | 2026-08-31 13:08:09 |
| DO3MHA-12 | 160 | 2026-08-31 11:40:46 | 2026-08-31 13:01:34 |
| OE5DXL-15 | 148 | 2026-08-31 11:36:38 | 2026-08-31 13:06:09 |
| PG1ADW-2 | 130 | 2026-08-31 11:54:36 | 2026-08-31 13:09:11 |
| PETON7-10 | 122 | 2026-08-31 12:09:20 | 2026-08-31 12:52:02 |
| OE5WHR-10 | 116 | 2026-08-31 11:55:27 | 2026-08-31 12:54:33 |
| IV3AMH | 95 | 2026-08-31 11:26:43 | 2026-08-31 13:02:56 |
| IN3HCDX1 | 94 | 2026-08-31 11:30:47 | 2026-08-31 12:49:25 |
| OE3JTB-15 | 89 | 2026-08-31 11:32:09 | 2026-08-31 13:08:39 |
| OE5MMP-10 | 79 | 2026-08-31 12:24:38 | 2026-08-31 12:46:20 |
| IN3HCDX | 78 | 2026-08-31 11:10:31 | 2026-08-31 12:49:31 |
| IW2NTF | 67 | 2026-08-31 12:30:01 | 2026-08-31 12:48:50 |
| NBG1-10 | 52 | 2026-08-31 12:05:44 | 2026-08-31 12:53:46 |
| 9A1FER-15 | 41 | 2026-08-31 12:52:00 | 2026-08-31 13:04:06 |
| DB0UT-7 | 38 | 2026-08-31 12:26:15 | 2026-08-31 12:46:32 |
| OM5KV | 35 | 2026-08-31 11:54:40 | 2026-08-31 11:58:51 |
| SOBLACK | 11 | 2026-08-31 11:44:25 | 2026-08-31 12:48:22 |
| Receiver | Date | Latitude | Longitude | Direction | Speed | Altitude | Climb | Temperature | Humidity | Pressure | Voltage | Killtimer | Uptime | BKT | XDATA |
|---|---|---|---|---|---|---|---|---|---|---|---|---|---|---|---|
| OE8JPQ-2 | 2026-08-31 13:23:40 | 46.36974 | 14.62567 | 68° | 20km/h | 3537m | -5.2m/s | 3.5°C | 67.2% | 0hPa | 2.7V | 07:49:00 | 00:00:00 | 00:00:00 | |
| OE8JPQ-2 | 2026-08-31 13:23:15 | 46.36921 | 14.62406 | 69° | 22km/h | 3675m | -5.1m/s | 1.4°C | 92.3% | 0hPa | 2.7V | 00:00:00 | 00:00:00 | 00:00:00 | |
| OE8JPQ-2 | 2026-08-31 13:22:55 | 46.36878 | 14.62257 | 61° | 24km/h | 3768m | -4.4m/s | 1.5°C | 73.0% | 0hPa | 2.7V | 00:00:00 | 02:57:22 | 00:00:00 | |
| OE8JPQ-2 | 2026-08-31 13:22:35 | 46.36823 | 14.62108 | 61° | 26km/h | 3858m | -4.3m/s | 0.8°C | 67.7% | 0hPa | 2.7V | 00:00:00 | 00:00:00 | 00:00:00 | |
| OE8JPQ-2 | 2026-08-31 13:22:15 | 46.36762 | 14.61947 | 56° | 27km/h | 3955m | -4.8m/s | -0.0°C | 70.3% | 0hPa | 2.7V | 00:00:00 | 00:00:00 | 00:00:00 | |
| OE8JPQ-2 | 2026-08-31 13:21:55 | 46.36692 | 14.61769 | 58° | 31km/h | 4046m | -4.1m/s | -0.8°C | 71.4% | 0hPa | 2.7V | 00:00:00 | 02:56:22 | 00:00:00 | |
| OE8JPQ-2 | 2026-08-31 13:21:35 | 46.36631 | 14.61557 | 69° | 35km/h | 4144m | -6.4m/s | -1.2°C | 66.7% | 0hPa | 2.7V | 00:00:00 | 00:00:00 | 00:00:00 | |
| OE8JPQ-2 | 2026-08-31 13:21:15 | 46.36575 | 14.61319 | 73° | 38km/h | 4237m | -5.3m/s | -1.8°C | 69.6% | 0hPa | 2.7V | 00:00:00 | 00:00:00 | 00:00:00 | |
| OE8JPQ-2 | 2026-08-31 13:20:55 | 46.36514 | 14.61059 | 65° | 40km/h | 4337m | -5.5m/s | -2.3°C | 57.6% | 0hPa | 2.7V | 07:51:00 | 02:55:22 | 00:00:00 | |
| OE8JPQ-2 | 2026-08-31 13:20:36 | 46.36433 | 14.60792 | 71° | 40km/h | 4437m | -5.2m/s | -2.9°C | 45.8% | 0hPa | 2.7V | 00:00:00 | 00:00:00 | 00:00:00 | |
| OE8JPQ-2 | 2026-08-31 13:20:15 | 46.36360 | 14.60521 | 68° | 44km/h | 4515m | -3.0m/s | -2.8°C | 50.8% | 0hPa | 2.6V | 00:00:00 | 00:00:00 | 00:00:00 | |
| OE8JPQ-2 | 2026-08-31 13:19:55 | 46.36302 | 14.60210 | 70° | 42km/h | 4578m | -3.4m/s | -3.4°C | 54.9% | 0hPa | 2.6V | 00:00:00 | 02:54:22 | 00:00:00 | |
| OE8JPQ-2 | 2026-08-31 13:19:35 | 46.36213 | 14.59929 | 61° | 42km/h | 4641m | -3.3m/s | -3.4°C | 41.5% | 0hPa | 2.6V | 00:00:00 | 00:00:00 | 00:00:00 | |
| OE8JPQ-2 | 2026-08-31 13:19:15 | 46.36127 | 14.59656 | 66° | 42km/h | 4716m | -3.8m/s | -3.8°C | 42.9% | 0hPa | 2.6V | 00:00:00 | 00:00:00 | 00:00:00 | |
| OE8JPQ-2 | 2026-08-31 13:18:55 | 46.36046 | 14.59369 | 71° | 47km/h | 4797m | -3.9m/s | -4.5°C | 45.1% | 0hPa | 2.6V | 00:00:00 | 02:53:22 | 00:00:00 | |
| OE8JPQ-2 | 2026-08-31 13:18:35 | 46.35974 | 14.59039 | 78° | 49km/h | 4872m | -3.8m/s | -4.7°C | 38.1% | 0hPa | 2.6V | 00:00:00 | 00:00:00 | 00:00:00 | |
| OE8JPQ-2 | 2026-08-31 13:18:15 | 46.35885 | 14.58699 | 72° | 55km/h | 4947m | -3.9m/s | -4.7°C | 30.4% | 0hPa | 2.6V | 07:54:00 | 00:00:00 | 00:00:00 | |
| OE8JPQ-2 | 2026-08-31 13:17:55 | 46.35771 | 14.58330 | 67° | 62km/h | 5030m | -4.7m/s | -5.2°C | 29.0% | 0hPa | 2.6V | 00:00:00 | 02:52:22 | 00:00:00 | |
| OE8JPQ-2 | 2026-08-31 13:17:35 | 46.35642 | 14.57918 | 64° | 57km/h | 5122m | -4.8m/s | -5.3°C | 21.3% | 0hPa | 2.6V | 00:00:00 | 00:00:00 | 00:00:00 | |
| OE8JPQ-2 | 2026-08-31 13:17:15 | 46.35515 | 14.57542 | 62° | 55km/h | 5218m | -4.9m/s | -5.8°C | 10.5% | 0hPa | 2.6V | 00:00:00 | 00:00:00 | 00:00:00 | |
| OE8JPQ-2 | 2026-08-31 13:16:55 | 46.35407 | 14.57173 | 73° | 51km/h | 5319m | -5.0m/s | -6.2°C | 5.2% | 0hPa | 2.6V | 00:00:00 | 02:51:22 | 00:00:00 | |
| OE8JPQ-2 | 2026-08-31 13:16:35 | 46.35312 | 14.56817 | 69° | 57km/h | 5417m | -5.2m/s | -6.8°C | 6.5% | 0hPa | 2.6V | 00:00:00 | 00:00:00 | 00:00:00 | |
| OE8JPQ-2 | 2026-08-31 13:16:15 | 46.35229 | 14.56421 | 78° | 58km/h | 5519m | -4.7m/s | -7.6°C | 6.2% | 0hPa | 2.6V | 00:00:00 | 00:00:00 | 00:00:00 | |
| OE8JPQ-2 | 2026-08-31 13:15:55 | 46.35136 | 14.56019 | 79° | 62km/h | 5615m | -5.1m/s | -8.4°C | 6.9% | 0hPa | 2.6V | 00:00:00 | 02:50:22 | 00:00:00 | |
| OE8JPQ-2 | 2026-08-31 13:15:35 | 46.35049 | 14.55583 | 71° | 60km/h | 5716m | -5.3m/s | -9.0°C | 20.4% | 0hPa | 2.6V | 07:57:00 | 00:00:00 | 00:00:00 | |
| 9A1FER-10 | 2026-08-31 13:15:31 | 46.35028 | 14.55508 | 68° | 62km/h | 5737m | -5.5m/s | -9.1°C | 19.7% | 0hPa | 2.5V | 00:00:00 | 02:49:58 | 00:00:00 | |
| OE8JPQ-2 | 2026-08-31 13:15:15 | 46.34959 | 14.55158 | 68° | 66km/h | 5813m | -4.6m/s | -9.9°C | 27.2% | 0hPa | 2.5V | 00:00:00 | 00:00:00 | 00:00:00 | |
| 9A1FER-10 | 2026-08-31 13:15:13 | 46.34947 | 14.55116 | 70° | 69km/h | 5823m | -4.7m/s | -9.9°C | 28.7% | 0hPa | 2.5V | 00:00:00 | 02:49:40 | 00:00:00 | |
| 9A1FER-10 | 2026-08-31 13:14:57 | 46.34859 | 14.54749 | 77° | 66km/h | 5899m | -4.5m/s | -10.6°C | 44.9% | 0hPa | 2.5V | 00:00:00 | 02:49:24 | 00:00:00 | |
| OE8JPQ-2 | 2026-08-31 13:14:55 | 46.34851 | 14.54699 | 78° | 66km/h | 5909m | -4.5m/s | -10.7°C | 44.1% | 0hPa | 2.6V | 00:00:00 | 02:49:22 | 00:00:00 | |
| 9A1FER-10 | 2026-08-31 13:14:42 | 46.34784 | 14.54407 | 74° | 68km/h | 5968m | -4.6m/s | -11.0°C | 29.7% | 0hPa | 2.6V | 00:00:00 | 02:49:09 | 00:00:00 | |
| OE8JPQ-2 | 2026-08-31 13:14:35 | 46.34747 | 14.54247 | 71° | 68km/h | 6001m | -5.0m/s | -11.2°C | 26.4% | 0hPa | 2.6V | 00:00:00 | 00:00:00 | 00:00:00 | |
| 9A1FER-3 | 2026-08-31 13:14:32 | 46.34729 | 14.54175 | 72° | 66km/h | 6016m | -5.0m/s | -11.4°C | 28.3% | 0hPa | 2.5V | 07:58:00 | 02:48:59 | 00:00:00 | |
| 9A1FER-3 | 2026-08-31 13:14:17 | 46.34651 | 14.53834 | 68° | 68km/h | 6089m | -4.3m/s | -12.0°C | 32.9% | 0hPa | 2.5V | 00:00:00 | 02:48:44 | 00:00:00 | |
| 9A1FER-10 | 2026-08-31 13:14:15 | 46.34638 | 14.53785 | 73° | 66km/h | 6099m | -4.9m/s | -12.1°C | 36.0% | 0hPa | 2.5V | 00:00:00 | 02:48:42 | 00:00:00 | |
| 9A1FER-3 | 2026-08-31 13:14:02 | 46.34584 | 14.53480 | 73° | 68km/h | 6157m | -4.3m/s | -12.5°C | 48.9% | 0hPa | 2.5V | 00:00:00 | 02:48:29 | 00:00:00 | |
| 9A1FER-10 | 2026-08-31 13:14:00 | 46.34574 | 14.53439 | 70° | 68km/h | 6166m | -4.7m/s | -12.5°C | 51.8% | 0hPa | 2.5V | 00:00:00 | 02:48:27 | 00:00:00 | |
| OE8JPQ-2 | 2026-08-31 13:13:55 | 46.34541 | 14.53333 | 66° | 64km/h | 6187m | -4.5m/s | -12.7°C | 48.6% | 0hPa | 2.6V | 00:00:00 | 02:48:22 | 00:00:00 | |
| 9A1FER-3 | 2026-08-31 13:13:47 | 46.34495 | 14.53137 | 76° | 58km/h | 6218m | -4.2m/s | -13.0°C | 48.9% | 0hPa | 2.6V | 00:00:00 | 02:48:14 | 00:00:00 | |
| 9A1FER-10 | 2026-08-31 13:13:45 | 46.34486 | 14.53093 | 74° | 58km/h | 6227m | -4.4m/s | -13.0°C | 50.7% | 0hPa | 2.6V | 07:59:00 | 02:48:12 | 00:00:00 | |
| OE8JPQ-2 | 2026-08-31 13:13:35 | 46.34442 | 14.52891 | 73° | 66km/h | 6271m | -4.7m/s | -13.2°C | 39.4% | 0hPa | 2.6V | 00:00:00 | 00:00:00 | 00:00:00 | |
| 9A1FER-3 | 2026-08-31 13:13:32 | 46.34427 | 14.52832 | 68° | 68km/h | 6285m | -4.0m/s | -13.2°C | 34.0% | 0hPa | 2.5V | 00:00:00 | 02:47:59 | 00:00:00 | |
| 9A1FER-10 | 2026-08-31 13:13:30 | 46.34414 | 14.52792 | 66° | 68km/h | 6293m | -3.7m/s | -13.3°C | 32.4% | 0hPa | 2.5V | 00:00:00 | 02:47:57 | 00:00:00 | |
| 9A1FER-3 | 2026-08-31 13:13:17 | 46.34341 | 14.52486 | 79° | 68km/h | 6349m | -3.9m/s | -13.8°C | 32.7% | 0hPa | 2.5V | 00:00:00 | 02:47:44 | 00:00:00 | |
| 9A1FER-10 | 2026-08-31 13:13:15 | 46.34334 | 14.52440 | 77° | 68km/h | 6357m | -4.0m/s | -13.8°C | 33.3% | 0hPa | 2.6V | 00:00:00 | 02:47:42 | 00:00:00 | |
| 9A1FER-3 | 2026-08-31 13:13:02 | 46.34258 | 14.52142 | 76° | 71km/h | 6414m | -4.1m/s | -14.2°C | 33.9% | 0hPa | 2.5V | 00:00:00 | 02:47:29 | 00:00:00 | |
| 9A1FER-10 | 2026-08-31 13:13:00 | 46.34250 | 14.52093 | 77° | 66km/h | 6422m | -4.6m/s | -14.3°C | 33.8% | 0hPa | 2.5V | 00:00:00 | 02:47:27 | 00:00:00 | |
| OE8JPQ-2 | 2026-08-31 13:12:55 | 46.34230 | 14.51980 | 74° | 69km/h | 6444m | -4.1m/s | -14.4°C | 33.7% | 0hPa | 2.5V | 07:59:00 | 02:47:22 | 00:00:00 | |
| 9A1FER-10 | 2026-08-31 13:12:45 | 46.34164 | 14.51760 | 63° | 71km/h | 6487m | -4.1m/s | -14.8°C | 32.5% | 0hPa | 2.5V | 00:00:00 | 02:47:12 | 00:00:00 | |
| OE8JPQ-2 | 2026-08-31 13:12:35 | 46.34093 | 14.51517 | 68° | 69km/h | 6528m | -4.0m/s | -15.0°C | 31.8% | 0hPa | 2.5V | 00:00:00 | 00:00:00 | 00:00:00 | |
| 9A1FER-3 | 2026-08-31 13:12:32 | 46.34071 | 14.51452 | 62° | 69km/h | 6540m | -4.2m/s | -15.0°C | 31.3% | 0hPa | 2.6V | 00:00:00 | 02:46:59 | 00:00:00 | |
| 9A1FER-10 | 2026-08-31 13:12:30 | 46.34053 | 14.51405 | 63° | 69km/h | 6549m | -4.0m/s | -15.0°C | 29.8% | 0hPa | 2.6V | 00:00:00 | 02:46:57 | 00:00:00 | |
| 9A1FER-3 | 2026-08-31 13:12:17 | 46.33976 | 14.51095 | 70° | 66km/h | 6603m | -3.3m/s | -15.4°C | 36.7% | 0hPa | 2.5V | 00:00:00 | 02:46:44 | 00:00:00 | |
| OE8JPQ-2 | 2026-08-31 13:12:15 | 46.33964 | 14.51054 | 66° | 66km/h | 6610m | -4.1m/s | -15.5°C | 37.7% | 0hPa | 2.5V | 00:00:00 | 00:00:00 | 00:00:00 | |
| 9A1FER-3 | 2026-08-31 13:12:02 | 46.33863 | 14.50772 | 70° | 68km/h | 6667m | -5.1m/s | -16.0°C | 41.4% | 0hPa | 2.5V | 00:00:00 | 02:46:29 | 00:00:00 | |
| 9A1FER-10 | 2026-08-31 13:12:00 | 46.33851 | 14.50728 | 69° | 68km/h | 6676m | -4.5m/s | -16.1°C | 44.2% | 0hPa | 2.5V | 00:00:00 | 02:46:27 | 00:00:00 | |
| OE8JPQ-2 | 2026-08-31 13:11:55 | 46.33815 | 14.50629 | 58° | 73km/h | 6698m | -4.6m/s | -16.3°C | 45.5% | 0hPa | 2.5V | 00:00:00 | 02:46:22 | 00:00:00 | |
| 9A1FER-3 | 2026-08-31 13:11:47 | 46.33743 | 14.50449 | 64° | 75km/h | 6735m | -4.9m/s | -16.4°C | 46.8% | 0hPa | 2.5V | 00:00:00 | 02:46:14 | 00:00:00 | |
| 9A1FER-10 | 2026-08-31 13:11:45 | 46.33727 | 14.50401 | 66° | 75km/h | 6744m | -4.7m/s | -16.4°C | 46.3% | 0hPa | 2.5V | 08:01:00 | 02:46:12 | 00:00:00 | |
| OE8JPQ-2 | 2026-08-31 13:11:35 | 46.33651 | 14.50149 | 68° | 73km/h | 6787m | -4.4m/s | -16.6°C | 44.0% | 0hPa | 2.5V | 08:01:00 | 00:00:00 | 00:00:00 | |
| 9A1FER-3 | 2026-08-31 13:11:32 | 46.33628 | 14.50072 | 67° | 73km/h | 6801m | -4.6m/s | -16.7°C | 43.6% | 0hPa | 2.6V | 00:00:00 | 02:45:59 | 00:00:00 | |
| 9A1FER-10 | 2026-08-31 13:11:30 | 46.33613 | 14.50019 | 70° | 73km/h | 6809m | -4.8m/s | -16.7°C | 42.2% | 0hPa | 2.5V | 00:00:00 | 02:45:57 | 00:00:00 | |
| 9A1FER-3 | 2026-08-31 13:11:17 | 46.33538 | 14.49691 | 69° | 78km/h | 6864m | -3.8m/s | -17.0°C | 36.9% | 0hPa | 2.5V | 00:00:00 | 02:45:44 | 00:00:00 | |
| 9A1FER-10 | 2026-08-31 13:11:15 | 46.33525 | 14.49644 | 67° | 77km/h | 6873m | -4.2m/s | -17.0°C | 31.8% | 0hPa | 2.5V | 00:00:00 | 02:45:42 | 00:00:00 | |
| 9A1FER-10 | 2026-08-31 13:11:00 | 46.33428 | 14.49247 | 72° | 82km/h | 6971m | -8.7m/s | -17.1°C | 26.8% | 0hPa | 2.5V | 00:00:00 | 02:45:27 | 00:00:00 | |
| OE8JPQ-2 | 2026-08-31 13:10:55 | 46.33395 | 14.49104 | 72° | 82km/h | 7017m | -9.6m/s | -17.3°C | 28.3% | 0hPa | 2.5V | 00:00:00 | 02:45:22 | 00:00:00 | |
| 9A1FER-10 | 2026-08-31 13:10:45 | 46.33325 | 14.48819 | 70° | 82km/h | 7112m | -9.8m/s | -17.8°C | 16.4% | 0hPa | 2.5V | 00:00:00 | 02:45:12 | 00:00:00 | |
| OE8JPQ-2 | 2026-08-31 13:10:35 | 46.33251 | 14.48537 | 69° | 82km/h | 7207m | -9.0m/s | -18.6°C | 22.5% | 0hPa | 2.5V | 00:00:00 | 00:00:00 | 00:00:00 | |
| 9A1FER-3 | 2026-08-31 13:10:31 | 46.33222 | 14.48424 | 71° | 82km/h | 7245m | -9.5m/s | -18.8°C | 21.6% | 0hPa | 2.6V | 00:00:00 | 02:44:58 | 00:00:00 | |
| 9A1FER-10 | 2026-08-31 13:10:30 | 46.33215 | 14.48395 | 72° | 82km/h | 7254m | -9.3m/s | -18.9°C | 22.2% | 0hPa | 2.6V | 00:00:00 | 02:44:57 | 00:00:00 | |
| 9A1FER-3 | 2026-08-31 13:10:16 | 46.33123 | 14.47999 | 71° | 82km/h | 7376m | -11.8m/s | -19.8°C | 23.1% | 0hPa | 2.6V | 08:02:00 | 02:44:43 | 00:00:00 | |
| OE8JPQ-2 | 2026-08-31 13:10:15 | 46.33116 | 14.47971 | 71° | 84km/h | 7387m | -10.6m/s | -19.9°C | 21.8% | 0hPa | 2.6V | 00:00:00 | 00:00:00 | 00:00:00 | |
| 9A1FER-3 | 2026-08-31 13:10:01 | 46.33025 | 14.47566 | 73° | 86km/h | 7504m | -9.0m/s | -20.7°C | 27.8% | 0hPa | 2.6V | 00:00:00 | 02:44:28 | 00:00:00 | |
| 9A1FER-10 | 2026-08-31 13:10:00 | 46.33018 | 14.47536 | 73° | 86km/h | 7513m | -7.8m/s | -20.8°C | 27.8% | 0hPa | 2.6V | 00:00:00 | 02:44:27 | 00:00:00 | |
| OE8JPQ-2 | 2026-08-31 13:09:55 | 46.32985 | 14.47388 | 73° | 88km/h | 7559m | -8.5m/s | -21.2°C | 28.1% | 0hPa | 2.6V | 00:00:00 | 02:44:22 | 00:00:00 | |
| 9A1FER-3 | 2026-08-31 13:09:46 | 46.32927 | 14.47118 | 74° | 89km/h | 7639m | -8.8m/s | -21.9°C | 25.6% | 0hPa | 2.6V | 00:00:00 | 02:44:13 | 00:00:00 | |
| 9A1FER-10 | 2026-08-31 13:09:45 | 46.32920 | 14.47087 | 74° | 91km/h | 7648m | -10.2m/s | -21.9°C | 24.7% | 0hPa | 2.6V | 00:00:00 | 02:44:12 | 00:00:00 | |
| OE8JPQ-2 | 2026-08-31 13:09:35 | 46.32859 | 14.46773 | 76° | 91km/h | 7747m | -7.1m/s | -22.6°C | 22.2% | 0hPa | 2.6V | 00:00:00 | 00:00:00 | 00:00:00 | |
| 9A1FER-3 | 2026-08-31 13:09:31 | 46.32836 | 14.46643 | 76° | 93km/h | 7784m | -9.0m/s | -22.9°C | 21.4% | 0hPa | 2.5V | 00:00:00 | 02:43:58 | 00:00:00 | |
| OE8JPQ-2 | 2026-08-31 13:09:15 | 46.32741 | 14.46125 | 75° | 93km/h | 7940m | -9.7m/s | -24.2°C | 16.1% | 0hPa | 2.6V | 00:00:00 | 00:00:00 | 00:00:00 | |
| 9A1FER-10 | 2026-08-31 13:09:13 | 46.32728 | 14.46060 | 75° | 93km/h | 7960m | -10.1m/s | -24.3°C | 14.7% | 0hPa | 2.6V | 08:03:00 | 02:43:40 | 00:00:00 | |
| PG1ADW-2 | 2026-08-31 13:09:11 | 46.32716 | 14.45995 | 76° | 93km/h | 7980m | -8.9m/s | -24.4°C | 13.7% | 0hPa | 2.5V | 00:00:00 | 00:00:00 | 00:00:00 | |
| 9A1FER-10 | 2026-08-31 13:08:55 | 46.32616 | 14.45466 | 74° | 95km/h | 8124m | -9.5m/s | -25.4°C | 11.6% | 0hPa | 2.5V | 00:00:00 | 02:43:22 | 00:00:00 | |
| PG1ADW-2 | 2026-08-31 13:08:51 | 46.32588 | 14.45335 | 73° | 95km/h | 8159m | -10.4m/s | -25.7°C | 13.1% | 0hPa | 2.5V | 00:00:00 | 00:00:00 | 00:00:00 | |
| OE3JTB-15 | 2026-08-31 13:08:39 | 46.32501 | 14.44938 | 72° | 93km/h | 8278m | -9.5m/s | -26.6°C | 18.3% | 0hPa | 2.5V | 00:00:00 | 00:00:00 | 00:00:00 | |
| OE8JPQ-2 | 2026-08-31 13:08:35 | 46.32470 | 14.44808 | 71° | 93km/h | 8309m | -6.9m/s | -26.9°C | 26.7% | 0hPa | 2.5V | 08:04:00 | 00:00:00 | 00:00:00 | |
| PG1ADW-2 | 2026-08-31 13:08:31 | 46.32439 | 14.44679 | 71° | 93km/h | 8334m | -5.0m/s | -27.1°C | 32.8% | 0hPa | 2.5V | 08:04:00 | 02:42:58 | 00:00:00 | |
| 9A1FER-3 | 2026-08-31 13:08:29 | 46.32423 | 14.44615 | 71° | 93km/h | 8352m | -11.7m/s | -27.3°C | 33.1% | 0hPa | 2.5V | 00:00:00 | 02:42:56 | 00:00:00 | |
| 9A1FER-10 | 2026-08-31 13:08:25 | 46.32393 | 14.44485 | 72° | 93km/h | 8390m | -8.1m/s | -27.6°C | 34.1% | 0hPa | 2.5V | 00:00:00 | 02:42:52 | 00:00:00 | |
| OE8JPQ-2 | 2026-08-31 13:08:15 | 46.32319 | 14.44161 | 73° | 93km/h | 8476m | -9.0m/s | -28.3°C | 32.6% | 0hPa | 2.5V | 00:00:00 | 00:00:00 | 00:00:00 | |
| 9A1FER-3 | 2026-08-31 13:08:14 | 46.32312 | 14.44128 | 72° | 93km/h | 8486m | -9.8m/s | -28.4°C | 33.2% | 0hPa | 2.5V | 00:00:00 | 02:42:41 | 00:00:00 | |
| PG1ADW-2 | 2026-08-31 13:08:11 | 46.32290 | 14.44030 | 72° | 93km/h | 8516m | -10.6m/s | -28.7°C | 33.9% | 0hPa | 2.5V | 00:00:00 | 00:00:00 | 00:00:00 | |
| 9A1FER-10 | 2026-08-31 13:08:10 | 46.32282 | 14.43998 | 73° | 93km/h | 8526m | -10.8m/s | -28.8°C | 34.3% | 0hPa | 2.5V | 00:00:00 | 02:42:37 | 00:00:00 | |
| OE5DRO-10 | 2026-08-31 13:08:09 | 46.32275 | 14.43965 | 72° | 93km/h | 8537m | -10.4m/s | -28.9°C | 34.5% | 0hPa | 2.5V | 00:00:00 | 00:00:00 | 00:00:00 | |
| 9A1FER-3 | 2026-08-31 13:07:59 | 46.32203 | 14.43641 | 73° | 93km/h | 8640m | -11.2m/s | -29.8°C | 35.0% | 0hPa | 2.5V | 00:00:00 | 02:42:26 | 00:00:00 | |
| 9A1FER-10 | 2026-08-31 13:07:55 | 46.32173 | 14.43511 | 72° | 111km/h | 8682m | -10.7m/s | -30.2°C | 35.1% | 0hPa | 2.5V | 00:00:00 | 02:42:22 | 00:00:00 | |
| OE3JTB-15 | 2026-08-31 13:07:54 | 46.32166 | 14.43478 | 73° | 102km/h | 8693m | -10.4m/s | -30.3°C | 35.2% | 0hPa | 2.5V | 00:00:00 | 02:42:21 | 00:00:00 | |
| PG1ADW-2 | 2026-08-31 13:07:51 | 46.32144 | 14.43380 | 72° | 91km/h | 8721m | -7.0m/s | -30.6°C | 36.7% | 0hPa | 2.5V | 00:00:00 | 00:00:00 | 00:00:00 | |
| OE5DRO-10 | 2026-08-31 13:07:50 | 46.32137 | 14.43348 | 73° | 91km/h | 8727m | -6.3m/s | -30.6°C | 37.1% | 0hPa | 2.5V | 00:00:00 | 00:00:00 | 00:00:00 | |
| 9A1FER-3 | 2026-08-31 13:07:42 | 46.32078 | 14.43093 | 72° | 91km/h | 8804m | -10.4m/s | -31.3°C | 37.5% | 0hPa | 2.5V | 00:00:00 | 02:42:09 | 00:00:00 | |
| OE8JPQ-2 | 2026-08-31 13:07:35 | 46.32025 | 14.42873 | 70° | 93km/h | 8875m | -10.4m/s | -31.9°C | 38.7% | 0hPa | 2.5V | 00:00:00 | 00:00:00 | 00:00:00 | |
| PG1ADW-2 | 2026-08-31 13:07:31 | 46.31994 | 14.42747 | 71° | 95km/h | 8911m | -9.8m/s | -32.3°C | 40.0% | 0hPa | 2.5V | 00:00:00 | 00:00:00 | 00:00:00 | |
| 9A1FER-3 | 2026-08-31 13:07:26 | 46.31955 | 14.42589 | 70° | 99km/h | 8960m | -11.7m/s | -32.7°C | 36.7% | 0hPa | 2.5V | 00:00:00 | 02:41:53 | 00:00:00 | |
| OE8JPQ-2 | 2026-08-31 13:07:15 | 46.31867 | 14.42224 | 71° | 104km/h | 9066m | -9.2m/s | -33.4°C | 28.9% | 0hPa | 2.5V | 00:00:00 | 00:00:00 | 00:00:00 | |
| OE5DRO-10 | 2026-08-31 13:07:12 | 46.31842 | 14.42121 | 71° | 104km/h | 9097m | -9.4m/s | -33.4°C | 26.4% | 0hPa | 2.5V | 00:00:00 | 00:00:00 | 00:00:00 | |
| PG1ADW-2 | 2026-08-31 13:07:11 | 46.31834 | 14.42087 | 71° | 104km/h | 9107m | -9.0m/s | -33.5°C | 26.3% | 0hPa | 2.5V | 00:00:00 | 02:41:38 | 00:00:00 | |
| OE8JPQ-2 | 2026-08-31 13:06:55 | 46.31695 | 14.41510 | 72° | 110km/h | 9270m | -9.9m/s | -34.6°C | 27.8% | 0hPa | 2.5V | 00:00:00 | 02:41:22 | 00:00:00 | |
| OE5DRO-10 | 2026-08-31 13:06:53 | 46.31678 | 14.41435 | 72° | 111km/h | 9288m | -7.8m/s | -34.7°C | 27.9% | 0hPa | 2.5V | 00:00:00 | 00:00:00 | 00:00:00 | |
| PG1ADW-2 | 2026-08-31 13:06:51 | 46.31661 | 14.41361 | 73° | 113km/h | 9308m | -9.4m/s | -34.9°C | 28.0% | 0hPa | 2.5V | 00:00:00 | 00:00:00 | 00:00:00 | |
| OE3JTB-15 | 2026-08-31 13:06:48 | 46.31636 | 14.41249 | 72° | 141km/h | 9338m | -10.8m/s | -35.1°C | 28.1% | 0hPa | 2.5V | 00:00:00 | 00:00:00 | 00:00:00 | |
| OE8JPQ-2 | 2026-08-31 13:06:35 | 46.31520 | 14.40742 | 73° | 124km/h | 9475m | -9.5m/s | -36.2°C | 21.1% | 0hPa | 2.5V | 00:00:00 | 00:00:00 | 00:00:00 | |
| OE5DRO-10 | 2026-08-31 13:06:34 | 46.31511 | 14.40701 | 73° | 124km/h | 9484m | -10.3m/s | -36.2°C | 20.4% | 0hPa | 2.6V | 00:00:00 | 00:00:00 | 00:00:00 | |
| 9A1FER-3 | 2026-08-31 13:06:31 | 46.31485 | 14.40577 | 73° | 126km/h | 9513m | -9.7m/s | -36.3°C | 18.4% | 0hPa | 2.5V | 08:06:00 | 02:40:58 | 00:00:00 | |
| 9A1FER-10 | 2026-08-31 13:06:18 | 46.31355 | 14.40014 | 71° | 131km/h | 9648m | -12.0m/s | -37.1°C | 17.2% | 0hPa | 2.6V | 00:00:00 | 02:40:45 | 00:00:00 | |
| OE5DRO-10 | 2026-08-31 13:06:15 | 46.31322 | 14.39878 | 71° | 131km/h | 9679m | -8.9m/s | -37.3°C | 17.3% | 0hPa | 2.5V | 00:00:00 | 00:00:00 | 00:00:00 | |
| PG1ADW-2 | 2026-08-31 13:06:11 | 46.31278 | 14.39695 | 72° | 131km/h | 9720m | -12.1m/s | -37.5°C | 16.0% | 0hPa | 2.5V | 00:00:00 | 00:00:00 | 00:00:00 | |
| OE5DXL-15 | 2026-08-31 13:06:09 | 46.31256 | 14.39603 | 72° | 133km/h | 9747m | -12.3m/s | -37.6°C | 15.8% | 0hPa | 2.5V | 00:00:00 | 00:00:00 | 00:00:00 | |
| 9A1FER-10 | 2026-08-31 13:06:03 | 46.31190 | 14.39333 | 72° | 131km/h | 9808m | -8.8m/s | -38.1°C | 15.9% | 0hPa | 2.5V | 00:00:00 | 02:40:30 | 00:00:00 | |
| 9A1FER-3 | 2026-08-31 13:06:00 | 46.31158 | 14.39198 | 72° | 137km/h | 9836m | -9.7m/s | -38.2°C | 15.7% | 0hPa | 2.5V | 00:00:00 | 02:40:27 | 00:00:00 | |
| OE5DRO-10 | 2026-08-31 13:05:56 | 46.31115 | 14.39015 | 72° | 135km/h | 9874m | -9.1m/s | -38.6°C | 15.4% | 0hPa | 2.5V | 00:00:00 | 00:00:00 | 00:00:00 | |
| OE8JPQ-2 | 2026-08-31 13:05:55 | 46.31105 | 14.38970 | 72° | 137km/h | 9885m | -11.4m/s | -38.7°C | 15.4% | 0hPa | 2.5V | 00:00:00 | 02:40:22 | 00:00:00 | |
| PG1ADW-2 | 2026-08-31 13:05:50 | 46.31050 | 14.38742 | 72° | 139km/h | 9941m | -11.1m/s | -39.1°C | 16.1% | 0hPa | 2.5V | 00:00:00 | 02:40:17 | 00:00:00 | |
| 9A1FER-10 | 2026-08-31 13:05:48 | 46.31029 | 14.38649 | 72° | 141km/h | 9963m | -12.7m/s | -39.2°C | 16.2% | 0hPa | 2.5V | 00:00:00 | 02:40:15 | 00:00:00 | |
| OE5DXL-15 | 2026-08-31 13:05:39 | 46.30932 | 14.38220 | 73° | 142km/h | 10064m | -10.8m/s | -39.8°C | 17.0% | 0hPa | 2.5V | 00:00:00 | 00:00:00 | 00:00:00 | |
| OE5DRO-10 | 2026-08-31 13:05:37 | 46.30911 | 14.38121 | 73° | 142km/h | 10085m | -8.4m/s | -39.9°C | 17.9% | 0hPa | 2.5V | 08:07:00 | 00:00:00 | 00:00:00 | |
| OE8JPQ-2 | 2026-08-31 13:05:35 | 46.30889 | 14.38022 | 73° | 142km/h | 10100m | -11.2m/s | -40.0°C | 18.9% | 0hPa | 2.5V | 08:07:00 | 00:00:00 | 00:00:00 | |
| PG1ADW-2 | 2026-08-31 13:05:30 | 46.30834 | 14.37773 | 72° | 142km/h | 10154m | -10.1m/s | -40.4°C | 21.7% | 0hPa | 2.5V | 08:07:00 | 00:00:00 | 00:00:00 | |
| 9A1FER-10 | 2026-08-31 13:05:28 | 46.30812 | 14.37674 | 73° | 142km/h | 10175m | -10.1m/s | -40.6°C | 22.2% | 0hPa | 2.5V | 08:07:00 | 02:39:55 | 00:00:00 | |
| OE5DRO-10 | 2026-08-31 13:05:18 | 46.30699 | 14.37182 | 72° | 144km/h | 10285m | -10.5m/s | -41.5°C | 23.8% | 0hPa | 2.5V | 00:00:00 | 00:00:00 | 00:00:00 | |
| OE8JPQ-2 | 2026-08-31 13:05:15 | 46.30664 | 14.37036 | 71° | 144km/h | 10316m | -9.9m/s | -41.7°C | 24.6% | 0hPa | 2.5V | 00:00:00 | 00:00:00 | 00:00:00 | |
| PG1ADW-2 | 2026-08-31 13:05:10 | 46.30606 | 14.36789 | 73° | 146km/h | 10371m | -12.8m/s | 0°C | 0% | 0hPa | 2.5V | 00:00:00 | 00:00:00 | 00:00:00 | |
| 9A1FER-3 | 2026-08-31 13:05:08 | 46.30583 | 14.36688 | 73° | 144km/h | 10394m | -10.9m/s | -42.3°C | 27.8% | 0hPa | 2.5V | 00:00:00 | 02:39:35 | 00:00:00 | |
| OE5DRO-10 | 2026-08-31 13:05:00 | 46.30487 | 14.36230 | 74° | 146km/h | 10501m | -9.4m/s | -43.1°C | 28.7% | 0hPa | 2.6V | 00:00:00 | 00:00:00 | 00:00:00 | |
| OE8JPQ-2 | 2026-08-31 13:04:55 | 46.30446 | 14.36026 | 74° | 148km/h | 10538m | -10.3m/s | -43.4°C | 28.9% | 0hPa | 2.6V | 00:00:00 | 02:39:22 | 00:00:00 | |
| 9A1FER-3 | 2026-08-31 13:04:53 | 46.30425 | 14.35924 | 73° | 148km/h | 10558m | -9.4m/s | -43.6°C | 29.1% | 0hPa | 2.6V | 00:00:00 | 02:39:20 | 00:00:00 | |
| DO3MHA-11 | 2026-08-31 13:04:51 | 46.30403 | 14.35823 | 73° | 146km/h | 10578m | -10.1m/s | -43.7°C | 28.9% | 0hPa | 2.6V | 00:00:00 | 02:39:18 | 00:00:00 | |
| PG1ADW-2 | 2026-08-31 13:04:50 | 46.30393 | 14.35771 | 73° | 148km/h | 10588m | -10.0m/s | 0°C | 0% | 0hPa | 2.6V | 00:00:00 | 00:00:00 | 00:00:00 | |
| DO3MHA-11 | 2026-08-31 13:04:41 | 46.30299 | 14.35309 | 74° | 150km/h | 10686m | -12.6m/s | -44.5°C | 28.7% | 0hPa | 2.6V | 00:00:00 | 02:39:08 | 00:00:00 | |
| 9A1FER-10 | 2026-08-31 13:04:40 | 46.30288 | 14.35257 | 74° | 150km/h | 10698m | -12.2m/s | -44.5°C | 28.8% | 0hPa | 2.6V | 00:00:00 | 02:39:07 | 00:00:00 | |
| OE5DXL-15 | 2026-08-31 13:04:39 | 46.30277 | 14.35205 | 74° | 150km/h | 10711m | -12.2m/s | -44.6°C | 29.2% | 0hPa | 2.6V | 00:00:00 | 00:00:00 | 00:00:00 | |
| 9A1FER-3 | 2026-08-31 13:04:38 | 46.30267 | 14.35152 | 74° | 150km/h | 10722m | -10.2m/s | -44.7°C | 29.7% | 0hPa | 2.6V | 00:00:00 | 02:39:05 | 00:00:00 | |
| OE8JPQ-2 | 2026-08-31 13:04:35 | 46.30234 | 14.34996 | 74° | 150km/h | 10755m | -12.2m/s | -44.9°C | 30.1% | 0hPa | 2.6V | 00:00:00 | 00:00:00 | 00:00:00 | |
| DO3MHA-11 | 2026-08-31 13:04:31 | 46.30192 | 14.34787 | 74° | 150km/h | 10803m | -12.2m/s | -45.3°C | 31.1% | 0hPa | 2.6V | 00:00:00 | 02:38:58 | 00:00:00 | |
| PG1ADW-2 | 2026-08-31 13:04:30 | 46.30181 | 14.34735 | 74° | 150km/h | 10814m | -9.7m/s | 0°C | 0% | 0hPa | 2.6V | 00:00:00 | 02:38:57 | 00:00:00 | |
| 9A1FER-3 | 2026-08-31 13:04:23 | 46.30106 | 14.34369 | 74° | 151km/h | 10893m | -10.2m/s | -46.1°C | 32.9% | 0hPa | 2.6V | 00:00:00 | 02:38:50 | 00:00:00 | |
| DO3MHA-11 | 2026-08-31 13:04:21 | 46.30085 | 14.34264 | 75° | 150km/h | 10917m | -12.9m/s | -46.3°C | 33.4% | 0hPa | 2.6V | 00:00:00 | 02:38:48 | 00:00:00 | |
| OE8JPQ-2 | 2026-08-31 13:04:15 | 46.30023 | 14.33948 | 75° | 151km/h | 10986m | -11.6m/s | -46.9°C | 35.1% | 0hPa | 2.6V | 00:00:00 | 00:00:00 | 00:00:00 | |
| DO3MHA-11 | 2026-08-31 13:04:11 | 46.29982 | 14.33736 | 75° | 151km/h | 11033m | -10.3m/s | -47.4°C | 35.9% | 0hPa | 2.6V | 00:00:00 | 02:38:38 | 00:00:00 | |
| OE5DXL-15 | 2026-08-31 13:04:09 | 46.29961 | 14.33630 | 75° | 153km/h | 11056m | -12.3m/s | -47.6°C | 35.9% | 0hPa | 2.5V | 00:00:00 | 00:00:00 | 00:00:00 | |
| 9A1FER-15 | 2026-08-31 13:04:06 | 46.29930 | 14.33470 | 75° | 151km/h | 11093m | -11.5m/s | -47.9°C | 36.8% | 0hPa | 2.5V | 00:00:00 | 02:38:33 | 00:00:00 | |
| 9A1FER-3 | 2026-08-31 13:04:04 | 46.29910 | 14.33364 | 75° | 151km/h | 11114m | -10.4m/s | -48.0°C | 36.8% | 0hPa | 2.5V | 00:00:00 | 02:38:31 | 00:00:00 | |
| OE5DRO-10 | 2026-08-31 13:04:02 | 46.29890 | 14.33257 | 75° | 153km/h | 11133m | -8.1m/s | -48.1°C | 36.4% | 0hPa | 2.5V | 00:00:00 | 00:00:00 | 00:00:00 | |
| DO3MHA-11 | 2026-08-31 13:04:01 | 46.29880 | 14.33204 | 75° | 151km/h | 11141m | -9.6m/s | -48.2°C | 35.8% | 0hPa | 2.5V | 00:00:00 | 02:38:28 | 00:00:00 | |
| OE3JTB-15 | 2026-08-31 13:03:59 | 46.29859 | 14.33099 | 75° | 155km/h | 11164m | -11.5m/s | -48.4°C | 35.2% | 0hPa | 2.5V | 00:00:00 | 00:00:00 | 00:00:00 | |
| OE8JPQ-2 | 2026-08-31 13:03:56 | 46.29818 | 14.32886 | 75° | 155km/h | 11212m | -10.1m/s | -48.7°C | 36.1% | 0hPa | 2.5V | 00:00:00 | 02:38:22 | 00:00:00 | |
| 9A1FER-15 | 2026-08-31 13:03:51 | 46.29777 | 14.32670 | 75° | 155km/h | 11247m | -8.7m/s | -49.0°C | 36.5% | 0hPa | 2.5V | 00:00:00 | 02:38:18 | 00:00:00 | |
| DO3MHA-11 | 2026-08-31 13:03:49 | 46.29756 | 14.32561 | 75° | 155km/h | 11266m | -9.6m/s | -49.2°C | 36.6% | 0hPa | 2.5V | 00:00:00 | 02:38:16 | 00:00:00 | |
| PG1ADW-2 | 2026-08-31 13:03:45 | 46.29714 | 14.32342 | 75° | 155km/h | 11304m | -11.2m/s | 0°C | 0% | 0hPa | 2.5V | 00:00:00 | 00:00:00 | 00:00:00 | |
| OE5DRO-10 | 2026-08-31 13:03:43 | 46.29692 | 14.32232 | 75° | 157km/h | 11323m | -8.2m/s | -49.5°C | 36.8% | 0hPa | 2.5V | 00:00:00 | 00:00:00 | 00:00:00 | |
| DO3MHA-11 | 2026-08-31 13:03:39 | 46.29651 | 14.32013 | 75° | 157km/h | 11365m | -10.7m/s | -49.8°C | 37.7% | 0hPa | 2.5V | 08:09:00 | 02:38:06 | 00:00:00 | |
| OE5DXL-15 | 2026-08-31 13:03:38 | 46.29640 | 14.31958 | 75° | 157km/h | 11375m | -8.5m/s | -49.8°C | 38.2% | 0hPa | 2.5V | 00:00:00 | 00:00:00 | 00:00:00 | |
| 9A1FER-10 | 2026-08-31 13:03:36 | 46.29619 | 14.31849 | 75° | 157km/h | 11392m | -8.9m/s | -50.0°C | 37.9% | 0hPa | 2.6V | 00:00:00 | 02:38:03 | 00:00:00 | |
| OE8JPQ-2 | 2026-08-31 13:03:35 | 46.29608 | 14.31794 | 75° | 157km/h | 11401m | -10.5m/s | -50.0°C | 38.3% | 0hPa | 2.6V | 00:00:00 | 00:00:00 | 00:00:00 | |
| 9A1FER-3 | 2026-08-31 13:03:34 | 46.29597 | 14.31739 | 75° | 157km/h | 11412m | -10.6m/s | -50.1°C | 38.6% | 0hPa | 2.6V | 08:09:00 | 02:38:01 | 00:00:00 | |
| OE3JTB-15 | 2026-08-31 13:03:30 | 46.29554 | 14.31518 | 75° | 157km/h | 11447m | -9.8m/s | -50.4°C | 38.9% | 0hPa | 2.5V | 00:00:00 | 02:37:57 | 00:00:00 | |
| DO3MHA-11 | 2026-08-31 13:03:29 | 46.29543 | 14.31463 | 75° | 157km/h | 11457m | -9.5m/s | -50.5°C | 39.0% | 0hPa | 2.5V | 00:00:00 | 02:37:56 | 00:00:00 | |
| OE5DRO-10 | 2026-08-31 13:03:24 | 46.29490 | 14.31188 | 75° | 155km/h | 11505m | -11.1m/s | -50.9°C | 38.2% | 0hPa | 2.5V | 00:00:00 | 00:00:00 | 00:00:00 | |
| 9A1FER-15 | 2026-08-31 13:03:21 | 46.29458 | 14.31023 | 75° | 157km/h | 11536m | -9.6m/s | -51.2°C | 38.6% | 0hPa | 2.5V | 00:00:00 | 02:37:48 | 00:00:00 | |
| 9A1FER-3 | 2026-08-31 13:03:19 | 46.29436 | 14.30913 | 75° | 155km/h | 11554m | -8.8m/s | -51.3°C | 38.5% | 0hPa | 2.5V | 00:00:00 | 02:37:46 | 00:00:00 | |
| OE8JPQ-2 | 2026-08-31 13:03:15 | 46.29394 | 14.30692 | 76° | 153km/h | 11591m | -9.7m/s | -51.6°C | 38.1% | 0hPa | 2.5V | 00:00:00 | 00:00:00 | 00:00:00 | |
| DO3MHA-11 | 2026-08-31 13:03:13 | 46.29374 | 14.30582 | 76° | 155km/h | 11609m | -9.6m/s | -51.8°C | 37.4% | 0hPa | 2.5V | 00:00:00 | 02:37:40 | 00:00:00 | |
| OE5DXL-15 | 2026-08-31 13:03:08 | 46.29323 | 14.30310 | 75° | 153km/h | 11661m | -9.9m/s | -52.3°C | 36.1% | 0hPa | 2.5V | 00:00:00 | 00:00:00 | 00:00:00 | |
| 9A1FER-15 | 2026-08-31 13:03:06 | 46.29302 | 14.30202 | 75° | 153km/h | 11681m | -10.4m/s | -52.4°C | 35.0% | 0hPa | 2.5V | 00:00:00 | 02:37:33 | 00:00:00 | |
| OE5DRO-10 | 2026-08-31 13:03:05 | 46.29292 | 14.30147 | 75° | 153km/h | 11692m | -12.0m/s | -52.5°C | 34.2% | 0hPa | 2.5V | 00:00:00 | 00:00:00 | 00:00:00 | |
| 9A1FER-3 | 2026-08-31 13:03:04 | 46.29281 | 14.30093 | 75° | 153km/h | 11704m | -11.6m/s | -52.6°C | 33.5% | 0hPa | 2.5V | 00:00:00 | 02:37:31 | 00:00:00 | |
| 9A1FER-10 | 2026-08-31 13:03:02 | 46.29260 | 14.29986 | 75° | 153km/h | 11727m | -12.3m/s | -52.8°C | 32.2% | 0hPa | 2.5V | 00:00:00 | 02:37:29 | 00:00:00 | |
| OE3JTB-15 | 2026-08-31 13:03:01 | 46.29250 | 14.29932 | 75° | 155km/h | 11740m | -11.8m/s | -52.9°C | 31.8% | 0hPa | 2.5V | 08:09:00 | 00:00:00 | 00:00:00 | |
| IV3AMH | 2026-08-31 13:02:56 | 46.29210 | 14.29716 | 77° | 153km/h | 11781m | -11.2m/s | -53.2°C | 26.0% | 0hPa | 2.5V | 00:00:00 | 00:00:00 | 00:00:00 | |
| OE8JPQ-2 | 2026-08-31 13:02:55 | 46.29192 | 14.29607 | 77° | 155km/h | 11804m | -12.0m/s | -53.2°C | 29.3% | 0hPa | 2.5V | 00:00:00 | 02:37:22 | 00:00:00 | |
| PG1ADW-2 | 2026-08-31 13:02:53 | 46.29174 | 14.29498 | 78° | 157km/h | 11829m | -12.7m/s | 0°C | 0% | 0hPa | 2.5V | 00:00:00 | 00:00:00 | 00:00:00 | |
| 9A1FER-3 | 2026-08-31 13:02:49 | 46.29140 | 14.29280 | 78° | 155km/h | 11877m | -9.7m/s | -53.5°C | 29.2% | 0hPa | 2.5V | 00:00:00 | 02:37:16 | 00:00:00 | |
| DO3MHA-11 | 2026-08-31 13:02:46 | 46.29115 | 14.29116 | 78° | 153km/h | 11911m | -12.0m/s | -53.7°C | 29.1% | 0hPa | 2.6V | 00:00:00 | 02:37:13 | 00:00:00 | |
| 9A1FER-15 | 2026-08-31 13:02:44 | 46.29097 | 14.29007 | 78° | 155km/h | 11933m | -8.9m/s | -53.9°C | 29.2% | 0hPa | 2.6V | 00:00:00 | 02:37:11 | 00:00:00 | |
| OE5DXL-15 | 2026-08-31 13:02:38 | 46.29045 | 14.28676 | 77° | 153km/h | 11998m | -9.4m/s | -54.4°C | 29.6% | 0hPa | 2.6V | 00:00:00 | 00:00:00 | 00:00:00 | |
| OE8JPQ-2 | 2026-08-31 13:02:35 | 46.29019 | 14.28509 | 78° | 155km/h | 12029m | -10.7m/s | -54.6°C | 28.9% | 0hPa | 2.6V | 08:10:00 | 00:00:00 | 00:00:00 | |
| 9A1FER-3 | 2026-08-31 13:02:34 | 46.29010 | 14.28453 | 78° | 155km/h | 12041m | -13.1m/s | -54.7°C | 28.9% | 0hPa | 2.5V | 00:00:00 | 02:37:01 | 00:00:00 | |
| OE3JTB-15 | 2026-08-31 13:02:32 | 46.28994 | 14.28341 | 79° | 153km/h | 12065m | -11.1m/s | -54.8°C | 28.9% | 0hPa | 2.5V | 00:00:00 | 00:00:00 | 00:00:00 | |
| PG1ADW-2 | 2026-08-31 13:02:31 | 46.28986 | 14.28285 | 79° | 153km/h | 12076m | -10.6m/s | 0°C | 0% | 0hPa | 2.5V | 00:00:00 | 00:00:00 | 00:00:00 | |
| 9A1FER-15 | 2026-08-31 13:02:29 | 46.28971 | 14.28174 | 79° | 153km/h | 12096m | -10.5m/s | -55.0°C | 28.1% | 0hPa | 2.5V | 00:00:00 | 02:36:56 | 00:00:00 | |
| OE5DRO-10 | 2026-08-31 13:02:27 | 46.28956 | 14.28062 | 79° | 153km/h | 12117m | -10.6m/s | -55.1°C | 27.2% | 0hPa | 2.5V | 00:00:00 | 00:00:00 | 00:00:00 | |
| IV3AMH | 2026-08-31 13:02:19 | 46.28895 | 14.27623 | 80° | 151km/h | 12198m | -7.7m/s | -55.6°C | 24.2% | 0hPa | 2.5V | 00:00:00 | 00:00:00 | 00:00:00 | |
| 9A1FER-15 | 2026-08-31 13:02:14 | 46.28860 | 14.27349 | 80° | 151km/h | 12242m | -10.6m/s | -56.0°C | 28.1% | 0hPa | 2.5V | 08:10:00 | 02:36:41 | 00:00:00 | |
| OE5DXL-15 | 2026-08-31 13:02:08 | 46.28820 | 14.27023 | 81° | 148km/h | 12304m | -8.9m/s | -56.5°C | 29.0% | 0hPa | 2.5V | 08:10:00 | 00:00:00 | 00:00:00 | |
| PG1ADW-2 | 2026-08-31 13:02:06 | 46.28807 | 14.26916 | 80° | 148km/h | 12327m | -11.6m/s | 0°C | 0% | 0hPa | 2.6V | 00:00:00 | 02:36:33 | 00:00:00 | |
| 9A1FER-3 | 2026-08-31 13:02:04 | 46.28793 | 14.26808 | 80° | 148km/h | 12348m | -9.8m/s | -56.7°C | 29.9% | 0hPa | 2.6V | 00:00:00 | 02:36:31 | 00:00:00 | |
| OE3JTB-15 | 2026-08-31 13:02:02 | 46.28780 | 14.26700 | 81° | 148km/h | 12367m | -9.3m/s | -56.7°C | 29.5% | 0hPa | 2.5V | 00:00:00 | 02:36:29 | 00:00:00 | |
| DO3MHA-11 | 2026-08-31 13:02:01 | 46.28774 | 14.26646 | 80° | 148km/h | 12377m | -10.3m/s | -56.7°C | 29.2% | 0hPa | 2.5V | 00:00:00 | 02:36:28 | 00:00:00 | |
| 9A1FER-15 | 2026-08-31 13:01:59 | 46.28760 | 14.26539 | 80° | 148km/h | 12397m | -11.1m/s | -56.8°C | 28.7% | 0hPa | 2.5V | 00:00:00 | 02:36:26 | 00:00:00 | |
| IV3AMH | 2026-08-31 13:01:58 | 46.28760 | 14.26539 | 81° | 150km/h | 12397m | -11.2m/s | -56.9°C | 24.0% | 0hPa | 2.5V | 00:00:00 | 00:00:00 | 00:00:00 | |
| OE8JPQ-2 | 2026-08-31 13:01:55 | 46.28732 | 14.26327 | 79° | 148km/h | 12445m | -10.7m/s | -57.0°C | 27.4% | 0hPa | 2.5V | 00:00:00 | 02:36:22 | 00:00:00 | |
| DO3MHA-11 | 2026-08-31 13:01:51 | 46.28704 | 14.26115 | 80° | 148km/h | 12494m | -12.8m/s | -57.3°C | 27.4% | 0hPa | 2.5V | 00:00:00 | 02:36:18 | 00:00:00 | |
| 9A1FER-3 | 2026-08-31 13:01:50 | 46.28690 | 14.26009 | 80° | 146km/h | 12517m | -9.9m/s | -57.3°C | 27.5% | 0hPa | 2.5V | 00:00:00 | 02:36:16 | 00:00:00 | |
| 9A1FER-10 | 2026-08-31 13:01:44 | 46.28657 | 14.25743 | 81° | 146km/h | 12566m | -8.7m/s | -57.4°C | 26.4% | 0hPa | 2.5V | 00:00:00 | 02:36:11 | 00:00:00 | |
| DO3MHA-11 | 2026-08-31 13:01:41 | 46.28638 | 14.25586 | 80° | 146km/h | 12597m | -11.5m/s | -57.6°C | 26.0% | 0hPa | 2.6V | 00:00:00 | 02:36:08 | 00:00:00 | |
| OE5DXL-15 | 2026-08-31 13:01:38 | 46.28619 | 14.25430 | 80° | 139km/h | 12630m | -10.5m/s | -57.8°C | 25.6% | 0hPa | 2.6V | 00:00:00 | 00:00:00 | 00:00:00 | |
| OE8JPQ-2 | 2026-08-31 13:01:35 | 46.28600 | 14.25273 | 82° | 141km/h | 12658m | -9.7m/s | -58.0°C | 24.7% | 0hPa | 2.6V | 00:00:00 | 00:00:00 | 00:00:00 | |
| DO3MHA-12 | 2026-08-31 13:01:34 | 46.28595 | 14.25221 | 82° | 124km/h | 12668m | -9.7m/s | -58.1°C | 24.3% | 0hPa | 2.5V | 00:00:00 | 02:36:01 | 00:00:00 | |
| OE3JTB-15 | 2026-08-31 13:01:33 | 46.28590 | 14.25168 | 83° | 135km/h | 12678m | -10.3m/s | -58.1°C | 24.0% | 0hPa | 2.5V | 00:00:00 | 00:00:00 | 00:00:00 | |
| DO3MHA-11 | 2026-08-31 13:01:31 | 46.28580 | 14.25063 | 84° | 142km/h | 12699m | -10.3m/s | -58.1°C | 23.7% | 0hPa | 2.6V | 00:00:00 | 02:35:58 | 00:00:00 | |
| OE5DRO-10 | 2026-08-31 13:01:30 | 46.28576 | 14.25011 | 84° | 137km/h | 12709m | -10.0m/s | -58.2°C | 23.9% | 0hPa | 2.6V | 00:00:00 | 00:00:00 | 00:00:00 | |
| 9A1FER-15 | 2026-08-31 13:01:29 | 46.28572 | 14.24959 | 84° | 137km/h | 12718m | -8.8m/s | -58.2°C | 23.7% | 0hPa | 2.6V | 00:00:00 | 02:35:56 | 00:00:00 | |
| PG1ADW-2 | 2026-08-31 13:01:24 | 46.28553 | 14.24702 | 84° | 139km/h | 12757m | -7.9m/s | 0°C | 0% | 0hPa | 2.5V | 00:00:00 | 00:00:00 | 00:00:00 | |
| DO3MHA-11 | 2026-08-31 13:01:21 | 46.28541 | 14.24551 | 83° | 133km/h | 12782m | -10.0m/s | -58.3°C | 21.8% | 0hPa | 2.5V | 00:00:00 | 02:35:48 | 00:00:00 | |
| IV3AMH | 2026-08-31 13:01:20 | 46.28541 | 14.24551 | 84° | 137km/h | 12782m | -10.0m/s | -58.3°C | 17.3% | 0hPa | 2.5V | 00:00:00 | 00:00:00 | 00:00:00 | |
| 9A1FER-3 | 2026-08-31 13:01:19 | 46.28532 | 14.24453 | 83° | 130km/h | 12801m | -9.2m/s | -58.2°C | 20.9% | 0hPa | 2.5V | 08:11:00 | 02:35:46 | 00:00:00 | |
| OE8JPQ-2 | 2026-08-31 13:01:15 | 46.28513 | 14.24262 | 82° | 128km/h | 12839m | -10.4m/s | -58.3°C | 19.5% | 0hPa | 2.6V | 00:00:00 | 00:00:00 | 00:00:00 | |
| 9A1FER-15 | 2026-08-31 13:01:14 | 46.28508 | 14.24215 | 82° | 128km/h | 12849m | -10.4m/s | -58.3°C | 19.1% | 0hPa | 2.6V | 00:00:00 | 02:35:41 | 00:00:00 | |
| DO3MHA-11 | 2026-08-31 13:01:11 | 46.28494 | 14.24074 | 83° | 128km/h | 12883m | -13.0m/s | -58.4°C | 18.2% | 0hPa | 2.6V | 08:11:00 | 02:35:38 | 00:00:00 | |
| OE5DXL-15 | 2026-08-31 13:01:08 | 46.28480 | 14.23934 | 83° | 124km/h | 12919m | -11.9m/s | -58.5°C | 18.2% | 0hPa | 2.6V | 00:00:00 | 00:00:00 | 00:00:00 | |
| 9A1FER-10 | 2026-08-31 13:01:04 | 46.28463 | 14.23747 | 83° | 124km/h | 12962m | -10.4m/s | -58.4°C | 18.1% | 0hPa | 2.6V | 00:00:00 | 02:35:31 | 00:00:00 | |
| DO3MHA-11 | 2026-08-31 13:01:01 | 46.28449 | 14.23610 | 82° | 124km/h | 12993m | -12.4m/s | -58.5°C | 17.8% | 0hPa | 2.6V | 00:00:00 | 02:35:28 | 00:00:00 | |
| 9A1FER-15 | 2026-08-31 13:00:59 | 46.28440 | 14.23520 | 81° | 124km/h | 13016m | -12.1m/s | -58.6°C | 17.5% | 0hPa | 2.6V | 00:00:00 | 02:35:26 | 00:00:00 | |
| OE8JPQ-2 | 2026-08-31 13:00:55 | 46.28420 | 14.23341 | 82° | 122km/h | 13066m | -10.9m/s | -58.9°C | 18.1% | 0hPa | 2.6V | 00:00:00 | 02:35:22 | 00:00:00 | |
| OE5DRO-10 | 2026-08-31 13:00:52 | 46.28407 | 14.23207 | 83° | 122km/h | 13096m | -10.7m/s | -59.0°C | 18.2% | 0hPa | 2.6V | 00:00:00 | 00:00:00 | 00:00:00 | |
| DO3MHA-11 | 2026-08-31 13:00:51 | 46.28403 | 14.23162 | 83° | 124km/h | 13107m | -10.7m/s | -59.0°C | 18.2% | 0hPa | 2.5V | 00:00:00 | 02:35:18 | 00:00:00 | |
| 9A1FER-10 | 2026-08-31 13:00:49 | 46.28394 | 14.23072 | 82° | 122km/h | 13129m | -11.3m/s | -59.1°C | 18.1% | 0hPa | 2.5V | 00:00:00 | 02:35:16 | 00:00:00 | |
| 9A1FER-15 | 2026-08-31 13:00:44 | 46.28372 | 14.22850 | 82° | 120km/h | 13182m | -10.3m/s | -59.2°C | 18.3% | 0hPa | 2.5V | 00:00:00 | 02:35:11 | 00:00:00 | |
| IV3AMH | 2026-08-31 13:00:43 | 46.28372 | 14.22850 | 83° | 122km/h | 13182m | -10.3m/s | -59.2°C | 13.9% | 0hPa | 2.6V | 08:12:00 | 00:00:00 | 00:00:00 | |
| DO3MHA-11 | 2026-08-31 13:00:41 | 46.28358 | 14.22718 | 82° | 120km/h | 13212m | -12.3m/s | -59.2°C | 17.8% | 0hPa | 2.6V | 00:00:00 | 02:35:08 | 00:00:00 | |
| OE5DXL-15 | 2026-08-31 13:00:38 | 46.28344 | 14.22586 | 81° | 115km/h | 13247m | -11.3m/s | -59.4°C | 18.4% | 0hPa | 2.5V | 00:00:00 | 00:00:00 | 00:00:00 | |
| OE8JPQ-2 | 2026-08-31 13:00:35 | 46.28329 | 14.22457 | 81° | 115km/h | 13276m | -9.8m/s | -59.5°C | 18.3% | 0hPa | 2.6V | 00:00:00 | 00:00:00 | 00:00:00 | |
| 9A1FER-10 | 2026-08-31 13:00:34 | 46.28324 | 14.22415 | 81° | 117km/h | 13286m | -11.0m/s | -59.6°C | 18.2% | 0hPa | 2.6V | 00:00:00 | 02:35:01 | 00:00:00 | |
| OE5DRO-10 | 2026-08-31 13:00:33 | 46.28319 | 14.22372 | 81° | 115km/h | 13297m | -11.4m/s | -59.6°C | 18.0% | 0hPa | 2.6V | 00:00:00 | 00:00:00 | 00:00:00 | |
| DO3MHA-11 | 2026-08-31 13:00:31 | 46.28309 | 14.22286 | 81° | 117km/h | 13322m | -15.2m/s | -59.6°C | 17.6% | 0hPa | 2.6V | 00:00:00 | 02:34:58 | 00:00:00 | |
| 9A1FER-15 | 2026-08-31 13:00:29 | 46.28299 | 14.22202 | 81° | 115km/h | 13351m | -13.7m/s | -59.6°C | 17.6% | 0hPa | 2.6V | 00:00:00 | 02:34:56 | 00:00:00 | |
| DO3MHA-11 | 2026-08-31 13:00:21 | 46.28259 | 14.21868 | 80° | 111km/h | 13451m | -12.1m/s | -59.4°C | 15.7% | 0hPa | 2.6V | 00:00:00 | 02:34:48 | 00:00:00 | |
| 9A1FER-10 | 2026-08-31 13:00:19 | 46.28247 | 14.21787 | 79° | 111km/h | 13476m | -11.9m/s | -59.3°C | 15.2% | 0hPa | 2.6V | 00:00:00 | 02:34:46 | 00:00:00 | |
| OE8JPQ-2 | 2026-08-31 13:00:16 | 46.28225 | 14.21627 | 78° | 111km/h | 13523m | -9.5m/s | -59.6°C | 15.1% | 0hPa | 2.6V | 00:00:00 | 00:00:00 | 00:00:00 | |
| DO3MHA-11 | 2026-08-31 13:00:11 | 46.28201 | 14.21468 | 78° | 111km/h | 13564m | -11.5m/s | -59.8°C | 15.3% | 0hPa | 2.6V | 00:00:00 | 02:34:38 | 00:00:00 | |
| DO3MHA-12 | 2026-08-31 13:00:10 | 46.28195 | 14.21428 | 79° | 111km/h | 13575m | -9.4m/s | -59.8°C | 15.5% | 0hPa | 2.5V | 00:00:00 | 02:34:37 | 00:00:00 | |
| OE5DXL-15 | 2026-08-31 13:00:08 | 46.28183 | 14.21348 | 78° | 110km/h | 13591m | -7.1m/s | -59.9°C | 15.5% | 0hPa | 2.5V | 00:00:00 | 00:00:00 | 00:00:00 | |
| IV3AMH | 2026-08-31 13:00:05 | 46.28171 | 14.21269 | 78° | 111km/h | 13606m | -8.1m/s | -60.1°C | 11.0% | 0hPa | 2.5V | 00:00:00 | 00:00:00 | 00:00:00 | |
| 9A1FER-3 | 2026-08-31 13:00:04 | 46.28158 | 14.21190 | 77° | 110km/h | 13626m | -10.3m/s | -60.2°C | 14.9% | 0hPa | 2.5V | 00:00:00 | 02:34:31 | 00:00:00 | |
| DO3MHA-11 | 2026-08-31 13:00:01 | 46.28137 | 14.21073 | 76° | 110km/h | 13655m | -10.8m/s | -60.4°C | 14.9% | 0hPa | 2.5V | 00:00:00 | 02:34:28 | 00:00:00 | |
| DO3MHA-12 | 2026-08-31 13:00:00 | 46.28130 | 14.21034 | 75° | 110km/h | 13666m | -9.8m/s | -60.4°C | 14.9% | 0hPa | 2.5V | 00:00:00 | 02:34:27 | 00:00:00 | |
| 9A1FER-15 | 2026-08-31 12:59:59 | 46.28122 | 14.20995 | 75° | 110km/h | 13676m | -11.1m/s | -60.5°C | 14.7% | 0hPa | 2.5V | 08:12:00 | 02:34:26 | 00:00:00 | |
| OE8JPQ-2 | 2026-08-31 12:59:55 | 46.28091 | 14.20840 | 73° | 108km/h | 13717m | -11.1m/s | -60.7°C | 14.5% | 0hPa | 2.6V | 00:00:00 | 02:34:22 | 00:00:00 | |
| DO3MHA-12 | 2026-08-31 12:59:50 | 46.28049 | 14.20650 | 73° | 108km/h | 13769m | -9.0m/s | -60.9°C | 14.4% | 0hPa | 2.6V | 00:00:00 | 02:34:17 | 00:00:00 | |
| 9A1FER-3 | 2026-08-31 12:59:49 | 46.28041 | 14.20612 | 73° | 108km/h | 13778m | -8.1m/s | -61.0°C | 14.3% | 0hPa | 2.6V | 00:00:00 | 02:34:16 | 00:00:00 | |
| 9A1FER-15 | 2026-08-31 12:59:44 | 46.28001 | 14.20423 | 74° | 110km/h | 13830m | -9.5m/s | -61.3°C | 14.6% | 0hPa | 2.5V | 00:00:00 | 02:34:11 | 00:00:00 | |
| DO3MHA-11 | 2026-08-31 12:59:41 | 46.27977 | 14.20311 | 73° | 110km/h | 13857m | -10.4m/s | -61.2°C | 14.3% | 0hPa | 2.5V | 08:13:00 | 02:34:08 | 00:00:00 | |
| DO3MHA-12 | 2026-08-31 12:59:40 | 46.27969 | 14.20273 | 73° | 111km/h | 13867m | -11.7m/s | -61.2°C | 14.2% | 0hPa | 2.5V | 08:13:00 | 02:34:07 | 00:00:00 | |
| 9A1FER-10 | 2026-08-31 12:59:39 | 46.27961 | 14.20236 | 73° | 111km/h | 13879m | -10.6m/s | -61.2°C | 14.2% | 0hPa | 2.5V | 08:13:00 | 02:34:06 | 00:00:00 | |
| OE5DXL-15 | 2026-08-31 12:59:38 | 46.27953 | 14.20198 | 74° | 106km/h | 13889m | -9.0m/s | -61.2°C | 14.4% | 0hPa | 2.5V | 00:00:00 | 00:00:00 | 00:00:00 | |
| OE8JPQ-2 | 2026-08-31 12:59:35 | 46.27929 | 14.20082 | 74° | 108km/h | 13918m | -10.4m/s | -61.3°C | 13.9% | 0hPa | 2.5V | 08:13:00 | 00:00:00 | 00:00:00 | |
| 9A1FER-3 | 2026-08-31 12:59:34 | 46.27921 | 14.20043 | 75° | 110km/h | 13929m | -11.4m/s | -61.3°C | 13.6% | 0hPa | 2.6V | 00:00:00 | 02:34:01 | 00:00:00 | |
| DO3MHA-11 | 2026-08-31 12:59:31 | 46.27899 | 14.19923 | 77° | 110km/h | 13966m | -12.3m/s | -61.4°C | 13.1% | 0hPa | 2.6V | 00:00:00 | 02:33:58 | 00:00:00 | |
| DO3MHA-12 | 2026-08-31 12:59:30 | 46.27893 | 14.19883 | 78° | 108km/h | 13980m | -15.6m/s | -61.4°C | 12.8% | 0hPa | 2.6V | 00:00:00 | 02:33:57 | 00:00:00 | |
| 9A1FER-15 | 2026-08-31 12:59:29 | 46.27887 | 14.19843 | 79° | 106km/h | 13995m | -14.8m/s | -61.4°C | 12.8% | 0hPa | 2.6V | 00:00:00 | 02:33:56 | 00:00:00 | |
| IV3AMH | 2026-08-31 12:59:28 | 46.27887 | 14.19843 | 79° | 111km/h | 13995m | -14.9m/s | -61.4°C | 8.5% | 0hPa | 2.6V | 00:00:00 | 00:00:00 | 00:00:00 | |
| 9A1FER-10 | 2026-08-31 12:59:24 | 46.27859 | 14.19648 | 78° | 104km/h | 14056m | -11.9m/s | -61.1°C | 12.0% | 0hPa | 2.6V | 00:00:00 | 02:33:51 | 00:00:00 | |
| DO3MHA-11 | 2026-08-31 12:59:21 | 46.27842 | 14.19535 | 79° | 104km/h | 14087m | -8.3m/s | -60.8°C | 11.6% | 0hPa | 2.6V | 00:00:00 | 02:33:48 | 00:00:00 | |
| DO3MHA-12 | 2026-08-31 12:59:20 | 46.27837 | 14.19497 | 80° | 91km/h | 14094m | -6.7m/s | -60.7°C | 11.3% | 0hPa | 2.6V | 00:00:00 | 02:33:47 | 00:00:00 | |
| 9A1FER-3 | 2026-08-31 12:59:19 | 46.27832 | 14.19460 | 80° | 100km/h | 14102m | -8.0m/s | -60.7°C | 11.0% | 0hPa | 2.6V | 00:00:00 | 02:33:46 | 00:00:00 | |
| OE5DRO-10 | 2026-08-31 12:59:17 | 46.27823 | 14.19384 | 81° | 97km/h | 14121m | -10.6m/s | -60.6°C | 10.8% | 0hPa | 2.6V | 00:00:00 | 00:00:00 | 00:00:00 | |
| OE8JPQ-2 | 2026-08-31 12:59:15 | 46.27815 | 14.19310 | 81° | 95km/h | 14141m | -9.0m/s | -60.4°C | 10.5% | 0hPa | 2.6V | 00:00:00 | 00:00:00 | 00:00:00 | |
| 9A1FER-15 | 2026-08-31 12:59:14 | 46.27811 | 14.19273 | 81° | 97km/h | 14151m | -10.6m/s | -60.2°C | 10.2% | 0hPa | 2.6V | 00:00:00 | 02:33:41 | 00:00:00 | |
| DO3MHA-11 | 2026-08-31 12:59:11 | 46.27798 | 14.19165 | 80° | 97km/h | 14184m | -10.4m/s | -60.3°C | 10.2% | 0hPa | 2.5V | 00:00:00 | 02:33:38 | 00:00:00 | |
| 9A1FER-10 | 2026-08-31 12:59:09 | 46.27789 | 14.19094 | 80° | 93km/h | 14204m | -8.5m/s | -60.4°C | 10.0% | 0hPa | 2.6V | 00:00:00 | 02:33:36 | 00:00:00 | |
| OE5DXL-15 | 2026-08-31 12:59:08 | 46.27784 | 14.19059 | 79° | 88km/h | 14213m | -10.6m/s | -60.4°C | 9.8% | 0hPa | 2.6V | 00:00:00 | 00:00:00 | 00:00:00 | |
| OE3JTB-15 | 2026-08-31 12:59:06 | 46.27775 | 14.18990 | 79° | 88km/h | 14237m | -13.6m/s | -60.6°C | 9.4% | 0hPa | 2.5V | 00:00:00 | 00:00:00 | 00:00:00 | |
| 9A1FER-3 | 2026-08-31 12:59:04 | 46.27765 | 14.18920 | 78° | 88km/h | 14265m | -13.3m/s | -60.7°C | 9.2% | 0hPa | 2.6V | 08:13:00 | 02:33:31 | 00:00:00 | |
| DO3MHA-11 | 2026-08-31 12:59:01 | 46.27749 | 14.18819 | 77° | 88km/h | 14308m | -14.0m/s | -60.7°C | 9.0% | 0hPa | 2.6V | 00:00:00 | 02:33:28 | 00:00:00 | |
| 9A1FER-15 | 2026-08-31 12:58:59 | 46.27738 | 14.18756 | 76° | 86km/h | 14336m | -13.2m/s | -60.8°C | 9.0% | 0hPa | 2.6V | 00:00:00 | 02:33:26 | 00:00:00 | |
| OE5DRO-10 | 2026-08-31 12:58:58 | 46.27732 | 14.18724 | 75° | 84km/h | 14348m | -11.6m/s | -60.8°C | 9.0% | 0hPa | 2.6V | 00:00:00 | 00:00:00 | 00:00:00 | |
| OE8JPQ-2 | 2026-08-31 12:58:55 | 46.27714 | 14.18633 | 73° | 84km/h | 14381m | -11.1m/s | -60.6°C | 8.7% | 0hPa | 2.5V | 00:00:00 | 02:33:22 | 00:00:00 | |
| 9A1FER-10 | 2026-08-31 12:58:54 | 46.27707 | 14.18603 | 73° | 84km/h | 14392m | -11.6m/s | -60.6°C | 8.7% | 0hPa | 2.5V | 00:00:00 | 02:33:21 | 00:00:00 | |
| DO3MHA-11 | 2026-08-31 12:58:51 | 46.27686 | 14.18516 | 70° | 82km/h | 14428m | -10.1m/s | -60.4°C | 8.5% | 0hPa | 2.5V | 00:00:00 | 02:33:18 | 00:00:00 | |
| IV3AMH | 2026-08-31 12:58:50 | 46.27686 | 14.18516 | 71° | 82km/h | 14428m | -10.2m/s | -60.5°C | 4.8% | 0hPa | 2.5V | 00:00:00 | 00:00:00 | 00:00:00 | |
| 9A1FER-3 | 2026-08-31 12:58:49 | 46.27670 | 14.18460 | 68° | 84km/h | 14450m | -11.7m/s | -60.3°C | 8.3% | 0hPa | 2.5V | 00:00:00 | 02:33:16 | 00:00:00 | |
| DO3MHA-12 | 2026-08-31 12:58:44 | 46.27625 | 14.18326 | 63° | 86km/h | 14508m | -12.3m/s | -60.2°C | 8.1% | 0hPa | 2.5V | 00:00:00 | 02:33:11 | 00:00:00 | |
| PG1ADW-2 | 2026-08-31 12:58:43 | 46.27616 | 14.18299 | 62° | 86km/h | 14521m | -12.5m/s | -60.2°C | 8.2% | 0hPa | 2.6V | 00:00:00 | 00:00:00 | 00:00:00 | |
| DO3MHA-11 | 2026-08-31 12:58:41 | 46.27596 | 14.18245 | 63° | 88km/h | 14546m | -12.8m/s | -59.9°C | 7.9% | 0hPa | 2.6V | 00:00:00 | 02:33:08 | 00:00:00 | |
| OE5DXL-15 | 2026-08-31 12:58:38 | 46.27567 | 14.18159 | 65° | 88km/h | 14586m | -11.6m/s | -59.6°C | 7.6% | 0hPa | 2.6V | 00:00:00 | 00:00:00 | 00:00:00 | |
| OE3JTB-15 | 2026-08-31 12:58:37 | 46.27557 | 14.18130 | 66° | 88km/h | 14599m | -13.7m/s | -59.7°C | 7.6% | 0hPa | 2.6V | 00:00:00 | 00:00:00 | 00:00:00 | |
| OE8JPQ-2 | 2026-08-31 12:58:35 | 46.27539 | 14.18072 | 67° | 88km/h | 14626m | -13.9m/s | -59.8°C | 7.7% | 0hPa | 2.6V | 00:00:00 | 00:00:00 | 00:00:00 | |
| 9A1FER-3 | 2026-08-31 12:58:34 | 46.27530 | 14.18043 | 67° | 86km/h | 14640m | -13.4m/s | -59.9°C | 7.9% | 0hPa | 2.6V | 00:00:00 | 02:33:01 | 00:00:00 | |
| DO3MHA-11 | 2026-08-31 12:58:31 | 46.27503 | 14.17956 | 65° | 86km/h | 14672m | -11.6m/s | -60.0°C | 8.0% | 0hPa | 2.6V | 00:00:00 | 02:32:58 | 00:00:00 | |
| DO3MHA-12 | 2026-08-31 12:58:24 | 46.27432 | 14.17766 | 61° | 88km/h | 14755m | -13.1m/s | -59.5°C | 7.4% | 0hPa | 2.6V | 00:00:00 | 02:32:51 | 00:00:00 | |
| 9A1FER-15 | 2026-08-31 12:58:22 | 46.27410 | 14.17712 | 61° | 89km/h | 14781m | -14.0m/s | -59.4°C | 7.2% | 0hPa | 2.6V | 00:00:00 | 02:32:49 | 00:00:00 | |
| DO3MHA-11 | 2026-08-31 12:58:21 | 46.27399 | 14.17683 | 63° | 91km/h | 14796m | -16.1m/s | -59.3°C | 7.2% | 0hPa | 2.6V | 00:00:00 | 02:32:48 | 00:00:00 | |
| 9A1FER-3 | 2026-08-31 12:58:19 | 46.27378 | 14.17626 | 63° | 69km/h | 14825m | -12.7m/s | -59.3°C | 7.3% | 0hPa | 2.6V | 00:00:00 | 02:32:46 | 00:00:00 | |
| OE8JPQ-2 | 2026-08-31 12:58:15 | 46.27336 | 14.17508 | 65° | 84km/h | 14880m | -14.1m/s | -59.0°C | 7.1% | 0hPa | 2.5V | 00:00:00 | 00:00:00 | 00:00:00 | |
| IV3AMH | 2026-08-31 12:58:13 | 46.27326 | 14.17477 | 66° | 93km/h | 14894m | -14.0m/s | -59.0°C | 3.8% | 0hPa | 2.5V | 08:15:00 | 00:00:00 | 00:00:00 | |
| DO3MHA-11 | 2026-08-31 12:58:11 | 46.27297 | 14.17387 | 67° | 84km/h | 14934m | -13.7m/s | -59.0°C | 7.0% | 0hPa | 2.5V | 08:14:00 | 02:32:38 | 00:00:00 | |
| OE5DXL-15 | 2026-08-31 12:58:08 | 46.27271 | 14.17299 | 69° | 75km/h | 14975m | -14.5m/s | -59.1°C | 6.9% | 0hPa | 2.6V | 00:00:00 | 00:00:00 | 00:00:00 | |
| 9A1FER-15 | 2026-08-31 12:58:07 | 46.27264 | 14.17270 | 69° | 80km/h | 14989m | -14.4m/s | -59.2°C | 6.8% | 0hPa | 2.6V | 00:00:00 | 02:32:34 | 00:00:00 | |
| DO3MHA-11 | 2026-08-31 12:58:01 | 46.27225 | 14.17098 | 76° | 77km/h | 15074m | -12.3m/s | -58.8°C | 6.6% | 0hPa | 2.5V | 00:00:00 | 02:32:28 | 00:00:00 | |
| PG1ADW-2 | 2026-08-31 12:58:00 | 46.27219 | 14.17070 | 76° | 71km/h | 15087m | -13.9m/s | -58.6°C | 6.5% | 0hPa | 2.5V | 00:00:00 | 00:00:00 | 00:00:00 | |
| 9A1FER-10 | 2026-08-31 12:57:57 | 46.27206 | 14.16986 | 79° | 71km/h | 15122m | -10.7m/s | -58.8°C | 6.6% | 0hPa | 2.5V | 00:00:00 | 02:32:24 | 00:00:00 | |
| OE8JPQ-2 | 2026-08-31 12:57:55 | 46.27199 | 14.16930 | 82° | 71km/h | 15145m | -11.4m/s | -58.8°C | 6.7% | 0hPa | 2.5V | 00:00:00 | 02:32:22 | 00:00:00 | |
| 9A1FER-15 | 2026-08-31 12:57:52 | 46.27192 | 14.16850 | 83° | 69km/h | 15178m | -9.6m/s | -58.9°C | 6.7% | 0hPa | 2.5V | 00:00:00 | 02:32:19 | 00:00:00 | |
| DO3MHA-11 | 2026-08-31 12:57:51 | 46.27190 | 14.16824 | 84° | 69km/h | 15190m | -12.3m/s | -58.9°C | 6.7% | 0hPa | 2.5V | 00:00:00 | 02:32:18 | 00:00:00 | |
| 9A1FER-10 | 2026-08-31 12:57:42 | 46.27162 | 14.16598 | 76° | 68km/h | 15296m | -11.8m/s | -59.1°C | 6.9% | 0hPa | 2.5V | 00:00:00 | 02:32:09 | 00:00:00 | |
| DO3MHA-11 | 2026-08-31 12:57:41 | 46.27158 | 14.16574 | 76° | 68km/h | 15308m | -10.5m/s | -59.2°C | 6.9% | 0hPa | 2.5V | 00:00:00 | 02:32:08 | 00:00:00 | |
| PG1ADW-2 | 2026-08-31 12:57:39 | 46.27149 | 14.16526 | 76° | 64km/h | 15330m | -12.2m/s | -59.2°C | 7.0% | 0hPa | 2.5V | 00:00:00 | 00:00:00 | 00:00:00 | |
| OE5DXL-15 | 2026-08-31 12:57:38 | 46.27145 | 14.16502 | 76° | 62km/h | 15342m | -11.9m/s | -59.3°C | 7.2% | 0hPa | 2.5V | 08:15:00 | 00:00:00 | 00:00:00 | |
| 9A1FER-15 | 2026-08-31 12:57:37 | 46.27141 | 14.16477 | 77° | 66km/h | 15353m | -9.8m/s | -59.3°C | 7.2% | 0hPa | 2.6V | 00:00:00 | 02:32:04 | 00:00:00 | |
| IV3AMH | 2026-08-31 12:57:36 | 46.27141 | 14.16477 | 77° | 69km/h | 15353m | -9.9m/s | -59.4°C | 3.7% | 0hPa | 2.6V | 00:00:00 | 00:00:00 | 00:00:00 | |
| OE8JPQ-2 | 2026-08-31 12:57:35 | 46.27132 | 14.16429 | 76° | 62km/h | 15372m | -10.3m/s | -59.4°C | 7.2% | 0hPa | 2.6V | 00:00:00 | 00:00:00 | 00:00:00 | |
| DO3MHA-11 | 2026-08-31 12:57:31 | 46.27112 | 14.16335 | 69° | 62km/h | 15421m | -12.3m/s | -58.8°C | 6.6% | 0hPa | 2.5V | 00:00:00 | 02:31:58 | 00:00:00 | |
| DO3MHA-12 | 2026-08-31 12:57:30 | 46.27106 | 14.16313 | 67° | 62km/h | 15434m | -13.6m/s | -58.8°C | 6.6% | 0hPa | 2.5V | 00:00:00 | 02:31:57 | 00:00:00 | |
| 9A1FER-10 | 2026-08-31 12:57:27 | 46.27086 | 14.16250 | 65° | 60km/h | 15468m | -11.8m/s | -58.9°C | 6.5% | 0hPa | 2.5V | 00:00:00 | 02:31:54 | 00:00:00 | |
| OE5DRO-10 | 2026-08-31 12:57:23 | 46.27056 | 14.16170 | 59° | 58km/h | 15512m | -8.1m/s | -58.7°C | 6.6% | 0hPa | 2.5V | 00:00:00 | 00:00:00 | 00:00:00 | |
| 9A1FER-15 | 2026-08-31 12:57:22 | 46.27049 | 14.16151 | 59° | 58km/h | 15520m | -7.8m/s | -58.6°C | 6.4% | 0hPa | 2.5V | 08:15:00 | 02:31:49 | 00:00:00 | |
| DO3MHA-11 | 2026-08-31 12:57:21 | 46.27040 | 14.16133 | 57° | 58km/h | 15529m | -8.8m/s | -58.5°C | 6.3% | 0hPa | 2.5V | 00:00:00 | 02:31:48 | 00:00:00 | |
| DO3MHA-12 | 2026-08-31 12:57:20 | 46.27032 | 14.16115 | 56° | 58km/h | 15538m | -10.2m/s | -58.5°C | 6.3% | 0hPa | 2.5V | 00:00:00 | 02:31:47 | 00:00:00 | |
| PG1ADW-2 | 2026-08-31 12:57:19 | 46.27023 | 14.16097 | 54° | 55km/h | 15549m | -11.1m/s | -58.4°C | 6.3% | 0hPa | 2.5V | 00:00:00 | 00:00:00 | 00:00:00 | |
| OE8JPQ-2 | 2026-08-31 12:57:15 | 46.26988 | 14.16028 | 54° | 51km/h | 15587m | -9.1m/s | -58.6°C | 6.3% | 0hPa | 2.5V | 00:00:00 | 00:00:00 | 00:00:00 | |
| 9A1FER-10 | 2026-08-31 12:57:12 | 46.26962 | 14.15976 | 58° | 51km/h | 15618m | -9.8m/s | -58.7°C | 6.4% | 0hPa | 2.5V | 00:00:00 | 02:31:39 | 00:00:00 | |
| DO3MHA-11 | 2026-08-31 12:57:11 | 46.26955 | 14.15958 | 57° | 53km/h | 15628m | -10.1m/s | -58.7°C | 6.4% | 0hPa | 2.5V | 00:00:00 | 02:31:38 | 00:00:00 | |
| DO3MHA-12 | 2026-08-31 12:57:10 | 46.26947 | 14.15940 | 59° | 51km/h | 15638m | -9.7m/s | -58.5°C | 6.3% | 0hPa | 2.5V | 08:15:00 | 02:31:37 | 00:00:00 | |
| OE5DXL-15 | 2026-08-31 12:57:08 | 46.26931 | 14.15904 | 59° | 44km/h | 15658m | -12.3m/s | -58.4°C | 6.2% | 0hPa | 2.5V | 00:00:00 | 00:00:00 | 00:00:00 | |
| 9A1FER-15 | 2026-08-31 12:57:07 | 46.26924 | 14.15886 | 60° | 55km/h | 15670m | -12.6m/s | -58.5°C | 6.2% | 0hPa | 2.5V | 00:00:00 | 02:31:34 | 00:00:00 | |
| 9A1FER-3 | 2026-08-31 12:57:06 | 46.26917 | 14.15869 | 61° | 42km/h | 15683m | -12.5m/s | -58.6°C | 6.3% | 0hPa | 2.5V | 00:00:00 | 02:31:33 | 00:00:00 | |
| OE5DRO-10 | 2026-08-31 12:57:05 | 46.26904 | 14.15836 | 61° | 40km/h | 15705m | -10.6m/s | -58.7°C | 6.2% | 0hPa | 2.5V | 08:15:00 | 00:00:00 | 00:00:00 | |
| DO3MHA-11 | 2026-08-31 12:57:01 | 46.26888 | 14.15793 | 61° | 38km/h | 15740m | -12.9m/s | -58.7°C | 6.0% | 0hPa | 2.5V | 00:00:00 | 02:31:28 | 00:00:00 | |
| DO3MHA-12 | 2026-08-31 12:57:00 | 46.26882 | 14.15780 | 57° | 38km/h | 15754m | -14.9m/s | -58.8°C | 6.0% | 0hPa | 2.5V | 00:00:00 | 02:31:27 | 00:00:00 | |
| PG1ADW-2 | 2026-08-31 12:56:59 | 46.26876 | 14.15767 | 58° | 40km/h | 15769m | -15.5m/s | -58.8°C | 5.9% | 0hPa | 2.5V | 08:15:00 | 02:31:26 | 00:00:00 | |
| 9A1FER-10 | 2026-08-31 12:56:57 | 46.26864 | 14.15743 | 56° | 38km/h | 15800m | -15.6m/s | -58.7°C | 5.8% | 0hPa | 2.5V | 08:15:00 | 02:31:24 | 00:00:00 | |
| DO3MHA-11 | 2026-08-31 12:56:51 | 46.26830 | 14.15681 | 49° | 42km/h | 15903m | -18.1m/s | -58.4°C | 5.4% | 0hPa | 2.5V | 00:00:00 | 02:31:18 | 00:00:00 | |
| DO3MHA-12 | 2026-08-31 12:56:50 | 46.26824 | 14.15671 | 50° | 42km/h | 15921m | -17.6m/s | -58.5°C | 5.5% | 0hPa | 2.5V | 00:00:00 | 02:31:17 | 00:00:00 | |
| OE5DRO-10 | 2026-08-31 12:56:45 | 46.26790 | 14.15614 | 51° | 49km/h | 16012m | -18.9m/s | -59.2°C | 5.5% | 0hPa | 2.5V | 00:00:00 | 00:00:00 | 00:00:00 | |
| 9A1FER-10 | 2026-08-31 12:56:42 | 46.26769 | 14.15578 | 50° | 64km/h | 16070m | -20.7m/s | -59.7°C | 5.6% | 0hPa | 2.5V | 00:00:00 | 02:31:09 | 00:00:00 | |
| DO3MHA-11 | 2026-08-31 12:56:41 | 46.26761 | 14.15566 | 49° | 49km/h | 16090m | -20.3m/s | -59.9°C | 5.6% | 0hPa | 2.5V | 08:16:00 | 02:31:08 | 00:00:00 | |
| PG1ADW-2 | 2026-08-31 12:56:39 | 46.26746 | 14.15542 | 49° | 57km/h | 16130m | -19.2m/s | -60.3°C | 5.7% | 0hPa | 2.5V | 00:00:00 | 00:00:00 | 00:00:00 | |
| OE5DXL-15 | 2026-08-31 12:56:38 | 46.26738 | 14.15530 | 48° | 62km/h | 16149m | -19.3m/s | -60.5°C | 5.8% | 0hPa | 2.5V | 00:00:00 | 00:00:00 | 00:00:00 | |
| 9A1FER-3 | 2026-08-31 12:56:36 | 46.26723 | 14.15502 | 53° | 57km/h | 16186m | -18.2m/s | -60.8°C | 5.9% | 0hPa | 2.5V | 00:00:00 | 02:31:03 | 00:00:00 | |
| OE8JPQ-2 | 2026-08-31 12:56:35 | 46.26714 | 14.15487 | 52° | 62km/h | 16203m | -16.3m/s | -60.9°C | 6.0% | 0hPa | 2.6V | 08:16:00 | 00:00:00 | 00:00:00 | |
| DO3MHA-11 | 2026-08-31 12:56:31 | 46.26683 | 14.15425 | 55° | 60km/h | 16265m | -16.4m/s | -61.3°C | 6.2% | 0hPa | 2.5V | 00:00:00 | 02:30:58 | 00:00:00 | |
| OE5DRO-10 | 2026-08-31 12:56:26 | 46.26644 | 14.15336 | 58° | 68km/h | 16331m | -12.5m/s | -61.7°C | 6.5% | 0hPa | 2.5V | 00:00:00 | 00:00:00 | 00:00:00 | |
| 9A1FER-3 | 2026-08-31 12:56:21 | 46.26607 | 14.15234 | 65° | 68km/h | 16403m | -15.8m/s | -61.7°C | 6.8% | 0hPa | 2.5V | 00:00:00 | 02:30:48 | 00:00:00 | |
| OE8JPQ-2 | 2026-08-31 12:56:15 | 46.26565 | 14.15093 | 70° | 60km/h | 16490m | -16.1m/s | -62.1°C | 7.2% | 0hPa | 2.5V | 00:00:00 | 00:00:00 | 00:00:00 | |
| 9A1FER-10 | 2026-08-31 12:56:14 | 46.26559 | 14.15069 | 72° | 44km/h | 16505m | -14.3m/s | -62.2°C | 7.2% | 0hPa | 2.5V | 00:00:00 | 02:30:41 | 00:00:00 | |
| OE3JTB-15 | 2026-08-31 12:56:12 | 46.26549 | 14.15022 | 75° | 57km/h | 16535m | -16.1m/s | -62.3°C | 7.3% | 0hPa | 2.5V | 00:00:00 | 00:00:00 | 00:00:00 | |
| DO3MHA-11 | 2026-08-31 12:56:11 | 46.26544 | 14.14998 | 76° | 62km/h | 16552m | -16.8m/s | -62.1°C | 7.3% | 0hPa | 2.5V | 00:00:00 | 02:30:38 | 00:00:00 | |
| OE5DXL-15 | 2026-08-31 12:56:08 | 46.26534 | 14.14928 | 82° | 49km/h | 16596m | -13.3m/s | -61.0°C | 6.6% | 0hPa | 2.6V | 00:00:00 | 00:00:00 | 00:00:00 | |
| OE5DRO-10 | 2026-08-31 12:56:07 | 46.26532 | 14.14905 | 84° | 55km/h | 16608m | -11.0m/s | -60.6°C | 6.4% | 0hPa | 2.5V | 00:00:00 | 00:00:00 | 00:00:00 | |
| 9A1FER-3 | 2026-08-31 12:56:06 | 46.26530 | 14.14883 | 85° | 55km/h | 16619m | -10.8m/s | -60.3°C | 6.2% | 0hPa | 2.5V | 00:00:00 | 02:30:33 | 00:00:00 | |
| DO3MHA-11 | 2026-08-31 12:56:01 | 46.26527 | 14.14779 | 90° | 53km/h | 16688m | -10.8m/s | -59.0°C | 5.8% | 0hPa | 2.5V | 00:00:00 | 02:30:28 | 00:00:00 | |
| 9A1FER-15 | 2026-08-31 12:56:00 | 46.26527 | 14.14759 | 90° | 51km/h | 16700m | -12.6m/s | -58.9°C | 5.8% | 0hPa | 2.5V | 00:00:00 | 02:30:27 | 00:00:00 | |
| PG1ADW-2 | 2026-08-31 12:55:59 | 46.26527 | 14.14740 | 90° | 44km/h | 16713m | -12.7m/s | -58.8°C | 5.8% | 0hPa | 2.5V | 00:00:00 | 00:00:00 | 00:00:00 | |
| OE8JPQ-2 | 2026-08-31 12:55:55 | 46.26527 | 14.14662 | 93° | 42km/h | 16755m | -13.5m/s | -58.4°C | 5.7% | 0hPa | 2.5V | 00:00:00 | 02:30:22 | 00:00:00 | |
| DO3MHA-11 | 2026-08-31 12:55:51 | 46.26534 | 14.14584 | 103° | 46km/h | 16806m | -11.1m/s | -57.8°C | 5.4% | 0hPa | 2.5V | 00:00:00 | 02:30:18 | 00:00:00 | |
| 9A1FER-3 | 2026-08-31 12:55:50 | 46.26538 | 14.14566 | 106° | 38km/h | 16818m | -12.2m/s | -57.6°C | 5.3% | 0hPa | 2.5V | 08:17:00 | 02:30:17 | 00:00:00 | |
| OE5DRO-10 | 2026-08-31 12:55:48 | 46.26545 | 14.14530 | 107° | 33km/h | 16842m | -12.8m/s | -57.5°C | 5.1% | 0hPa | 2.5V | 00:00:00 | 00:00:00 | 00:00:00 | |
| 9A1FER-15 | 2026-08-31 12:55:45 | 46.26555 | 14.14483 | 109° | 31km/h | 16891m | -17.2m/s | -57.3°C | 5.0% | 0hPa | 2.5V | 00:00:00 | 02:30:12 | 00:00:00 | |
| OE3JTB-15 | 2026-08-31 12:55:43 | 46.26561 | 14.14456 | 109° | 27km/h | 16921m | -13.2m/s | -57.0°C | 4.9% | 0hPa | 2.6V | 00:00:00 | 00:00:00 | 00:00:00 | |
| DO3MHA-11 | 2026-08-31 12:55:41 | 46.26567 | 14.14431 | 107° | 31km/h | 16948m | -14.1m/s | -56.7°C | 4.7% | 0hPa | 2.6V | 00:00:00 | 02:30:08 | 00:00:00 | |
| PG1ADW-2 | 2026-08-31 12:55:39 | 46.26571 | 14.14408 | 104° | 29km/h | 16977m | -16.3m/s | -56.6°C | 4.7% | 0hPa | 2.5V | 00:00:00 | 02:30:06 | 00:00:00 | |
| OE5DXL-15 | 2026-08-31 12:55:38 | 46.26573 | 14.14397 | 101° | 27km/h | 16993m | -15.1m/s | -56.5°C | 4.7% | 0hPa | 2.5V | 00:00:00 | 00:00:00 | 00:00:00 | |
| 9A1FER-3 | 2026-08-31 12:55:35 | 46.26576 | 14.14366 | 99° | 24km/h | 17038m | -13.3m/s | -56.3°C | 4.6% | 0hPa | 2.5V | 00:00:00 | 02:30:02 | 00:00:00 | |
| DO3MHA-11 | 2026-08-31 12:55:31 | 46.26577 | 14.14330 | 81° | 22km/h | 17090m | -14.7m/s | -56.6°C | 4.8% | 0hPa | 2.5V | 00:00:00 | 02:29:58 | 00:00:00 | |
| 9A1FER-15 | 2026-08-31 12:55:30 | 46.26575 | 14.14323 | 71° | 26km/h | 17106m | -15.2m/s | -56.8°C | 4.9% | 0hPa | 2.5V | 00:00:00 | 02:29:57 | 00:00:00 | |
| OE5DRO-10 | 2026-08-31 12:55:29 | 46.26573 | 14.14317 | 61° | 29km/h | 17119m | -12.5m/s | -56.9°C | 4.9% | 0hPa | 2.5V | 00:00:00 | 00:00:00 | 00:00:00 | |
| DO3MHA-11 | 2026-08-31 12:55:21 | 46.26536 | 14.14270 | 35° | 33km/h | 17226m | -13.6m/s | -57.3°C | 5.1% | 0hPa | 2.5V | 00:00:00 | 02:29:48 | 00:00:00 | |
| 9A1FER-3 | 2026-08-31 12:55:20 | 46.26530 | 14.14264 | 34° | 33km/h | 17239m | -12.9m/s | -57.3°C | 5.1% | 0hPa | 2.5V | 00:00:00 | 02:29:47 | 00:00:00 | |
| 9A1FER-15 | 2026-08-31 12:55:15 | 46.26496 | 14.14231 | 37° | 35km/h | 17296m | -9.8m/s | -56.7°C | 5.0% | 0hPa | 2.5V | 00:00:00 | 02:29:42 | 00:00:00 | |
| OE3JTB-15 | 2026-08-31 12:55:14 | 46.26490 | 14.14223 | 38° | 35km/h | 17306m | -10.3m/s | -56.6°C | 5.0% | 0hPa | 2.5V | 00:00:00 | 02:29:41 | 00:00:00 | |
| DO3MHA-11 | 2026-08-31 12:55:11 | 46.26469 | 14.14200 | 40° | 35km/h | 17337m | -12.0m/s | -56.3°C | 4.8% | 0hPa | 2.5V | 08:17:00 | 02:29:38 | 00:00:00 | |
| OE5DRO-10 | 2026-08-31 12:55:10 | 46.26463 | 14.14192 | 40° | 35km/h | 17350m | -12.8m/s | -56.1°C | 4.7% | 0hPa | 2.5V | 00:00:00 | 00:00:00 | 00:00:00 | |
| OE5DXL-15 | 2026-08-31 12:55:08 | 46.26450 | 14.14177 | 41° | 38km/h | 17372m | -11.7m/s | -56.1°C | 4.7% | 0hPa | 2.5V | 00:00:00 | 00:00:00 | 00:00:00 | |
| 9A1FER-3 | 2026-08-31 12:55:05 | 46.26431 | 14.14151 | 46° | 35km/h | 17408m | -13.4m/s | -56.1°C | 4.7% | 0hPa | 2.5V | 00:00:00 | 02:29:32 | 00:00:00 | |
| DO3MHA-11 | 2026-08-31 12:55:01 | 46.26407 | 14.14112 | 54° | 35km/h | 17454m | -9.4m/s | -56.0°C | 4.7% | 0hPa | 2.5V | 00:00:00 | 02:29:28 | 00:00:00 | |
| 9A1FER-15 | 2026-08-31 12:55:00 | 46.26402 | 14.14101 | 60° | 35km/h | 17464m | -12.4m/s | -55.8°C | 4.5% | 0hPa | 2.5V | 00:00:00 | 02:29:27 | 00:00:00 | |
| OE8JPQ-2 | 2026-08-31 12:54:55 | 46.26380 | 14.14046 | 57° | 40km/h | 17522m | -14.8m/s | -55.5°C | 4.4% | 0hPa | 2.6V | 00:00:00 | 02:29:22 | 00:00:00 | |
| DO3MHA-11 | 2026-08-31 12:54:51 | 46.26360 | 14.14008 | 50° | 33km/h | 17571m | -9.9m/s | -55.6°C | 4.6% | 0hPa | 2.6V | 00:00:00 | 02:29:18 | 00:00:00 | |
| 9A1FER-3 | 2026-08-31 12:54:50 | 46.26354 | 14.13998 | 50° | 44km/h | 17581m | -9.9m/s | -55.7°C | 4.6% | 0hPa | 2.6V | 00:00:00 | 02:29:17 | 00:00:00 | |
| 9A1FER-15 | 2026-08-31 12:54:45 | 46.26325 | 14.13945 | 54° | 47km/h | 17636m | -12.9m/s | -55.8°C | 4.6% | 0hPa | 2.6V | 00:00:00 | 02:29:12 | 00:00:00 | |
| 9A1FER-10 | 2026-08-31 12:54:44 | 46.26319 | 14.13933 | 58° | 47km/h | 17649m | -13.7m/s | -55.8°C | 4.5% | 0hPa | 2.6V | 00:00:00 | 02:29:11 | 00:00:00 | |
| OE5DXL-15 | 2026-08-31 12:54:38 | 46.26283 | 14.13842 | 64° | 38km/h | 17757m | -17.2m/s | -56.5°C | 4.6% | 0hPa | 2.5V | 00:00:00 | 00:00:00 | 00:00:00 | |
| OE8JPQ-2 | 2026-08-31 12:54:35 | 46.26267 | 14.13793 | 66° | 40km/h | 17804m | -14.3m/s | -56.7°C | 4.8% | 0hPa | 2.5V | 00:00:00 | 00:00:00 | 00:00:00 | |
| OE5WHR-10 | 2026-08-31 12:54:33 | 46.26257 | 14.13762 | 65° | 37km/h | 17834m | -13.6m/s | -56.4°C | 4.7% | 0hPa | 2.5V | 00:00:00 | 00:00:00 | 00:00:00 | |
| OE5DRO-10 | 2026-08-31 12:54:32 | 46.26252 | 14.13748 | 65° | 38km/h | 17847m | -12.8m/s | -56.3°C | 4.7% | 0hPa | 2.5V | 00:00:00 | 00:00:00 | 00:00:00 | |
| 9A1FER-15 | 2026-08-31 12:54:30 | 46.26242 | 14.13720 | 62° | 37km/h | 17871m | -11.1m/s | -56.2°C | 4.7% | 0hPa | 2.5V | 00:00:00 | 02:28:57 | 00:00:00 | |
| 9A1FER-10 | 2026-08-31 12:54:29 | 46.26237 | 14.13706 | 61° | 40km/h | 17883m | -11.9m/s | -56.2°C | 4.7% | 0hPa | 2.5V | 00:00:00 | 02:28:56 | 00:00:00 | |
| IV3AMH | 2026-08-31 12:54:28 | 46.26237 | 14.13707 | 61° | 42km/h | 17883m | -12.0m/s | -56.3°C | 1.8% | 0hPa | 2.5V | 00:00:00 | 00:00:00 | 00:00:00 | |
| 9A1FER-3 | 2026-08-31 12:54:20 | 46.26188 | 14.13602 | 50° | 22km/h | 17998m | -12.3m/s | -56.2°C | 4.6% | 0hPa | 2.5V | 00:00:00 | 02:28:47 | 00:00:00 | |
| OE3JTB-15 | 2026-08-31 12:54:16 | 46.26164 | 14.13569 | 38° | 35km/h | 18050m | -10.3m/s | -56.4°C | 4.6% | 0hPa | 2.5V | 00:00:00 | 00:00:00 | 00:00:00 | |
| 9A1FER-15 | 2026-08-31 12:54:15 | 46.26157 | 14.13561 | 40° | 37km/h | 18061m | -12.6m/s | -56.4°C | 4.6% | 0hPa | 2.5V | 08:18:00 | 02:28:42 | 00:00:00 | |
| 9A1FER-10 | 2026-08-31 12:54:14 | 46.26151 | 14.13553 | 41° | 37km/h | 18075m | -15.6m/s | -56.5°C | 4.6% | 0hPa | 2.5V | 00:00:00 | 02:28:41 | 00:00:00 | |
| OE5DRO-10 | 2026-08-31 12:54:13 | 46.26145 | 14.13545 | 45° | 37km/h | 18090m | -15.0m/s | -56.5°C | 4.7% | 0hPa | 2.5V | 08:18:00 | 00:00:00 | 00:00:00 | |
| OE5WHR-10 | 2026-08-31 12:54:12 | 46.26138 | 14.13537 | 45° | 31km/h | 18105m | -14.4m/s | -56.5°C | 4.7% | 0hPa | 2.6V | 00:00:00 | 02:28:39 | 00:00:00 | |
| OE5DXL-15 | 2026-08-31 12:54:08 | 46.26115 | 14.13502 | 49° | 31km/h | 18163m | -15.9m/s | -56.2°C | 4.7% | 0hPa | 2.6V | 00:00:00 | 00:00:00 | 00:00:00 | |
| 9A1FER-15 | 2026-08-31 12:54:00 | 46.26068 | 14.13413 | 60° | 31km/h | 18274m | -13.8m/s | -56.7°C | 4.8% | 0hPa | 2.6V | 00:00:00 | 02:28:27 | 00:00:00 | |
| 9A1FER-10 | 2026-08-31 12:53:59 | 46.26063 | 14.13400 | 62° | 29km/h | 18288m | -14.4m/s | -56.7°C | 4.9% | 0hPa | 2.6V | 00:00:00 | 02:28:26 | 00:00:00 | |
| OE5DRO-10 | 2026-08-31 12:53:55 | 46.26044 | 14.13341 | 71° | 24km/h | 18356m | -12.7m/s | -57.0°C | 5.1% | 0hPa | 2.6V | 00:00:00 | 00:00:00 | 00:00:00 | |
| IV3AMH | 2026-08-31 12:53:51 | 46.26040 | 14.13319 | 78° | 27km/h | 18379m | -14.5m/s | -56.7°C | 1.8% | 0hPa | 2.6V | 00:00:00 | 00:00:00 | 00:00:00 | |
| OE3JTB-15 | 2026-08-31 12:53:47 | 46.26034 | 14.13275 | 78° | 15km/h | 18439m | -10.4m/s | -56.4°C | 4.9% | 0hPa | 2.6V | 00:00:00 | 02:28:14 | 00:00:00 | |
| NBG1-10 | 2026-08-31 12:53:46 | 46.26033 | 14.13268 | 77° | 22km/h | 18450m | -12.5m/s | -56.3°C | 4.8% | 0hPa | 2.6V | 00:00:00 | 02:28:13 | 00:00:00 | |
| 9A1FER-15 | 2026-08-31 12:53:45 | 46.26032 | 14.13260 | 76° | 22km/h | 18463m | -13.8m/s | -56.2°C | 4.8% | 0hPa | 2.6V | 00:00:00 | 02:28:12 | 00:00:00 | |
| OE5WHR-10 | 2026-08-31 12:53:44 | 46.26030 | 14.13252 | 80° | 20km/h | 18477m | -13.2m/s | -56.1°C | 4.8% | 0hPa | 2.6V | 00:00:00 | 00:00:00 | 00:00:00 | |
| OE5DXL-15 | 2026-08-31 12:53:38 | 46.26023 | 14.13201 | 78° | 20km/h | 18543m | -13.6m/s | -55.3°C | 4.5% | 0hPa | 2.5V | 00:00:00 | 00:00:00 | 00:00:00 | |
| PG1ADW-2 | 2026-08-31 12:53:37 | 46.26021 | 14.13192 | 76° | 18km/h | 18556m | -10.9m/s | -55.2°C | 4.5% | 0hPa | 2.5V | 00:00:00 | 00:00:00 | 00:00:00 | |
| OE8JPQ-2 | 2026-08-31 12:53:35 | 46.26018 | 14.13178 | 67° | 20km/h | 18579m | -13.4m/s | -54.9°C | 4.3% | 0hPa | 2.5V | 08:19:00 | 00:00:00 | 00:00:00 | |
| 9A1FER-15 | 2026-08-31 12:53:30 | 46.26008 | 14.13147 | 62° | 20km/h | 18646m | -16.2m/s | -55.0°C | 4.2% | 0hPa | 2.5V | 00:00:00 | 02:27:57 | 00:00:00 | |
| 9A1FER-10 | 2026-08-31 12:53:29 | 46.26006 | 14.13141 | 60° | 20km/h | 18663m | -18.6m/s | -55.0°C | 4.2% | 0hPa | 2.5V | 00:00:00 | 02:27:56 | 00:00:00 | |
| OE5WHR-10 | 2026-08-31 12:53:23 | 46.25992 | 14.13102 | 69° | 20km/h | 18758m | -14.0m/s | -55.6°C | 4.5% | 0hPa | 2.5V | 00:00:00 | 00:00:00 | 00:00:00 | |
| OE5DRO-10 | 2026-08-31 12:53:16 | 46.25977 | 14.13049 | 60° | 22km/h | 18856m | -13.8m/s | -55.9°C | 4.5% | 0hPa | 2.5V | 00:00:00 | 00:00:00 | 00:00:00 | |
| 9A1FER-15 | 2026-08-31 12:53:15 | 46.25975 | 14.13043 | 60° | 20km/h | 18869m | -12.8m/s | -56.0°C | 4.5% | 0hPa | 2.6V | 00:00:00 | 02:27:42 | 00:00:00 | |
| IV3AMH | 2026-08-31 12:53:14 | 46.25975 | 14.13043 | 60° | 18km/h | 18869m | -12.8m/s | -56.0°C | 1.7% | 0hPa | 2.6V | 00:00:00 | 00:00:00 | 00:00:00 | |
| NBG1-10 | 2026-08-31 12:53:13 | 46.25969 | 14.13033 | 49° | 18km/h | 18900m | -16.7m/s | -55.9°C | 4.5% | 0hPa | 2.6V | 00:00:00 | 02:27:40 | 00:00:00 | |
| OE5DXL-15 | 2026-08-31 12:53:08 | 46.25955 | 14.13012 | 43° | 18km/h | 18968m | -12.1m/s | -55.6°C | 4.6% | 0hPa | 2.6V | 08:19:00 | 00:00:00 | 00:00:00 | |
| OE5WHR-10 | 2026-08-31 12:53:02 | 46.25931 | 14.12974 | 55° | 15km/h | 19023m | -10.0m/s | -55.7°C | 4.7% | 0hPa | 2.5V | 00:00:00 | 02:27:29 | 00:00:00 | |
| 9A1FER-15 | 2026-08-31 12:53:01 | 46.25922 | 14.12956 | 57° | 18km/h | 19046m | -10.9m/s | -55.8°C | 4.8% | 0hPa | 2.5V | 00:00:00 | 02:27:27 | 00:00:00 | |
| 9A1FER-10 | 2026-08-31 12:52:59 | 46.25918 | 14.12947 | 58° | 16km/h | 19059m | -14.6m/s | -55.9°C | 4.8% | 0hPa | 2.5V | 00:00:00 | 02:27:26 | 00:00:00 | |
| OE5DRO-10 | 2026-08-31 12:52:57 | 46.25911 | 14.12930 | 57° | 13km/h | 19085m | -12.5m/s | -55.9°C | 4.8% | 0hPa | 2.5V | 00:00:00 | 00:00:00 | 00:00:00 | |
| OE8JPQ-2 | 2026-08-31 12:52:55 | 46.25904 | 14.12914 | 59° | 11km/h | 19111m | -11.8m/s | -55.9°C | 4.8% | 0hPa | 2.5V | 00:00:00 | 02:27:22 | 00:00:00 | |
| 9A1FER-3 | 2026-08-31 12:52:47 | 46.25888 | 14.12885 | 62° | 11km/h | 19233m | -15.9m/s | -54.8°C | 4.3% | 0hPa | 2.5V | 00:00:00 | 02:27:14 | 00:00:00 | |
| 9A1FER-15 | 2026-08-31 12:52:45 | 46.25886 | 14.12878 | 69° | 9km/h | 19259m | -10.0m/s | 0°C | 0% | 0hPa | 2.5V | 00:00:00 | 02:27:12 | 00:00:00 | |
| 9A1FER-10 | 2026-08-31 12:52:44 | 46.25885 | 14.12875 | 68° | 9km/h | 19270m | -10.5m/s | -54.7°C | 4.3% | 0hPa | 2.5V | 00:00:00 | 02:27:11 | 00:00:00 | |
| OE5WHR-10 | 2026-08-31 12:52:41 | 46.25884 | 14.12865 | 92° | 9km/h | 19311m | -16.2m/s | -54.6°C | 4.1% | 0hPa | 2.5V | 08:20:00 | 00:00:00 | 00:00:00 | |
| NBG1-10 | 2026-08-31 12:52:40 | 46.25884 | 14.12862 | 102° | 11km/h | 19326m | -13.9m/s | -54.5°C | 4.0% | 0hPa | 2.5V | 00:00:00 | 02:27:07 | 00:00:00 | |
| OE5DXL-15 | 2026-08-31 12:52:38 | 46.25886 | 14.12855 | 126° | 11km/h | 19355m | -13.4m/s | -54.8°C | 4.2% | 0hPa | 2.5V | 00:00:00 | 00:00:00 | 00:00:00 | |
| IV3AMH | 2026-08-31 12:52:37 | 46.25886 | 14.12855 | 126° | 11km/h | 19355m | -13.4m/s | -54.8°C | 1.6% | 0hPa | 2.5V | 00:00:00 | 00:00:00 | 00:00:00 | |
| OE8JPQ-2 | 2026-08-31 12:52:35 | 46.25892 | 14.12845 | 139° | 9km/h | 19398m | -12.3m/s | -55.1°C | 4.2% | 0hPa | 2.5V | 00:00:00 | 00:00:00 | 00:00:00 | |
| 9A1FER-15 | 2026-08-31 12:52:30 | 46.25901 | 14.12834 | 110° | 7km/h | 19465m | -12.0m/s | 0°C | 0% | 0hPa | 2.6V | 00:00:00 | 02:26:57 | 00:00:00 | |
| 9A1FER-10 | 2026-08-31 12:52:29 | 46.25901 | 14.12832 | 99° | 9km/h | 19476m | -10.7m/s | -55.6°C | 4.4% | 0hPa | 2.6V | 00:00:00 | 02:26:56 | 00:00:00 | |
| OE5WHR-10 | 2026-08-31 12:52:20 | 46.25891 | 14.12824 | 20° | 22km/h | 19585m | -12.3m/s | -55.8°C | 4.5% | 0hPa | 2.6V | 00:00:00 | 00:00:00 | 00:00:00 | |
| OE5DRO-10 | 2026-08-31 12:52:19 | 46.25888 | 14.12823 | 20° | 20km/h | 19599m | -14.7m/s | -55.9°C | 4.6% | 0hPa | 2.6V | 00:00:00 | 00:00:00 | 00:00:00 | |
| 9A1FER-3 | 2026-08-31 12:52:18 | 46.25882 | 14.12819 | 28° | 16km/h | 19622m | -10.7m/s | -56.1°C | 4.8% | 0hPa | 2.5V | 08:20:00 | 02:26:44 | 00:00:00 | |
| 9A1FER-15 | 2026-08-31 12:52:15 | 46.25875 | 14.12813 | 32° | 22km/h | 19644m | -10.5m/s | 0°C | 0% | 0hPa | 2.6V | 00:00:00 | 02:26:42 | 00:00:00 | |
| 9A1FER-10 | 2026-08-31 12:52:14 | 46.25871 | 14.12810 | 40° | 24km/h | 19656m | -13.2m/s | -56.3°C | 5.0% | 0hPa | 2.6V | 00:00:00 | 02:26:41 | 00:00:00 | |
| OE5DXL-15 | 2026-08-31 12:52:08 | 46.25847 | 14.12782 | 42° | 18km/h | 19741m | -20.9m/s | -56.4°C | 4.9% | 0hPa | 2.6V | 00:00:00 | 00:00:00 | 00:00:00 | |
| NBG1-10 | 2026-08-31 12:52:07 | 46.25843 | 14.12776 | 48° | 20km/h | 19762m | -21.3m/s | -56.2°C | 4.8% | 0hPa | 2.6V | 00:00:00 | 02:26:34 | 00:00:00 | |
| PETON7-10 | 2026-08-31 12:52:02 | 46.25824 | 14.12738 | 60° | 24km/h | 19863m | -17.6m/s | -55.5°C | 4.5% | 0hPa | 2.6V | 00:00:00 | 00:00:00 | 00:00:00 | |
| 9A1FER-15 | 2026-08-31 12:52:00 | 46.25818 | 14.12723 | 64° | 24km/h | 19896m | -15.3m/s | 0°C | 0% | 0hPa | 2.6V | 00:00:00 | 02:26:27 | 00:00:00 | |
| OE5WHR-10 | 2026-08-31 12:51:59 | 46.25816 | 14.12715 | 68° | 13km/h | 19910m | -13.4m/s | -55.2°C | 4.3% | 0hPa | 2.6V | 00:00:00 | 02:26:26 | 00:00:00 | |
| PG1ADW-2 | 2026-08-31 12:51:58 | 46.25814 | 14.12707 | 76° | 15km/h | 19924m | -14.0m/s | -55.2°C | 4.4% | 0hPa | 2.6V | 00:00:00 | 00:00:00 | 00:00:00 | |
| OE8JPQ-2 | 2026-08-31 12:51:55 | 46.25812 | 14.12684 | 93° | 11km/h | 19969m | -12.4m/s | -55.3°C | 4.6% | 0hPa | 2.6V | 00:00:00 | 02:26:22 | 00:00:00 | |
| OE3JTB-15 | 2026-08-31 12:51:46 | 46.25815 | 14.12622 | 95° | 9km/h | 20088m | -14.7m/s | -55.3°C | 4.6% | 0hPa | 2.6V | 00:00:00 | 00:00:00 | 00:00:00 | |
| 9A1FER-10 | 2026-08-31 12:51:44 | 46.25815 | 14.12618 | 104° | 7km/h | 20104m | -17.1m/s | -55.3°C | 4.6% | 0hPa | 2.6V | 00:00:00 | 02:26:11 | 00:00:00 | |
| OE5DRO-10 | 2026-08-31 12:51:41 | 46.25817 | 14.12611 | 85° | 11km/h | 20156m | -16.2m/s | -55.2°C | 4.7% | 0hPa | 2.6V | 00:00:00 | 00:00:00 | 00:00:00 | |
| OE5DXL-15 | 2026-08-31 12:51:38 | 46.25815 | 14.12610 | 357° | 11km/h | 20201m | -13.1m/s | -54.6°C | 4.4% | 0hPa | 2.6V | 00:00:00 | 00:00:00 | 00:00:00 | |
| OE5WHR-10 | 2026-08-31 12:51:37 | 46.25814 | 14.12610 | 343° | 13km/h | 20213m | -11.0m/s | -54.5°C | 4.4% | 0hPa | 2.5V | 00:00:00 | 00:00:00 | 00:00:00 | |
| OE8JPQ-2 | 2026-08-31 12:51:35 | 46.25810 | 14.12613 | 332° | 13km/h | 20239m | -13.8m/s | -54.3°C | 4.4% | 0hPa | 2.5V | 00:00:00 | 00:00:00 | 00:00:00 | |
| NBG1-10 | 2026-08-31 12:51:34 | 46.25808 | 14.12615 | 321° | 13km/h | 20251m | -10.4m/s | -54.3°C | 4.4% | 0hPa | 2.6V | 00:00:00 | 02:26:01 | 00:00:00 | |
| 9A1FER-3 | 2026-08-31 12:51:32 | 46.25804 | 14.12621 | 317° | 13km/h | 20277m | -15.8m/s | -54.1°C | 4.3% | 0hPa | 2.6V | 00:00:00 | 02:25:59 | 00:00:00 | |
| 9A1FER-10 | 2026-08-31 12:51:29 | 46.25798 | 14.12630 | 318° | 13km/h | 20316m | -12.1m/s | -53.9°C | 4.2% | 0hPa | 2.6V | 00:00:00 | 02:25:56 | 00:00:00 | |
| OE5DRO-10 | 2026-08-31 12:51:22 | 46.25780 | 14.12657 | 298° | 11km/h | 20415m | -14.7m/s | -54.1°C | 4.1% | 0hPa | 2.6V | 08:21:00 | 00:00:00 | 00:00:00 | |
| PG1ADW-2 | 2026-08-31 12:51:18 | 46.25778 | 14.12672 | 266° | 20km/h | 20470m | -15.3m/s | -54.5°C | 4.2% | 0hPa | 2.5V | 08:21:00 | 00:00:00 | 00:00:00 | |
| 9A1FER-3 | 2026-08-31 12:51:17 | 46.25778 | 14.12675 | 280° | 11km/h | 20486m | -15.8m/s | -54.6°C | 4.3% | 0hPa | 2.6V | 00:00:00 | 02:25:44 | 00:00:00 | |
| OE5WHR-10 | 2026-08-31 12:51:16 | 46.25777 | 14.12677 | 295° | 16km/h | 20502m | -16.3m/s | -54.7°C | 4.4% | 0hPa | 2.6V | 00:00:00 | 00:00:00 | 00:00:00 | |
| OE8JPQ-2 | 2026-08-31 12:51:15 | 46.25776 | 14.12680 | 306° | 16km/h | 20519m | -16.0m/s | -54.8°C | 4.4% | 0hPa | 2.6V | 00:00:00 | 00:00:00 | 00:00:00 | |
| 9A1FER-10 | 2026-08-31 12:51:14 | 46.25775 | 14.12683 | 305° | 15km/h | 20533m | -12.5m/s | -54.8°C | 4.4% | 0hPa | 2.6V | 00:00:00 | 02:25:41 | 00:00:00 | |
| OE5DXL-15 | 2026-08-31 12:51:08 | 46.25763 | 14.12698 | 326° | 24km/h | 20612m | -13.4m/s | -54.6°C | 4.3% | 0hPa | 2.6V | 00:00:00 | 00:00:00 | 00:00:00 | |
| OE5DRO-10 | 2026-08-31 12:51:03 | 46.25749 | 14.12713 | 325° | 27km/h | 20679m | -14.8m/s | -54.7°C | 4.3% | 0hPa | 2.6V | 00:00:00 | 00:00:00 | 00:00:00 | |
| 9A1FER-3 | 2026-08-31 12:51:02 | 46.25745 | 14.12716 | 327° | 27km/h | 20693m | -12.8m/s | -54.7°C | 4.3% | 0hPa | 2.6V | 00:00:00 | 02:25:29 | 00:00:00 | |
| NBG1-10 | 2026-08-31 12:51:01 | 46.25741 | 14.12720 | 330° | 22km/h | 20706m | -13.0m/s | -54.7°C | 4.4% | 0hPa | 2.6V | 00:00:00 | 02:25:28 | 00:00:00 | |
| 9A1FER-10 | 2026-08-31 12:50:59 | 46.25730 | 14.12729 | 335° | 29km/h | 20734m | -15.2m/s | -54.7°C | 4.5% | 0hPa | 2.6V | 08:21:00 | 02:25:26 | 00:00:00 | |
| PG1ADW-2 | 2026-08-31 12:50:56 | 46.25708 | 14.12740 | 346° | 26km/h | 20768m | -10.6m/s | -54.8°C | 4.6% | 0hPa | 2.5V | 00:00:00 | 00:00:00 | 00:00:00 | |
| OE5WHR-10 | 2026-08-31 12:50:55 | 46.25701 | 14.12743 | 345° | 24km/h | 20779m | -9.8m/s | -54.8°C | 4.6% | 0hPa | 2.5V | 00:00:00 | 02:25:22 | 00:00:00 | |
| 9A1FER-3 | 2026-08-31 12:50:47 | 46.25644 | 14.12753 | 6° | 18km/h | 20896m | -12.6m/s | -54.6°C | 4.6% | 0hPa | 2.5V | 00:00:00 | 02:25:14 | 00:00:00 | |
| OE5DXL-15 | 2026-08-31 12:50:38 | 46.25590 | 14.12759 | 347° | 24km/h | 21035m | -15.1m/s | -54.2°C | 4.5% | 0hPa | 2.5V | 00:00:00 | 00:00:00 | 00:00:00 | |
| PG1ADW-2 | 2026-08-31 12:50:36 | 46.25585 | 14.12761 | 347° | 20km/h | 21065m | -12.5m/s | -53.8°C | 4.4% | 0hPa | 2.5V | 00:00:00 | 00:00:00 | 00:00:00 | |
| OE8JPQ-2 | 2026-08-31 12:50:35 | 46.25583 | 14.12763 | 313° | 22km/h | 21078m | -13.2m/s | -53.5°C | 4.2% | 0hPa | 2.5V | 08:22:00 | 00:00:00 | 00:00:00 | |
| 9A1FER-3 | 2026-08-31 12:50:32 | 46.25580 | 14.12773 | 290° | 22km/h | 21119m | -14.1m/s | -53.4°C | 4.2% | 0hPa | 2.6V | 00:00:00 | 02:24:59 | 00:00:00 | |
| PETON7-10 | 2026-08-31 12:50:29 | 46.25574 | 14.12789 | 305° | 26km/h | 21169m | -16.9m/s | -53.4°C | 4.1% | 0hPa | 2.6V | 00:00:00 | 00:00:00 | 00:00:00 | |
| NBG1-10 | 2026-08-31 12:50:28 | 46.25571 | 14.12795 | 303° | 29km/h | 21185m | -15.3m/s | -53.3°C | 4.1% | 0hPa | 2.6V | 00:00:00 | 02:24:55 | 00:00:00 | |
| DO3MHA-11 | 2026-08-31 12:50:26 | 46.25564 | 14.12808 | 314° | 26km/h | 21212m | -13.3m/s | -52.9°C | 3.9% | 0hPa | 2.6V | 00:00:00 | 02:24:53 | 00:00:00 | |
| OE5DRO-10 | 2026-08-31 12:50:25 | 46.25560 | 14.12814 | 318° | 31km/h | 21228m | -18.3m/s | -52.9°C | 3.9% | 0hPa | 2.6V | 00:00:00 | 00:00:00 | 00:00:00 | |
| 9A1FER-3 | 2026-08-31 12:50:17 | 46.25517 | 14.12858 | 330° | 26km/h | 21340m | -13.5m/s | -53.3°C | 4.1% | 0hPa | 2.5V | 00:00:00 | 02:24:44 | 00:00:00 | |
| DO3MHA-11 | 2026-08-31 12:50:16 | 46.25510 | 14.12864 | 331° | 29km/h | 21352m | -11.0m/s | -53.3°C | 4.1% | 0hPa | 2.6V | 00:00:00 | 02:24:43 | 00:00:00 | |
| OE8JPQ-2 | 2026-08-31 12:50:15 | 46.25503 | 14.12870 | 335° | 33km/h | 21362m | -9.2m/s | -53.4°C | 4.1% | 0hPa | 2.6V | 00:00:00 | 00:00:00 | 00:00:00 | |
| PETON7-10 | 2026-08-31 12:50:14 | 46.25495 | 14.12875 | 338° | 35km/h | 21374m | -14.9m/s | -53.4°C | 4.1% | 0hPa | 2.6V | 00:00:00 | 02:24:41 | 00:00:00 | |
| OE5DXL-15 | 2026-08-31 12:50:08 | 46.25442 | 14.12900 | 349° | 20km/h | 21466m | -13.8m/s | -54.0°C | 4.5% | 0hPa | 2.6V | 00:00:00 | 00:00:00 | 00:00:00 | |
| OE5DRO-10 | 2026-08-31 12:50:06 | 46.25425 | 14.12904 | 354° | 22km/h | 21495m | -15.0m/s | -53.9°C | 4.4% | 0hPa | 2.6V | 00:00:00 | 00:00:00 | 00:00:00 | |
| 9A1FER-10 | 2026-08-31 12:49:59 | 46.25367 | 14.12897 | 20° | 13km/h | 21594m | -13.3m/s | -53.6°C | 4.4% | 0hPa | 2.6V | 00:00:00 | 02:24:26 | 00:00:00 | |
| DO3MHA-11 | 2026-08-31 12:49:56 | 46.25349 | 14.12888 | 24° | 11km/h | 21637m | -14.9m/s | -53.6°C | 4.4% | 0hPa | 2.6V | 00:00:00 | 02:24:23 | 00:00:00 | |
| NBG1-10 | 2026-08-31 12:49:55 | 46.25345 | 14.12884 | 29° | 13km/h | 21652m | -15.8m/s | -53.5°C | 4.4% | 0hPa | 2.6V | 00:00:00 | 02:24:22 | 00:00:00 | |
| 9A1FER-3 | 2026-08-31 12:49:47 | 46.25329 | 14.12869 | 14° | 16km/h | 21776m | -20.2m/s | -52.7°C | 4.2% | 0hPa | 2.6V | 00:00:00 | 02:24:14 | 00:00:00 | |
| DO3MHA-12 | 2026-08-31 12:49:46 | 46.25327 | 14.12869 | 355° | 16km/h | 21795m | -18.2m/s | -52.6°C | 4.1% | 0hPa | 2.6V | 00:00:00 | 02:24:13 | 00:00:00 | |
| 9A1FER-10 | 2026-08-31 12:49:44 | 46.25324 | 14.12869 | 354° | 18km/h | 21824m | -10.1m/s | -52.5°C | 4.1% | 0hPa | 2.6V | 00:00:00 | 02:24:11 | 00:00:00 | |
| OE5DXL-15 | 2026-08-31 12:49:38 | 46.25298 | 14.12856 | 28° | 11km/h | 21904m | -13.8m/s | -52.5°C | 4.1% | 0hPa | 2.6V | 00:00:00 | 00:00:00 | 00:00:00 | |
| DO3MHA-12 | 2026-08-31 12:49:36 | 46.25288 | 14.12847 | 41° | 15km/h | 21937m | -18.2m/s | -52.4°C | 4.1% | 0hPa | 2.6V | 00:00:00 | 02:24:03 | 00:00:00 | |
| OE8JPQ-2 | 2026-08-31 12:49:35 | 46.25284 | 14.12842 | 42° | 11km/h | 21955m | -16.4m/s | -52.3°C | 4.0% | 0hPa | 2.6V | 00:00:00 | 00:00:00 | 00:00:00 | |
| 9A1FER-3 | 2026-08-31 12:49:32 | 46.25277 | 14.12829 | 75° | 11km/h | 22008m | -18.9m/s | -52.1°C | 4.0% | 0hPa | 2.5V | 00:00:00 | 02:23:59 | 00:00:00 | |
| IN3HCDX | 2026-08-31 12:49:31 | 46.25277 | 14.12829 | 75° | 15km/h | 22008m | -18.9m/s | -52.2°C | 1.4% | 0hPa | 2.5V | 00:00:00 | 00:00:00 | 00:00:00 | |
| IV3AMH | 2026-08-31 12:49:29 | 46.25275 | 14.12815 | 87° | 13km/h | 22054m | -12.9m/s | -51.9°C | 1.4% | 0hPa | 2.5V | 00:00:00 | 00:00:00 | 00:00:00 | |
| OE5DRO-10 | 2026-08-31 12:49:28 | 46.25275 | 14.12810 | 90° | 7km/h | 22068m | -16.1m/s | -51.8°C | 3.8% | 0hPa | 2.5V | 00:00:00 | 00:00:00 | 00:00:00 | |
| DO3MHA-12 | 2026-08-31 12:49:26 | 46.25274 | 14.12802 | 84° | 9km/h | 22101m | -17.5m/s | -51.7°C | 3.7% | 0hPa | 2.6V | 00:00:00 | 02:23:53 | 00:00:00 | |
| IN3HCDX1 | 2026-08-31 12:49:25 | 46.25274 | 14.12802 | 85° | 11km/h | 22101m | -17.6m/s | -51.7°C | 1.3% | 0hPa | 2.6V | 08:23:00 | 00:00:00 | 00:00:00 | |
| NBG1-10 | 2026-08-31 12:49:22 | 46.25277 | 14.12787 | 136° | 5km/h | 22176m | -17.8m/s | -51.8°C | 3.8% | 0hPa | 2.6V | 08:23:00 | 02:23:49 | 00:00:00 | |
| 9A1FER-3 | 2026-08-31 12:49:17 | 46.25286 | 14.12783 | 189° | 7km/h | 22255m | -15.4m/s | -52.1°C | 4.0% | 0hPa | 2.5V | 08:23:00 | 02:23:44 | 00:00:00 | |
| DO3MHA-11 | 2026-08-31 12:49:16 | 46.25287 | 14.12784 | 205° | 7km/h | 22270m | -13.5m/s | -52.1°C | 4.0% | 0hPa | 2.5V | 08:23:00 | 02:23:43 | 00:00:00 | |
| OE8JPQ-2 | 2026-08-31 12:49:15 | 46.25288 | 14.12784 | 228° | 5km/h | 22284m | -15.8m/s | -52.1°C | 4.0% | 0hPa | 2.6V | 00:00:00 | 00:00:00 | 00:00:00 | |
| PETON7-10 | 2026-08-31 12:49:14 | 46.25288 | 14.12785 | 297° | 7km/h | 22299m | -15.9m/s | -52.1°C | 4.0% | 0hPa | 2.6V | 00:00:00 | 00:00:00 | 00:00:00 | |
| OE5DXL-15 | 2026-08-31 12:49:09 | 46.25279 | 14.12777 | 62° | 7km/h | 22410m | -19.7m/s | -52.1°C | 3.9% | 0hPa | 2.5V | 00:00:00 | 00:00:00 | 00:00:00 | |
| DO3MHA-11 | 2026-08-31 12:49:06 | 46.25277 | 14.12770 | 73° | 5km/h | 22451m | -21.5m/s | -52.0°C | 3.8% | 0hPa | 2.5V | 00:00:00 | 02:23:33 | 00:00:00 | |
| IN3HCDX1 | 2026-08-31 12:49:04 | 46.25277 | 14.12767 | 90° | 9km/h | 22474m | -23.3m/s | -52.1°C | 1.3% | 0hPa | 2.5V | 08:24:00 | 00:00:00 | 00:00:00 | |
| 9A1FER-3 | 2026-08-31 12:49:02 | 46.25279 | 14.12759 | 119° | 4km/h | 22536m | -19.3m/s | -52.0°C | 3.8% | 0hPa | 2.5V | 00:00:00 | 02:23:29 | 00:00:00 | |
| 9A1FER-10 | 2026-08-31 12:48:59 | 46.25280 | 14.12758 | 262° | 5km/h | 22591m | -18.1m/s | -52.0°C | 3.7% | 0hPa | 2.5V | 00:00:00 | 02:23:26 | 00:00:00 | |
| PETON7-10 | 2026-08-31 12:48:58 | 46.25280 | 14.12759 | 274° | 5km/h | 22609m | -16.2m/s | -52.1°C | 3.8% | 0hPa | 2.5V | 00:00:00 | 00:00:00 | 00:00:00 | |
| DO3MHA-11 | 2026-08-31 12:48:56 | 46.25280 | 14.12761 | 267° | 5km/h | 22638m | -13.8m/s | -52.2°C | 3.9% | 0hPa | 2.5V | 00:00:00 | 02:23:23 | 00:00:00 | |
| OE8JPQ-2 | 2026-08-31 12:48:55 | 46.25280 | 14.12762 | 291° | 9km/h | 22652m | -13.7m/s | -52.2°C | 3.9% | 0hPa | 2.5V | 00:00:00 | 02:23:22 | 00:00:00 | |
| IN3HCDX | 2026-08-31 12:48:51 | 46.25282 | 14.12765 | 203° | 5km/h | 22687m | -13.8m/s | -52.4°C | 1.4% | 0hPa | 2.5V | 08:24:00 | 00:00:00 | 00:00:00 | |
| IW2NTF | 2026-08-31 12:48:50 | 46.25290 | 14.12759 | 98° | 9km/h | 22769m | -15.6m/s | -52.6°C | 3.9% | 0hPa | 2.5V | 08:24:08 | 02:23:13 | 00:00:00 | |
| OE5DRO-10 | 2026-08-31 12:48:50 | 46.25284 | 14.12765 | 176° | 11km/h | 22716m | -16.4m/s | -52.2°C | 3.9% | 0hPa | 2.5V | 00:00:00 | 00:00:00 | 00:00:00 | |
| NBG1-10 | 2026-08-31 12:48:49 | 46.25286 | 14.12765 | 174° | 11km/h | 22730m | -13.1m/s | -52.3°C | 3.8% | 0hPa | 2.5V | 00:00:00 | 02:23:16 | 00:00:00 | |
| OE3JTB-15 | 2026-08-31 12:48:48 | 46.25288 | 14.12764 | 139° | 11km/h | 22743m | -12.4m/s | -52.3°C | 3.8% | 0hPa | 2.5V | 00:00:00 | 00:00:00 | 00:00:00 | |
| 9A1FER-3 | 2026-08-31 12:48:47 | 46.25289 | 14.12762 | 121° | 11km/h | 22756m | -12.6m/s | -52.4°C | 3.9% | 0hPa | 2.5V | 00:00:00 | 02:23:14 | 00:00:00 | |
| DO3MHA-11 | 2026-08-31 12:48:46 | 46.25290 | 14.12759 | 99° | 13km/h | 22770m | -15.5m/s | -52.5°C | 3.9% | 0hPa | 2.5V | 00:00:00 | 02:23:13 | 00:00:00 | |
| IN3HCDX1 | 2026-08-31 12:48:45 | 46.25290 | 14.12755 | 84° | 11km/h | 22785m | -15.2m/s | -52.7°C | 1.4% | 0hPa | 2.6V | 08:24:00 | 00:00:00 | 00:00:00 | |
| 9A1FER-10 | 2026-08-31 12:48:44 | 46.25289 | 14.12751 | 77° | 9km/h | 22800m | -13.1m/s | -52.7°C | 4.0% | 0hPa | 2.6V | 08:24:00 | 02:23:11 | 00:00:00 | |
| PETON7-10 | 2026-08-31 12:48:43 | 46.25288 | 14.12747 | 67° | 9km/h | 22812m | -11.7m/s | -52.8°C | 4.0% | 0hPa | 2.6V | 00:00:00 | 02:23:10 | 00:00:00 | |
| OE5DXL-15 | 2026-08-31 12:48:38 | 46.25277 | 14.12727 | 47° | 15km/h | 22869m | -10.3m/s | -52.9°C | 4.1% | 0hPa | 2.6V | 08:24:00 | 00:00:00 | 00:00:00 | |
| DO3MHA-11 | 2026-08-31 12:48:36 | 46.25274 | 14.12721 | 66° | 5km/h | 22895m | -15.1m/s | -53.0°C | 4.1% | 0hPa | 2.7V | 00:00:00 | 02:23:03 | 00:00:00 | |
| OE8JPQ-2 | 2026-08-31 12:48:35 | 46.25273 | 14.12718 | 66° | 13km/h | 22910m | -14.0m/s | -53.0°C | 4.1% | 0hPa | 2.7V | 00:00:00 | 00:00:00 | 00:00:00 | |
| 9A1FER-3 | 2026-08-31 12:48:32 | 46.25273 | 14.12711 | 100° | 13km/h | 22952m | -12.7m/s | -52.9°C | 4.1% | 0hPa | 2.5V | 00:00:00 | 02:22:59 | 00:00:00 | |
| OE5DRO-10 | 2026-08-31 12:48:31 | 46.25273 | 14.12709 | 108° | 15km/h | 22965m | -12.8m/s | -53.0°C | 4.1% | 0hPa | 2.5V | 08:24:00 | 00:00:00 | 00:00:00 | |
| 9A1FER-10 | 2026-08-31 12:48:29 | 46.25273 | 14.12707 | 338° | 15km/h | 22992m | -13.0m/s | -53.0°C | 4.0% | 0hPa | 2.6V | 00:00:00 | 02:22:56 | 00:00:00 | |
| PETON7-10 | 2026-08-31 12:48:28 | 46.25273 | 14.12708 | 304° | 16km/h | 23005m | -14.5m/s | -53.0°C | 4.1% | 0hPa | 2.6V | 00:00:00 | 00:00:00 | 00:00:00 | |
| DO3MHA-12 | 2026-08-31 12:48:26 | 46.25272 | 14.12712 | 287° | 18km/h | 23034m | -15.4m/s | -53.1°C | 4.0% | 0hPa | 2.6V | 00:00:00 | 02:22:53 | 00:00:00 | |
| IN3HCDX1 | 2026-08-31 12:48:23 | 46.25271 | 14.12723 | 267° | 16km/h | 23067m | -16.1m/s | -53.2°C | 1.4% | 0hPa | 2.6V | 08:24:00 | 00:00:00 | 00:00:00 | |
| SOBLACK | 2026-08-31 12:48:22 | 46.25272 | 14.12730 | 257° | 18km/h | 23083m | -15.9m/s | -53.2°C | 1.4% | 0hPa | 2.6V | 00:00:00 | 00:00:00 | 00:00:00 | |
| OE3JTB-15 | 2026-08-31 12:48:19 | 46.25277 | 14.12760 | 256° | 24km/h | 23140m | -14.2m/s | -53.3°C | 4.1% | 0hPa | 2.6V | 00:00:00 | 02:22:46 | 00:00:00 | |
| 9A1FER-3 | 2026-08-31 12:48:17 | 46.25279 | 14.12773 | 265° | 22km/h | 23167m | -13.5m/s | -53.4°C | 4.2% | 0hPa | 2.6V | 00:00:00 | 02:22:44 | 00:00:00 | |
| DO3MHA-12 | 2026-08-31 12:48:16 | 46.25279 | 14.12779 | 267° | 22km/h | 23180m | -13.9m/s | -53.4°C | 4.2% | 0hPa | 2.6V | 00:00:00 | 02:22:43 | 00:00:00 | |
| OE8JPQ-2 | 2026-08-31 12:48:15 | 46.25279 | 14.12785 | 272° | 24km/h | 23193m | -10.6m/s | -53.4°C | 4.2% | 0hPa | 2.6V | 00:00:00 | 00:00:00 | 00:00:00 | |
| 9A1FER-10 | 2026-08-31 12:48:14 | 46.25279 | 14.12791 | 280° | 24km/h | 23205m | -13.7m/s | -53.5°C | 4.2% | 0hPa | 2.6V | 00:00:00 | 02:22:41 | 00:00:00 | |
| PETON7-10 | 2026-08-31 12:48:13 | 46.25278 | 14.12798 | 283° | 24km/h | 23220m | -15.3m/s | -53.5°C | 4.2% | 0hPa | 2.6V | 00:00:00 | 00:00:00 | 00:00:00 | |
| OE5DRO-10 | 2026-08-31 12:48:12 | 46.25277 | 14.12806 | 284° | 26km/h | 23235m | -14.5m/s | -53.6°C | 4.2% | 0hPa | 2.6V | 00:00:00 | 00:00:00 | 00:00:00 | |
| IV3AMH | 2026-08-31 12:48:11 | 46.25275 | 14.12814 | 291° | 24km/h | 23249m | -12.6m/s | -53.6°C | 1.5% | 0hPa | 2.6V | 08:25:00 | 00:00:00 | 00:00:00 | |
| DO3MHA-12 | 2026-08-31 12:48:06 | 46.25259 | 14.12853 | 313° | 26km/h | 23310m | -11.5m/s | -53.2°C | 4.0% | 0hPa | 2.6V | 00:00:00 | 02:22:33 | 00:00:00 | |
| IN3HCDX1 | 2026-08-31 12:48:03 | 46.25249 | 14.12867 | 317° | 27km/h | 23336m | -10.4m/s | -53.2°C | 1.4% | 0hPa | 2.6V | 08:25:00 | 00:00:00 | 00:00:00 | |
| 9A1FER-3 | 2026-08-31 12:48:02 | 46.25240 | 14.12879 | 318° | 24km/h | 23363m | -12.7m/s | -53.2°C | 4.1% | 0hPa | 2.6V | 00:00:00 | 02:22:29 | 00:00:00 | |
| SOBLACK | 2026-08-31 12:48:01 | 46.25241 | 14.12879 | 318° | 22km/h | 23363m | -12.7m/s | -53.3°C | 1.9% | 0hPa | 2.6V | 00:00:00 | 00:00:00 | 00:00:00 | |
| 9A1FER-10 | 2026-08-31 12:47:59 | 46.25226 | 14.12893 | 334° | 26km/h | 23402m | -13.1m/s | -53.3°C | 4.0% | 0hPa | 2.6V | 00:00:00 | 02:22:26 | 00:00:00 | |
| PETON7-10 | 2026-08-31 12:47:58 | 46.25220 | 14.12897 | 339° | 26km/h | 23414m | -11.5m/s | -53.3°C | 4.1% | 0hPa | 2.6V | 00:00:00 | 02:22:25 | 00:00:00 | |
| DO3MHA-12 | 2026-08-31 12:47:56 | 46.25207 | 14.12903 | 345° | 24km/h | 23439m | -12.4m/s | -53.4°C | 4.1% | 0hPa | 2.6V | 00:00:00 | 02:22:23 | 00:00:00 | |
| DO3MHA-11 | 2026-08-31 12:47:55 | 46.25201 | 14.12906 | 349° | 24km/h | 23453m | -15.9m/s | -53.4°C | 4.1% | 0hPa | 2.6V | 00:00:00 | 02:22:22 | 00:00:00 | |
| OE5DRO-10 | 2026-08-31 12:47:53 | 46.25189 | 14.12909 | 353° | 24km/h | 23482m | -13.4m/s | -53.5°C | 4.2% | 0hPa | 2.6V | 00:00:00 | 00:00:00 | 00:00:00 | |
| IW2NTF | 2026-08-31 12:47:50 | 46.25142 | 14.12901 | 19° | 29km/h | 23581m | -13.2m/s | -53.7°C | 4.2% | 0hPa | 2.6V | 08:25:09 | 02:22:12 | 00:00:00 | |
| OE3JTB-15 | 2026-08-31 12:47:50 | 46.25173 | 14.12910 | 2° | 18km/h | 23522m | -13.7m/s | -53.5°C | 4.3% | 0hPa | 2.5V | 08:25:00 | 00:00:00 | 00:00:00 | |
| 9A1FER-3 | 2026-08-31 12:47:47 | 46.25155 | 14.12907 | 11° | 24km/h | 23556m | -10.1m/s | -53.6°C | 4.2% | 0hPa | 2.6V | 00:00:00 | 02:22:14 | 00:00:00 | |
| DO3MHA-12 | 2026-08-31 12:47:46 | 46.25148 | 14.12905 | 20° | 27km/h | 23568m | -14.3m/s | -53.6°C | 4.2% | 0hPa | 2.6V | 00:00:00 | 02:22:13 | 00:00:00 | |
| DO3MHA-11 | 2026-08-31 12:47:45 | 46.25142 | 14.12901 | 20° | 26km/h | 23582m | -13.2m/s | -53.6°C | 4.2% | 0hPa | 2.6V | 08:25:00 | 02:22:12 | 00:00:00 | |
| 9A1FER-10 | 2026-08-31 12:47:44 | 46.25135 | 14.12897 | 31° | 18km/h | 23597m | -17.6m/s | -53.7°C | 4.2% | 0hPa | 2.5V | 00:00:00 | 02:22:11 | 00:00:00 | |
| NBG1-10 | 2026-08-31 12:47:43 | 46.25128 | 14.12891 | 34° | 15km/h | 23614m | -16.5m/s | -53.7°C | 4.3% | 0hPa | 2.5V | 00:00:00 | 02:22:10 | 00:00:00 | |
| IN3HCDX1 | 2026-08-31 12:47:42 | 46.25128 | 14.12891 | 34° | 31km/h | 23614m | -16.5m/s | -53.8°C | 1.5% | 0hPa | 2.5V | 08:25:00 | 00:00:00 | 00:00:00 | |
| IW2NTF | 2026-08-31 12:47:40 | 46.25099 | 14.12835 | 67° | 15km/h | 23737m | -11.9m/s | -53.8°C | 4.3% | 0hPa | 2.5V | 08:25:19 | 02:22:02 | 00:00:00 | |
| OE5DXL-15 | 2026-08-31 12:47:38 | 46.25105 | 14.12853 | 61° | 13km/h | 23693m | -15.6m/s | -53.8°C | 4.3% | 0hPa | 2.6V | 00:00:00 | 00:00:00 | 00:00:00 | |
| DO3MHA-12 | 2026-08-31 12:47:36 | 46.25101 | 14.12840 | 66° | 9km/h | 23724m | -14.3m/s | -53.8°C | 4.3% | 0hPa | 2.6V | 08:25:00 | 02:22:03 | 00:00:00 | |
| DO3MHA-11 | 2026-08-31 12:47:35 | 46.25099 | 14.12835 | 68° | 7km/h | 23737m | -11.9m/s | -53.7°C | 4.3% | 0hPa | 2.6V | 00:00:00 | 02:22:02 | 00:00:00 | |
| OE5DRO-10 | 2026-08-31 12:47:34 | 46.25098 | 14.12831 | 66° | 11km/h | 23750m | -13.9m/s | -53.6°C | 4.2% | 0hPa | 2.6V | 00:00:00 | 00:00:00 | 00:00:00 | |
| 9A1FER-3 | 2026-08-31 12:47:32 | 46.25095 | 14.12825 | 41° | 11km/h | 23778m | -16.2m/s | -53.6°C | 4.2% | 0hPa | 2.6V | 00:00:00 | 02:21:59 | 00:00:00 | |
| 9A1FER-10 | 2026-08-31 12:47:29 | 46.25093 | 14.12824 | 343° | 13km/h | 23822m | -12.3m/s | -53.5°C | 4.2% | 0hPa | 2.6V | 00:00:00 | 02:21:56 | 00:00:00 | |
| IW2NTF | 2026-08-31 12:47:28 | 46.25080 | 14.12833 | 309° | 13km/h | 23904m | -13m/s | -53.6°C | 4.3% | 0hPa | 2.6V | 08:25:31 | 02:21:50 | 00:00:00 | |
| PETON7-10 | 2026-08-31 12:47:28 | 46.25091 | 14.12824 | 357° | 13km/h | 23837m | -17.5m/s | -53.4°C | 4.2% | 0hPa | 2.6V | 00:00:00 | 00:00:00 | 00:00:00 | |
| DO3MHA-12 | 2026-08-31 12:47:26 | 46.25087 | 14.12825 | 335° | 15km/h | 23868m | -12.3m/s | -53.4°C | 4.2% | 0hPa | 2.6V | 00:00:00 | 02:21:53 | 00:00:00 | |
| DO3MHA-11 | 2026-08-31 12:47:25 | 46.25085 | 14.12827 | 331° | 15km/h | 23880m | -10.4m/s | -53.5°C | 4.3% | 0hPa | 2.6V | 00:00:00 | 02:21:52 | 00:00:00 | |
| IN3HCDX | 2026-08-31 12:47:24 | 46.25082 | 14.12830 | 320° | 13km/h | 23891m | -12.8m/s | -53.5°C | 1.4% | 0hPa | 2.6V | 00:00:00 | 00:00:00 | 00:00:00 | |
| IN3HCDX1 | 2026-08-31 12:47:22 | 46.25080 | 14.12833 | 310° | 13km/h | 23904m | -13.0m/s | -53.6°C | 1.5% | 0hPa | 2.6V | 08:26:00 | 00:00:00 | 00:00:00 | |
| OE3JTB-15 | 2026-08-31 12:47:21 | 46.25076 | 14.12843 | 294° | 18km/h | 23932m | -14.4m/s | -53.7°C | 4.4% | 0hPa | 2.6V | 00:00:00 | 00:00:00 | 00:00:00 | |
| 9A1FER-3 | 2026-08-31 12:47:17 | 46.25069 | 14.12864 | 312° | 15km/h | 23994m | -17.2m/s | -54.0°C | 4.6% | 0hPa | 2.6V | 00:00:00 | 02:21:44 | 00:00:00 | |
| DO3MHA-12 | 2026-08-31 12:47:16 | 46.25066 | 14.12867 | 332° | 15km/h | 24012m | -20.0m/s | -53.9°C | 4.5% | 0hPa | 2.6V | 00:00:00 | 02:21:43 | 00:00:00 | |
| IW2NTF | 2026-08-31 12:47:15 | 46.25056 | 14.12871 | 348° | 16km/h | 24069m | -15.5m/s | -53.4°C | 4.4% | 0hPa | 2.6V | 08:25:41 | 02:21:40 | 00:00:00 | |
| DO3MHA-11 | 2026-08-31 12:47:15 | 46.25063 | 14.12869 | 337° | 15km/h | 24033m | -20.2m/s | -53.7°C | 4.4% | 0hPa | 2.5V | 00:00:00 | 02:21:42 | 00:00:00 | |
| 9A1FER-10 | 2026-08-31 12:47:14 | 46.25060 | 14.12870 | 351° | 16km/h | 24052m | -18.1m/s | -53.5°C | 4.4% | 0hPa | 2.6V | 00:00:00 | 02:21:41 | 00:00:00 | |
| PETON7-10 | 2026-08-31 12:47:12 | 46.25052 | 14.12872 | 354° | 16km/h | 24085m | -18.1m/s | -53.2°C | 4.3% | 0hPa | 2.7V | 00:00:00 | 02:21:39 | 00:00:00 | |
| NBG1-10 | 2026-08-31 12:47:10 | 46.25043 | 14.12874 | 344° | 18km/h | 24118m | -14.7m/s | -53.1°C | 4.2% | 0hPa | 2.7V | 00:00:00 | 02:21:37 | 00:00:00 | |
| IW2NTF | 2026-08-31 12:47:08 | 46.25021 | 14.12891 | 332° | 16km/h | 24236m | -15m/s | -52.7°C | 4.2% | 0hPa | 2.7V | 08:25:51 | 02:21:30 | 00:00:00 | |
| OE5DXL-15 | 2026-08-31 12:47:08 | 46.25036 | 14.12877 | 327° | 18km/h | 24154m | -19.9m/s | -52.9°C | 4.2% | 0hPa | 2.5V | 00:00:00 | 00:00:00 | 00:00:00 | |
| DO3MHA-12 | 2026-08-31 12:47:06 | 46.25030 | 14.12883 | 322° | 18km/h | 24189m | -16.2m/s | -52.8°C | 4.2% | 0hPa | 2.6V | 00:00:00 | 02:21:33 | 00:00:00 | |
| DO3MHA-11 | 2026-08-31 12:47:05 | 46.25027 | 14.12885 | 328° | 20km/h | 24205m | -16.2m/s | -52.8°C | 4.2% | 0hPa | 2.6V | 00:00:00 | 02:21:32 | 00:00:00 | |
| IN3HCDX | 2026-08-31 12:47:03 | 46.25021 | 14.12891 | 334° | 16km/h | 24236m | -15.0m/s | -52.7°C | 1.4% | 0hPa | 2.6V | 00:00:00 | 00:00:00 | 00:00:00 | |
| 9A1FER-3 | 2026-08-31 12:47:02 | 46.25017 | 14.12894 | 342° | 20km/h | 24251m | -14.4m/s | -52.7°C | 4.2% | 0hPa | 2.6V | 08:25:00 | 02:21:29 | 00:00:00 | |
| IN3HCDX1 | 2026-08-31 12:47:01 | 46.25017 | 14.12894 | 343° | 18km/h | 24251m | -14.5m/s | -52.7°C | 1.4% | 0hPa | 2.6V | 08:26:00 | 00:00:00 | 00:00:00 | |
| 9A1FER-10 | 2026-08-31 12:46:59 | 46.25002 | 14.12896 | 7° | 18km/h | 24298m | -16.1m/s | -52.6°C | 4.1% | 0hPa | 2.6V | 00:00:00 | 02:21:26 | 00:00:00 | |
| PETON7-10 | 2026-08-31 12:46:57 | 46.24991 | 14.12893 | 17° | 18km/h | 24326m | -13.7m/s | -52.5°C | 4.1% | 0hPa | 2.6V | 00:00:00 | 00:00:00 | 00:00:00 | |
| DO3MHA-12 | 2026-08-31 12:46:56 | 46.24985 | 14.12890 | 23° | 18km/h | 24341m | -16.1m/s | -52.5°C | 4.1% | 0hPa | 2.6V | 00:00:00 | 02:21:23 | 00:00:00 | |
| DO3MHA-11 | 2026-08-31 12:46:55 | 46.24979 | 14.12886 | 28° | 16km/h | 24357m | -16.4m/s | -52.5°C | 4.1% | 0hPa | 2.6V | 00:00:00 | 02:21:22 | 00:00:00 | |
| OE3JTB-15 | 2026-08-31 12:46:52 | 46.24963 | 14.12875 | 32° | 15km/h | 24398m | -14.9m/s | -52.3°C | 4.0% | 0hPa | 2.6V | 00:00:00 | 02:21:19 | 00:00:00 | |
| IV3AMH | 2026-08-31 12:46:48 | 46.24955 | 14.12864 | 51° | 13km/h | 24440m | -14.9m/s | -52.4°C | 1.4% | 0hPa | 2.6V | 00:00:00 | 00:00:00 | 00:00:00 | |
| 9A1FER-3 | 2026-08-31 12:46:47 | 46.24950 | 14.12857 | 44° | 16km/h | 24469m | -13.5m/s | -52.4°C | 4.1% | 0hPa | 2.6V | 00:00:00 | 02:21:14 | 00:00:00 | |
| DO3MHA-12 | 2026-08-31 12:46:46 | 46.24947 | 14.12854 | 33° | 13km/h | 24483m | -15.7m/s | -52.3°C | 4.1% | 0hPa | 2.6V | 00:00:00 | 02:21:13 | 00:00:00 | |
| DO3MHA-11 | 2026-08-31 12:46:45 | 46.24944 | 14.12852 | 27° | 18km/h | 24500m | -16.2m/s | -52.3°C | 4.1% | 0hPa | 2.6V | 00:00:00 | 02:21:12 | 00:00:00 | |
| 9A1FER-10 | 2026-08-31 12:46:44 | 46.24940 | 14.12849 | 26° | 16km/h | 24515m | -14.9m/s | -52.2°C | 4.0% | 0hPa | 2.6V | 00:00:00 | 02:21:11 | 00:00:00 | |
| PETON7-10 | 2026-08-31 12:46:42 | 46.24932 | 14.12844 | 21° | 15km/h | 24544m | -15.0m/s | -52.1°C | 4.0% | 0hPa | 2.6V | 00:00:00 | 00:00:00 | 00:00:00 | |
| IN3HCDX | 2026-08-31 12:46:41 | 46.24932 | 14.12844 | 22° | 20km/h | 24544m | -15.0m/s | -52.2°C | 1.3% | 0hPa | 2.6V | 00:00:00 | 00:00:00 | 00:00:00 | |
| IN3HCDX1 | 2026-08-31 12:46:40 | 46.24927 | 14.12841 | 21° | 20km/h | 24560m | -15.0m/s | -52.2°C | 1.4% | 0hPa | 2.6V | 08:26:00 | 00:00:00 | 00:00:00 | |
| OE5DXL-15 | 2026-08-31 12:46:38 | 46.24913 | 14.12833 | 29° | 11km/h | 24595m | -15.6m/s | -52.1°C | 4.0% | 0hPa | 2.6V | 00:00:00 | 00:00:00 | 00:00:00 | |
| NBG1-10 | 2026-08-31 12:46:37 | 46.24910 | 14.12829 | 40° | 11km/h | 24610m | -15.3m/s | -52.0°C | 4.0% | 0hPa | 2.6V | 00:00:00 | 02:21:04 | 00:00:00 | |
| DB0UT-7 | 2026-08-31 12:46:32 | 46.24901 | 14.12810 | 83° | 9km/h | 24674m | -15.0m/s | -51.6°C | 3.8% | 0hPa | 2.6V | 00:00:00 | 00:00:00 | 00:00:00 | |
| DO3MHA-12 | 2026-08-31 12:46:29 | 46.24899 | 14.12799 | 78° | 13km/h | 24729m | -17.0m/s | -51.6°C | 3.8% | 0hPa | 2.6V | 00:00:00 | 02:20:56 | 00:00:00 | |
| PETON7-10 | 2026-08-31 12:46:27 | 46.24898 | 14.12790 | 79° | 9km/h | 24759m | -13.8m/s | -51.7°C | 3.8% | 0hPa | 2.7V | 00:00:00 | 02:20:54 | 00:00:00 | |
| DO3MHA-11 | 2026-08-31 12:46:25 | 46.24897 | 14.12779 | 83° | 9km/h | 24789m | -13.9m/s | -51.7°C | 3.8% | 0hPa | 2.7V | 00:00:00 | 02:20:52 | 00:00:00 | |
| OE3JTB-15 | 2026-08-31 12:46:23 | 46.24896 | 14.12768 | 95° | 22km/h | 24816m | -12.5m/s | -51.9°C | 3.8% | 0hPa | 2.7V | 00:00:00 | 00:00:00 | 00:00:00 | |
| IN3HCDX | 2026-08-31 12:46:21 | 46.24897 | 14.12764 | 111° | 9km/h | 24830m | -14.6m/s | -52.0°C | 1.3% | 0hPa | 2.6V | 08:27:00 | 00:00:00 | 00:00:00 | |
| OE5MMP-10 | 2026-08-31 12:46:20 | 46.24899 | 14.12760 | 156° | 4km/h | 24857m | -13.0m/s | -52.1°C | 3.9% | 0hPa | 2.6V | 00:00:00 | 02:20:47 | 00:00:00 | |
| 9A1FER-3 | 2026-08-31 12:46:17 | 46.24904 | 14.12759 | 177° | 9km/h | 24897m | -10.7m/s | -52.1°C | 4.0% | 0hPa | 2.7V | 00:00:00 | 02:20:44 | 00:00:00 | |
| DO3MHA-11 | 2026-08-31 12:46:15 | 46.24908 | 14.12759 | 175° | 7km/h | 24923m | -12.0m/s | -52.2°C | 4.2% | 0hPa | 2.6V | 08:26:00 | 02:20:42 | 00:00:00 | |
| 9A1FER-10 | 2026-08-31 12:46:14 | 46.24910 | 14.12759 | 178° | 13km/h | 24936m | -13.5m/s | -52.3°C | 4.1% | 0hPa | 2.7V | 00:00:00 | 02:20:41 | 00:00:00 | |
| IV3AMH | 2026-08-31 12:46:12 | 46.24911 | 14.12760 | 279° | 4km/h | 24964m | -14.7m/s | -52.4°C | 1.4% | 0hPa | 2.7V | 00:00:00 | 00:00:00 | 00:00:00 | |
| OE5MMP-10 | 2026-08-31 12:46:09 | 46.24909 | 14.12764 | 331° | 16km/h | 25006m | -18.0m/s | -52.4°C | 4.1% | 0hPa | 2.7V | 00:00:00 | 02:20:36 | 00:00:00 | |
| OE5DXL-15 | 2026-08-31 12:46:08 | 46.24907 | 14.12766 | 336° | 26km/h | 25027m | -24.2m/s | -52.4°C | 4.1% | 0hPa | 2.7V | 00:00:00 | 00:00:00 | 00:00:00 | |
| IW2NTF | 2026-08-31 12:46:05 | 46.24889 | 14.12777 | 341° | 22km/h | 25116m | -17.6m/s | -52.4°C | 4.2% | 0hPa | 2.7V | 08:26:51 | 02:20:30 | 00:00:00 | |
| DO3MHA-11 | 2026-08-31 12:46:05 | 46.24898 | 14.12772 | 336° | 26km/h | 25085m | -14.3m/s | -52.4°C | 4.2% | 0hPa | 2.7V | 00:00:00 | 02:20:32 | 00:00:00 | |
| NBG1-10 | 2026-08-31 12:46:04 | 46.24894 | 14.12774 | 338° | 22km/h | 25100m | -15.1m/s | -52.4°C | 4.2% | 0hPa | 2.7V | 00:00:00 | 02:20:31 | 00:00:00 | |
| DB0UT-7 | 2026-08-31 12:46:02 | 46.24884 | 14.12780 | 342° | 24km/h | 25133m | -15.7m/s | -52.3°C | 4.2% | 0hPa | 2.6V | 00:00:00 | 02:20:29 | 00:00:00 | |
| IN3HCDX1 | 2026-08-31 12:46:00 | 46.24878 | 14.12782 | 344° | 26km/h | 25149m | -16.9m/s | -52.3°C | 1.4% | 0hPa | 2.6V | 08:27:00 | 00:00:00 | 00:00:00 | |
| OE5MMP-10 | 2026-08-31 12:45:59 | 46.24865 | 14.12788 | 342° | 33km/h | 25177m | -13.5m/s | -52.3°C | 4.2% | 0hPa | 2.6V | 00:00:00 | 02:20:26 | 00:00:00 | |
| IW2NTF | 2026-08-31 12:45:57 | 46.24804 | 14.12783 | 31° | 35km/h | 25290m | -15.7m/s | -51.9°C | 4.2% | 0hPa | 2.6V | 08:27:03 | 02:20:18 | 00:00:00 | |
| DO3MHA-11 | 2026-08-31 12:45:55 | 46.24835 | 14.12797 | 2° | 35km/h | 25230m | -13.0m/s | -52.1°C | 4.2% | 0hPa | 2.6V | 00:00:00 | 02:20:22 | 00:00:00 | |
| 9A1FER-3 | 2026-08-31 12:45:47 | 46.24778 | 14.12749 | 53° | 16km/h | 25364m | -17.0m/s | -51.5°C | 4.2% | 0hPa | 2.6V | 00:00:00 | 02:20:14 | 00:00:00 | |
| OE5MMP-10 | 2026-08-31 12:45:46 | 46.24772 | 14.12739 | 55° | 18km/h | 25380m | -14.6m/s | -51.4°C | 4.1% | 0hPa | 2.6V | 08:27:00 | 02:20:13 | 00:00:00 | |
| IW2NTF | 2026-08-31 12:45:45 | 46.24759 | 14.12702 | 81° | 13km/h | 25473m | -22.3m/s | -50.5°C | 3.7% | 0hPa | 2.6V | 08:27:13 | 02:20:08 | 00:00:00 | |
| DO3MHA-11 | 2026-08-31 12:45:45 | 46.24768 | 14.12730 | 58° | 16km/h | 25395m | -14.9m/s | -51.2°C | 4.1% | 0hPa | 2.6V | 00:00:00 | 02:20:12 | 00:00:00 | |
| PETON7-10 | 2026-08-31 12:45:42 | 46.24759 | 14.12707 | 67° | 11km/h | 25451m | -24.0m/s | -50.5°C | 3.7% | 0hPa | 2.6V | 00:00:00 | 02:20:09 | 00:00:00 | |
| OE5DRO-10 | 2026-08-31 12:45:40 | 46.24758 | 14.12697 | 90° | 9km/h | 25494m | -20.0m/s | -50.5°C | 3.7% | 0hPa | 2.6V | 08:27:00 | 00:00:00 | 00:00:00 | |
| IN3HCDX1 | 2026-08-31 12:45:39 | 46.24758 | 14.12697 | 90° | 13km/h | 25494m | -20.0m/s | -50.5°C | 1.2% | 0hPa | 2.7V | 08:27:00 | 00:00:00 | 00:00:00 | |
| OE5DXL-15 | 2026-08-31 12:45:38 | 46.24759 | 14.12691 | 138° | 11km/h | 25534m | -20.5m/s | -50.5°C | 3.7% | 0hPa | 2.7V | 00:00:00 | 00:00:00 | 00:00:00 | |
| OE5MMP-10 | 2026-08-31 12:45:36 | 46.24763 | 14.12688 | 162° | 9km/h | 25578m | -22.2m/s | -50.6°C | 3.7% | 0hPa | 2.7V | 00:00:00 | 02:20:03 | 00:00:00 | |
| IW2NTF | 2026-08-31 12:45:35 | 46.24775 | 14.12685 | 193° | 7km/h | 25675m | -15.8m/s | -50.6°C | 3.8% | 0hPa | 2.7V | 08:27:23 | 02:19:58 | 00:00:00 | |
| DO3MHA-11 | 2026-08-31 12:45:35 | 46.24766 | 14.12686 | 161° | 9km/h | 25599m | -20.2m/s | -50.7°C | 3.8% | 0hPa | 2.7V | 00:00:00 | 02:20:02 | 00:00:00 | |
| IV3AMH | 2026-08-31 12:45:34 | 46.24766 | 14.12686 | 162° | 9km/h | 25599m | -20.3m/s | -50.7°C | 1.3% | 0hPa | 2.7V | 08:27:00 | 00:00:00 | 00:00:00 | |
| DB0UT-7 | 2026-08-31 12:45:32 | 46.24772 | 14.12684 | 183° | 15km/h | 25658m | -19.7m/s | -50.6°C | 3.8% | 0hPa | 2.7V | 00:00:00 | 00:00:00 | 00:00:00 | |
| NBG1-10 | 2026-08-31 12:45:30 | 46.24776 | 14.12686 | 219° | 15km/h | 25691m | -15.3m/s | -50.5°C | 3.9% | 0hPa | 2.6V | 00:00:00 | 02:19:57 | 00:00:00 | |
| OE5WHR-10 | 2026-08-31 12:45:28 | 46.24779 | 14.12691 | 238° | 15km/h | 25723m | -18.9m/s | -50.4°C | 3.8% | 0hPa | 2.6V | 00:00:00 | 00:00:00 | 00:00:00 | |
| PETON7-10 | 2026-08-31 12:45:27 | 46.24781 | 14.12694 | 241° | 11km/h | 25742m | -19.0m/s | -50.4°C | 3.8% | 0hPa | 2.6V | 08:27:00 | 00:00:00 | 00:00:00 | |
| DO3MHA-12 | 2026-08-31 12:45:26 | 46.24782 | 14.12698 | 256° | 11km/h | 25761m | -18.1m/s | -50.3°C | 3.8% | 0hPa | 2.6V | 00:00:00 | 02:19:53 | 00:00:00 | |
| DO3MHA-11 | 2026-08-31 12:45:22 | 46.24781 | 14.12711 | 335° | 11km/h | 25829m | -20.8m/s | -49.9°C | 3.6% | 0hPa | 2.6V | 00:00:00 | 02:19:49 | 00:00:00 | |
| OE5DRO-10 | 2026-08-31 12:45:21 | 46.24780 | 14.12711 | 359° | 16km/h | 25849m | -18.2m/s | -49.9°C | 3.5% | 0hPa | 2.6V | 00:00:00 | 00:00:00 | 00:00:00 | |
| IN3HCDX | 2026-08-31 12:45:19 | 46.24776 | 14.12708 | 43° | 13km/h | 25890m | -21.9m/s | -50.2°C | 1.2% | 0hPa | 2.6V | 08:27:00 | 00:00:00 | 00:00:00 | |
| 9A1FER-3 | 2026-08-31 12:45:18 | 46.24771 | 14.12701 | 61° | 18km/h | 25925m | -15.0m/s | -50.4°C | 3.7% | 0hPa | 2.6V | 00:00:00 | 02:19:44 | 00:00:00 | |
| OE5MMP-10 | 2026-08-31 12:45:16 | 46.24769 | 14.12695 | 74° | 15km/h | 25942m | -17.3m/s | -50.5°C | 3.8% | 0hPa | 2.6V | 00:00:00 | 02:19:43 | 00:00:00 | |
| OE8JPQ-2 | 2026-08-31 12:45:15 | 46.24769 | 14.12691 | 87° | 18km/h | 25959m | -17.6m/s | -50.5°C | 3.8% | 0hPa | 2.6V | 00:00:00 | 00:00:00 | 00:00:00 | |
| 9A1FER-10 | 2026-08-31 12:45:14 | 46.24769 | 14.12687 | 98° | 18km/h | 25978m | -21.1m/s | -50.4°C | 3.7% | 0hPa | 2.6V | 00:00:00 | 02:19:41 | 00:00:00 | |
| DO3MHA-11 | 2026-08-31 12:45:12 | 46.24771 | 14.12678 | 105° | 20km/h | 26012m | -14.6m/s | -50.5°C | 3.9% | 0hPa | 2.6V | 00:00:00 | 02:19:39 | 00:00:00 | |
| IW2NTF | 2026-08-31 12:45:11 | 46.24769 | 14.12641 | 76° | 24km/h | 26112m | -18.1m/s | -50.5°C | 4% | 0hPa | 2.6V | 08:27:48 | 02:19:33 | 00:00:00 | |
| OE5DXL-15 | 2026-08-31 12:45:08 | 46.24771 | 14.12656 | 80° | 16km/h | 26078m | -19.6m/s | -50.4°C | 3.9% | 0hPa | 2.7V | 00:00:00 | 00:00:00 | 00:00:00 | |
| OE5MMP-10 | 2026-08-31 12:45:06 | 46.24769 | 14.12641 | 77° | 22km/h | 26113m | -18.1m/s | -50.5°C | 4.0% | 0hPa | 2.7V | 00:00:00 | 02:19:33 | 00:00:00 | |
| DO3MHA-12 | 2026-08-31 12:45:05 | 46.24768 | 14.12632 | 80° | 22km/h | 26129m | -16.1m/s | -50.5°C | 4.0% | 0hPa | 2.7V | 00:00:00 | 02:19:32 | 08:30:00 | |
| DB0UT-7 | 2026-08-31 12:45:02 | 46.24768 | 14.12606 | 113° | 15km/h | 26186m | -22.5m/s | -50.7°C | 4.1% | 0hPa | 2.6V | 00:00:00 | 02:19:29 | 00:00:00 | |
| OE3JTB-15 | 2026-08-31 12:45:01 | 46.24771 | 14.12599 | 131° | 16km/h | 26208m | -21.3m/s | -50.7°C | 4.1% | 0hPa | 2.6V | 00:00:00 | 02:19:28 | 00:00:00 | |
| 9A1FER-10 | 2026-08-31 12:44:59 | 46.24778 | 14.12592 | 163° | 13km/h | 26249m | -19.6m/s | -50.6°C | 4.1% | 0hPa | 2.6V | 00:00:00 | 02:19:26 | 00:00:00 | |
| IN3HCDX1 | 2026-08-31 12:44:58 | 46.24778 | 14.12592 | 164° | 16km/h | 26249m | -19.6m/s | -50.7°C | 1.4% | 0hPa | 2.6V | 08:27:00 | 00:00:00 | 00:00:00 | |
| PETON7-10 | 2026-08-31 12:44:57 | 46.24787 | 14.12590 | 179° | 11km/h | 26283m | -16.9m/s | -50.5°C | 4.1% | 0hPa | 2.6V | 00:00:00 | 02:19:24 | 00:00:00 | |
| OE5MMP-10 | 2026-08-31 12:44:56 | 46.24792 | 14.12591 | 186° | 11km/h | 26301m | -20.6m/s | -50.3°C | 4.0% | 0hPa | 2.6V | 00:00:00 | 02:19:23 | 00:00:00 | |
| IW2NTF | 2026-08-31 12:44:55 | 46.24812 | 14.12600 | 226° | 5km/h | 26414m | -13.8m/s | -49.4°C | 3.9% | 0hPa | 2.6V | 08:28:04 | 02:19:17 | 00:00:00 | |
| OE8JPQ-2 | 2026-08-31 12:44:55 | 46.24797 | 14.12592 | 192° | 13km/h | 26320m | -17.2m/s | -50.1°C | 4.0% | 0hPa | 2.6V | 00:00:00 | 02:19:22 | 00:00:00 | |
| OE5WHR-10 | 2026-08-31 12:44:53 | 46.24806 | 14.12595 | 194° | 15km/h | 26358m | -22.5m/s | -49.9°C | 4.0% | 0hPa | 2.6V | 00:00:00 | 00:00:00 | 00:00:00 | |
| DO3MHA-11 | 2026-08-31 12:44:52 | 46.24809 | 14.12597 | 206° | 7km/h | 26379m | -19.8m/s | -49.8°C | 4.0% | 0hPa | 2.6V | 00:00:00 | 02:19:19 | 00:00:00 | |
| 9A1FER-3 | 2026-08-31 12:44:47 | 46.24810 | 14.12601 | 352° | 15km/h | 26464m | -15.5m/s | -48.9°C | 3.8% | 0hPa | 2.6V | 08:28:00 | 02:19:14 | 00:00:00 | |
| OE5MMP-10 | 2026-08-31 12:44:46 | 46.24808 | 14.12601 | 13° | 15km/h | 26480m | -17.3m/s | -48.7°C | 3.7% | 0hPa | 2.7V | 00:00:00 | 02:19:13 | 00:00:00 | |
| IW2NTF | 2026-08-31 12:44:44 | 46.24791 | 14.12588 | 34° | 18km/h | 26589m | -16.9m/s | -48.3°C | 3.6% | 0hPa | 2.7V | 08:28:14 | 02:19:07 | 00:00:00 | |
| 9A1FER-10 | 2026-08-31 12:44:44 | 46.24803 | 14.12599 | 21° | 16km/h | 26509m | -13.1m/s | -48.5°C | 3.6% | 0hPa | 2.6V | 00:00:00 | 02:19:11 | 00:00:00 | |
| OE5DRO-10 | 2026-08-31 12:44:43 | 46.24801 | 14.12598 | 27° | 16km/h | 26526m | -19.7m/s | -48.4°C | 3.6% | 0hPa | 2.6V | 00:00:00 | 00:00:00 | 00:00:00 | |
| DO3MHA-11 | 2026-08-31 12:44:42 | 46.24798 | 14.12595 | 32° | 16km/h | 26547m | -22.9m/s | -48.4°C | 3.6% | 0hPa | 2.6V | 08:28:00 | 02:19:09 | 00:00:00 | |
| OE5DXL-15 | 2026-08-31 12:44:38 | 46.24784 | 14.12580 | 53° | 11km/h | 26621m | -18.5m/s | -48.1°C | 3.5% | 0hPa | 2.7V | 00:00:00 | 00:00:00 | 00:00:00 | |
| OE5MMP-10 | 2026-08-31 12:44:36 | 46.24781 | 14.12571 | 64° | 16km/h | 26660m | -18.6m/s | -48.0°C | 3.5% | 0hPa | 2.7V | 00:00:00 | 02:19:03 | 00:00:00 | |
| OE8JPQ-2 | 2026-08-31 12:44:35 | 46.24779 | 14.12566 | 72° | 13km/h | 26680m | -20.4m/s | -47.9°C | 3.4% | 0hPa | 2.7V | 08:28:00 | 00:00:00 | 00:00:00 | |
| IW2NTF | 2026-08-31 12:44:34 | 46.24778 | 14.12535 | 102° | 18km/h | 26789m | -18.1m/s | -47.6°C | 3.4% | 0hPa | 2.7V | 08:28:24 | 02:18:57 | 00:00:00 | |
| DB0UT-7 | 2026-08-31 12:44:32 | 46.24777 | 14.12549 | 82° | 9km/h | 26748m | -22.9m/s | -47.6°C | 3.4% | 0hPa | 2.6V | 00:00:00 | 00:00:00 | 00:00:00 | |
| OE3JTB-15 | 2026-08-31 12:44:31 | 46.24777 | 14.12542 | 91° | 9km/h | 26770m | -20.4m/s | -47.6°C | 3.4% | 0hPa | 2.6V | 00:00:00 | 00:00:00 | 00:00:00 | |
| OE5WHR-10 | 2026-08-31 12:44:30 | 46.24777 | 14.12535 | 103° | 15km/h | 26789m | -18.1m/s | -47.5°C | 3.4% | 0hPa | 2.6V | 00:00:00 | 02:18:57 | 00:00:00 | |
| 9A1FER-10 | 2026-08-31 12:44:29 | 46.24778 | 14.12528 | 103° | 11km/h | 26807m | -16.2m/s | -47.5°C | 3.4% | 0hPa | 2.6V | 00:00:00 | 02:18:56 | 00:00:00 | |
| PETON7-10 | 2026-08-31 12:44:27 | 46.24782 | 14.12517 | 125° | 9km/h | 26836m | -11.8m/s | -47.4°C | 3.4% | 0hPa | 2.6V | 00:00:00 | 00:00:00 | 00:00:00 | |
| OE5MMP-10 | 2026-08-31 12:44:26 | 46.24784 | 14.12512 | 130° | 9km/h | 26848m | -12.7m/s | -47.3°C | 3.4% | 0hPa | 2.6V | 00:00:00 | 02:18:53 | 00:00:00 | |
| IW2NTF | 2026-08-31 12:44:25 | 46.24796 | 14.12493 | 135° | 4km/h | 26965m | -20m/s | -47.3°C | 3.2% | 0hPa | 2.6V | 08:28:34 | 02:18:47 | 00:00:00 | |
| OE5DRO-10 | 2026-08-31 12:44:24 | 46.24789 | 14.12504 | 129° | 5km/h | 26878m | -21.8m/s | -47.2°C | 3.2% | 0hPa | 2.7V | 00:00:00 | 00:00:00 | 00:00:00 | |
| IV3AMH | 2026-08-31 12:44:18 | 46.24797 | 14.12492 | 154° | 7km/h | 26985m | -18.1m/s | -47.3°C | 1.1% | 0hPa | 2.7V | 00:00:00 | 00:00:00 | 00:00:00 | |
| 9A1FER-3 | 2026-08-31 12:44:17 | 46.24799 | 14.12489 | 140° | 4km/h | 27025m | -20.7m/s | -47.3°C | 3.3% | 0hPa | 2.7V | 00:00:00 | 02:18:44 | 00:00:00 | |
| OE5MMP-10 | 2026-08-31 12:44:16 | 46.24800 | 14.12488 | 169° | 4km/h | 27044m | -17.4m/s | -47.3°C | 3.3% | 0hPa | 2.7V | 08:28:00 | 02:18:43 | 00:00:00 | |
| IN3HCDX | 2026-08-31 12:44:15 | 46.24800 | 14.12488 | 170° | 5km/h | 27044m | -17.5m/s | -47.3°C | 1.1% | 0hPa | 2.6V | 08:28:00 | 00:00:00 | 00:00:00 | |
| 9A1FER-10 | 2026-08-31 12:44:14 | 46.24803 | 14.12488 | 180° | 5km/h | 27076m | -14.6m/s | -47.2°C | 3.3% | 0hPa | 2.6V | 08:28:00 | 02:18:41 | 00:00:00 | |
| IW2NTF | 2026-08-31 12:44:13 | 46.24802 | 14.12487 | 1° | 5km/h | 27178m | -15m/s | -47.5°C | 3.4% | 0hPa | 2.6V | 08:28:46 | 02:18:35 | 00:00:00 | |
| PETON7-10 | 2026-08-31 12:44:12 | 46.24803 | 14.12487 | 125° | 7km/h | 27110m | -19.6m/s | -47.3°C | 3.3% | 0hPa | 2.6V | 00:00:00 | 02:18:39 | 00:00:00 | |
| OE5DXL-15 | 2026-08-31 12:44:08 | 46.24802 | 14.12487 | 2° | 13km/h | 27178m | -14.9m/s | -47.5°C | 3.4% | 0hPa | 2.6V | 08:28:00 | 00:00:00 | 00:00:00 | |
| OE5MMP-10 | 2026-08-31 12:44:06 | 46.24800 | 14.12486 | 32° | 13km/h | 27208m | -16.6m/s | -47.5°C | 3.4% | 0hPa | 2.6V | 00:00:00 | 02:18:33 | 00:00:00 | |
| OE5DRO-10 | 2026-08-31 12:44:05 | 46.24799 | 14.12485 | 21° | 15km/h | 27227m | -22.1m/s | -47.5°C | 3.4% | 0hPa | 2.6V | 00:00:00 | 00:00:00 | 00:00:00 | |
| IW2NTF | 2026-08-31 12:44:03 | 46.24792 | 14.12460 | 87° | 20km/h | 27384m | -17.5m/s | -47.3°C | 3.4% | 0hPa | 2.6V | 08:30:00 | 02:18:25 | 00:00:00 | |
| 9A1FER-3 | 2026-08-31 12:44:02 | 46.24794 | 14.12480 | 54° | 15km/h | 27296m | -24.8m/s | -47.3°C | 3.4% | 0hPa | 2.6V | 00:00:00 | 02:18:29 | 00:00:00 | |
| OE3JTB-15 | 2026-08-31 12:44:01 | 46.24793 | 14.12477 | 78° | 13km/h | 27322m | -27.2m/s | -47.2°C | 3.4% | 0hPa | 2.6V | 00:00:00 | 00:00:00 | 00:00:00 | |
| 9A1FER-10 | 2026-08-31 12:43:59 | 46.24792 | 14.12466 | 84° | 16km/h | 27367m | -17.2m/s | -47.2°C | 3.4% | 0hPa | 2.6V | 00:00:00 | 02:18:26 | 00:00:00 | |
| PETON7-10 | 2026-08-31 12:43:57 | 46.24791 | 14.12453 | 85° | 15km/h | 27402m | -17.6m/s | -47.3°C | 3.4% | 0hPa | 2.6V | 00:00:00 | 00:00:00 | 00:00:00 | |
| OE5MMP-10 | 2026-08-31 12:43:56 | 46.24791 | 14.12445 | 86° | 15km/h | 27419m | -16.2m/s | -47.3°C | 3.4% | 0hPa | 2.6V | 00:00:00 | 02:18:23 | 00:00:00 | |
| OE8JPQ-2 | 2026-08-31 12:43:55 | 46.24790 | 14.12438 | 78° | 11km/h | 27436m | -18.1m/s | -47.3°C | 3.4% | 0hPa | 2.6V | 00:00:00 | 02:18:22 | 00:00:00 | |
| IW2NTF | 2026-08-31 12:43:53 | 46.24775 | 14.12399 | 57° | 15km/h | 27621m | -21.2m/s | -46.9°C | 3.3% | 0hPa | 2.6V | 08:30:00 | 02:18:13 | 00:00:00 | |
| 9A1FER-3 | 2026-08-31 12:43:47 | 46.24777 | 14.12402 | 48° | 11km/h | 27601m | -21.0m/s | -46.9°C | 3.3% | 0hPa | 2.7V | 00:00:00 | 02:18:14 | 00:00:00 | |
| DO3MHA-11 | 2026-08-31 12:43:46 | 46.24775 | 14.12399 | 58° | 11km/h | 27622m | -21.2m/s | -46.9°C | 3.3% | 0hPa | 2.7V | 00:00:00 | 02:18:13 | 00:00:00 | |
| 9A1FER-10 | 2026-08-31 12:43:44 | 46.24771 | 14.12390 | 59° | 11km/h | 27657m | -15.1m/s | -46.9°C | 3.3% | 0hPa | 2.7V | 00:00:00 | 02:18:11 | 00:00:00 | |
| DO3MHA-12 | 2026-08-31 12:43:42 | 46.24768 | 14.12382 | 57° | 9km/h | 27691m | -18.1m/s | -46.8°C | 3.3% | 0hPa | 2.7V | 00:00:00 | 02:18:09 | 00:00:00 | |
| IW2NTF | 2026-08-31 12:43:41 | 46.24762 | 14.12369 | 58° | 4km/h | 27793m | -18.1m/s | -46.6°C | 3.2% | 0hPa | 2.7V | 08:30:00 | 02:18:03 | 00:00:00 | |
| OE5WHR-10 | 2026-08-31 12:43:41 | 46.24767 | 14.12378 | 67° | 13km/h | 27709m | -17.5m/s | -46.8°C | 3.3% | 0hPa | 2.7V | 00:00:00 | 00:00:00 | 08:30:00 | |
| IV3AMH | 2026-08-31 12:43:40 | 46.24767 | 14.12379 | 67° | 11km/h | 27709m | -17.5m/s | -46.8°C | 1.2% | 0hPa | 2.7V | 00:00:00 | 00:00:00 | 00:00:00 | |
| DO3MHA-11 | 2026-08-31 12:43:36 | 46.24762 | 14.12369 | 59° | 13km/h | 27793m | -18.1m/s | -46.5°C | 3.2% | 0hPa | 2.7V | 00:00:00 | 02:18:03 | 00:00:00 | |
| NBG1-10 | 2026-08-31 12:43:35 | 46.24762 | 14.12367 | 84° | 13km/h | 27811m | -17.6m/s | -46.5°C | 3.2% | 0hPa | 2.6V | 00:00:00 | 02:18:02 | 00:00:00 | |
| DB0UT-7 | 2026-08-31 12:43:32 | 46.24762 | 14.12353 | 89° | 15km/h | 27866m | -16.9m/s | -46.4°C | 3.2% | 0hPa | 2.6V | 00:00:00 | 00:00:00 | 00:00:00 | |
| IW2NTF | 2026-08-31 12:43:31 | 46.24757 | 14.12323 | 53° | 5km/h | 27977m | -25.7m/s | -46.4°C | 0% | 0hPa | 2.6V | 08:30:00 | 02:17:53 | 00:00:00 | |
| 9A1FER-10 | 2026-08-31 12:43:29 | 46.24760 | 14.12334 | 73° | 11km/h | 27912m | -16.0m/s | -46.4°C | 3.2% | 0hPa | 2.7V | 00:00:00 | 02:17:56 | 00:00:00 | |
| PETON7-10 | 2026-08-31 12:43:27 | 46.24758 | 14.12325 | 60° | 11km/h | 27955m | -20.2m/s | -46.4°C | 3.2% | 0hPa | 2.7V | 00:00:00 | 02:17:54 | 00:00:00 | |
| DO3MHA-11 | 2026-08-31 12:43:26 | 46.24756 | 14.12323 | 54° | 7km/h | 27978m | -25.6m/s | -46.4°C | 3.2% | 0hPa | 2.7V | 00:00:00 | 02:17:53 | 00:00:00 | |
| DO3MHA-12 | 2026-08-31 12:43:22 | 46.24754 | 14.12319 | 22° | 9km/h | 28065m | -21.8m/s | -46.5°C | 3.2% | 0hPa | 2.7V | 00:00:00 | 02:17:49 | 00:00:00 | |
| 9A1FER-3 | 2026-08-31 12:43:17 | 46.24742 | 14.12316 | 13° | 16km/h | 28192m | -23.6m/s | -46.7°C | 3.3% | 0hPa | 2.7V | 00:00:00 | 02:17:44 | 00:00:00 | |
| DO3MHA-11 | 2026-08-31 12:43:16 | 46.24737 | 14.12314 | 15° | 18km/h | 28214m | -21.0m/s | -46.7°C | 3.3% | 0hPa | 2.7V | 00:00:00 | 02:17:43 | 00:00:00 | |
| OE8JPQ-2 | 2026-08-31 12:43:15 | 46.24732 | 14.12312 | 17° | 15km/h | 28234m | -20.5m/s | -46.7°C | 3.3% | 0hPa | 2.7V | 00:00:00 | 00:00:00 | 00:00:00 | |
| IW2NTF | 2026-08-31 12:43:14 | 46.24717 | 14.12301 | 36° | 20km/h | 28303m | -24.9m/s | -46.7°C | 0% | 0hPa | 2.7V | 08:30:00 | 02:17:39 | 00:00:00 | |
| 9A1FER-10 | 2026-08-31 12:43:14 | 46.24727 | 14.12309 | 24° | 16km/h | 28255m | -21.5m/s | -46.7°C | 3.3% | 0hPa | 2.7V | 00:00:00 | 02:17:41 | 00:00:00 | |
| PETON7-10 | 2026-08-31 12:43:12 | 46.24717 | 14.12301 | 37° | 15km/h | 28303m | -24.8m/s | -46.6°C | 3.2% | 0hPa | 2.7V | 00:00:00 | 00:00:00 | 08:30:00 | |
| OE5DXL-15 | 2026-08-31 12:43:08 | 46.24708 | 14.12281 | 90° | 13km/h | 28381m | -15.6m/s | -46.6°C | 3.2% | 0hPa | 2.6V | 00:00:00 | 02:17:35 | 00:00:00 | |
| OE5MMP-10 | 2026-08-31 12:43:06 | 46.24710 | 14.12271 | 119° | 13km/h | 28419m | -23.8m/s | -46.6°C | 3.2% | 0hPa | 2.6V | 00:00:00 | 02:17:33 | 00:00:00 | |
| IW2NTF | 2026-08-31 12:43:03 | 46.24717 | 14.12241 | 46° | 11km/h | 28628m | -21.7m/s | -47.1°C | 0% | 0hPa | 2.6V | 08:30:00 | 02:17:25 | 00:00:00 | |
| OE3JTB-15 | 2026-08-31 12:43:03 | 46.24718 | 14.12256 | 119° | 13km/h | 28530m | -26.2m/s | -46.9°C | 3.4% | 0hPa | 2.6V | 00:00:00 | 00:00:00 | 08:30:00 | |
| OE5WHR-10 | 2026-08-31 12:43:02 | 46.24718 | 14.12256 | 119° | 11km/h | 28530m | -26.2m/s | -46.9°C | 3.4% | 0hPa | 2.6V | 00:00:00 | 00:00:00 | 00:00:00 | |
| DB0UT-7 | 2026-08-31 12:43:01 | 46.24719 | 14.12252 | 99° | 15km/h | 28556m | -26.5m/s | -47.0°C | 3.5% | 0hPa | 2.6V | 00:00:00 | 02:17:28 | 00:00:00 | |
| 9A1FER-10 | 2026-08-31 12:42:59 | 46.24718 | 14.12244 | 67° | 9km/h | 28606m | -24.2m/s | -47.1°C | 3.6% | 0hPa | 2.6V | 00:00:00 | 02:17:26 | 00:00:00 | |
| PETON7-10 | 2026-08-31 12:42:57 | 46.24715 | 14.12238 | 42° | 11km/h | 28648m | -17.9m/s | -47.1°C | 3.6% | 0hPa | 2.6V | 00:00:00 | 00:00:00 | 00:00:00 | |
| DO3MHA-11 | 2026-08-31 12:42:56 | 46.24712 | 14.12235 | 50° | 7km/h | 28664m | -14.8m/s | -47.0°C | 3.5% | 0hPa | 2.6V | 00:00:00 | 02:17:23 | 00:00:00 | |
| PG1ADW-2 | 2026-08-31 12:42:55 | 46.24710 | 14.12232 | 43° | 13km/h | 28680m | -15.8m/s | -46.9°C | 3.5% | 0hPa | 2.6V | 00:00:00 | 00:00:00 | 00:00:00 | |
| IN3HCDX | 2026-08-31 12:42:54 | 46.24708 | 14.12230 | 24° | 7km/h | 28696m | -17.3m/s | -46.9°C | 1.2% | 0hPa | 2.6V | 00:00:00 | 00:00:00 | 00:00:00 | |
| IW2NTF | 2026-08-31 12:42:50 | 46.24702 | 14.12242 | 301° | 9km/h | 28818m | -26.1m/s | -46.1°C | 0% | 0hPa | 2.6V | 08:30:00 | 02:17:15 | 00:00:00 | |
| OE5DRO-10 | 2026-08-31 12:42:49 | 46.24704 | 14.12239 | 295° | 20km/h | 28793m | -23.2m/s | -46.3°C | 3.4% | 0hPa | 2.6V | 00:00:00 | 00:00:00 | 08:30:00 | |
| 9A1FER-3 | 2026-08-31 12:42:47 | 46.24701 | 14.12244 | 326° | 18km/h | 28843m | -24.2m/s | -45.9°C | 3.3% | 0hPa | 2.6V | 00:00:00 | 02:17:14 | 00:00:00 | |
| DO3MHA-11 | 2026-08-31 12:42:46 | 46.24699 | 14.12245 | 3° | 16km/h | 28867m | -23.0m/s | -45.8°C | 3.2% | 0hPa | 2.6V | 00:00:00 | 02:17:13 | 00:00:00 | |
| 9A1FER-10 | 2026-08-31 12:42:44 | 46.24698 | 14.12240 | 91° | 22km/h | 28909m | -18.6m/s | -45.7°C | 3.3% | 0hPa | 2.6V | 00:00:00 | 02:17:11 | 00:00:00 | |
| OE5WHR-10 | 2026-08-31 12:42:41 | 46.24701 | 14.12217 | 109° | 9km/h | 28962m | -15.8m/s | -45.7°C | 3.3% | 0hPa | 2.7V | 00:00:00 | 02:17:08 | 00:00:00 | |
| IW2NTF | 2026-08-31 12:42:40 | 46.24708 | 14.12196 | 137° | 13km/h | 29024m | -21.7m/s | -45.5°C | 0% | 0hPa | 2.7V | 08:30:00 | 02:17:05 | 00:00:00 | |
| OE5DXL-15 | 2026-08-31 12:42:38 | 46.24708 | 14.12196 | 138° | 11km/h | 29024m | -21.6m/s | -45.5°C | 3.3% | 0hPa | 2.7V | 00:00:00 | 00:00:00 | 00:00:00 | |
| OE5MMP-10 | 2026-08-31 12:42:36 | 46.24709 | 14.12198 | 291° | 18km/h | 29068m | -20.1m/s | -45.3°C | 3.2% | 0hPa | 2.5V | 00:00:00 | 02:17:03 | 00:00:00 | |
| OE8JPQ-2 | 2026-08-31 12:42:35 | 46.24708 | 14.12203 | 296° | 11km/h | 29086m | -15.4m/s | -45.2°C | 3.2% | 0hPa | 2.5V | 00:00:00 | 00:00:00 | 00:00:00 | |
| OE3JTB-15 | 2026-08-31 12:42:34 | 46.24705 | 14.12210 | 300° | 7km/h | 29100m | -12.0m/s | -45.2°C | 3.1% | 0hPa | 2.7V | 00:00:00 | 00:00:00 | 00:00:00 | |
| 9A1FER-3 | 2026-08-31 12:42:32 | 46.24691 | 14.12234 | 314° | 15km/h | 29134m | -22.8m/s | -45.0°C | 3.0% | 0hPa | 2.7V | 00:00:00 | 02:16:59 | 08:30:00 | |
| IW2NTF | 2026-08-31 12:42:31 | 46.24687 | 14.12250 | 162° | 2km/h | 29352m | -21.4m/s | -44.6°C | 0% | 0hPa | 2.6V | 08:30:00 | 02:16:53 | 00:00:00 | |
| DB0UT-7 | 2026-08-31 12:42:31 | 46.24686 | 14.12245 | 285° | 5km/h | 29162m | -32.1m/s | -44.8°C | 2.9% | 0hPa | 2.7V | 00:00:00 | 00:00:00 | 00:00:00 | |
| OE5DRO-10 | 2026-08-31 12:42:30 | 46.24685 | 14.12250 | 351° | 4km/h | 29204m | -50.4m/s | -44.6°C | 2.8% | 0hPa | 2.6V | 00:00:00 | 00:00:00 | 00:00:00 | |
| 9A1FER-10 | 2026-08-31 12:42:29 | 46.24685 | 14.12250 | 184° | 4km/h | 29251m | -45.2m/s | -44.6°C | 2.9% | 0hPa | 2.6V | 00:00:00 | 02:16:56 | 00:00:00 | |
| OE5MMP-10 | 2026-08-31 12:42:27 | 46.24687 | 14.12250 | 163° | 4km/h | 29353m | -21.3m/s | -44.5°C | 3.0% | 0hPa | 2.6V | 00:00:00 | 02:16:53 | 00:00:00 | |
| DO3MHA-11 | 2026-08-31 12:42:26 | 46.24687 | 14.12250 | 163° | 5km/h | 29353m | -21.3m/s | -44.5°C | 3.0% | 0hPa | 2.6V | 00:00:00 | 02:16:53 | 00:00:00 | |
| IV3AMH | 2026-08-31 12:42:21 | 46.24689 | 14.12249 | 140° | 4km/h | 29360m | 19.1m/s | -44.7°C | 1.0% | 0hPa | 2.6V | 00:00:00 | 00:00:00 | 00:00:00 | |
| IN3HCDX1 | 2026-08-31 12:42:17 | 46.24685 | 14.12247 | 295° | 4km/h | 29300m | 6.7m/s | -44.9°C | 1.0% | 0hPa | 2.6V | 00:00:00 | 00:00:00 | 00:00:00 | |
| IW2NTF | 2026-08-31 12:42:15 | 46.24687 | 14.12251 | 211° | 5km/h | 29281m | 6.6m/s | -44.9°C | 0% | 0hPa | 2.6V | 08:30:00 | 02:16:41 | 00:00:00 | |
| DO3MHA-11 | 2026-08-31 12:42:15 | 46.24686 | 14.12250 | 226° | 5km/h | 29287m | 5.6m/s | -44.8°C | 3.0% | 0hPa | 2.6V | 00:00:00 | 02:16:42 | 00:00:00 | |
| 9A1FER-10 | 2026-08-31 12:42:14 | 46.24687 | 14.12251 | 212° | 7km/h | 29281m | 6.5m/s | -44.8°C | 3.0% | 0hPa | 2.6V | 00:00:00 | 02:16:41 | 00:00:00 | |
| OE5WHR-10 | 2026-08-31 12:42:13 | 46.24688 | 14.12251 | 166° | 7km/h | 29275m | 6.8m/s | -44.9°C | 3.0% | 0hPa | 2.6V | 00:00:00 | 00:00:00 | 00:00:00 | |
| PETON7-10 | 2026-08-31 12:42:11 | 46.24689 | 14.12249 | 124° | 7km/h | 29263m | 5.2m/s | -44.7°C | 2.9% | 0hPa | 2.6V | 00:00:00 | 00:00:00 | 00:00:00 | |
| IN3HCDX | 2026-08-31 12:42:10 | 46.24689 | 14.12249 | 125° | 5km/h | 29263m | 5.3m/s | -44.8°C | 1.0% | 0hPa | 2.6V | 00:00:00 | 00:00:00 | 00:00:00 | |
| OE5DXL-15 | 2026-08-31 12:42:08 | 46.24693 | 14.12245 | 138° | 5km/h | 29245m | 4.8m/s | -44.9°C | 3.0% | 0hPa | 2.6V | 00:00:00 | 00:00:00 | 00:00:00 | |
| DO3MHA-12 | 2026-08-31 12:42:07 | 46.24693 | 14.12243 | 90° | 7km/h | 29239m | 5.9m/s | -45.0°C | 3.0% | 0hPa | 2.6V | 00:00:00 | 02:16:34 | 00:00:00 | |
| IW2NTF | 2026-08-31 12:42:05 | 46.24688 | 14.12240 | 357° | 11km/h | 29221m | 5m/s | -45.2°C | 0% | 0hPa | 2.7V | 08:30:00 | 02:16:31 | 00:00:00 | |
| OE5MMP-10 | 2026-08-31 12:42:05 | 46.24691 | 14.12240 | 17° | 7km/h | 29227m | 5.6m/s | -45.0°C | 3.0% | 0hPa | 2.6V | 00:00:00 | 02:16:32 | 00:00:00 | |
| OE3JTB-15 | 2026-08-31 12:42:03 | 46.24686 | 14.12241 | 338° | 5km/h | 29215m | 6.6m/s | -45.2°C | 3.1% | 0hPa | 2.6V | 00:00:00 | 02:16:30 | 00:00:00 | |
| DB0UT-7 | 2026-08-31 12:42:01 | 46.24684 | 14.12246 | 270° | 5km/h | 29203m | 5.1m/s | -45.1°C | 3.1% | 0hPa | 2.6V | 00:00:00 | 02:16:28 | 00:00:00 | |
| 9A1FER-3 | 2026-08-31 12:42:00 | 46.24684 | 14.12249 | 260° | 5km/h | 29198m | 5.3m/s | -45.1°C | 3.1% | 0hPa | 2.6V | 00:00:00 | 02:16:27 | 00:00:00 | |
| 9A1FER-10 | 2026-08-31 12:41:59 | 46.24684 | 14.12252 | 256° | 5km/h | 29192m | 6.5m/s | -45.0°C | 3.1% | 0hPa | 2.6V | 00:00:00 | 02:16:26 | 08:30:00 | |
| IW2NTF | 2026-08-31 12:41:55 | 46.24689 | 14.12258 | 205° | 11km/h | 29162m | 6.7m/s | -45.1°C | 0% | 0hPa | 2.6V | 08:30:00 | 02:16:21 | 00:00:00 | |
| OE5MMP-10 | 2026-08-31 12:41:55 | 46.24687 | 14.12257 | 205° | 7km/h | 29169m | 6.3m/s | -45.0°C | 3.1% | 0hPa | 2.7V | 00:00:00 | 02:16:22 | 00:00:00 | |
| PG1ADW-2 | 2026-08-31 12:41:54 | 46.24689 | 14.12258 | 206° | 5km/h | 29163m | 6.6m/s | -45.0°C | 3.1% | 0hPa | 2.7V | 00:00:00 | 00:00:00 | 00:00:00 | |
| OE5WHR-10 | 2026-08-31 12:41:52 | 46.24695 | 14.12262 | 212° | 5km/h | 29151m | 4.8m/s | -44.9°C | 3.1% | 0hPa | 2.7V | 00:00:00 | 00:00:00 | 00:00:00 | |
| IN3HCDX | 2026-08-31 12:41:49 | 46.24698 | 14.12266 | 218° | 4km/h | 29139m | 7.2m/s | -45.0°C | 1.0% | 0hPa | 2.7V | 00:00:00 | 00:00:00 | 00:00:00 | |
| DO3MHA-12 | 2026-08-31 12:41:46 | 46.24695 | 14.12265 | 336° | 15km/h | 29114m | 6.3m/s | -45.1°C | 3.0% | 0hPa | 2.7V | 00:00:00 | 02:16:13 | 00:00:00 | |
| IW2NTF | 2026-08-31 12:41:45 | 46.24696 | 14.12267 | 43° | 0km/h | 29091m | 6.9m/s | -45°C | 0% | 0hPa | 2.7V | 08:30:00 | 02:16:09 | 00:00:00 | |
| 9A1FER-10 | 2026-08-31 12:41:44 | 46.24695 | 14.12266 | 239° | 7km/h | 29104m | 5.0m/s | -45.1°C | 3.0% | 0hPa | 2.7V | 00:00:00 | 02:16:11 | 00:00:00 | |
| IV3AMH | 2026-08-31 12:41:43 | 46.24695 | 14.12266 | 240° | 2km/h | 29104m | 5.0m/s | -45.2°C | 1.0% | 0hPa | 2.7V | 00:00:00 | 00:00:00 | 00:00:00 | |
| PETON7-10 | 2026-08-31 12:41:41 | 46.24695 | 14.12266 | 35° | 9km/h | 29085m | 5.8m/s | -45.0°C | 3.0% | 0hPa | 2.7V | 00:00:00 | 00:00:00 | 00:00:00 | |
| OE5DXL-15 | 2026-08-31 12:41:38 | 46.24694 | 14.12265 | 197° | 11km/h | 29069m | 6.3m/s | -45.1°C | 3.0% | 0hPa | 2.6V | 00:00:00 | 00:00:00 | 00:00:00 | |
| IW2NTF | 2026-08-31 12:41:35 | 46.24699 | 14.12259 | 42° | 16km/h | 29034m | 5.3m/s | -45.4°C | 0% | 0hPa | 2.6V | 08:30:00 | 02:15:59 | 00:00:00 | |
| DO3MHA-11 | 2026-08-31 12:41:35 | 46.24700 | 14.12266 | 168° | 15km/h | 29052m | 4.7m/s | -45.1°C | 3.1% | 0hPa | 2.7V | 00:00:00 | 02:16:02 | 00:00:00 | |
| PG1ADW-2 | 2026-08-31 12:41:34 | 46.24701 | 14.12265 | 116° | 13km/h | 29047m | 6.2m/s | -45.2°C | 3.1% | 0hPa | 2.7V | 00:00:00 | 00:00:00 | 00:00:00 | |
| OE5DRO-10 | 2026-08-31 12:41:33 | 46.24701 | 14.12262 | 64° | 13km/h | 29040m | 6.6m/s | -45.3°C | 3.1% | 0hPa | 2.7V | 00:00:00 | 00:00:00 | 00:00:00 | |
| DB0UT-7 | 2026-08-31 12:41:31 | 46.24695 | 14.12255 | 30° | 13km/h | 29029m | 5.1m/s | -45.4°C | 3.0% | 0hPa | 2.7V | 00:00:00 | 00:00:00 | 00:00:00 | |
| 9A1FER-3 | 2026-08-31 12:41:30 | 46.24691 | 14.12253 | 16° | 13km/h | 29023m | 5.9m/s | -45.5°C | 3.1% | 0hPa | 2.7V | 00:00:00 | 02:15:57 | 00:00:00 | |
| OE5WHR-10 | 2026-08-31 12:41:29 | 46.24686 | 14.12252 | 357° | 11km/h | 29017m | 6.3m/s | -45.6°C | 3.1% | 0hPa | 2.7V | 00:00:00 | 02:15:56 | 00:00:00 | |
| IN3HCDX | 2026-08-31 12:41:28 | 46.24686 | 14.12252 | 358° | 18km/h | 29017m | 6.3m/s | -45.6°C | 1.0% | 0hPa | 2.7V | 00:00:00 | 00:00:00 | 00:00:00 | |
| PETON7-10 | 2026-08-31 12:41:26 | 46.24674 | 14.12260 | 322° | 9km/h | 28999m | 5.3m/s | -45.3°C | 3.1% | 0hPa | 2.7V | 00:00:00 | 00:00:00 | 00:00:00 | |
| IW2NTF | 2026-08-31 12:41:25 | 46.24668 | 14.12264 | 128° | 5km/h | 28976m | 6.3m/s | -45.5°C | 0% | 0hPa | 2.7V | 08:30:00 | 02:15:49 | 00:00:00 | |
| DO3MHA-11 | 2026-08-31 12:41:25 | 46.24671 | 14.12263 | 328° | 11km/h | 28993m | 6.2m/s | -45.3°C | 3.1% | 0hPa | 2.6V | 00:00:00 | 02:15:52 | 00:00:00 | |
| IW2NTF | 2026-08-31 12:41:15 | 46.24673 | 14.12242 | 275° | 9km/h | 28915m | 5.1m/s | -45.5°C | 0% | 0hPa | 2.6V | 08:30:00 | 02:15:39 | 00:00:00 | |
| DO3MHA-12 | 2026-08-31 12:41:15 | 46.24676 | 14.12240 | 58° | 7km/h | 28934m | 5.3m/s | -45.5°C | 3.0% | 0hPa | 2.7V | 00:00:00 | 02:15:42 | 00:00:00 | |
| 9A1FER-10 | 2026-08-31 12:41:14 | 46.24675 | 14.12238 | 16° | 11km/h | 28928m | 6.6m/s | -45.6°C | 3.1% | 0hPa | 2.7V | 00:00:00 | 02:15:41 | 00:00:00 | |
| PETON7-10 | 2026-08-31 12:41:11 | 46.24673 | 14.12245 | 273° | 15km/h | 28911m | 5.1m/s | -45.5°C | 3.0% | 0hPa | 2.7V | 00:00:00 | 02:15:38 | 00:00:00 | |
| OE5WHR-10 | 2026-08-31 12:41:08 | 46.24675 | 14.12248 | 142° | 7km/h | 28894m | 5.0m/s | -45.7°C | 3.1% | 0hPa | 2.7V | 00:00:00 | 00:00:00 | 00:00:00 | |
| IN3HCDX | 2026-08-31 12:41:07 | 46.24675 | 14.12248 | 143° | 7km/h | 28894m | 5.1m/s | -45.7°C | 1.0% | 0hPa | 2.6V | 00:00:00 | 00:00:00 | 00:00:00 | |
| IV3AMH | 2026-08-31 12:41:06 | 46.24677 | 14.12245 | 142° | 13km/h | 28888m | 6.2m/s | -45.7°C | 1.0% | 0hPa | 2.6V | 00:00:00 | 00:00:00 | 00:00:00 | |
| IW2NTF | 2026-08-31 12:41:05 | 46.24689 | 14.12225 | 73° | 13km/h | 28862m | 6.1m/s | -45.8°C | 0% | 0hPa | 2.6V | 08:30:00 | 02:15:29 | 00:00:00 | |
| DO3MHA-11 | 2026-08-31 12:41:05 | 46.24683 | 14.12238 | 143° | 18km/h | 28876m | 5.2m/s | -45.6°C | 3.1% | 0hPa | 2.6V | 00:00:00 | 02:15:32 | 08:30:00 | |
| DO3MHA-12 | 2026-08-31 12:41:02 | 46.24689 | 14.12225 | 74° | 7km/h | 28862m | 6.1m/s | -45.8°C | 3.1% | 0hPa | 2.7V | 00:00:00 | 02:15:29 | 00:00:00 | |
| DB0UT-7 | 2026-08-31 12:41:01 | 46.24686 | 14.12221 | 42° | 11km/h | 28855m | 7.4m/s | -45.8°C | 3.0% | 0hPa | 2.7V | 00:00:00 | 02:15:28 | 00:00:00 | |
| 9A1FER-3 | 2026-08-31 12:41:00 | 46.24682 | 14.12217 | 22° | 11km/h | 28848m | 6.6m/s | -45.8°C | 3.0% | 0hPa | 2.7V | 00:00:00 | 02:15:27 | 00:00:00 | |
| 9A1FER-10 | 2026-08-31 12:40:59 | 46.24676 | 14.12215 | 7° | 11km/h | 28842m | 5.3m/s | -45.9°C | 3.0% | 0hPa | 2.6V | 00:00:00 | 02:15:26 | 00:00:00 | |
| PETON7-10 | 2026-08-31 12:40:56 | 46.24660 | 14.12219 | 322° | 9km/h | 28825m | 5.0m/s | -46.0°C | 3.0% | 0hPa | 2.6V | 00:00:00 | 00:00:00 | 08:30:00 | |
| IW2NTF | 2026-08-31 12:40:55 | 46.24656 | 14.12226 | 60° | 4km/h | 28802m | 5.8m/s | -46.2°C | 0% | 0hPa | 2.7V | 08:30:00 | 02:15:19 | 00:00:00 | |
| OE5MMP-10 | 2026-08-31 12:40:55 | 46.24658 | 14.12223 | 308° | 5km/h | 28820m | 5.1m/s | -46.0°C | 3.1% | 0hPa | 2.6V | 00:00:00 | 02:15:22 | 00:00:00 | |
| PG1ADW-2 | 2026-08-31 12:40:54 | 46.24656 | 14.12225 | 301° | 9km/h | 28814m | 5.9m/s | -46.0°C | 3.1% | 0hPa | 2.6V | 00:00:00 | 02:15:21 | 00:00:00 | |
| IN3HCDX1 | 2026-08-31 12:40:53 | 46.24656 | 14.12225 | 301° | 5km/h | 28814m | 5.9m/s | -46.1°C | 1.0% | 0hPa | 2.6V | 00:00:00 | 00:00:00 | 00:00:00 | |
| DO3MHA-12 | 2026-08-31 12:40:51 | 46.24655 | 14.12224 | 71° | 9km/h | 28797m | 5.1m/s | -46.2°C | 3.2% | 0hPa | 2.6V | 00:00:00 | 02:15:18 | 00:00:00 | |
| IW2NTF | 2026-08-31 12:40:46 | 46.24638 | 14.12206 | 359° | 15km/h | 28745m | 6.1m/s | -46.7°C | 0% | 0hPa | 2.6V | 08:30:00 | 02:15:09 | 00:00:00 | |
| DO3MHA-11 | 2026-08-31 12:40:45 | 46.24649 | 14.12212 | 33° | 13km/h | 28763m | 6.9m/s | -46.8°C | 3.2% | 0hPa | 2.7V | 00:00:00 | 02:15:12 | 00:00:00 | |
| 9A1FER-10 | 2026-08-31 12:40:44 | 46.24646 | 14.12209 | 26° | 9km/h | 28757m | 5.5m/s | -46.8°C | 3.2% | 0hPa | 2.7V | 00:00:00 | 02:15:11 | 00:00:00 | |
| OE5WHR-10 | 2026-08-31 12:40:42 | 46.24638 | 14.12206 | 360° | 9km/h | 28746m | 6.1m/s | -46.7°C | 3.2% | 0hPa | 2.7V | 00:00:00 | 00:00:00 | 00:00:00 | |
| DO3MHA-12 | 2026-08-31 12:40:41 | 46.24634 | 14.12207 | 333° | 11km/h | 28740m | 6.5m/s | -46.6°C | 3.2% | 0hPa | 2.7V | 00:00:00 | 02:15:08 | 00:00:00 | |
| OE5DXL-15 | 2026-08-31 12:40:38 | 46.24630 | 14.12219 | 288° | 11km/h | 28723m | 5.5m/s | -46.7°C | 3.2% | 0hPa | 2.7V | 00:00:00 | 00:00:00 | 00:00:00 | |
| OE5DRO-10 | 2026-08-31 12:40:36 | 46.24628 | 14.12224 | 325° | 5km/h | 28712m | 5.7m/s | -46.7°C | 3.3% | 0hPa | 2.7V | 00:00:00 | 00:00:00 | 00:00:00 | |
| IW2NTF | 2026-08-31 12:40:35 | 46.24622 | 14.12227 | 352° | 4km/h | 28689m | 5.2m/s | -46.6°C | 0% | 0hPa | 2.7V | 08:30:00 | 02:14:59 | 00:00:00 | |
| DO3MHA-11 | 2026-08-31 12:40:35 | 46.24626 | 14.12225 | 342° | 9km/h | 28706m | 5.1m/s | -46.7°C | 3.2% | 0hPa | 2.6V | 00:00:00 | 02:15:02 | 00:00:00 | |
| PG1ADW-2 | 2026-08-31 12:40:34 | 46.24624 | 14.12226 | 344° | 7km/h | 28701m | 5.6m/s | -46.6°C | 3.2% | 0hPa | 2.6V | 00:00:00 | 00:00:00 | 00:00:00 | |
| IN3HCDX1 | 2026-08-31 12:40:32 | 46.24623 | 14.12227 | 339° | 5km/h | 28695m | 6.4m/s | -46.6°C | 1.1% | 0hPa | 2.6V | 00:00:00 | 00:00:00 | 00:00:00 | |
| DB0UT-7 | 2026-08-31 12:40:31 | 46.24621 | 14.12227 | 40° | 11km/h | 28684m | 4.9m/s | -46.6°C | 3.2% | 0hPa | 2.6V | 00:00:00 | 00:00:00 | 00:00:00 | |
| 9A1FER-3 | 2026-08-31 12:40:30 | 46.24620 | 14.12225 | 62° | 7km/h | 28678m | 6.8m/s | -46.7°C | 3.2% | 0hPa | 2.6V | 00:00:00 | 02:14:57 | 00:00:00 | |
| 9A1FER-10 | 2026-08-31 12:40:29 | 46.24619 | 14.12221 | 71° | 9km/h | 28671m | 6.6m/s | -46.7°C | 3.2% | 0hPa | 2.6V | 00:00:00 | 02:14:56 | 00:00:00 | |
| PETON7-10 | 2026-08-31 12:40:26 | 46.24617 | 14.12208 | 84° | 11km/h | 28654m | 6.7m/s | -46.9°C | 3.2% | 0hPa | 2.6V | 00:00:00 | 02:14:53 | 00:00:00 | |
| IW2NTF | 2026-08-31 12:40:25 | 46.24616 | 14.12206 | 17° | 2km/h | 28630m | 6.4m/s | -47°C | 0% | 0hPa | 2.6V | 08:30:00 | 02:14:49 | 00:00:00 | |
| OE5MMP-10 | 2026-08-31 12:40:25 | 46.24616 | 14.12206 | 97° | 5km/h | 28648m | 5.9m/s | -47.0°C | 3.3% | 0hPa | 2.7V | 00:00:00 | 02:14:52 | 00:00:00 | |
| OE5WHR-10 | 2026-08-31 12:40:21 | 46.24616 | 14.12205 | 50° | 15km/h | 28624m | 5.3m/s | -46.9°C | 3.3% | 0hPa | 2.7V | 00:00:00 | 02:14:48 | 00:00:00 | |
| OE5DRO-10 | 2026-08-31 12:40:17 | 46.24619 | 14.12200 | 148° | 16km/h | 28602m | 4.9m/s | -47.0°C | 3.4% | 0hPa | 2.7V | 00:00:00 | 00:00:00 | 00:00:00 | |
| IW2NTF | 2026-08-31 12:40:16 | 46.24634 | 14.12165 | 107° | 27km/h | 28573m | 4.7m/s | -47.2°C | 0% | 0hPa | 2.7V | 08:30:00 | 02:14:39 | 00:00:00 | |
| DO3MHA-11 | 2026-08-31 12:40:15 | 46.24625 | 14.12191 | 127° | 18km/h | 28591m | 6.3m/s | -47.1°C | 3.4% | 0hPa | 2.7V | 00:00:00 | 02:14:42 | 00:00:00 | |
| 9A1FER-10 | 2026-08-31 12:40:14 | 46.24629 | 14.12184 | 117° | 15km/h | 28585m | 6.9m/s | -47.2°C | 3.4% | 0hPa | 2.7V | 00:00:00 | 02:14:41 | 00:00:00 | |
| PETON7-10 | 2026-08-31 12:40:11 | 46.24636 | 14.12156 | 111° | 15km/h | 28568m | 6.1m/s | -47.1°C | 3.4% | 0hPa | 2.7V | 00:00:00 | 00:00:00 | 00:00:00 | |
| OE5DXL-15 | 2026-08-31 12:40:08 | 46.24640 | 14.12141 | 111° | 13km/h | 28550m | 6.0m/s | -47.1°C | 3.3% | 0hPa | 2.6V | 00:00:00 | 00:00:00 | 00:00:00 | |
| OE3JTB-15 | 2026-08-31 12:40:06 | 46.24640 | 14.12135 | 83° | 15km/h | 28538m | 5.5m/s | -47.0°C | 3.3% | 0hPa | 2.6V | 00:00:00 | 00:00:00 | 00:00:00 | |
| IW2NTF | 2026-08-31 12:40:05 | 46.24641 | 14.12123 | 107° | 11km/h | 28515m | 4.9m/s | -46.8°C | 0% | 0hPa | 2.6V | 08:30:00 | 02:14:29 | 00:00:00 | |
| OE5MMP-10 | 2026-08-31 12:40:05 | 46.24640 | 14.12132 | 84° | 15km/h | 28533m | 4.8m/s | -46.9°C | 3.3% | 0hPa | 2.6V | 00:00:00 | 02:14:32 | 00:00:00 | |
| DB0UT-7 | 2026-08-31 12:40:01 | 46.24642 | 14.12119 | 99° | 15km/h | 28510m | 5.4m/s | -46.7°C | 3.3% | 0hPa | 2.6V | 00:00:00 | 02:14:28 | 00:00:00 | |
| OE5WHR-10 | 2026-08-31 12:40:00 | 46.24642 | 14.12112 | 92° | 13km/h | 28504m | 7.0m/s | -46.6°C | 3.3% | 0hPa | 2.6V | 00:00:00 | 00:00:00 | 08:30:00 | |
| OE5DRO-10 | 2026-08-31 12:39:58 | 46.24642 | 14.12096 | 89° | 15km/h | 28492m | 4.9m/s | -46.5°C | 3.3% | 0hPa | 2.7V | 00:00:00 | 00:00:00 | 08:30:00 | |
| PETON7-10 | 2026-08-31 12:39:56 | 46.24642 | 14.12080 | 99° | 15km/h | 28480m | 6.0m/s | -46.6°C | 3.3% | 0hPa | 2.6V | 00:00:00 | 00:00:00 | 00:00:00 | |
| OE8JPQ-2 | 2026-08-31 12:39:55 | 46.24643 | 14.12075 | 104° | 13km/h | 28475m | 5.2m/s | -46.6°C | 3.3% | 0hPa | 2.6V | 00:00:00 | 02:14:22 | 00:00:00 | |
| PG1ADW-2 | 2026-08-31 12:39:54 | 46.24643 | 14.12071 | 98° | 13km/h | 28469m | 5.3m/s | -46.6°C | 3.3% | 0hPa | 2.6V | 00:00:00 | 00:00:00 | 00:00:00 | |
| IV3AMH | 2026-08-31 12:39:52 | 46.24643 | 14.12068 | 75° | 9km/h | 28463m | 6.6m/s | -46.6°C | 1.2% | 0hPa | 2.6V | 00:00:00 | 00:00:00 | 00:00:00 | |
| DO3MHA-12 | 2026-08-31 12:39:51 | 46.24640 | 14.12062 | 45° | 18km/h | 28452m | 4.8m/s | -46.6°C | 3.3% | 0hPa | 2.6V | 00:00:00 | 02:14:18 | 00:00:00 | |
| IW2NTF | 2026-08-31 12:39:50 | 46.24628 | 14.12025 | 67° | 24km/h | 28406m | 4.7m/s | 0°C | 0% | 0hPa | 2.6V | 08:30:00 | 02:14:10 | 00:00:00 | |
| DO3MHA-11 | 2026-08-31 12:39:45 | 46.24632 | 14.12041 | 72° | 16km/h | 28418m | 6.9m/s | -46.6°C | 3.2% | 0hPa | 2.6V | 00:00:00 | 02:14:12 | 00:00:00 | |
| 9A1FER-10 | 2026-08-31 12:39:44 | 46.24630 | 14.12033 | 69° | 15km/h | 28412m | 5.5m/s | -46.5°C | 3.2% | 0hPa | 2.6V | 00:00:00 | 02:14:11 | 08:30:00 | |
| PETON7-10 | 2026-08-31 12:39:41 | 46.24623 | 14.12012 | 66° | 15km/h | 28395m | 6.0m/s | -46.5°C | 3.2% | 0hPa | 2.6V | 00:00:00 | 02:14:08 | 00:00:00 | |
| DO3MHA-12 | 2026-08-31 12:39:39 | 46.24621 | 14.12007 | 13° | 15km/h | 28385m | 4.9m/s | -46.5°C | 3.2% | 0hPa | 2.6V | 00:00:00 | 02:14:06 | 00:00:00 | |
| OE5DXL-15 | 2026-08-31 12:39:38 | 46.24619 | 14.12007 | 357° | 15km/h | 28379m | 5.9m/s | -46.5°C | 3.2% | 0hPa | 2.7V | 00:00:00 | 00:00:00 | 08:30:00 | |
| OE3JTB-15 | 2026-08-31 12:39:37 | 46.24616 | 14.12007 | 356° | 15km/h | 28373m | 6.2m/s | -46.5°C | 3.2% | 0hPa | 2.7V | 00:00:00 | 00:00:00 | 00:00:00 | |
| OE5MMP-10 | 2026-08-31 12:39:35 | 46.24607 | 14.12007 | 2° | 16km/h | 28362m | 5.2m/s | -46.6°C | 3.2% | 0hPa | 2.7V | 00:00:00 | 02:14:02 | 00:00:00 | |
| PG1ADW-2 | 2026-08-31 12:39:34 | 46.24603 | 14.12007 | 3° | 15km/h | 28356m | 5.4m/s | -46.6°C | 3.2% | 0hPa | 2.7V | 00:00:00 | 02:14:01 | 00:00:00 | |
| DB0UT-7 | 2026-08-31 12:39:31 | 46.24593 | 14.12003 | 43° | 15km/h | 28340m | 4.6m/s | -46.6°C | 3.2% | 0hPa | 2.7V | 00:00:00 | 00:00:00 | 08:30:00 | |
| 9A1FER-3 | 2026-08-31 12:39:30 | 46.24591 | 14.11999 | 52° | 15km/h | 28334m | 6.6m/s | -46.7°C | 3.2% | 0hPa | 2.7V | 00:00:00 | 02:13:57 | 00:00:00 | |
| 9A1FER-10 | 2026-08-31 12:39:29 | 46.24588 | 14.11994 | 55° | 15km/h | 28328m | 6.5m/s | -46.6°C | 3.2% | 0hPa | 2.7V | 00:00:00 | 02:13:56 | 00:00:00 | |
| DO3MHA-12 | 2026-08-31 12:39:28 | 46.24585 | 14.11988 | 56° | 15km/h | 28322m | 5.1m/s | -46.6°C | 3.2% | 0hPa | 2.7V | 00:00:00 | 02:13:55 | 00:00:00 | |
| PETON7-10 | 2026-08-31 12:39:26 | 46.24580 | 14.11977 | 48° | 15km/h | 28311m | 6.5m/s | -46.8°C | 3.3% | 0hPa | 2.7V | 00:00:00 | 00:00:00 | 00:00:00 | |
| DO3MHA-11 | 2026-08-31 12:39:25 | 46.24577 | 14.11975 | 30° | 13km/h | 28304m | 5.9m/s | -46.8°C | 3.4% | 0hPa | 2.6V | 00:00:00 | 02:13:52 | 00:00:00 | |
| OE5DRO-10 | 2026-08-31 12:39:20 | 46.24557 | 14.11971 | 12° | 15km/h | 28272m | 6.3m/s | -46.8°C | 3.3% | 0hPa | 2.6V | 00:00:00 | 00:00:00 | 00:00:00 | |
| DO3MHA-12 | 2026-08-31 12:39:17 | 46.24552 | 14.11968 | 39° | 15km/h | 28260m | 5.4m/s | -46.8°C | 3.2% | 0hPa | 2.6V | 00:00:00 | 02:13:44 | 00:00:00 | |
| OE5WHR-10 | 2026-08-31 12:39:16 | 46.24550 | 14.11965 | 50° | 16km/h | 28254m | 5.2m/s | -46.7°C | 3.2% | 0hPa | 2.6V | 00:00:00 | 02:13:43 | 00:00:00 | |
| OE8JPQ-2 | 2026-08-31 12:39:15 | 46.24547 | 14.11960 | 54° | 15km/h | 28249m | 6.5m/s | -46.7°C | 3.2% | 0hPa | 2.6V | 00:00:00 | 00:00:00 | 00:00:00 | |
| 9A1FER-10 | 2026-08-31 12:39:14 | 46.24545 | 14.11955 | 51° | 15km/h | 28243m | 5.4m/s | -46.7°C | 3.2% | 0hPa | 2.6V | 00:00:00 | 02:13:41 | 00:00:00 | |
| PETON7-10 | 2026-08-31 12:39:11 | 46.24534 | 14.11943 | 19° | 15km/h | 28228m | 6.3m/s | -46.8°C | 3.3% | 0hPa | 2.6V | 00:00:00 | 00:00:00 | 00:00:00 | |
| IN3HCDX1 | 2026-08-31 12:39:10 | 46.24534 | 14.11943 | 19° | 13km/h | 28228m | 6.4m/s | -46.8°C | 1.1% | 0hPa | 2.6V | 00:00:00 | 00:00:00 | 00:00:00 | |
| DO3MHA-12 | 2026-08-31 12:39:08 | 46.24524 | 14.11950 | 334° | 16km/h | 28204m | 6.4m/s | -46.8°C | 3.4% | 0hPa | 2.6V | 00:00:00 | 02:13:34 | 08:30:00 | |
| OE5MMP-10 | 2026-08-31 12:39:05 | 46.24517 | 14.11953 | 346° | 16km/h | 28193m | 5.2m/s | -46.8°C | 3.3% | 0hPa | 2.7V | 00:00:00 | 02:13:32 | 00:00:00 | |
| IN3HCDX | 2026-08-31 12:39:04 | 46.24517 | 14.11953 | 346° | 15km/h | 28193m | 5.3m/s | -46.8°C | 1.1% | 0hPa | 2.7V | 00:00:00 | 00:00:00 | 00:00:00 | |
| DB0UT-7 | 2026-08-31 12:39:01 | 46.24504 | 14.11958 | 4° | 13km/h | 28170m | 5.8m/s | -46.8°C | 3.3% | 0hPa | 2.7V | 00:00:00 | 02:13:28 | 00:00:00 | |
| 9A1FER-3 | 2026-08-31 12:39:00 | 46.24499 | 14.11956 | 15° | 11km/h | 28163m | 6.7m/s | -46.9°C | 3.3% | 0hPa | 2.7V | 00:00:00 | 02:13:27 | 00:00:00 | |
| 9A1FER-10 | 2026-08-31 12:38:59 | 46.24495 | 14.11954 | 20° | 11km/h | 28157m | 5.4m/s | -46.8°C | 3.3% | 0hPa | 2.7V | 00:00:00 | 02:13:26 | 00:00:00 | |
| DO3MHA-12 | 2026-08-31 12:38:57 | 46.24486 | 14.11950 | 13° | 7km/h | 28146m | 6.3m/s | -46.7°C | 3.3% | 0hPa | 2.7V | 00:00:00 | 02:13:24 | 00:00:00 | |
| PETON7-10 | 2026-08-31 12:38:56 | 46.24482 | 14.11950 | 359° | 11km/h | 28140m | 5.9m/s | -46.8°C | 3.3% | 0hPa | 2.7V | 00:00:00 | 02:13:23 | 00:00:00 | |
| DO3MHA-11 | 2026-08-31 12:38:55 | 46.24480 | 14.11950 | 346° | 7km/h | 28134m | 5.2m/s | -46.7°C | 3.3% | 0hPa | 2.7V | 00:00:00 | 02:13:22 | 00:00:00 | |
| PG1ADW-2 | 2026-08-31 12:38:54 | 46.24477 | 14.11951 | 345° | 11km/h | 28129m | 5.7m/s | -46.6°C | 3.2% | 0hPa | 2.7V | 00:00:00 | 00:00:00 | 00:00:00 | |
| IN3HCDX1 | 2026-08-31 12:38:50 | 46.24473 | 14.11950 | 42° | 5km/h | 28111m | 5.1m/s | -46.6°C | 1.1% | 0hPa | 2.7V | 00:00:00 | 00:00:00 | 00:00:00 | |
| IW2NTF | 2026-08-31 12:38:49 | 46.24467 | 14.11932 | 54° | 20km/h | 28076m | 5.5m/s | 0°C | 0% | 0hPa | 2.7V | 08:30:00 | 02:13:12 | 00:00:00 | |
| DO3MHA-12 | 2026-08-31 12:38:47 | 46.24471 | 14.11942 | 70° | 13km/h | 28089m | 5.3m/s | -46.4°C | 3.2% | 0hPa | 2.7V | 00:00:00 | 02:13:14 | 00:00:00 | |
| 9A1FER-3 | 2026-08-31 12:38:45 | 46.24467 | 14.11932 | 55° | 16km/h | 28077m | 5.5m/s | -46.4°C | 3.2% | 0hPa | 2.7V | 00:00:00 | 02:13:12 | 00:00:00 | |
| 9A1FER-10 | 2026-08-31 12:38:44 | 46.24464 | 14.11927 | 50° | 16km/h | 28071m | 4.7m/s | -46.4°C | 3.2% | 0hPa | 2.7V | 00:00:00 | 02:13:11 | 00:00:00 | |
| IN3HCDX | 2026-08-31 12:38:43 | 46.24464 | 14.11927 | 51° | 22km/h | 28071m | 4.7m/s | -46.5°C | 1.1% | 0hPa | 2.7V | 00:00:00 | 00:00:00 | 00:00:00 | |
| OE5DRO-10 | 2026-08-31 12:38:42 | 46.24458 | 14.11917 | 38° | 16km/h | 28060m | 6.1m/s | -46.5°C | 3.3% | 0hPa | 2.7V | 00:00:00 | 00:00:00 | 00:00:00 | |
| NBG1-10 | 2026-08-31 12:38:41 | 46.24455 | 14.11915 | 24° | 15km/h | 28054m | 5.5m/s | -46.5°C | 3.2% | 0hPa | 2.7V | 00:00:00 | 02:13:08 | 00:00:00 | |
| OE3JTB-15 | 2026-08-31 12:38:39 | 46.24451 | 14.11912 | 41° | 16km/h | 28039m | 6.3m/s | -46.6°C | 3.3% | 0hPa | 2.7V | 00:00:00 | 00:00:00 | 08:30:00 | |
| OE5DXL-15 | 2026-08-31 12:38:38 | 46.24451 | 14.11912 | 41° | 16km/h | 28039m | 6.3m/s | -46.6°C | 3.3% | 0hPa | 2.6V | 00:00:00 | 00:00:00 | 00:00:00 | |
| IW2NTF | 2026-08-31 12:38:37 | 46.24448 | 14.11898 | 86° | 20km/h | 28021m | 5.7m/s | 0°C | 0% | 0hPa | 2.6V | 08:30:00 | 02:13:02 | 00:00:00 | |
| DO3MHA-12 | 2026-08-31 12:38:37 | 46.24449 | 14.11910 | 66° | 20km/h | 28033m | 5.9m/s | -46.6°C | 3.3% | 0hPa | 2.6V | 00:00:00 | 02:13:04 | 00:00:00 | |
| DO3MHA-11 | 2026-08-31 12:38:35 | 46.24447 | 14.11898 | 87° | 22km/h | 28021m | 5.7m/s | -46.6°C | 3.3% | 0hPa | 2.6V | 00:00:00 | 02:13:02 | 00:00:00 | |
| OE5WHR-10 | 2026-08-31 12:38:34 | 46.24448 | 14.11891 | 96° | 18km/h | 28015m | 6.7m/s | -46.6°C | 3.2% | 0hPa | 2.7V | 00:00:00 | 00:00:00 | 00:00:00 | |
| DB0UT-7 | 2026-08-31 12:38:31 | 46.24451 | 14.11868 | 96° | 18km/h | 27998m | 4.5m/s | -46.6°C | 3.2% | 0hPa | 2.7V | 00:00:00 | 00:00:00 | 00:00:00 | |
| 9A1FER-3 | 2026-08-31 12:38:30 | 46.24451 | 14.11860 | 86° | 18km/h | 27993m | 6.5m/s | -46.6°C | 3.2% | 0hPa | 2.7V | 00:00:00 | 02:12:57 | 00:00:00 | |
| 9A1FER-10 | 2026-08-31 12:38:29 | 46.24449 | 14.11851 | 73° | 16km/h | 27986m | 6.2m/s | -46.5°C | 3.2% | 0hPa | 2.7V | 00:00:00 | 02:12:56 | 00:00:00 | |
| DO3MHA-12 | 2026-08-31 12:38:27 | 46.24445 | 14.11834 | 61° | 16km/h | 27975m | 5.5m/s | -46.6°C | 3.2% | 0hPa | 2.7V | 00:00:00 | 02:12:54 | 00:00:00 | |
| PETON7-10 | 2026-08-31 12:38:26 | 46.24442 | 14.11828 | 62° | 15km/h | 27969m | 6.5m/s | -46.6°C | 3.2% | 0hPa | 2.7V | 00:00:00 | 00:00:00 | 00:00:00 | |
| IW2NTF | 2026-08-31 12:38:25 | 46.24436 | 14.11804 | 78° | 16km/h | 27940m | 5.2m/s | 0°C | 0% | 0hPa | 2.7V | 08:30:00 | 02:12:48 | 00:00:00 | |
| DO3MHA-11 | 2026-08-31 12:38:25 | 46.24440 | 14.11822 | 66° | 15km/h | 27963m | 5.8m/s | -46.6°C | 3.2% | 0hPa | 2.7V | 00:00:00 | 02:12:52 | 00:00:00 | |
| OE5DRO-10 | 2026-08-31 12:38:23 | 46.24438 | 14.11814 | 72° | 16km/h | 27952m | 5.8m/s | -46.5°C | 3.2% | 0hPa | 2.7V | 00:00:00 | 00:00:00 | 00:00:00 | |
| IN3HCDX | 2026-08-31 12:38:22 | 46.24438 | 14.11814 | 73° | 13km/h | 27952m | 5.9m/s | -46.6°C | 1.1% | 0hPa | 2.7V | 00:00:00 | 00:00:00 | 00:00:00 | |
| DO3MHA-12 | 2026-08-31 12:38:17 | 46.24438 | 14.11781 | 106° | 15km/h | 27918m | 4.5m/s | -46.5°C | 3.2% | 0hPa | 2.7V | 00:00:00 | 02:12:44 | 00:00:00 | |
| IW2NTF | 2026-08-31 12:38:15 | 46.24418 | 14.11755 | 63° | 11km/h | 27872m | 5m/s | 0°C | 0% | 0hPa | 2.7V | 08:30:00 | 02:12:36 | 00:00:00 | |
| 9A1FER-10 | 2026-08-31 12:38:14 | 46.24435 | 14.11768 | 35° | 18km/h | 27900m | 6.2m/s | -46.6°C | 3.2% | 0hPa | 2.7V | 00:00:00 | 02:12:41 | 00:00:00 | |
| OE5WHR-10 | 2026-08-31 12:38:12 | 46.24426 | 14.11763 | 20° | 16km/h | 27889m | 5.7m/s | -46.7°C | 3.2% | 0hPa | 2.7V | 00:00:00 | 02:12:39 | 00:00:00 | |
| PETON7-10 | 2026-08-31 12:38:11 | 46.24423 | 14.11760 | 22° | 18km/h | 27883m | 6.1m/s | -46.6°C | 3.2% | 0hPa | 2.7V | 00:00:00 | 02:12:38 | 00:00:00 | |
| OE3JTB-15 | 2026-08-31 12:38:10 | 46.24420 | 14.11758 | 38° | 18km/h | 27877m | 5.1m/s | -46.7°C | 3.2% | 0hPa | 2.7V | 00:00:00 | 00:00:00 | 00:00:00 | |
| OE5DXL-15 | 2026-08-31 12:38:08 | 46.24417 | 14.11751 | 77° | 18km/h | 27867m | 5.5m/s | -46.7°C | 3.2% | 0hPa | 2.7V | 00:00:00 | 00:00:00 | 00:00:00 | |
| DO3MHA-12 | 2026-08-31 12:38:07 | 46.24416 | 14.11744 | 78° | 24km/h | 27861m | 6.9m/s | -46.8°C | 3.3% | 0hPa | 2.7V | 00:00:00 | 02:12:34 | 00:00:00 | |
| OE5MMP-10 | 2026-08-31 12:38:05 | 46.24414 | 14.11725 | 86° | 18km/h | 27849m | 5.1m/s | -46.8°C | 3.2% | 0hPa | 2.6V | 00:00:00 | 02:12:32 | 00:00:00 | |
| OE5DRO-10 | 2026-08-31 12:38:04 | 46.24414 | 14.11714 | 90° | 16km/h | 27843m | 5.5m/s | -46.9°C | 3.2% | 0hPa | 2.6V | 00:00:00 | 00:00:00 | 00:00:00 | |
| IW2NTF | 2026-08-31 12:38:03 | 46.24408 | 14.11678 | 21° | 15km/h | 27803m | 5m/s | 0°C | 0% | 0hPa | 2.7V | 08:30:00 | 02:12:24 | 00:00:00 | |
| 9A1FER-3 | 2026-08-31 12:38:00 | 46.24415 | 14.11686 | 75° | 16km/h | 27822m | 5.4m/s | -46.9°C | 3.3% | 0hPa | 2.6V | 00:00:00 | 02:12:27 | 08:30:00 | |
| 9A1FER-10 | 2026-08-31 12:37:59 | 46.24414 | 14.11682 | 43° | 16km/h | 27815m | 6.7m/s | -46.9°C | 3.3% | 0hPa | 2.7V | 00:00:00 | 02:12:26 | 00:00:00 | |
| PETON7-10 | 2026-08-31 12:37:56 | 46.24404 | 14.11675 | 28° | 16km/h | 27797m | 6.4m/s | -46.9°C | 3.3% | 0hPa | 2.7V | 00:00:00 | 00:00:00 | 00:00:00 | |
| OE5MMP-10 | 2026-08-31 12:37:55 | 46.24401 | 14.11673 | 43° | 16km/h | 27791m | 5.9m/s | -46.9°C | 3.3% | 0hPa | 2.6V | 00:00:00 | 02:12:22 | 00:00:00 | |
| PG1ADW-2 | 2026-08-31 12:37:54 | 46.24399 | 14.11669 | 60° | 16km/h | 27786m | 4.9m/s | -47.0°C | 3.3% | 0hPa | 2.6V | 00:00:00 | 00:00:00 | 00:00:00 | |
| IW2NTF | 2026-08-31 12:37:51 | 46.24393 | 14.11620 | 91° | 9km/h | 27746m | 4.5m/s | 0°C | 0% | 0hPa | 2.6V | 08:30:00 | 02:12:14 | 00:00:00 | |
| OE5WHR-10 | 2026-08-31 12:37:50 | 46.24393 | 14.11639 | 84° | 20km/h | 27763m | 5.0m/s | -47.1°C | 3.3% | 0hPa | 2.7V | 00:00:00 | 00:00:00 | 00:00:00 | |
| DB0UT-7 | 2026-08-31 12:37:47 | 46.24393 | 14.11620 | 92° | 18km/h | 27746m | 4.4m/s | -47.1°C | 3.3% | 0hPa | 2.6V | 00:00:00 | 02:12:14 | 00:00:00 | |
| DO3MHA-11 | 2026-08-31 12:37:45 | 46.24391 | 14.11616 | 25° | 16km/h | 27736m | 6.5m/s | -47.2°C | 3.3% | 0hPa | 2.6V | 00:00:00 | 02:12:12 | 00:00:00 | |
| 9A1FER-10 | 2026-08-31 12:37:44 | 46.24387 | 14.11614 | 14° | 16km/h | 27729m | 6.4m/s | -47.1°C | 3.3% | 0hPa | 2.6V | 00:00:00 | 02:12:11 | 00:00:00 | |
| OE3JTB-15 | 2026-08-31 12:37:41 | 46.24373 | 14.11608 | 22° | 20km/h | 27713m | 5.9m/s | -47.1°C | 3.3% | 0hPa | 2.6V | 00:00:00 | 02:12:08 | 00:00:00 | |
| IW2NTF | 2026-08-31 12:37:39 | 46.24368 | 14.11577 | 92° | 22km/h | 27677m | 5.1m/s | 0°C | 0% | 0hPa | 2.6V | 08:30:00 | 02:12:02 | 00:00:00 | |
| OE5DXL-15 | 2026-08-31 12:37:38 | 46.24367 | 14.11598 | 92° | 20km/h | 27695m | 5.5m/s | -47.1°C | 3.3% | 0hPa | 2.6V | 00:00:00 | 00:00:00 | 00:00:00 | |
| DO3MHA-11 | 2026-08-31 12:37:35 | 46.24368 | 14.11577 | 93° | 20km/h | 27677m | 5.1m/s | -47.2°C | 3.3% | 0hPa | 2.6V | 00:00:00 | 02:12:02 | 00:00:00 | |
| NBG1-10 | 2026-08-31 12:37:34 | 46.24368 | 14.11569 | 94° | 20km/h | 27672m | 5.0m/s | -47.2°C | 3.3% | 0hPa | 2.7V | 00:00:00 | 02:12:01 | 00:00:00 | |
| 9A1FER-3 | 2026-08-31 12:37:30 | 46.24368 | 14.11546 | 61° | 20km/h | 27650m | 5.3m/s | -47.3°C | 3.4% | 0hPa | 2.7V | 00:00:00 | 02:11:57 | 00:00:00 | |
| OE5WHR-10 | 2026-08-31 12:37:29 | 46.24366 | 14.11542 | 47° | 22km/h | 27644m | 6.9m/s | -47.4°C | 3.4% | 0hPa | 2.7V | 00:00:00 | 00:00:00 | 00:00:00 | |
| PETON7-10 | 2026-08-31 12:37:26 | 46.24353 | 14.11525 | 47° | 22km/h | 27626m | 6.0m/s | -47.5°C | 3.4% | 0hPa | 2.7V | 00:00:00 | 02:11:53 | 00:00:00 | |
| OE5MMP-10 | 2026-08-31 12:37:25 | 46.24350 | 14.11519 | 57° | 22km/h | 27620m | 6.1m/s | -47.4°C | 3.3% | 0hPa | 2.7V | 00:00:00 | 02:11:52 | 00:00:00 | |
| IV3AMH | 2026-08-31 12:37:22 | 46.24346 | 14.11505 | 78° | 22km/h | 27608m | 5.5m/s | -47.6°C | 1.2% | 0hPa | 2.7V | 00:00:00 | 00:00:00 | 00:00:00 | |
| DB0UT-7 | 2026-08-31 12:37:17 | 46.24339 | 14.11456 | 81° | 18km/h | 27573m | 5.2m/s | -47.4°C | 3.3% | 0hPa | 2.7V | 00:00:00 | 00:00:00 | 00:00:00 | |
| 9A1FER-3 | 2026-08-31 12:37:15 | 46.24336 | 14.11444 | 56° | 20km/h | 27561m | 6.9m/s | -47.5°C | 3.4% | 0hPa | 2.7V | 00:00:00 | 02:11:42 | 00:00:00 | |
| 9A1FER-10 | 2026-08-31 12:37:14 | 46.24332 | 14.11438 | 46° | 20km/h | 27555m | 6.1m/s | -47.5°C | 3.4% | 0hPa | 2.6V | 00:00:00 | 02:11:41 | 00:00:00 | |
| OE3JTB-15 | 2026-08-31 12:37:12 | 46.24324 | 14.11426 | 49° | 18km/h | 27544m | 5.7m/s | -47.5°C | 3.4% | 0hPa | 2.6V | 00:00:00 | 00:00:00 | 00:00:00 | |
| PETON7-10 | 2026-08-31 12:37:11 | 46.24321 | 14.11420 | 60° | 20km/h | 27538m | 6.3m/s | -47.6°C | 3.4% | 0hPa | 2.6V | 00:00:00 | 00:00:00 | 00:00:00 | |
| OE5DXL-15 | 2026-08-31 12:37:08 | 46.24317 | 14.11399 | 83° | 16km/h | 27521m | 6.0m/s | -47.5°C | 3.4% | 0hPa | 2.7V | 00:00:00 | 00:00:00 | 00:00:00 | |
| OE5DRO-10 | 2026-08-31 12:37:07 | 46.24316 | 14.11390 | 81° | 18km/h | 27515m | 6.2m/s | -47.6°C | 3.4% | 0hPa | 2.7V | 00:00:00 | 00:00:00 | 08:30:00 | |
| OE5MMP-10 | 2026-08-31 12:37:05 | 46.24314 | 14.11374 | 82° | 18km/h | 27504m | 4.5m/s | -47.6°C | 3.4% | 0hPa | 2.7V | 00:00:00 | 02:11:32 | 00:00:00 | |
| NBG1-10 | 2026-08-31 12:37:01 | 46.24314 | 14.11348 | 79° | 15km/h | 27482m | 4.8m/s | -47.6°C | 3.3% | 0hPa | 2.7V | 00:00:00 | 02:11:28 | 00:00:00 | |
| 9A1FER-3 | 2026-08-31 12:37:00 | 46.24313 | 14.11344 | 54° | 16km/h | 27476m | 6.7m/s | -47.6°C | 3.3% | 0hPa | 2.7V | 00:00:00 | 02:11:27 | 00:00:00 | |
| 9A1FER-10 | 2026-08-31 12:36:59 | 46.24310 | 14.11340 | 33° | 16km/h | 27469m | 6.5m/s | -47.5°C | 3.3% | 0hPa | 2.7V | 00:00:00 | 02:11:26 | 00:00:00 | |
| PETON7-10 | 2026-08-31 12:36:56 | 46.24298 | 14.11330 | 37° | 16km/h | 27452m | 6.2m/s | -47.5°C | 3.3% | 0hPa | 2.7V | 00:00:00 | 00:00:00 | 00:00:00 | |
| OE5MMP-10 | 2026-08-31 12:36:55 | 46.24295 | 14.11326 | 51° | 16km/h | 27446m | 5.4m/s | -47.4°C | 3.3% | 0hPa | 2.7V | 00:00:00 | 02:11:22 | 00:00:00 | |
| PG1ADW-2 | 2026-08-31 12:36:54 | 46.24293 | 14.11322 | 65° | 16km/h | 27440m | 5.1m/s | -47.4°C | 3.4% | 0hPa | 2.7V | 00:00:00 | 02:11:21 | 00:00:00 | |
| OE5DRO-10 | 2026-08-31 12:36:48 | 46.24289 | 14.11284 | 106° | 13km/h | 27405m | 5.6m/s | -47.6°C | 3.4% | 0hPa | 2.7V | 00:00:00 | 00:00:00 | 00:00:00 | |
| DB0UT-7 | 2026-08-31 12:36:47 | 46.24289 | 14.11279 | 96° | 13km/h | 27400m | 4.8m/s | -47.7°C | 3.4% | 0hPa | 2.7V | 00:00:00 | 02:11:14 | 00:00:00 | |
| OE5MMP-10 | 2026-08-31 12:36:45 | 46.24287 | 14.11271 | 48° | 15km/h | 27388m | 6.4m/s | -47.8°C | 3.4% | 0hPa | 2.7V | 00:00:00 | 02:11:12 | 08:30:00 | |
| 9A1FER-10 | 2026-08-31 12:36:44 | 46.24284 | 14.11267 | 36° | 13km/h | 27382m | 5.7m/s | -47.8°C | 3.3% | 0hPa | 2.7V | 00:00:00 | 02:11:11 | 00:00:00 | |
| OE3JTB-15 | 2026-08-31 12:36:43 | 46.24273 | 14.11256 | 47° | 13km/h | 27364m | 5.5m/s | -47.7°C | 3.3% | 0hPa | 2.7V | 00:00:00 | 00:00:00 | 00:00:00 | |
| PETON7-10 | 2026-08-31 12:36:40 | 46.24271 | 14.11252 | 60° | 11km/h | 27359m | 5.0m/s | -47.7°C | 3.3% | 0hPa | 2.7V | 00:00:00 | 02:11:07 | 00:00:00 | |
| IN3HCDX | 2026-08-31 12:36:39 | 46.24271 | 14.11251 | 61° | 13km/h | 27359m | 5.1m/s | -47.8°C | 1.1% | 0hPa | 2.7V | 00:00:00 | 00:00:00 | 00:00:00 | |
| OE5WHR-10 | 2026-08-31 12:36:38 | 46.24269 | 14.11243 | 68° | 13km/h | 27348m | 6.3m/s | -47.8°C | 3.4% | 0hPa | 2.7V | 00:00:00 | 00:00:00 | 08:30:00 | |
| OE5MMP-10 | 2026-08-31 12:36:35 | 46.24267 | 14.11227 | 99° | 9km/h | 27331m | 6.6m/s | -47.8°C | 3.5% | 0hPa | 2.6V | 00:00:00 | 02:11:02 | 00:00:00 | |
| PG1ADW-2 | 2026-08-31 12:36:34 | 46.24267 | 14.11223 | 119° | 11km/h | 27324m | 6.2m/s | -47.8°C | 3.5% | 0hPa | 2.6V | 00:00:00 | 00:00:00 | 00:00:00 | |
| OE5DRO-10 | 2026-08-31 12:36:30 | 46.24264 | 14.11219 | 350° | 13km/h | 27296m | 5.0m/s | -48.0°C | 3.4% | 0hPa | 2.6V | 00:00:00 | 00:00:00 | 00:00:00 | |
| 9A1FER-10 | 2026-08-31 12:36:29 | 46.24264 | 14.11219 | 350° | 13km/h | 27296m | 5.0m/s | -48.0°C | 3.4% | 0hPa | 2.6V | 00:00:00 | 02:10:56 | 00:00:00 | |
| OE5MMP-10 | 2026-08-31 12:36:25 | 46.24253 | 14.11215 | 61° | 13km/h | 27274m | 5.0m/s | -48.0°C | 3.5% | 0hPa | 2.6V | 00:00:00 | 02:10:52 | 00:00:00 | |
| IN3HCDX1 | 2026-08-31 12:36:24 | 46.24253 | 14.11215 | 62° | 11km/h | 27274m | 5.1m/s | -48.0°C | 1.2% | 0hPa | 2.6V | 00:00:00 | 00:00:00 | 00:00:00 | |
| IN3HCDX | 2026-08-31 12:36:18 | 46.24249 | 14.11181 | 121° | 13km/h | 27241m | 6.1m/s | -47.9°C | 1.2% | 0hPa | 2.6V | 00:00:00 | 00:00:00 | 00:00:00 | |
| OE5WHR-10 | 2026-08-31 12:36:17 | 46.24253 | 14.11177 | 189° | 9km/h | 27231m | 5.2m/s | -47.8°C | 3.4% | 0hPa | 2.6V | 00:00:00 | 00:00:00 | 00:00:00 | |
| DO3MHA-11 | 2026-08-31 12:36:15 | 46.24252 | 14.11181 | 306° | 13km/h | 27218m | 6.1m/s | -47.8°C | 3.4% | 0hPa | 2.6V | 00:00:00 | 02:10:42 | 00:00:00 | |
| 9A1FER-10 | 2026-08-31 12:36:14 | 46.24250 | 14.11185 | 311° | 13km/h | 27212m | 5.3m/s | -47.7°C | 3.4% | 0hPa | 2.6V | 00:00:00 | 02:10:41 | 00:00:00 | |
| NBG1-10 | 2026-08-31 12:36:12 | 46.24246 | 14.11192 | 314° | 13km/h | 27201m | 5.5m/s | -47.7°C | 3.3% | 0hPa | 2.6V | 00:00:00 | 02:10:39 | 00:00:00 | |
| IW2NTF | 2026-08-31 12:36:11 | 46.24241 | 14.11161 | 111° | 16km/h | 27161m | 6m/s | 0°C | 0% | 0hPa | 2.6V | 08:30:00 | 02:10:32 | 00:00:00 | |
| PETON7-10 | 2026-08-31 12:36:10 | 46.24243 | 14.11192 | 65° | 11km/h | 27191m | 5.4m/s | -47.7°C | 3.3% | 0hPa | 2.6V | 00:00:00 | 00:00:00 | 00:00:00 | |
| OE5DXL-15 | 2026-08-31 12:36:08 | 46.24241 | 14.11182 | 76° | 11km/h | 27178m | 6.0m/s | -47.8°C | 3.4% | 0hPa | 2.6V | 00:00:00 | 00:00:00 | 00:00:00 | |
| OE5MMP-10 | 2026-08-31 12:36:05 | 46.24241 | 14.11160 | 112° | 9km/h | 27161m | 6.0m/s | -47.6°C | 3.4% | 0hPa | 2.6V | 00:00:00 | 02:10:32 | 00:00:00 | |
| IN3HCDX1 | 2026-08-31 12:36:04 | 46.24241 | 14.11160 | 113° | 16km/h | 27161m | 6.0m/s | -47.6°C | 1.2% | 0hPa | 2.6V | 00:00:00 | 00:00:00 | 00:00:00 | |
| 9A1FER-3 | 2026-08-31 12:36:00 | 46.24246 | 14.11158 | 322° | 11km/h | 27134m | 4.9m/s | -47.8°C | 3.4% | 0hPa | 2.6V | 00:00:00 | 02:10:27 | 00:00:00 | |
| IW2NTF | 2026-08-31 12:35:59 | 46.24239 | 14.11153 | 90° | 13km/h | 27101m | 6.2m/s | 0°C | 0% | 0hPa | 2.6V | 08:30:00 | 02:10:21 | 00:00:00 | |
| IN3HCDX | 2026-08-31 12:35:59 | 46.24244 | 14.11160 | 334° | 11km/h | 27129m | 4.8m/s | -47.9°C | 1.2% | 0hPa | 2.6V | 00:00:00 | 00:00:00 | 00:00:00 | |
| OE5WHR-10 | 2026-08-31 12:35:56 | 46.24239 | 14.11160 | 76° | 9km/h | 27113m | 5.7m/s | -47.9°C | 3.4% | 0hPa | 2.6V | 00:00:00 | 02:10:23 | 00:00:00 | |
| OE8JPQ-2 | 2026-08-31 12:35:55 | 46.24239 | 14.11157 | 92° | 13km/h | 27107m | 5.3m/s | -47.8°C | 3.4% | 0hPa | 2.6V | 00:00:00 | 02:10:22 | 00:00:00 | |
| PETON7-10 | 2026-08-31 12:35:54 | 46.24239 | 14.11153 | 91° | 9km/h | 27102m | 6.2m/s | -47.7°C | 3.4% | 0hPa | 2.6V | 00:00:00 | 02:10:21 | 00:00:00 | |
| PG1ADW-2 | 2026-08-31 12:35:53 | 46.24239 | 14.11148 | 87° | 13km/h | 27096m | 5.9m/s | -47.7°C | 3.4% | 0hPa | 2.6V | 00:00:00 | 00:00:00 | 00:00:00 | |
| OE5DRO-10 | 2026-08-31 12:35:51 | 46.24240 | 14.11137 | 106° | 13km/h | 27085m | 5.0m/s | -47.7°C | 3.4% | 0hPa | 2.6V | 00:00:00 | 00:00:00 | 00:00:00 | |
| DB0UT-7 | 2026-08-31 12:35:47 | 46.24248 | 14.11122 | 150° | 13km/h | 27063m | 6.2m/s | -47.8°C | 3.4% | 0hPa | 2.6V | 00:00:00 | 02:10:14 | 00:00:00 | |
| OE3JTB-15 | 2026-08-31 12:35:45 | 46.24249 | 14.11121 | 98° | 15km/h | 27040m | 6.0m/s | -47.7°C | 3.4% | 0hPa | 2.6V | 00:00:00 | 00:00:00 | 00:00:00 | |
| IW2NTF | 2026-08-31 12:35:41 | 46.24251 | 14.11096 | 94° | 22km/h | 27012m | 4.4m/s | 0°C | 0% | 0hPa | 2.6V | 08:30:00 | 02:10:05 | 00:00:00 | |
| PETON7-10 | 2026-08-31 12:35:39 | 46.24250 | 14.11103 | 91° | 13km/h | 27018m | 5.9m/s | -47.8°C | 3.4% | 0hPa | 2.6V | 00:00:00 | 00:00:00 | 00:00:00 | |
| OE5DXL-15 | 2026-08-31 12:35:38 | 46.24251 | 14.11096 | 95° | 15km/h | 27013m | 4.3m/s | -47.9°C | 3.4% | 0hPa | 2.6V | 00:00:00 | 00:00:00 | 00:00:00 | |
| IN3HCDX | 2026-08-31 12:35:37 | 46.24251 | 14.11096 | 96° | 22km/h | 27013m | 4.4m/s | -48.0°C | 1.1% | 0hPa | 2.6V | 00:00:00 | 00:00:00 | 00:00:00 | |
| OE5MMP-10 | 2026-08-31 12:35:35 | 46.24256 | 14.11076 | 137° | 9km/h | 26996m | 5.2m/s | -47.9°C | 3.4% | 0hPa | 2.6V | 00:00:00 | 02:10:02 | 00:00:00 | |
| DO3MHA-11 | 2026-08-31 12:35:34 | 46.24259 | 14.11073 | 149° | 18km/h | 26991m | 4.8m/s | -47.8°C | 3.4% | 0hPa | 2.6V | 00:00:00 | 02:10:01 | 00:00:00 | |
| PG1ADW-2 | 2026-08-31 12:35:33 | 46.24262 | 14.11071 | 152° | 15km/h | 26986m | 5.4m/s | -47.8°C | 3.4% | 0hPa | 2.6V | 00:00:00 | 02:10:00 | 00:00:00 | |
| OE5DRO-10 | 2026-08-31 12:35:32 | 46.24264 | 14.11069 | 137° | 15km/h | 26980m | 6.3m/s | -47.8°C | 3.4% | 0hPa | 2.6V | 00:00:00 | 00:00:00 | 00:00:00 | |
| IV3AMH | 2026-08-31 12:35:31 | 46.24264 | 14.11069 | 138° | 5km/h | 26980m | 6.3m/s | -47.8°C | 1.2% | 0hPa | 2.6V | 00:00:00 | 00:00:00 | 00:00:00 | |
| 9A1FER-3 | 2026-08-31 12:35:30 | 46.24263 | 14.11066 | 55° | 16km/h | 26969m | 4.6m/s | -47.7°C | 3.4% | 0hPa | 2.6V | 00:00:00 | 02:09:57 | 00:00:00 | |
| IW2NTF | 2026-08-31 12:35:29 | 46.24263 | 14.11053 | 108° | 13km/h | 26949m | 4.8m/s | 0°C | 0% | 0hPa | 2.6V | 08:30:00 | 02:09:53 | 00:00:00 | |
| 9A1FER-10 | 2026-08-31 12:35:29 | 46.24262 | 14.11063 | 63° | 16km/h | 26965m | 4.7m/s | -47.8°C | 3.4% | 0hPa | 2.7V | 00:00:00 | 02:09:56 | 00:00:00 | |
| OE5MMP-10 | 2026-08-31 12:35:25 | 46.24264 | 14.11048 | 103° | 20km/h | 26944m | 5.4m/s | -47.9°C | 3.4% | 0hPa | 2.7V | 00:00:00 | 02:09:52 | 00:00:00 | |
| PETON7-10 | 2026-08-31 12:35:24 | 46.24264 | 14.11042 | 97° | 18km/h | 26938m | 6.2m/s | -47.9°C | 3.4% | 0hPa | 2.7V | 00:00:00 | 00:00:00 | 00:00:00 | |
| DO3MHA-11 | 2026-08-31 12:35:19 | 46.24270 | 14.11004 | 108° | 16km/h | 26910m | 4.4m/s | -47.9°C | 3.4% | 0hPa | 2.7V | 00:00:00 | 02:09:46 | 08:30:00 | |
| DB0UT-7 | 2026-08-31 12:35:17 | 46.24271 | 14.10990 | 84° | 18km/h | 26899m | 6.4m/s | -48.0°C | 3.4% | 0hPa | 2.6V | 00:00:00 | 00:00:00 | 00:00:00 | |
| IN3HCDX | 2026-08-31 12:35:16 | 46.24271 | 14.10990 | 85° | 18km/h | 26899m | 6.5m/s | -48.1°C | 1.1% | 0hPa | 2.6V | 00:00:00 | 00:00:00 | 00:00:00 | |
| OE8JPQ-2 | 2026-08-31 12:35:15 | 46.24269 | 14.10978 | 72° | 18km/h | 26888m | 5.3m/s | -48.1°C | 3.4% | 0hPa | 2.6V | 00:00:00 | 00:00:00 | 00:00:00 | |
| 9A1FER-10 | 2026-08-31 12:35:14 | 46.24268 | 14.10972 | 77° | 18km/h | 26882m | 6.2m/s | -48.0°C | 3.4% | 0hPa | 2.6V | 00:00:00 | 02:09:41 | 08:30:00 | |
| PG1ADW-2 | 2026-08-31 12:35:13 | 46.24267 | 14.10967 | 86° | 18km/h | 26876m | 5.2m/s | -48.0°C | 3.4% | 0hPa | 2.7V | 00:00:00 | 00:00:00 | 00:00:00 | |
| IW2NTF | 2026-08-31 12:35:11 | 46.24266 | 14.10953 | 80° | 15km/h | 26860m | 5.9m/s | 0°C | 0% | 0hPa | 2.6V | 08:30:00 | 02:09:37 | 00:00:00 | |
| OE5WHR-10 | 2026-08-31 12:35:10 | 46.24267 | 14.10953 | 81° | 18km/h | 26860m | 5.8m/s | -48.2°C | 3.5% | 0hPa | 2.6V | 00:00:00 | 00:00:00 | 00:00:00 | |
| DO3MHA-11 | 2026-08-31 12:35:09 | 46.24266 | 14.10948 | 83° | 20km/h | 26855m | 4.7m/s | -48.2°C | 3.4% | 0hPa | 2.6V | 00:00:00 | 02:09:36 | 00:00:00 | |
| OE5DXL-15 | 2026-08-31 12:35:08 | 46.24266 | 14.10942 | 95° | 20km/h | 26850m | 5.1m/s | -48.2°C | 3.4% | 0hPa | 2.6V | 00:00:00 | 00:00:00 | 08:30:00 | |
| OE5MMP-10 | 2026-08-31 12:35:05 | 46.24269 | 14.10922 | 101° | 22km/h | 26833m | 4.3m/s | -48.2°C | 3.4% | 0hPa | 2.6V | 00:00:00 | 02:09:32 | 00:00:00 | |
| IN3HCDX1 | 2026-08-31 12:35:03 | 46.24269 | 14.10914 | 89° | 22km/h | 26828m | 6.1m/s | -48.3°C | 1.2% | 0hPa | 2.6V | 00:00:00 | 00:00:00 | 00:00:00 | |
| 9A1FER-3 | 2026-08-31 12:35:00 | 46.24261 | 14.10882 | 67° | 20km/h | 26806m | 6.2m/s | -48.4°C | 3.4% | 0hPa | 2.6V | 00:00:00 | 02:09:27 | 00:00:00 | |
| DO3MHA-11 | 2026-08-31 12:34:59 | 46.24259 | 14.10874 | 68° | 18km/h | 26800m | 5.0m/s | -48.4°C | 3.4% | 0hPa | 2.6V | 00:00:00 | 02:09:26 | 00:00:00 | |
| IN3HCDX | 2026-08-31 12:34:56 | 46.24255 | 14.10860 | 62° | 18km/h | 26789m | 5.5m/s | -48.5°C | 1.2% | 0hPa | 2.6V | 00:00:00 | 00:00:00 | 00:00:00 | |
| IV3AMH | 2026-08-31 12:34:55 | 46.24249 | 14.10849 | 48° | 18km/h | 26778m | 5.2m/s | -48.5°C | 1.2% | 0hPa | 2.6V | 00:00:00 | 00:00:00 | 00:00:00 | |
| PETON7-10 | 2026-08-31 12:34:54 | 46.24246 | 14.10844 | 54° | 20km/h | 26773m | 4.2m/s | -48.5°C | 3.4% | 0hPa | 2.6V | 00:00:00 | 00:00:00 | 00:00:00 | |
| PG1ADW-2 | 2026-08-31 12:34:53 | 46.24244 | 14.10839 | 66° | 20km/h | 26768m | 6.1m/s | -48.5°C | 3.4% | 0hPa | 2.7V | 00:00:00 | 00:00:00 | 00:00:00 | |
| DO3MHA-11 | 2026-08-31 12:34:49 | 46.24240 | 14.10813 | 69° | 22km/h | 26746m | 6.3m/s | -48.6°C | 3.5% | 0hPa | 2.7V | 00:00:00 | 02:09:16 | 00:00:00 | |
| DB0UT-7 | 2026-08-31 12:34:47 | 46.24235 | 14.10800 | 58° | 16km/h | 26735m | 5.2m/s | -48.7°C | 3.5% | 0hPa | 2.6V | 00:00:00 | 02:09:14 | 08:30:00 | |
| 9A1FER-3 | 2026-08-31 12:34:45 | 46.24229 | 14.10788 | 54° | 20km/h | 26724m | 4.8m/s | -48.8°C | 3.5% | 0hPa | 2.6V | 00:00:00 | 02:09:12 | 00:00:00 | |
| DO3MHA-12 | 2026-08-31 12:34:44 | 46.24226 | 14.10782 | 45° | 20km/h | 26719m | 4.0m/s | -48.8°C | 3.5% | 0hPa | 2.6V | 00:00:00 | 02:09:11 | 00:00:00 | |
| IN3HCDX1 | 2026-08-31 12:34:42 | 46.24222 | 14.10777 | 36° | 22km/h | 26715m | 5.4m/s | -48.8°C | 1.2% | 0hPa | 2.6V | 00:00:00 | 00:00:00 | 00:00:00 | |
| DO3MHA-11 | 2026-08-31 12:34:39 | 46.24199 | 14.10763 | 27° | 16km/h | 26693m | 5.9m/s | -48.8°C | 3.5% | 0hPa | 2.6V | 00:00:00 | 02:09:06 | 00:00:00 | |
| OE5DXL-15 | 2026-08-31 12:34:38 | 46.24194 | 14.10758 | 37° | 11km/h | 26687m | 6.1m/s | -48.8°C | 3.5% | 0hPa | 2.6V | 00:00:00 | 00:00:00 | 00:00:00 | |
| OE5MMP-10 | 2026-08-31 12:34:35 | 46.24182 | 14.10744 | 35° | 15km/h | 26671m | 5.8m/s | -49.0°C | 3.5% | 0hPa | 2.6V | 00:00:00 | 02:09:02 | 00:00:00 | |
| PG1ADW-2 | 2026-08-31 12:34:33 | 46.24176 | 14.10739 | 32° | 9km/h | 26661m | 5.2m/s | -49.0°C | 3.6% | 0hPa | 2.6V | 00:00:00 | 00:00:00 | 00:00:00 | |
| DO3MHA-12 | 2026-08-31 12:34:31 | 46.24172 | 14.10734 | 44° | 13km/h | 26649m | 5.5m/s | -48.9°C | 3.5% | 0hPa | 2.6V | 00:00:00 | 02:08:58 | 00:00:00 | |
| NBG1-10 | 2026-08-31 12:34:30 | 46.24170 | 14.10732 | 31° | 7km/h | 26643m | 4.8m/s | -48.9°C | 3.5% | 0hPa | 2.6V | 00:00:00 | 02:08:57 | 08:30:00 | |
| DO3MHA-11 | 2026-08-31 12:34:29 | 46.24167 | 14.10731 | 16° | 13km/h | 26638m | 6.3m/s | -49.0°C | 3.5% | 0hPa | 2.7V | 00:00:00 | 02:08:56 | 00:00:00 | |
| OE5WHR-10 | 2026-08-31 12:34:28 | 46.24164 | 14.10730 | 9° | 7km/h | 26632m | 5.5m/s | -49.0°C | 3.5% | 0hPa | 2.7V | 00:00:00 | 00:00:00 | 00:00:00 | |
| OE5MMP-10 | 2026-08-31 12:34:25 | 46.24150 | 14.10723 | 34° | 7km/h | 26616m | 6.3m/s | -48.9°C | 3.5% | 0hPa | 2.6V | 00:00:00 | 02:08:52 | 00:00:00 | |
| PETON7-10 | 2026-08-31 12:34:24 | 46.24147 | 14.10719 | 50° | 5km/h | 26610m | 5.1m/s | -48.9°C | 3.4% | 0hPa | 2.6V | 00:00:00 | 02:08:51 | 00:00:00 | |
| IN3HCDX1 | 2026-08-31 12:34:21 | 46.24144 | 14.10712 | 65° | 11km/h | 26600m | 5.6m/s | -49.0°C | 1.1% | 0hPa | 2.6V | 00:00:00 | 00:00:00 | 00:00:00 | |
| DO3MHA-11 | 2026-08-31 12:34:19 | 46.24140 | 14.10708 | 352° | 4km/h | 26583m | 4.5m/s | -49.2°C | 3.5% | 0hPa | 2.6V | 00:00:00 | 02:08:46 | 00:00:00 | |
| DB0UT-7 | 2026-08-31 12:34:17 | 46.24140 | 14.10708 | 126° | 7km/h | 26573m | 6.5m/s | -49.3°C | 3.5% | 0hPa | 2.7V | 00:00:00 | 00:00:00 | 00:00:00 | |
| OE5DRO-10 | 2026-08-31 12:34:16 | 46.24140 | 14.10706 | 126° | 5km/h | 26567m | 5.6m/s | -49.2°C | 3.5% | 0hPa | 2.7V | 00:00:00 | 00:00:00 | 08:30:00 | |
| OE5MMP-10 | 2026-08-31 12:34:15 | 46.24141 | 14.10705 | 116° | 4km/h | 26562m | 4.5m/s | -49.3°C | 3.6% | 0hPa | 2.7V | 00:00:00 | 02:08:42 | 00:00:00 | |
| 9A1FER-10 | 2026-08-31 12:34:14 | 46.24141 | 14.10704 | 73° | 5km/h | 26557m | 6.2m/s | -49.4°C | 3.6% | 0hPa | 2.6V | 00:00:00 | 02:08:41 | 00:00:00 | |
| PG1ADW-2 | 2026-08-31 12:34:13 | 46.24140 | 14.10704 | 2° | 7km/h | 26551m | 5.6m/s | -49.5°C | 3.6% | 0hPa | 2.6V | 00:00:00 | 02:08:40 | 00:00:00 | |
| DO3MHA-11 | 2026-08-31 12:34:09 | 46.24139 | 14.10703 | 151° | 7km/h | 26529m | 5.5m/s | -49.6°C | 3.6% | 0hPa | 2.6V | 00:00:00 | 02:08:36 | 00:00:00 | |
| OE5DXL-15 | 2026-08-31 12:34:08 | 46.24140 | 14.10703 | 160° | 13km/h | 26523m | 5.6m/s | -49.7°C | 3.6% | 0hPa | 2.6V | 00:00:00 | 00:00:00 | 00:00:00 | |
| OE5WHR-10 | 2026-08-31 12:34:07 | 46.24140 | 14.10703 | 188° | 11km/h | 26517m | 6.3m/s | -49.7°C | 3.6% | 0hPa | 2.6V | 00:00:00 | 00:00:00 | 00:00:00 | |
| OE5MMP-10 | 2026-08-31 12:34:05 | 46.24142 | 14.10704 | 225° | 9km/h | 26507m | 4.2m/s | -49.7°C | 3.5% | 0hPa | 2.6V | 00:00:00 | 02:08:32 | 00:00:00 | |
| DO3MHA-12 | 2026-08-31 12:34:02 | 46.24148 | 14.10708 | 190° | 11km/h | 26490m | 5.1m/s | -49.7°C | 3.5% | 0hPa | 2.6V | 00:00:00 | 02:08:29 | 08:30:00 | |
| IN3HCDX1 | 2026-08-31 12:34:01 | 46.24148 | 14.10708 | 191° | 11km/h | 26490m | 5.2m/s | -49.7°C | 1.2% | 0hPa | 2.7V | 00:00:00 | 00:00:00 | 00:00:00 | |
| IW2NTF | 2026-08-31 12:33:59 | 46.24156 | 14.10712 | 205° | 5km/h | 26469m | 4.7m/s | 0°C | 0% | 0hPa | 2.7V | 08:30:00 | 02:08:25 | 00:00:00 | |
| 9A1FER-10 | 2026-08-31 12:33:59 | 46.24154 | 14.10710 | 210° | 15km/h | 26474m | 4.9m/s | -49.7°C | 3.5% | 0hPa | 2.7V | 00:00:00 | 02:08:26 | 00:00:00 | |
| DO3MHA-11 | 2026-08-31 12:33:58 | 46.24156 | 14.10712 | 206° | 13km/h | 26469m | 4.7m/s | -49.8°C | 3.6% | 0hPa | 2.7V | 00:00:00 | 02:08:25 | 00:00:00 | |
| NBG1-10 | 2026-08-31 12:33:57 | 46.24157 | 14.10712 | 194° | 16km/h | 26463m | 6.2m/s | -50.0°C | 3.7% | 0hPa | 2.7V | 00:00:00 | 02:08:24 | 00:00:00 | |
| OE5MMP-10 | 2026-08-31 12:33:55 | 46.24163 | 14.10714 | 190° | 16km/h | 26452m | 5.0m/s | -50.1°C | 3.8% | 0hPa | 2.7V | 00:00:00 | 02:08:22 | 00:00:00 | |
| PETON7-10 | 2026-08-31 12:33:54 | 46.24166 | 14.10715 | 197° | 16km/h | 26447m | 5.3m/s | -50.2°C | 3.7% | 0hPa | 2.7V | 00:00:00 | 00:00:00 | 00:00:00 | |
| IW2NTF | 2026-08-31 12:33:53 | 46.24186 | 14.10726 | 179° | 20km/h | 26414m | 5.6m/s | 0°C | 0% | 0hPa | 2.7V | 00:00:00 | 02:08:15 | 00:00:00 | |
| PG1ADW-2 | 2026-08-31 12:33:53 | 46.24169 | 14.10717 | 210° | 16km/h | 26441m | 6.0m/s | -50.2°C | 3.7% | 0hPa | 2.7V | 00:00:00 | 00:00:00 | 00:00:00 | |
| DO3MHA-12 | 2026-08-31 12:33:50 | 46.24177 | 14.10724 | 200° | 18km/h | 26426m | 4.8m/s | -50.5°C | 3.7% | 0hPa | 2.7V | 00:00:00 | 02:08:17 | 00:00:00 | |
| DO3MHA-11 | 2026-08-31 12:33:48 | 46.24185 | 14.10725 | 180° | 20km/h | 26415m | 5.5m/s | -50.5°C | 3.6% | 0hPa | 2.7V | 00:00:00 | 02:08:15 | 08:30:00 | |
| DB0UT-7 | 2026-08-31 12:33:47 | 46.24191 | 14.10725 | 179° | 18km/h | 26409m | 4.7m/s | -50.5°C | 3.7% | 0hPa | 2.6V | 00:00:00 | 02:08:14 | 00:00:00 | |
| OE5WHR-10 | 2026-08-31 12:33:46 | 46.24196 | 14.10725 | 183° | 20km/h | 26404m | 6.0m/s | -50.6°C | 3.7% | 0hPa | 2.6V | 00:00:00 | 02:08:13 | 00:00:00 | |
| OE5MMP-10 | 2026-08-31 12:33:45 | 46.24201 | 14.10726 | 188° | 16km/h | 26398m | 5.7m/s | -50.5°C | 3.7% | 0hPa | 2.6V | 00:00:00 | 02:08:12 | 08:30:00 | |
| 9A1FER-10 | 2026-08-31 12:33:44 | 46.24206 | 14.10727 | 192° | 18km/h | 26393m | 4.7m/s | -50.5°C | 3.8% | 0hPa | 2.6V | 00:00:00 | 02:08:11 | 00:00:00 | |
| IW2NTF | 2026-08-31 12:33:41 | 46.24233 | 14.10725 | 157° | 13km/h | 26361m | 6.3m/s | 0°C | 0% | 0hPa | 2.6V | 00:00:00 | 02:08:05 | 00:00:00 | |
| DO3MHA-12 | 2026-08-31 12:33:40 | 46.24225 | 14.10728 | 169° | 20km/h | 26372m | 5.0m/s | -50.7°C | 3.8% | 0hPa | 2.6V | 00:00:00 | 02:08:07 | 00:00:00 | |
| PETON7-10 | 2026-08-31 12:33:39 | 46.24230 | 14.10727 | 163° | 16km/h | 26367m | 4.4m/s | -50.8°C | 3.8% | 0hPa | 2.6V | 00:00:00 | 02:08:06 | 00:00:00 | |
| DO3MHA-11 | 2026-08-31 12:33:38 | 46.24233 | 14.10725 | 158° | 16km/h | 26361m | 6.3m/s | -50.9°C | 3.9% | 0hPa | 2.6V | 00:00:00 | 02:08:05 | 00:00:00 | |
| OE5MMP-10 | 2026-08-31 12:33:35 | 46.24238 | 14.10718 | 122° | 20km/h | 26345m | 4.7m/s | -50.8°C | 3.8% | 0hPa | 2.6V | 00:00:00 | 02:08:02 | 00:00:00 | |
| PG1ADW-2 | 2026-08-31 12:33:33 | 46.24243 | 14.10709 | 129° | 20km/h | 26333m | 5.8m/s | -50.8°C | 3.8% | 0hPa | 2.6V | 00:00:00 | 00:00:00 | 00:00:00 | |
| IN3HCDX | 2026-08-31 12:33:32 | 46.24243 | 14.10709 | 129° | 22km/h | 26333m | 5.9m/s | -50.9°C | 1.3% | 0hPa | 2.6V | 00:00:00 | 00:00:00 | 00:00:00 | |
| 9A1FER-3 | 2026-08-31 12:33:30 | 46.24256 | 14.10689 | 140° | 20km/h | 26317m | 6.1m/s | -50.9°C | 3.8% | 0hPa | 2.6V | 00:00:00 | 02:07:57 | 08:30:00 | |
| IW2NTF | 2026-08-31 12:33:29 | 46.24271 | 14.10672 | 132° | 18km/h | 26294m | 5.1m/s | 0°C | 0% | 0hPa | 2.7V | 00:00:00 | 02:07:53 | 00:00:00 | |
| 9A1FER-10 | 2026-08-31 12:33:29 | 46.24260 | 14.10684 | 143° | 18km/h | 26311m | 5.6m/s | -50.9°C | 3.8% | 0hPa | 2.6V | 00:00:00 | 02:07:56 | 00:00:00 | |
| DO3MHA-11 | 2026-08-31 12:33:28 | 46.24264 | 14.10680 | 144° | 18km/h | 26306m | 5.2m/s | -50.9°C | 3.8% | 0hPa | 2.6V | 00:00:00 | 02:07:55 | 00:00:00 | |
| OE5MMP-10 | 2026-08-31 12:33:25 | 46.24273 | 14.10667 | 119° | 20km/h | 26290m | 4.2m/s | -50.8°C | 3.9% | 0hPa | 2.6V | 00:00:00 | 02:07:52 | 00:00:00 | |
| PETON7-10 | 2026-08-31 12:33:24 | 46.24275 | 14.10662 | 101° | 18km/h | 26284m | 5.8m/s | -50.9°C | 4.0% | 0hPa | 2.6V | 00:00:00 | 00:00:00 | 00:00:00 | |
| IN3HCDX1 | 2026-08-31 12:33:20 | 46.24271 | 14.10639 | 87° | 20km/h | 26263m | 5.9m/s | -50.9°C | 1.3% | 0hPa | 2.7V | 00:00:00 | 00:00:00 | 00:00:00 | |
| OE5DRO-10 | 2026-08-31 12:33:19 | 46.24271 | 14.10631 | 100° | 22km/h | 26257m | 5.8m/s | -50.9°C | 3.8% | 0hPa | 2.7V | 00:00:00 | 00:00:00 | 00:00:00 | |
| DO3MHA-11 | 2026-08-31 12:33:18 | 46.24273 | 14.10622 | 109° | 18km/h | 26252m | 5.1m/s | -50.9°C | 3.8% | 0hPa | 2.6V | 00:00:00 | 02:07:45 | 00:00:00 | |
| DB0UT-7 | 2026-08-31 12:33:17 | 46.24275 | 14.10614 | 114° | 20km/h | 26246m | 5.4m/s | -50.9°C | 3.8% | 0hPa | 2.6V | 00:00:00 | 00:00:00 | 00:00:00 | |
| 9A1FER-3 | 2026-08-31 12:33:15 | 46.24280 | 14.10600 | 123° | 22km/h | 26234m | 5.2m/s | -50.9°C | 3.8% | 0hPa | 2.6V | 00:00:00 | 02:07:42 | 00:00:00 | |
| 9A1FER-10 | 2026-08-31 12:33:14 | 46.24282 | 14.10595 | 126° | 22km/h | 26229m | 5.1m/s | -50.9°C | 3.9% | 0hPa | 2.6V | 00:00:00 | 02:07:41 | 00:00:00 | |
| PG1ADW-2 | 2026-08-31 12:33:13 | 46.24285 | 14.10590 | 124° | 20km/h | 26224m | 6.2m/s | -50.8°C | 3.9% | 0hPa | 2.6V | 00:00:00 | 00:00:00 | 08:30:00 | |
| IW2NTF | 2026-08-31 12:33:11 | 46.24277 | 14.10555 | 50° | 27km/h | 26191m | 4.9m/s | 0°C | 0% | 0hPa | 2.6V | 00:00:00 | 02:07:34 | 00:00:00 | |
| PETON7-10 | 2026-08-31 12:33:09 | 46.24285 | 14.10568 | 53° | 22km/h | 26202m | 6.5m/s | -50.8°C | 3.9% | 0hPa | 2.6V | 00:00:00 | 00:00:00 | 00:00:00 | |
| DO3MHA-11 | 2026-08-31 12:33:08 | 46.24282 | 14.10562 | 46° | 24km/h | 26196m | 5.0m/s | -50.8°C | 3.9% | 0hPa | 2.6V | 00:00:00 | 02:07:35 | 00:00:00 | |
| DO3MHA-12 | 2026-08-31 12:33:06 | 46.24273 | 14.10546 | 60° | 20km/h | 26185m | 6.4m/s | -50.8°C | 3.8% | 0hPa | 2.6V | 00:00:00 | 02:07:33 | 00:00:00 | |
| OE5MMP-10 | 2026-08-31 12:33:05 | 46.24270 | 14.10536 | 72° | 20km/h | 26179m | 5.1m/s | -50.8°C | 3.9% | 0hPa | 2.6V | 00:00:00 | 02:07:32 | 00:00:00 | |
| OE5WHR-10 | 2026-08-31 12:33:04 | 46.24268 | 14.10526 | 81° | 20km/h | 26174m | 4.5m/s | -50.7°C | 3.9% | 0hPa | 2.6V | 00:00:00 | 00:00:00 | 00:00:00 | |
| 9A1FER-3 | 2026-08-31 12:33:00 | 46.24269 | 14.10494 | 105° | 18km/h | 26152m | 4.9m/s | -50.7°C | 3.8% | 0hPa | 2.6V | 00:00:00 | 02:07:27 | 00:00:00 | |
| 9A1FER-10 | 2026-08-31 12:32:59 | 46.24270 | 14.10489 | 110° | 18km/h | 26147m | 5.7m/s | -50.7°C | 3.8% | 0hPa | 2.6V | 00:00:00 | 02:07:26 | 08:30:00 | |
| DO3MHA-11 | 2026-08-31 12:32:58 | 46.24271 | 14.10484 | 110° | 18km/h | 26141m | 6.0m/s | -50.7°C | 3.8% | 0hPa | 2.7V | 00:00:00 | 02:07:25 | 00:00:00 | |
| IW2NTF | 2026-08-31 12:32:54 | 46.24266 | 14.10458 | 46° | 18km/h | 26113m | 4.6m/s | 0°C | 0% | 0hPa | 2.7V | 00:00:00 | 02:07:20 | 00:00:00 | |
| PETON7-10 | 2026-08-31 12:32:54 | 46.24269 | 14.10462 | 51° | 22km/h | 26119m | 5.9m/s | -50.7°C | 3.8% | 0hPa | 2.6V | 00:00:00 | 02:07:21 | 00:00:00 | |
| PG1ADW-2 | 2026-08-31 12:32:53 | 46.24267 | 14.10458 | 47° | 20km/h | 26113m | 4.6m/s | -50.6°C | 3.8% | 0hPa | 2.6V | 00:00:00 | 02:07:20 | 00:00:00 | |
| NBG1-10 | 2026-08-31 12:32:51 | 46.24261 | 14.10446 | 64° | 16km/h | 26103m | 6.3m/s | -50.6°C | 3.8% | 0hPa | 2.6V | 00:00:00 | 02:07:18 | 00:00:00 | |
| IW2NTF | 2026-08-31 12:32:49 | 46.24244 | 14.10390 | 57° | 24km/h | 26059m | 6.4m/s | 0°C | 0% | 0hPa | 2.7V | 00:00:00 | 02:07:10 | 00:00:00 | |
| DB0UT-7 | 2026-08-31 12:32:48 | 46.24255 | 14.10415 | 72° | 16km/h | 26082m | 5.6m/s | -50.7°C | 3.9% | 0hPa | 2.6V | 00:00:00 | 02:07:14 | 00:00:00 | |
| 9A1FER-3 | 2026-08-31 12:32:45 | 46.24251 | 14.10403 | 55° | 18km/h | 26071m | 4.9m/s | -50.6°C | 3.9% | 0hPa | 2.6V | 00:00:00 | 02:07:12 | 00:00:00 | |
| 9A1FER-10 | 2026-08-31 12:32:44 | 46.24247 | 14.10396 | 55° | 18km/h | 26066m | 6.0m/s | -50.7°C | 3.9% | 0hPa | 2.6V | 00:00:00 | 02:07:11 | 00:00:00 | |
| OE5WHR-10 | 2026-08-31 12:32:43 | 46.24244 | 14.10390 | 58° | 16km/h | 26060m | 6.4m/s | -50.7°C | 3.9% | 0hPa | 2.6V | 00:00:00 | 02:07:10 | 00:00:00 | |
| OE5DRO-10 | 2026-08-31 12:32:41 | 46.24238 | 14.10375 | 55° | 16km/h | 26049m | 5.6m/s | -50.6°C | 3.8% | 0hPa | 2.6V | 00:00:00 | 00:00:00 | 00:00:00 | |
| PETON7-10 | 2026-08-31 12:32:39 | 46.24231 | 14.10363 | 49° | 15km/h | 26037m | 5.1m/s | -50.6°C | 3.8% | 0hPa | 2.6V | 00:00:00 | 00:00:00 | 00:00:00 | |
| DO3MHA-11 | 2026-08-31 12:32:38 | 46.24228 | 14.10358 | 55° | 15km/h | 26032m | 5.2m/s | -50.6°C | 3.8% | 0hPa | 2.7V | 00:00:00 | 02:07:05 | 00:00:00 | |
| OE8JPQ-2 | 2026-08-31 12:32:35 | 46.24223 | 14.10342 | 67° | 13km/h | 26015m | 4.8m/s | -50.5°C | 3.8% | 0hPa | 2.7V | 00:00:00 | 00:00:00 | 08:30:00 | |
| PG1ADW-2 | 2026-08-31 12:32:33 | 46.24220 | 14.10335 | 44° | 11km/h | 26003m | 5.8m/s | -50.6°C | 3.9% | 0hPa | 2.6V | 00:00:00 | 00:00:00 | 00:00:00 | |
| 9A1FER-3 | 2026-08-31 12:32:30 | 46.24212 | 14.10326 | 44° | 13km/h | 25986m | 6.0m/s | -50.4°C | 3.9% | 0hPa | 2.6V | 00:00:00 | 02:06:57 | 00:00:00 | |
| DO3MHA-11 | 2026-08-31 12:32:28 | 46.24205 | 14.10317 | 40° | 13km/h | 25976m | 5.0m/s | -50.5°C | 3.9% | 0hPa | 2.6V | 00:00:00 | 02:06:55 | 00:00:00 | |
| OE5MMP-10 | 2026-08-31 12:32:25 | 46.24195 | 14.10309 | 17° | 9km/h | 25959m | 4.9m/s | -50.3°C | 3.9% | 0hPa | 2.6V | 00:00:00 | 02:06:52 | 00:00:00 | |
| PETON7-10 | 2026-08-31 12:32:24 | 46.24192 | 14.10307 | 23° | 7km/h | 25954m | 5.1m/s | -50.3°C | 3.8% | 0hPa | 2.6V | 00:00:00 | 00:00:00 | 00:00:00 | |
| IV3AMH | 2026-08-31 12:32:23 | 46.24192 | 14.10307 | 23° | 13km/h | 25954m | 5.2m/s | -50.4°C | 1.3% | 0hPa | 2.6V | 00:00:00 | 00:00:00 | 00:00:00 | |
| OE5WHR-10 | 2026-08-31 12:32:22 | 46.24186 | 14.10303 | 40° | 7km/h | 25943m | 4.8m/s | -50.2°C | 3.8% | 0hPa | 2.6V | 00:00:00 | 00:00:00 | 00:00:00 | |
| DO3MHA-11 | 2026-08-31 12:32:18 | 46.24179 | 14.10298 | 332° | 5km/h | 25921m | 5.1m/s | -50.1°C | 3.7% | 0hPa | 2.6V | 00:00:00 | 02:06:45 | 08:30:00 | |
| DB0UT-7 | 2026-08-31 12:32:17 | 46.24177 | 14.10299 | 339° | 7km/h | 25916m | 4.8m/s | -50.0°C | 3.6% | 0hPa | 2.7V | 00:00:00 | 00:00:00 | 00:00:00 | |
| OE3JTB-15 | 2026-08-31 12:32:16 | 46.24174 | 14.10299 | 33° | 7km/h | 25904m | 5.4m/s | -50.0°C | 3.7% | 0hPa | 2.7V | 00:00:00 | 00:00:00 | 00:00:00 | |
| OE5MMP-10 | 2026-08-31 12:32:15 | 46.24174 | 14.10299 | 33° | 5km/h | 25904m | 5.4m/s | -50.0°C | 3.7% | 0hPa | 2.7V | 00:00:00 | 02:06:42 | 08:30:00 | |
| 9A1FER-10 | 2026-08-31 12:32:14 | 46.24173 | 14.10297 | 41° | 5km/h | 25899m | 5.0m/s | -50.0°C | 3.7% | 0hPa | 2.7V | 00:00:00 | 02:06:41 | 00:00:00 | |
| PG1ADW-2 | 2026-08-31 12:32:13 | 46.24172 | 14.10296 | 39° | 5km/h | 25894m | 5.9m/s | -49.9°C | 3.7% | 0hPa | 2.7V | 00:00:00 | 00:00:00 | 00:00:00 | |
| IN3HCDX | 2026-08-31 12:32:10 | 46.24171 | 14.10295 | 302° | 2km/h | 25882m | 5.1m/s | -50.0°C | 1.3% | 0hPa | 2.7V | 00:00:00 | 00:00:00 | 00:00:00 | |
| PETON7-10 | 2026-08-31 12:32:09 | 46.24170 | 14.10296 | 11° | 7km/h | 25871m | 6.0m/s | -50.1°C | 3.7% | 0hPa | 2.7V | 00:00:00 | 02:06:36 | 00:00:00 | |
| OE5DXL-15 | 2026-08-31 12:32:08 | 46.24169 | 14.10295 | 21° | 11km/h | 25866m | 5.5m/s | -50.0°C | 3.7% | 0hPa | 2.7V | 00:00:00 | 00:00:00 | 00:00:00 | |
| OE5MMP-10 | 2026-08-31 12:32:05 | 46.24164 | 14.10297 | 320° | 7km/h | 25850m | 6.4m/s | -50.3°C | 3.7% | 0hPa | 2.6V | 00:00:00 | 02:06:32 | 00:00:00 | |
| OE5DRO-10 | 2026-08-31 12:32:03 | 46.24161 | 14.10303 | 295° | 9km/h | 25839m | 5.0m/s | -50.4°C | 3.7% | 0hPa | 2.6V | 00:00:00 | 00:00:00 | 00:00:00 | |
| OE5WHR-10 | 2026-08-31 12:32:01 | 46.24160 | 14.10307 | 253° | 11km/h | 25827m | 5.1m/s | -50.4°C | 3.7% | 0hPa | 2.6V | 00:00:00 | 00:00:00 | 00:00:00 | |
| 9A1FER-3 | 2026-08-31 12:32:00 | 46.24160 | 14.10308 | 215° | 7km/h | 25822m | 4.3m/s | -50.4°C | 3.7% | 0hPa | 2.6V | 00:00:00 | 02:06:27 | 00:00:00 | |
| 9A1FER-10 | 2026-08-31 12:31:59 | 46.24161 | 14.10309 | 222° | 9km/h | 25817m | 5.7m/s | -50.4°C | 3.7% | 0hPa | 2.7V | 00:00:00 | 02:06:26 | 00:00:00 | |
| DO3MHA-11 | 2026-08-31 12:31:58 | 46.24162 | 14.10311 | 234° | 7km/h | 25812m | 5.8m/s | -50.3°C | 3.8% | 0hPa | 2.7V | 00:00:00 | 02:06:25 | 00:00:00 | |
| DO3MHA-12 | 2026-08-31 12:31:56 | 46.24164 | 14.10316 | 257° | 7km/h | 25801m | 4.5m/s | -50.3°C | 3.8% | 0hPa | 2.7V | 00:00:00 | 02:06:23 | 00:00:00 | |
| OE5MMP-10 | 2026-08-31 12:31:55 | 46.24164 | 14.10319 | 276° | 9km/h | 25796m | 5.7m/s | -50.4°C | 3.7% | 0hPa | 2.7V | 00:00:00 | 02:06:22 | 00:00:00 | |
| PETON7-10 | 2026-08-31 12:31:54 | 46.24164 | 14.10320 | 318° | 13km/h | 25790m | 5.9m/s | -50.5°C | 3.8% | 0hPa | 2.7V | 00:00:00 | 00:00:00 | 08:30:00 | |
| PG1ADW-2 | 2026-08-31 12:31:53 | 46.24163 | 14.10321 | 342° | 11km/h | 25785m | 5.0m/s | -50.6°C | 3.8% | 0hPa | 2.7V | 00:00:00 | 00:00:00 | 00:00:00 | |
| IN3HCDX | 2026-08-31 12:31:50 | 46.24160 | 14.10324 | 314° | 9km/h | 25774m | 6.1m/s | -50.7°C | 1.3% | 0hPa | 2.7V | 00:00:00 | 00:00:00 | 00:00:00 | |
| DO3MHA-11 | 2026-08-31 12:31:48 | 46.24159 | 14.10334 | 238° | 16km/h | 25760m | 5.9m/s | -50.6°C | 3.8% | 0hPa | 2.7V | 00:00:00 | 02:06:15 | 00:00:00 | |
| DB0UT-7 | 2026-08-31 12:31:47 | 46.24161 | 14.10336 | 210° | 11km/h | 25753m | 6.4m/s | -50.6°C | 3.8% | 0hPa | 2.7V | 00:00:00 | 02:06:14 | 00:00:00 | |
| DO3MHA-12 | 2026-08-31 12:31:46 | 46.24164 | 14.10338 | 198° | 18km/h | 25747m | 5.6m/s | -50.6°C | 3.8% | 0hPa | 2.6V | 00:00:00 | 02:06:13 | 00:00:00 | |
| NBG1-10 | 2026-08-31 12:31:45 | 46.24169 | 14.10340 | 198° | 11km/h | 25741m | 6.0m/s | -50.6°C | 3.8% | 0hPa | 2.6V | 00:00:00 | 02:06:12 | 00:00:00 | |
| 9A1FER-10 | 2026-08-31 12:31:44 | 46.24173 | 14.10342 | 201° | 11km/h | 25735m | 5.9m/s | -50.6°C | 3.8% | 0hPa | 2.6V | 00:00:00 | 02:06:11 | 00:00:00 | |
| OE5WHR-10 | 2026-08-31 12:31:40 | 46.24191 | 14.10344 | 152° | 9km/h | 25714m | 6.0m/s | -50.5°C | 3.8% | 0hPa | 2.6V | 00:00:00 | 02:06:07 | 00:00:00 | |
| PETON7-10 | 2026-08-31 12:31:39 | 46.24194 | 14.10341 | 137° | 9km/h | 25708m | 5.3m/s | -50.5°C | 3.8% | 0hPa | 2.6V | 00:00:00 | 00:00:00 | 00:00:00 | |
| DO3MHA-11 | 2026-08-31 12:31:38 | 46.24197 | 14.10338 | 133° | 7km/h | 25703m | 5.2m/s | -50.5°C | 3.8% | 0hPa | 2.6V | 00:00:00 | 02:06:05 | 00:00:00 | |
| IW2NTF | 2026-08-31 12:31:35 | 46.24202 | 14.10335 | 192° | 5km/h | 25680m | 6.1m/s | 0°C | 0% | 0hPa | 2.6V | 00:00:00 | 02:06:01 | 00:00:00 | |
| OE5MMP-10 | 2026-08-31 12:31:35 | 46.24200 | 14.10335 | 205° | 9km/h | 25686m | 4.7m/s | -50.6°C | 3.8% | 0hPa | 2.6V | 00:00:00 | 02:06:02 | 00:00:00 | |
| PG1ADW-2 | 2026-08-31 12:31:33 | 46.24203 | 14.10335 | 177° | 9km/h | 25674m | 5.8m/s | -50.7°C | 3.8% | 0hPa | 2.6V | 00:00:00 | 02:06:00 | 00:00:00 | |
| 9A1FER-3 | 2026-08-31 12:31:30 | 46.24210 | 14.10336 | 196° | 9km/h | 25657m | 6.1m/s | -50.8°C | 3.9% | 0hPa | 2.6V | 00:00:00 | 02:05:57 | 00:00:00 | |
| 9A1FER-10 | 2026-08-31 12:31:29 | 46.24213 | 14.10337 | 193° | 9km/h | 25652m | 4.5m/s | -50.7°C | 3.9% | 0hPa | 2.6V | 00:00:00 | 02:05:56 | 00:00:00 | |
| DO3MHA-11 | 2026-08-31 12:31:28 | 46.24215 | 14.10337 | 169° | 9km/h | 25647m | 4.8m/s | -50.7°C | 3.9% | 0hPa | 2.6V | 00:00:00 | 02:05:55 | 00:00:00 | |
| OE5MMP-10 | 2026-08-31 12:31:25 | 46.24218 | 14.10329 | 89° | 9km/h | 25630m | 4.9m/s | -50.6°C | 3.8% | 0hPa | 2.6V | 00:00:00 | 02:05:52 | 00:00:00 | |
| PETON7-10 | 2026-08-31 12:31:24 | 46.24218 | 14.10325 | 74° | 13km/h | 25625m | 6.4m/s | -50.6°C | 3.8% | 0hPa | 2.6V | 00:00:00 | 02:05:51 | 00:00:00 | |
| OE5WHR-10 | 2026-08-31 12:31:19 | 46.24212 | 14.10311 | 76° | 16km/h | 25596m | 5.1m/s | -50.5°C | 3.8% | 0hPa | 2.6V | 00:00:00 | 00:00:00 | 00:00:00 | |
| DO3MHA-11 | 2026-08-31 12:31:18 | 46.24211 | 14.10308 | 81° | 15km/h | 25592m | 4.9m/s | -50.6°C | 3.8% | 0hPa | 2.6V | 00:00:00 | 02:05:45 | 00:00:00 | |
| 9A1FER-3 | 2026-08-31 12:31:15 | 46.24210 | 14.10300 | 74° | 18km/h | 25575m | 4.5m/s | -50.5°C | 3.8% | 0hPa | 2.6V | 00:00:00 | 02:05:42 | 08:30:00 | |
| 9A1FER-10 | 2026-08-31 12:31:14 | 46.24209 | 14.10296 | 81° | 18km/h | 25570m | 5.6m/s | -50.5°C | 3.8% | 0hPa | 2.6V | 00:00:00 | 02:05:41 | 00:00:00 | |
| PG1ADW-2 | 2026-08-31 12:31:13 | 46.24209 | 14.10291 | 85° | 22km/h | 25564m | 6.1m/s | -50.5°C | 3.7% | 0hPa | 2.6V | 00:00:00 | 00:00:00 | 00:00:00 | |
| NBG1-10 | 2026-08-31 12:31:12 | 46.24208 | 14.10284 | 85° | 26km/h | 25558m | 5.1m/s | -50.4°C | 3.7% | 0hPa | 2.6V | 00:00:00 | 02:05:39 | 00:00:00 | |
| PETON7-10 | 2026-08-31 12:31:09 | 46.24206 | 14.10259 | 76° | 22km/h | 25543m | 5.9m/s | -50.4°C | 3.7% | 0hPa | 2.7V | 00:00:00 | 00:00:00 | 00:00:00 | |
| DO3MHA-11 | 2026-08-31 12:31:08 | 46.24204 | 14.10253 | 68° | 18km/h | 25537m | 5.3m/s | -50.4°C | 3.7% | 0hPa | 2.7V | 00:00:00 | 02:05:35 | 00:00:00 | |
| IW2NTF | 2026-08-31 12:31:06 | 46.24201 | 14.10240 | 76° | 15km/h | 25522m | 6.2m/s | 0°C | 0% | 0hPa | 2.7V | 00:00:00 | 02:05:32 | 00:00:00 | |
| OE5DRO-10 | 2026-08-31 12:31:06 | 46.24202 | 14.10244 | 68° | 24km/h | 25528m | 4.9m/s | -50.3°C | 3.7% | 0hPa | 2.7V | 00:00:00 | 00:00:00 | 00:00:00 | |
| OE5MMP-10 | 2026-08-31 12:31:05 | 46.24201 | 14.10240 | 77° | 22km/h | 25522m | 6.2m/s | -50.4°C | 3.7% | 0hPa | 2.7V | 00:00:00 | 02:05:32 | 00:00:00 | |
| IW2NTF | 2026-08-31 12:31:01 | 46.24174 | 14.10170 | 46° | 35km/h | 25465m | 4.9m/s | 0°C | 0% | 0hPa | 2.7V | 00:00:00 | 02:05:22 | 00:00:00 | |
| 9A1FER-3 | 2026-08-31 12:31:00 | 46.24196 | 14.10205 | 64° | 27km/h | 25494m | 6.2m/s | -50.4°C | 3.7% | 0hPa | 2.7V | 00:00:00 | 02:05:27 | 00:00:00 | |
| 9A1FER-10 | 2026-08-31 12:30:59 | 46.24193 | 14.10199 | 51° | 27km/h | 25489m | 5.1m/s | -50.4°C | 3.7% | 0hPa | 2.7V | 00:00:00 | 02:05:26 | 00:00:00 | |
| DO3MHA-11 | 2026-08-31 12:30:58 | 46.24190 | 14.10193 | 46° | 31km/h | 25483m | 5.0m/s | -50.4°C | 3.7% | 0hPa | 2.7V | 00:00:00 | 02:05:25 | 00:00:00 | |
| OE5MMP-10 | 2026-08-31 12:30:55 | 46.24174 | 14.10170 | 47° | 27km/h | 25466m | 4.9m/s | -50.5°C | 3.7% | 0hPa | 2.7V | 00:00:00 | 02:05:22 | 00:00:00 | |
| PETON7-10 | 2026-08-31 12:30:54 | 46.24168 | 14.10161 | 45° | 33km/h | 25460m | 6.1m/s | -50.5°C | 3.6% | 0hPa | 2.7V | 00:00:00 | 00:00:00 | 00:00:00 | |
| PG1ADW-2 | 2026-08-31 12:30:53 | 46.24162 | 14.10153 | 43° | 35km/h | 25454m | 5.7m/s | -50.5°C | 3.7% | 0hPa | 2.7V | 00:00:00 | 00:00:00 | 00:00:00 | |
| IW2NTF | 2026-08-31 12:30:50 | 46.24133 | 14.10091 | 49° | 29km/h | 25411m | 4.8m/s | 0°C | 0% | 0hPa | 2.7V | 00:00:00 | 02:05:12 | 00:00:00 | |
| IN3HCDX | 2026-08-31 12:30:48 | 46.24145 | 14.10123 | 64° | 27km/h | 25432m | 5.1m/s | -50.9°C | 1.3% | 0hPa | 2.7V | 00:00:00 | 00:00:00 | 00:00:00 | |
| DB0UT-7 | 2026-08-31 12:30:47 | 46.24140 | 14.10106 | 63° | 37km/h | 25421m | 6.1m/s | -51.0°C | 3.9% | 0hPa | 2.7V | 00:00:00 | 02:05:14 | 00:00:00 | |
| 9A1FER-3 | 2026-08-31 12:30:45 | 46.24133 | 14.10091 | 50° | 38km/h | 25411m | 4.7m/s | -51.2°C | 3.9% | 0hPa | 2.7V | 00:00:00 | 02:05:12 | 00:00:00 | |
| 9A1FER-10 | 2026-08-31 12:30:44 | 46.24127 | 14.10082 | 47° | 38km/h | 25405m | 6.4m/s | -51.3°C | 3.9% | 0hPa | 2.7V | 00:00:00 | 02:05:11 | 08:30:00 | |
| NBG1-10 | 2026-08-31 12:30:40 | 46.24079 | 14.10037 | 23° | 35km/h | 25377m | 4.4m/s | -51.3°C | 3.9% | 0hPa | 2.6V | 00:00:00 | 02:05:06 | 00:00:00 | |
| PETON7-10 | 2026-08-31 12:30:39 | 46.24079 | 14.10037 | 23° | 37km/h | 25377m | 4.4m/s | -51.3°C | 3.9% | 0hPa | 2.6V | 00:00:00 | 02:05:06 | 00:00:00 | |
| OE5DXL-15 | 2026-08-31 12:30:38 | 46.24069 | 14.10031 | 24° | 35km/h | 25373m | 4.4m/s | -51.3°C | 3.9% | 0hPa | 2.6V | 00:00:00 | 00:00:00 | 08:30:00 | |
| OE5WHR-10 | 2026-08-31 12:30:37 | 46.24060 | 14.10025 | 29° | 35km/h | 25368m | 5.8m/s | -51.2°C | 3.8% | 0hPa | 2.6V | 00:00:00 | 02:05:04 | 00:00:00 | |
| IW2NTF | 2026-08-31 12:30:34 | 46.24033 | 14.09992 | 40° | 33km/h | 25346m | 5.7m/s | 0°C | 0% | 0hPa | 2.6V | 00:00:00 | 02:05:00 | 00:00:00 | |
| PG1ADW-2 | 2026-08-31 12:30:33 | 46.24032 | 14.09992 | 41° | 35km/h | 25346m | 5.6m/s | -51.3°C | 3.8% | 0hPa | 2.6V | 00:00:00 | 00:00:00 | 00:00:00 | |
| DO3MHA-11 | 2026-08-31 12:30:32 | 46.24026 | 14.09985 | 32° | 37km/h | 25340m | 6.0m/s | -51.3°C | 3.8% | 0hPa | 2.6V | 00:00:00 | 02:04:59 | 08:30:00 | |
| 9A1FER-3 | 2026-08-31 12:30:30 | 46.24011 | 14.09975 | 20° | 35km/h | 25329m | 5.4m/s | -51.4°C | 3.9% | 0hPa | 2.6V | 00:00:00 | 02:04:57 | 00:00:00 | |
| IW2NTF | 2026-08-31 12:30:29 | 46.23948 | 14.09953 | 13° | 33km/h | 25290m | 5.8m/s | 0°C | 0% | 0hPa | 2.7V | 00:00:00 | 02:04:50 | 00:00:00 | |
| 9A1FER-10 | 2026-08-31 12:30:29 | 46.24002 | 14.09971 | 20° | 35km/h | 25323m | 6.0m/s | -51.5°C | 3.9% | 0hPa | 2.7V | 00:00:00 | 02:04:56 | 00:00:00 | |
| OE5DRO-10 | 2026-08-31 12:30:28 | 46.23993 | 14.09966 | 19° | 35km/h | 25318m | 5.0m/s | -51.4°C | 3.9% | 0hPa | 2.7V | 00:00:00 | 00:00:00 | 00:00:00 | |
| IN3HCDX | 2026-08-31 12:30:27 | 46.23993 | 14.09966 | 20° | 38km/h | 25318m | 5.1m/s | -51.5°C | 1.3% | 0hPa | 2.6V | 00:00:00 | 00:00:00 | 00:00:00 | |
| OE5MMP-10 | 2026-08-31 12:30:25 | 46.23965 | 14.09957 | 8° | 35km/h | 25301m | 6.1m/s | -51.6°C | 3.9% | 0hPa | 2.6V | 00:00:00 | 02:04:52 | 00:00:00 | |
| PETON7-10 | 2026-08-31 12:30:24 | 46.23956 | 14.09955 | 9° | 35km/h | 25295m | 5.0m/s | -51.7°C | 4.0% | 0hPa | 2.6V | 00:00:00 | 00:00:00 | 00:00:00 | |
| DO3MHA-11 | 2026-08-31 12:30:22 | 46.23940 | 14.09949 | 22° | 35km/h | 25284m | 6.0m/s | -51.6°C | 4.0% | 0hPa | 2.7V | 00:00:00 | 02:04:49 | 00:00:00 | |
| OE3JTB-15 | 2026-08-31 12:30:20 | 46.23910 | 14.09930 | 15° | 33km/h | 25263m | 5.7m/s | -51.6°C | 4.0% | 0hPa | 2.7V | 00:00:00 | 02:04:45 | 00:00:00 | |
| DB0UT-7 | 2026-08-31 12:30:17 | 46.23902 | 14.09928 | 8° | 29km/h | 25258m | 5.1m/s | -51.6°C | 3.9% | 0hPa | 2.7V | 00:00:00 | 00:00:00 | 08:30:00 | |
| 9A1FER-3 | 2026-08-31 12:30:15 | 46.23884 | 14.09925 | 6° | 33km/h | 25247m | 5.9m/s | -51.8°C | 3.9% | 0hPa | 2.7V | 00:00:00 | 02:04:42 | 00:00:00 | |
| 9A1FER-10 | 2026-08-31 12:30:14 | 46.23875 | 14.09924 | 8° | 33km/h | 25241m | 5.5m/s | -51.7°C | 3.9% | 0hPa | 2.7V | 00:00:00 | 02:04:41 | 00:00:00 | |
| PG1ADW-2 | 2026-08-31 12:30:13 | 46.23866 | 14.09923 | 7° | 31km/h | 25236m | 4.7m/s | -51.6°C | 3.9% | 0hPa | 2.7V | 00:00:00 | 02:04:40 | 08:30:00 | |
| DO3MHA-11 | 2026-08-31 12:30:12 | 46.23856 | 14.09921 | 2° | 31km/h | 25231m | 4.7m/s | -51.7°C | 3.9% | 0hPa | 2.6V | 00:00:00 | 02:04:39 | 00:00:00 | |
| IN3HCDX1 | 2026-08-31 12:30:11 | 46.23856 | 14.09921 | 3° | 37km/h | 25231m | 4.8m/s | -51.7°C | 1.3% | 0hPa | 2.6V | 00:00:00 | 00:00:00 | 00:00:00 | |
| IW2NTF | 2026-08-31 12:30:10 | 46.23829 | 14.09925 | 348° | 37km/h | 25215m | 4m/s | 0°C | 0% | 0hPa | 2.6V | 00:00:00 | 02:04:36 | 00:00:00 | |
| OE5DRO-10 | 2026-08-31 12:30:09 | 46.23820 | 14.09928 | 351° | 27km/h | 25211m | 5.5m/s | -51.7°C | 4.0% | 0hPa | 2.7V | 00:00:00 | 00:00:00 | 00:00:00 | |
| IN3HCDX | 2026-08-31 12:30:08 | 46.23820 | 14.09927 | 351° | 33km/h | 25211m | 5.5m/s | -51.7°C | 1.4% | 0hPa | 2.7V | 00:00:00 | 00:00:00 | 00:00:00 | |
| NBG1-10 | 2026-08-31 12:30:06 | 46.23806 | 14.09930 | 359° | 22km/h | 25199m | 5.3m/s | -51.7°C | 4.0% | 0hPa | 2.7V | 00:00:00 | 02:04:33 | 00:00:00 | |
| OE5MMP-10 | 2026-08-31 12:30:05 | 46.23799 | 14.09930 | 1° | 31km/h | 25194m | 4.4m/s | -51.7°C | 4.0% | 0hPa | 2.7V | 00:00:00 | 02:04:32 | 00:00:00 | |
| DO3MHA-11 | 2026-08-31 12:30:02 | 46.23778 | 14.09932 | 351° | 26km/h | 25178m | 4.8m/s | -51.7°C | 4.0% | 0hPa | 2.7V | 00:00:00 | 02:04:29 | 00:00:00 | |
| IW2NTF | 2026-08-31 12:30:01 | 46.23754 | 14.09938 | 355° | 31km/h | 25162m | 5.7m/s | 0°C | 0% | 0hPa | 2.6V | 00:00:00 | 02:04:26 | 00:00:00 | |
| 9A1FER-3 | 2026-08-31 12:30:00 | 46.23762 | 14.09936 | 353° | 26km/h | 25168m | 5.6m/s | -51.9°C | 4.0% | 0hPa | 2.6V | 00:00:00 | 02:04:27 | 00:00:00 | |
| 9A1FER-10 | 2026-08-31 12:29:59 | 46.23753 | 14.09938 | 356° | 26km/h | 25162m | 5.7m/s | -51.8°C | 3.9% | 0hPa | 2.6V | 00:00:00 | 02:04:26 | 00:00:00 | |
| OE5MMP-10 | 2026-08-31 12:29:55 | 46.23723 | 14.09940 | 351° | 24km/h | 25141m | 4.7m/s | -51.8°C | 4.0% | 0hPa | 2.6V | 00:00:00 | 02:04:22 | 00:00:00 | |
| PETON7-10 | 2026-08-31 12:29:54 | 46.23715 | 14.09943 | 346° | 20km/h | 25136m | 4.7m/s | -51.8°C | 3.9% | 0hPa | 2.6V | 00:00:00 | 02:04:21 | 00:00:00 | |
| PG1ADW-2 | 2026-08-31 12:29:53 | 46.23709 | 14.09945 | 341° | 16km/h | 25131m | 6.0m/s | -51.9°C | 4.0% | 0hPa | 2.6V | 00:00:00 | 00:00:00 | 00:00:00 | |
| IN3HCDX1 | 2026-08-31 12:29:51 | 46.23704 | 14.09949 | 334° | 20km/h | 25125m | 6.3m/s | -51.9°C | 1.3% | 0hPa | 2.6V | 00:00:00 | 00:00:00 | 00:00:00 | |
| DO3MHA-11 | 2026-08-31 12:29:50 | 46.23696 | 14.09955 | 328° | 20km/h | 25114m | 4.5m/s | -51.9°C | 4.0% | 0hPa | 2.6V | 00:00:00 | 02:04:17 | 00:00:00 | |
| DB0UT-7 | 2026-08-31 12:29:46 | 46.23675 | 14.09968 | 346° | 9km/h | 25091m | 5.3m/s | -52.0°C | 4.1% | 0hPa | 2.6V | 00:00:00 | 02:04:13 | 00:00:00 | |
| OE5MMP-10 | 2026-08-31 12:29:45 | 46.23669 | 14.09970 | 348° | 15km/h | 25085m | 6.1m/s | -51.9°C | 4.1% | 0hPa | 2.6V | 00:00:00 | 02:04:12 | 00:00:00 | |
| 9A1FER-10 | 2026-08-31 12:29:44 | 46.23664 | 14.09971 | 350° | 11km/h | 25080m | 5.6m/s | -51.9°C | 4.1% | 0hPa | 2.6V | 00:00:00 | 02:04:11 | 00:00:00 | |
| DO3MHA-11 | 2026-08-31 12:29:40 | 46.23648 | 14.09979 | 331° | 11km/h | 25057m | 4.9m/s | -51.9°C | 4.1% | 0hPa | 2.6V | 00:00:00 | 02:04:07 | 00:00:00 | |
| PETON7-10 | 2026-08-31 12:29:39 | 46.23645 | 14.09982 | 322° | 7km/h | 25052m | 5.4m/s | -51.8°C | 4.1% | 0hPa | 2.6V | 00:00:00 | 00:00:00 | 08:30:00 | |
| OE5DXL-15 | 2026-08-31 12:29:38 | 46.23643 | 14.09985 | 311° | 5km/h | 25046m | 6.4m/s | -51.8°C | 4.0% | 0hPa | 2.6V | 00:00:00 | 00:00:00 | 00:00:00 | |
| OE5MMP-10 | 2026-08-31 12:29:35 | 46.23640 | 14.09991 | 326° | 7km/h | 25030m | 5.7m/s | -51.9°C | 4.0% | 0hPa | 2.6V | 00:00:00 | 02:04:02 | 00:00:00 | |
| OE5WHR-10 | 2026-08-31 12:29:33 | 46.23636 | 14.09993 | 341° | 5km/h | 25019m | 5.1m/s | -51.8°C | 4.0% | 0hPa | 2.6V | 00:00:00 | 02:04:00 | 00:00:00 | |
| OE5DRO-10 | 2026-08-31 12:29:31 | 46.23629 | 14.09998 | 315° | 5km/h | 25003m | 6.0m/s | -51.8°C | 4.0% | 0hPa | 2.6V | 00:00:00 | 00:00:00 | 00:00:00 | |
| 9A1FER-3 | 2026-08-31 12:29:30 | 46.23629 | 14.09998 | 315° | 4km/h | 25003m | 6.0m/s | -51.8°C | 4.0% | 0hPa | 2.6V | 00:00:00 | 02:03:57 | 00:00:00 | |
| 9A1FER-10 | 2026-08-31 12:29:29 | 46.23628 | 14.09999 | 301° | 4km/h | 24997m | 5.3m/s | -51.9°C | 4.0% | 0hPa | 2.6V | 00:00:00 | 02:03:56 | 00:00:00 | |
| IN3HCDX | 2026-08-31 12:29:26 | 46.23627 | 14.10002 | 316° | 4km/h | 24985m | 5.6m/s | -51.8°C | 1.4% | 0hPa | 2.6V | 00:00:00 | 00:00:00 | 00:00:00 | |
| OE5MMP-10 | 2026-08-31 12:29:25 | 46.23626 | 14.10004 | 231° | 4km/h | 24974m | 6.1m/s | -51.8°C | 4.0% | 0hPa | 2.6V | 00:00:00 | 02:03:52 | 00:00:00 | |
| OE3JTB-15 | 2026-08-31 12:29:21 | 46.23630 | 14.10007 | 318° | 7km/h | 24946m | 5.3m/s | -51.7°C | 4.1% | 0hPa | 2.6V | 00:00:00 | 00:00:00 | 00:00:00 | |
| DO3MHA-11 | 2026-08-31 12:29:20 | 46.23630 | 14.10007 | 318° | 5km/h | 24946m | 5.3m/s | -51.7°C | 4.1% | 0hPa | 2.6V | 00:00:00 | 02:03:47 | 00:00:00 | |
| IV3AMH | 2026-08-31 12:29:17 | 46.23627 | 14.10010 | 316° | 5km/h | 24937m | 5.0m/s | -51.8°C | 1.5% | 0hPa | 2.6V | 00:00:00 | 00:00:00 | 00:00:00 | |
| DB0UT-7 | 2026-08-31 12:29:16 | 46.23627 | 14.10012 | 195° | 7km/h | 24926m | 5.7m/s | -51.7°C | 4.1% | 0hPa | 2.6V | 00:00:00 | 00:00:00 | 00:00:00 | |
| OE5MMP-10 | 2026-08-31 12:29:15 | 46.23629 | 14.10012 | 173° | 4km/h | 24920m | 5.4m/s | -51.7°C | 4.1% | 0hPa | 2.6V | 00:00:00 | 02:03:42 | 08:30:00 | |
| 9A1FER-10 | 2026-08-31 12:29:14 | 46.23630 | 14.10011 | 154° | 5km/h | 24915m | 5.2m/s | -51.6°C | 4.0% | 0hPa | 2.6V | 00:00:00 | 02:03:41 | 00:00:00 | |
| PG1ADW-2 | 2026-08-31 12:29:13 | 46.23632 | 14.10010 | 136° | 7km/h | 24909m | 6.4m/s | -51.6°C | 4.0% | 0hPa | 2.7V | 00:00:00 | 00:00:00 | 00:00:00 | |
| OE5WHR-10 | 2026-08-31 12:29:12 | 46.23633 | 14.10008 | 124° | 7km/h | 24904m | 4.7m/s | -51.6°C | 4.0% | 0hPa | 2.7V | 00:00:00 | 00:00:00 | 00:00:00 | |
| IN3HCDX1 | 2026-08-31 12:29:10 | 46.23634 | 14.10007 | 138° | 4km/h | 24899m | 5.1m/s | -51.7°C | 1.4% | 0hPa | 2.7V | 00:00:00 | 00:00:00 | 00:00:00 | |
| PETON7-10 | 2026-08-31 12:29:09 | 46.23635 | 14.10006 | 201° | 7km/h | 24887m | 5.1m/s | -51.6°C | 4.0% | 0hPa | 2.7V | 00:00:00 | 02:03:36 | 00:00:00 | |
| OE5DXL-15 | 2026-08-31 12:29:08 | 46.23636 | 14.10007 | 250° | 9km/h | 24882m | 5.0m/s | -51.5°C | 4.0% | 0hPa | 2.7V | 00:00:00 | 00:00:00 | 00:00:00 | |
| OE5MMP-10 | 2026-08-31 12:29:05 | 46.23634 | 14.10007 | 14° | 9km/h | 24866m | 4.8m/s | -51.4°C | 4.0% | 0hPa | 2.6V | 00:00:00 | 02:03:32 | 00:00:00 | |
| NBG1-10 | 2026-08-31 12:29:00 | 46.23639 | 14.10002 | 108° | 11km/h | 24838m | 5.7m/s | -51.4°C | 4.0% | 0hPa | 2.6V | 00:00:00 | 02:03:27 | 00:00:00 | |
| DO3MHA-11 | 2026-08-31 12:28:59 | 46.23640 | 14.09998 | 104° | 11km/h | 24833m | 4.7m/s | -51.5°C | 4.1% | 0hPa | 2.6V | 00:00:00 | 02:03:26 | 08:30:00 | |
| OE5MMP-10 | 2026-08-31 12:28:55 | 46.23645 | 14.09980 | 109° | 9km/h | 24811m | 4.8m/s | -51.4°C | 4.1% | 0hPa | 2.6V | 00:00:00 | 02:03:22 | 00:00:00 | |
| PETON7-10 | 2026-08-31 12:28:54 | 46.23646 | 14.09976 | 93° | 11km/h | 24805m | 6.5m/s | -51.3°C | 4.0% | 0hPa | 2.6V | 00:00:00 | 00:00:00 | 00:00:00 | |
| PG1ADW-2 | 2026-08-31 12:28:53 | 46.23645 | 14.09972 | 76° | 11km/h | 24799m | 5.5m/s | -51.2°C | 4.0% | 0hPa | 2.7V | 00:00:00 | 02:03:20 | 00:00:00 | |
| OE3JTB-15 | 2026-08-31 12:28:52 | 46.23644 | 14.09965 | 73° | 11km/h | 24789m | 5.9m/s | -51.2°C | 4.0% | 0hPa | 2.7V | 00:00:00 | 02:03:18 | 00:00:00 | |
| OE5WHR-10 | 2026-08-31 12:28:51 | 46.23644 | 14.09965 | 73° | 11km/h | 24789m | 5.9m/s | -51.2°C | 4.0% | 0hPa | 2.7V | 00:00:00 | 00:00:00 | 00:00:00 | |
| DO3MHA-11 | 2026-08-31 12:28:49 | 46.23644 | 14.09960 | 106° | 13km/h | 24777m | 5.2m/s | -51.2°C | 4.0% | 0hPa | 2.7V | 00:00:00 | 02:03:16 | 00:00:00 | |
| DO3MHA-12 | 2026-08-31 12:28:47 | 46.23645 | 14.09954 | 94° | 13km/h | 24766m | 6.0m/s | -51.0°C | 3.9% | 0hPa | 2.7V | 00:00:00 | 02:03:14 | 00:00:00 | |
| DB0UT-7 | 2026-08-31 12:28:46 | 46.23645 | 14.09950 | 97° | 13km/h | 24760m | 4.4m/s | -51.0°C | 3.8% | 0hPa | 2.6V | 00:00:00 | 02:03:13 | 00:00:00 | |
| 9A1FER-3 | 2026-08-31 12:28:45 | 46.23645 | 14.09945 | 106° | 13km/h | 24756m | 5.5m/s | -51.0°C | 3.8% | 0hPa | 2.6V | 00:00:00 | 02:03:12 | 00:00:00 | |
| 9A1FER-10 | 2026-08-31 12:28:44 | 46.23647 | 14.09940 | 115° | 11km/h | 24750m | 5.9m/s | -51.0°C | 3.8% | 0hPa | 2.6V | 00:00:00 | 02:03:11 | 00:00:00 | |
| DO3MHA-11 | 2026-08-31 12:28:39 | 46.23647 | 14.09917 | 50° | 11km/h | 24723m | 4.8m/s | -50.8°C | 3.9% | 0hPa | 2.6V | 00:00:00 | 02:03:06 | 00:00:00 | |
| OE5DXL-15 | 2026-08-31 12:28:38 | 46.23644 | 14.09914 | 41° | 15km/h | 24718m | 6.1m/s | -50.9°C | 3.9% | 0hPa | 2.6V | 00:00:00 | 00:00:00 | 00:00:00 | |
| DO3MHA-12 | 2026-08-31 12:28:37 | 46.23642 | 14.09912 | 38° | 11km/h | 24712m | 5.6m/s | -50.9°C | 3.9% | 0hPa | 2.6V | 00:00:00 | 02:03:04 | 00:00:00 | |
| OE8JPQ-2 | 2026-08-31 12:28:35 | 46.23640 | 14.09908 | 51° | 13km/h | 24701m | 6.1m/s | -51.0°C | 3.9% | 0hPa | 2.6V | 00:00:00 | 00:00:00 | 00:00:00 | |
| PG1ADW-2 | 2026-08-31 12:28:33 | 46.23637 | 14.09901 | 76° | 13km/h | 24690m | 5.4m/s | -50.9°C | 3.9% | 0hPa | 2.6V | 00:00:00 | 00:00:00 | 00:00:00 | |
| OE5WHR-10 | 2026-08-31 12:28:30 | 46.23638 | 14.09888 | 109° | 16km/h | 24672m | 5.0m/s | -50.8°C | 3.8% | 0hPa | 2.6V | 00:00:00 | 02:02:57 | 00:00:00 | |
| DO3MHA-11 | 2026-08-31 12:28:29 | 46.23639 | 14.09884 | 98° | 15km/h | 24667m | 5.3m/s | -50.7°C | 3.8% | 0hPa | 2.6V | 00:00:00 | 02:02:56 | 00:00:00 | |
| DO3MHA-12 | 2026-08-31 12:28:27 | 46.23638 | 14.09873 | 65° | 13km/h | 24656m | 5.0m/s | -50.7°C | 3.8% | 0hPa | 2.6V | 00:00:00 | 02:02:54 | 00:00:00 | |
| OE5MMP-10 | 2026-08-31 12:28:25 | 46.23632 | 14.09864 | 40° | 13km/h | 24646m | 5.8m/s | -50.8°C | 3.7% | 0hPa | 2.6V | 00:00:00 | 02:02:52 | 00:00:00 | |
| PETON7-10 | 2026-08-31 12:28:24 | 46.23630 | 14.09862 | 26° | 15km/h | 24640m | 5.4m/s | -50.8°C | 3.7% | 0hPa | 2.6V | 00:00:00 | 02:02:51 | 00:00:00 | |
| OE3JTB-15 | 2026-08-31 12:28:23 | 46.23621 | 14.09856 | 27° | 15km/h | 24624m | 6.0m/s | -50.8°C | 3.8% | 0hPa | 2.6V | 00:00:00 | 00:00:00 | 00:00:00 | |
| DO3MHA-11 | 2026-08-31 12:28:19 | 46.23614 | 14.09850 | 41° | 16km/h | 24613m | 5.3m/s | -50.8°C | 3.7% | 0hPa | 2.6V | 00:00:00 | 02:02:46 | 00:00:00 | |
| DB0UT-7 | 2026-08-31 12:28:16 | 46.23609 | 14.09842 | 56° | 18km/h | 24596m | 4.4m/s | 0°C | 0% | 0hPa | 2.6V | 00:00:00 | 00:00:00 | 00:00:00 | |
| 9A1FER-3 | 2026-08-31 12:28:15 | 46.23607 | 14.09838 | 55° | 20km/h | 24591m | 5.8m/s | -51.0°C | 3.9% | 0hPa | 2.6V | 00:00:00 | 02:02:42 | 00:00:00 | |
| 9A1FER-10 | 2026-08-31 12:28:14 | 46.23605 | 14.09834 | 51° | 20km/h | 24586m | 5.6m/s | -51.1°C | 3.9% | 0hPa | 2.7V | 00:00:00 | 02:02:41 | 00:00:00 | |
| PG1ADW-2 | 2026-08-31 12:28:13 | 46.23601 | 14.09829 | 44° | 20km/h | 24580m | 4.8m/s | -51.2°C | 3.8% | 0hPa | 2.7V | 00:00:00 | 00:00:00 | 00:00:00 | |
| DO3MHA-11 | 2026-08-31 12:28:09 | 46.23581 | 14.09816 | 8° | 20km/h | 24559m | 5.0m/s | -51.4°C | 3.9% | 0hPa | 2.7V | 00:00:00 | 02:02:36 | 00:00:00 | |
| OE5WHR-10 | 2026-08-31 12:28:08 | 46.23574 | 14.09815 | 10° | 18km/h | 24553m | 6.3m/s | -51.4°C | 3.9% | 0hPa | 2.7V | 00:00:00 | 00:00:00 | 00:00:00 | |
| OE5MMP-10 | 2026-08-31 12:28:05 | 46.23554 | 14.09807 | 21° | 16km/h | 24538m | 5.9m/s | -51.3°C | 3.8% | 0hPa | 2.6V | 00:00:00 | 02:02:32 | 00:00:00 | |
| IV3AMH | 2026-08-31 12:28:02 | 46.23547 | 14.09802 | 39° | 13km/h | 24526m | 5.3m/s | -51.4°C | 1.4% | 0hPa | 2.6V | 00:00:00 | 00:00:00 | 00:00:00 | |
| 9A1FER-3 | 2026-08-31 12:28:00 | 46.23540 | 14.09789 | 57° | 16km/h | 24509m | 4.9m/s | -51.5°C | 3.9% | 0hPa | 2.6V | 00:00:00 | 02:02:27 | 00:00:00 | |
| DO3MHA-11 | 2026-08-31 12:27:59 | 46.23538 | 14.09784 | 55° | 18km/h | 24504m | 5.0m/s | -51.5°C | 4.0% | 0hPa | 2.6V | 00:00:00 | 02:02:26 | 00:00:00 | |
| OE5DRO-10 | 2026-08-31 12:27:56 | 46.23529 | 14.09775 | 16° | 18km/h | 24488m | 4.6m/s | -51.3°C | 4.0% | 0hPa | 2.6V | 00:00:00 | 00:00:00 | 00:00:00 | |
| DO3MHA-12 | 2026-08-31 12:27:55 | 46.23525 | 14.09774 | 12° | 16km/h | 24483m | 6.1m/s | -51.3°C | 3.9% | 0hPa | 2.6V | 00:00:00 | 02:02:22 | 00:00:00 | |
| NBG1-10 | 2026-08-31 12:27:54 | 46.23519 | 14.09772 | 12° | 18km/h | 24477m | 5.2m/s | -51.3°C | 3.9% | 0hPa | 2.6V | 00:00:00 | 02:02:21 | 00:00:00 | |
| PG1ADW-2 | 2026-08-31 12:27:53 | 46.23514 | 14.09771 | 9° | 18km/h | 24472m | 4.1m/s | -51.4°C | 3.9% | 0hPa | 2.6V | 00:00:00 | 00:00:00 | 00:00:00 | |
| DO3MHA-11 | 2026-08-31 12:27:49 | 46.23498 | 14.09768 | 23° | 16km/h | 24452m | 5.0m/s | -51.5°C | 3.9% | 0hPa | 2.6V | 00:00:00 | 02:02:16 | 00:00:00 | |
| OE5WHR-10 | 2026-08-31 12:27:47 | 46.23493 | 14.09762 | 54° | 18km/h | 24441m | 5.2m/s | -51.4°C | 3.9% | 0hPa | 2.6V | 00:00:00 | 00:00:00 | 00:00:00 | |
| DB0UT-7 | 2026-08-31 12:27:46 | 46.23491 | 14.09758 | 54° | 20km/h | 24436m | 4.1m/s | 0°C | 0% | 0hPa | 2.6V | 00:00:00 | 02:02:13 | 00:00:00 | |
| DO3MHA-12 | 2026-08-31 12:27:45 | 46.23488 | 14.09753 | 51° | 20km/h | 24432m | 4.2m/s | -51.4°C | 4.0% | 0hPa | 2.6V | 00:00:00 | 02:02:12 | 08:30:00 | |
| OE5MMP-10 | 2026-08-31 12:27:44 | 46.23485 | 14.09748 | 43° | 20km/h | 24427m | 5.7m/s | 0°C | 0% | 0hPa | 2.7V | 00:00:00 | 02:02:11 | 08:30:00 | |
| IN3HCDX | 2026-08-31 12:27:42 | 46.23482 | 14.09745 | 30° | 15km/h | 24421m | 5.4m/s | -51.5°C | 1.4% | 0hPa | 2.7V | 00:00:00 | 00:00:00 | 00:00:00 | |
| DO3MHA-11 | 2026-08-31 12:27:39 | 46.23462 | 14.09735 | 15° | 20km/h | 24400m | 4.3m/s | -51.6°C | 4.0% | 0hPa | 2.7V | 00:00:00 | 02:02:06 | 00:00:00 | |
| OE5DXL-15 | 2026-08-31 12:27:38 | 46.23456 | 14.09733 | 10° | 20km/h | 24394m | 6.2m/s | -51.7°C | 4.0% | 0hPa | 2.7V | 00:00:00 | 00:00:00 | 00:00:00 | |
| OE5DRO-10 | 2026-08-31 12:27:37 | 46.23450 | 14.09732 | 6° | 20km/h | 24388m | 5.6m/s | -51.7°C | 4.0% | 0hPa | 2.7V | 00:00:00 | 00:00:00 | 00:00:00 | |
| DO3MHA-12 | 2026-08-31 12:27:35 | 46.23440 | 14.09729 | 16° | 18km/h | 24378m | 6.0m/s | -51.5°C | 4.0% | 0hPa | 2.6V | 00:00:00 | 02:02:02 | 00:00:00 | |
| OE5MMP-10 | 2026-08-31 12:27:34 | 46.23435 | 14.09727 | 27° | 18km/h | 24372m | 5.5m/s | 0°C | 0% | 0hPa | 2.6V | 00:00:00 | 02:02:01 | 00:00:00 | |
| PG1ADW-2 | 2026-08-31 12:27:33 | 46.23430 | 14.09723 | 36° | 20km/h | 24367m | 4.6m/s | -51.4°C | 3.9% | 0hPa | 2.6V | 00:00:00 | 02:02:00 | 00:00:00 | |
| 9A1FER-3 | 2026-08-31 12:27:30 | 46.23421 | 14.09714 | 25° | 20km/h | 24352m | 4.3m/s | -51.3°C | 3.9% | 0hPa | 2.6V | 00:00:00 | 02:01:57 | 00:00:00 | |
| DO3MHA-11 | 2026-08-31 12:27:29 | 46.23418 | 14.09712 | 22° | 20km/h | 24347m | 4.5m/s | -51.4°C | 3.8% | 0hPa | 2.6V | 00:00:00 | 02:01:56 | 08:30:00 | |
| IN3HCDX1 | 2026-08-31 12:27:26 | 46.23410 | 14.09706 | 28° | 22km/h | 24337m | 5.2m/s | -51.6°C | 1.3% | 0hPa | 2.6V | 00:00:00 | 00:00:00 | 00:00:00 | |
| OE5WHR-10 | 2026-08-31 12:27:25 | 46.23399 | 14.09700 | 18° | 18km/h | 24326m | 5.5m/s | -51.6°C | 4.0% | 0hPa | 2.6V | 00:00:00 | 02:01:52 | 00:00:00 | |
| OE5MMP-10 | 2026-08-31 12:27:24 | 46.23394 | 14.09698 | 8° | 20km/h | 24321m | 5.8m/s | 0°C | 0% | 0hPa | 2.6V | 00:00:00 | 02:01:51 | 00:00:00 | |
| NBG1-10 | 2026-08-31 12:27:21 | 46.23378 | 14.09697 | 4° | 18km/h | 24305m | 5.7m/s | -51.6°C | 4.0% | 0hPa | 2.6V | 00:00:00 | 02:01:48 | 00:00:00 | |
| DO3MHA-11 | 2026-08-31 12:27:19 | 46.23368 | 14.09696 | 6° | 20km/h | 24295m | 4.6m/s | -51.6°C | 3.9% | 0hPa | 2.6V | 00:00:00 | 02:01:46 | 00:00:00 | |
| OE5DRO-10 | 2026-08-31 12:27:18 | 46.23362 | 14.09696 | 360° | 20km/h | 24290m | 6.0m/s | -51.6°C | 3.9% | 0hPa | 2.6V | 00:00:00 | 00:00:00 | 00:00:00 | |
| DB0UT-7 | 2026-08-31 12:27:16 | 46.23352 | 14.09697 | 354° | 18km/h | 24278m | 5.5m/s | 0°C | 0% | 0hPa | 2.6V | 00:00:00 | 00:00:00 | 00:00:00 | |
| DO3MHA-12 | 2026-08-31 12:27:15 | 46.23347 | 14.09697 | 360° | 16km/h | 24272m | 6.1m/s | -51.8°C | 4.0% | 0hPa | 2.6V | 00:00:00 | 02:01:42 | 00:00:00 | |
| OE5MMP-10 | 2026-08-31 12:27:14 | 46.23342 | 14.09697 | 7° | 16km/h | 24266m | 5.1m/s | 0°C | 0% | 0hPa | 2.7V | 00:00:00 | 02:01:41 | 00:00:00 | |
| PG1ADW-2 | 2026-08-31 12:27:13 | 46.23337 | 14.09696 | 7° | 18km/h | 24262m | 4.2m/s | -51.8°C | 3.9% | 0hPa | 2.7V | 00:00:00 | 00:00:00 | 08:30:00 | |
| DO3MHA-11 | 2026-08-31 12:27:09 | 46.23320 | 14.09700 | 342° | 20km/h | 24240m | 5.6m/s | -51.6°C | 4.0% | 0hPa | 2.6V | 00:00:00 | 02:01:36 | 00:00:00 | |
| OE5DXL-15 | 2026-08-31 12:27:08 | 46.23317 | 14.09701 | 349° | 16km/h | 24234m | 5.7m/s | -51.6°C | 4.0% | 0hPa | 2.6V | 00:00:00 | 00:00:00 | 00:00:00 | |
| DO3MHA-12 | 2026-08-31 12:27:05 | 46.23305 | 14.09706 | 341° | 20km/h | 24219m | 6.0m/s | -51.8°C | 3.9% | 0hPa | 2.6V | 00:00:00 | 02:01:32 | 00:00:00 | |
| OE5WHR-10 | 2026-08-31 12:27:04 | 46.23300 | 14.09708 | 341° | 18km/h | 24213m | 5.0m/s | -51.8°C | 4.0% | 0hPa | 2.6V | 00:00:00 | 00:00:00 | 08:30:00 | |
| 9A1FER-3 | 2026-08-31 12:27:00 | 46.23278 | 14.09711 | 8° | 16km/h | 24192m | 4.3m/s | -51.8°C | 4.0% | 0hPa | 2.6V | 00:00:00 | 02:01:27 | 00:00:00 | |
| 9A1FER-10 | 2026-08-31 12:26:59 | 46.23272 | 14.09711 | 3° | 16km/h | 24187m | 5.7m/s | -51.8°C | 3.9% | 0hPa | 2.6V | 00:00:00 | 02:01:26 | 00:00:00 | |
| DO3MHA-12 | 2026-08-31 12:26:55 | 46.23257 | 14.09714 | 340° | 16km/h | 24165m | 5.4m/s | -51.8°C | 3.8% | 0hPa | 2.6V | 00:00:00 | 02:01:22 | 00:00:00 | |
| PETON7-10 | 2026-08-31 12:26:54 | 46.23255 | 14.09716 | 321° | 16km/h | 24160m | 4.0m/s | -51.8°C | 3.8% | 0hPa | 2.6V | 00:00:00 | 02:01:21 | 00:00:00 | |
| OE5MMP-10 | 2026-08-31 12:26:53 | 46.23253 | 14.09719 | 310° | 18km/h | 24155m | 6.4m/s | 0°C | 0% | 0hPa | 2.6V | 00:00:00 | 02:01:20 | 00:00:00 | |
| DO3MHA-11 | 2026-08-31 12:26:49 | 46.23241 | 14.09736 | 331° | 18km/h | 24133m | 4.8m/s | -51.9°C | 4.0% | 0hPa | 2.6V | 00:00:00 | 02:01:16 | 00:00:00 | |
| NBG1-10 | 2026-08-31 12:26:48 | 46.23237 | 14.09739 | 338° | 18km/h | 24128m | 4.9m/s | -51.9°C | 4.0% | 0hPa | 2.6V | 00:00:00 | 02:01:15 | 00:00:00 | |
| DB0UT-7 | 2026-08-31 12:26:46 | 46.23227 | 14.09745 | 340° | 18km/h | 24117m | 4.6m/s | 0°C | 0% | 0hPa | 2.6V | 00:00:00 | 02:01:13 | 00:00:00 | |
| 9A1FER-3 | 2026-08-31 12:26:45 | 46.23221 | 14.09747 | 344° | 18km/h | 24112m | 3.9m/s | -52.0°C | 4.0% | 0hPa | 2.6V | 00:00:00 | 02:01:12 | 08:30:00 | |
| 9A1FER-10 | 2026-08-31 12:26:44 | 46.23216 | 14.09749 | 350° | 16km/h | 24108m | 5.8m/s | -52.1°C | 4.0% | 0hPa | 2.6V | 00:00:00 | 02:01:11 | 00:00:00 | |
| OE5WHR-10 | 2026-08-31 12:26:43 | 46.23212 | 14.09750 | 359° | 16km/h | 24102m | 5.3m/s | -52.3°C | 4.0% | 0hPa | 2.6V | 00:00:00 | 00:00:00 | 00:00:00 | |
| OE5DRO-10 | 2026-08-31 12:26:40 | 46.23203 | 14.09751 | 338° | 18km/h | 24088m | 5.2m/s | -52.4°C | 4.1% | 0hPa | 2.6V | 00:00:00 | 00:00:00 | 00:00:00 | |
| DO3MHA-11 | 2026-08-31 12:26:39 | 46.23199 | 14.09754 | 328° | 18km/h | 24083m | 5.6m/s | -52.4°C | 4.1% | 0hPa | 2.6V | 00:00:00 | 02:01:06 | 00:00:00 | |
| OE5DXL-15 | 2026-08-31 12:26:38 | 46.23195 | 14.09758 | 327° | 18km/h | 24077m | 5.0m/s | -52.4°C | 4.0% | 0hPa | 2.6V | 00:00:00 | 00:00:00 | 00:00:00 | |
| DO3MHA-12 | 2026-08-31 12:26:35 | 46.23182 | 14.09767 | 346° | 16km/h | 24061m | 5.0m/s | -52.4°C | 4.0% | 0hPa | 2.6V | 00:00:00 | 02:01:02 | 00:00:00 | |
| OE5MMP-10 | 2026-08-31 12:26:33 | 46.23173 | 14.09770 | 343° | 16km/h | 24052m | 5.3m/s | 0°C | 0% | 0hPa | 2.6V | 00:00:00 | 02:01:00 | 00:00:00 | |
| 9A1FER-3 | 2026-08-31 12:26:30 | 46.23162 | 14.09781 | 313° | 18km/h | 24036m | 4.9m/s | -52.3°C | 4.0% | 0hPa | 2.6V | 00:00:00 | 02:00:57 | 00:00:00 | |
| DO3MHA-11 | 2026-08-31 12:26:29 | 46.23159 | 14.09786 | 308° | 18km/h | 24030m | 6.2m/s | -52.4°C | 4.1% | 0hPa | 2.6V | 00:00:00 | 02:00:56 | 00:00:00 | |
| DO3MHA-12 | 2026-08-31 12:26:26 | 46.23151 | 14.09804 | 305° | 20km/h | 24008m | 5.9m/s | -52.6°C | 4.1% | 0hPa | 2.6V | 00:00:00 | 02:00:52 | 00:00:00 | |
| IN3HCDX1 | 2026-08-31 12:26:25 | 46.23151 | 14.09804 | 305° | 18km/h | 24008m | 5.9m/s | -52.6°C | 1.4% | 0hPa | 2.6V | 00:00:00 | 00:00:00 | 00:00:00 | |
| PETON7-10 | 2026-08-31 12:26:24 | 46.23148 | 14.09810 | 310° | 20km/h | 24003m | 4.8m/s | -52.6°C | 4.1% | 0hPa | 2.6V | 00:00:00 | 00:00:00 | 00:00:00 | |
| OE5WHR-10 | 2026-08-31 12:26:22 | 46.23142 | 14.09819 | 320° | 22km/h | 23992m | 4.9m/s | -52.8°C | 4.1% | 0hPa | 2.6V | 00:00:00 | 02:00:49 | 00:00:00 | |
| OE5DRO-10 | 2026-08-31 12:26:21 | 46.23138 | 14.09823 | 324° | 22km/h | 23987m | 4.2m/s | -53.0°C | 4.1% | 0hPa | 2.6V | 00:00:00 | 00:00:00 | 00:00:00 | |
| DO3MHA-11 | 2026-08-31 12:26:19 | 46.23129 | 14.09833 | 321° | 20km/h | 23976m | 5.0m/s | -52.9°C | 4.1% | 0hPa | 2.6V | 00:00:00 | 02:00:46 | 00:00:00 | |
| IN3HCDX | 2026-08-31 12:26:17 | 46.23125 | 14.09839 | 316° | 24km/h | 23972m | 4.3m/s | -53.0°C | 1.5% | 0hPa | 2.6V | 00:00:00 | 00:00:00 | 00:00:00 | |
| DB0UT-7 | 2026-08-31 12:26:15 | 46.23116 | 14.09856 | 290° | 18km/h | 23955m | 4.8m/s | 0°C | 0% | 0hPa | 2.6V | 00:00:00 | 00:00:00 | 00:00:00 | |
| 9A1FER-10 | 2026-08-31 12:26:14 | 46.23115 | 14.09862 | 287° | 22km/h | 23950m | 5.9m/s | -53.0°C | 4.3% | 0hPa | 2.6V | 00:00:00 | 02:00:41 | 08:30:00 | |
| PG1ADW-2 | 2026-08-31 12:26:13 | 46.23113 | 14.09869 | 289° | 20km/h | 23944m | 5.1m/s | -53.0°C | 4.4% | 0hPa | 2.7V | 00:00:00 | 02:00:40 | 00:00:00 | |
| OE5MMP-10 | 2026-08-31 12:26:12 | 46.23111 | 14.09877 | 291° | 22km/h | 23939m | 5.1m/s | 0°C | 0% | 0hPa | 2.6V | 00:00:00 | 02:00:39 | 00:00:00 | |
| PETON7-10 | 2026-08-31 12:26:09 | 46.23105 | 14.09898 | 302° | 20km/h | 23923m | 4.3m/s | -53.0°C | 4.3% | 0hPa | 2.6V | 00:00:00 | 02:00:36 | 00:00:00 | |
| DO3MHA-12 | 2026-08-31 12:26:05 | 46.23089 | 14.09928 | 308° | 18km/h | 23902m | 4.7m/s | -52.9°C | 4.2% | 0hPa | 2.6V | 00:00:00 | 02:00:32 | 00:00:00 | |
| IN3HCDX1 | 2026-08-31 12:26:03 | 46.23085 | 14.09935 | 305° | 24km/h | 23897m | 6.3m/s | -52.9°C | 1.4% | 0hPa | 2.6V | 00:00:00 | 00:00:00 | 00:00:00 | |
| OE5MMP-10 | 2026-08-31 12:26:02 | 46.23081 | 14.09949 | 286° | 18km/h | 23886m | 4.8m/s | 0°C | 0% | 0hPa | 2.6V | 00:00:00 | 02:00:29 | 00:00:00 | |
| OE5WHR-10 | 2026-08-31 12:26:01 | 46.23080 | 14.09956 | 280° | 11km/h | 23881m | 6.0m/s | -52.8°C | 4.3% | 0hPa | 2.6V | 00:00:00 | 00:00:00 | 00:00:00 | |
| 9A1FER-3 | 2026-08-31 12:26:00 | 46.23079 | 14.09964 | 276° | 15km/h | 23875m | 4.6m/s | -52.7°C | 4.3% | 0hPa | 2.6V | 00:00:00 | 02:00:27 | 00:00:00 | |
| DO3MHA-11 | 2026-08-31 12:25:59 | 46.23079 | 14.09971 | 273° | 15km/h | 23871m | 3.9m/s | -52.7°C | 4.3% | 0hPa | 2.6V | 00:00:00 | 02:00:26 | 08:30:00 | |
| IN3HCDX | 2026-08-31 12:25:56 | 46.23079 | 14.09983 | 265° | 13km/h | 23860m | 6.0m/s | -52.7°C | 1.5% | 0hPa | 2.6V | 00:00:00 | 00:00:00 | 00:00:00 | |
| PETON7-10 | 2026-08-31 12:25:55 | 46.23077 | 14.09993 | 309° | 9km/h | 23845m | 6.3m/s | -52.6°C | 4.2% | 0hPa | 2.6V | 00:00:00 | 00:00:00 | 00:00:00 | |
| PG1ADW-2 | 2026-08-31 12:25:54 | 46.23075 | 14.09997 | 316° | 11km/h | 23839m | 6.0m/s | -52.6°C | 4.1% | 0hPa | 2.6V | 00:00:00 | 00:00:00 | 00:00:00 | |
| OE5MMP-10 | 2026-08-31 12:25:52 | 46.23071 | 14.10002 | 320° | 15km/h | 23834m | 4.9m/s | 0°C | 0% | 0hPa | 2.6V | 00:00:00 | 02:00:19 | 00:00:00 | |
| DO3MHA-11 | 2026-08-31 12:25:49 | 46.23062 | 14.10013 | 304° | 7km/h | 23817m | 4.9m/s | -52.5°C | 4.0% | 0hPa | 2.6V | 00:00:00 | 02:00:16 | 00:00:00 | |
| DO3MHA-12 | 2026-08-31 12:25:45 | 46.23061 | 14.10027 | 247° | 7km/h | 23795m | 5.4m/s | -52.4°C | 4.1% | 0hPa | 2.6V | 00:00:00 | 02:00:12 | 00:00:00 | |
| 9A1FER-10 | 2026-08-31 12:25:44 | 46.23062 | 14.10028 | 215° | 7km/h | 23789m | 6.4m/s | -52.3°C | 4.2% | 0hPa | 2.7V | 00:00:00 | 02:00:11 | 00:00:00 | |
| OE5DRO-10 | 2026-08-31 12:25:43 | 46.23062 | 14.10029 | 151° | 9km/h | 23784m | 4.8m/s | -52.3°C | 4.1% | 0hPa | 2.7V | 00:00:00 | 00:00:00 | 08:30:00 | |
| NBG1-10 | 2026-08-31 12:25:42 | 46.23062 | 14.10029 | 349° | 13km/h | 23779m | 5.0m/s | -52.3°C | 4.1% | 0hPa | 2.6V | 00:00:00 | 02:00:09 | 00:00:00 | |
| OE5MMP-10 | 2026-08-31 12:25:41 | 46.23062 | 14.10029 | 321° | 9km/h | 23773m | 6.3m/s | 0°C | 0% | 0hPa | 2.6V | 00:00:00 | 02:00:08 | 00:00:00 | |
| OE5WHR-10 | 2026-08-31 12:25:40 | 46.23060 | 14.10031 | 323° | 11km/h | 23767m | 4.9m/s | -52.3°C | 4.0% | 0hPa | 2.6V | 00:00:00 | 00:00:00 | 00:00:00 | |
| DO3MHA-11 | 2026-08-31 12:25:39 | 46.23058 | 14.10033 | 330° | 13km/h | 23762m | 5.2m/s | -52.4°C | 4.0% | 0hPa | 2.6V | 00:00:00 | 02:00:06 | 00:00:00 | |
| OE5DXL-15 | 2026-08-31 12:25:38 | 46.23055 | 14.10035 | 339° | 15km/h | 23756m | 6.5m/s | -52.6°C | 4.1% | 0hPa | 2.6V | 00:00:00 | 00:00:00 | 00:00:00 | |
| DO3MHA-12 | 2026-08-31 12:25:35 | 46.23045 | 14.10040 | 328° | 13km/h | 23741m | 5.9m/s | -52.5°C | 4.1% | 0hPa | 2.6V | 00:00:00 | 02:00:02 | 00:00:00 | |
| PG1ADW-2 | 2026-08-31 12:25:33 | 46.23042 | 14.10045 | 319° | 13km/h | 23730m | 4.6m/s | -52.4°C | 4.0% | 0hPa | 2.6V | 00:00:00 | 00:00:00 | 00:00:00 | |
| IV3AMH | 2026-08-31 12:25:32 | 46.23042 | 14.10045 | 319° | 5km/h | 23730m | 4.6m/s | -52.4°C | 1.4% | 0hPa | 2.6V | 00:00:00 | 00:00:00 | 00:00:00 | |
| OE5MMP-10 | 2026-08-31 12:25:31 | 46.23040 | 14.10044 | 72° | 11km/h | 23718m | 6.0m/s | 0°C | 0% | 0hPa | 2.6V | 00:00:00 | 01:59:58 | 00:00:00 | |
| 9A1FER-3 | 2026-08-31 12:25:30 | 46.23040 | 14.10041 | 85° | 15km/h | 23713m | 4.7m/s | -52.5°C | 4.0% | 0hPa | 2.6V | 00:00:00 | 01:59:57 | 00:00:00 | |
| DO3MHA-11 | 2026-08-31 12:25:29 | 46.23040 | 14.10037 | 93° | 15km/h | 23708m | 5.4m/s | -52.5°C | 4.1% | 0hPa | 2.6V | 00:00:00 | 01:59:56 | 00:00:00 | |
| PETON7-10 | 2026-08-31 12:25:24 | 46.23035 | 14.10021 | 40° | 18km/h | 23679m | 5.6m/s | -52.5°C | 4.1% | 0hPa | 2.6V | 00:00:00 | 01:59:51 | 00:00:00 | |
| DO3MHA-12 | 2026-08-31 12:25:22 | 46.23027 | 14.10013 | 25° | 16km/h | 23668m | 6.1m/s | -52.6°C | 4.2% | 0hPa | 2.6V | 00:00:00 | 01:59:49 | 00:00:00 | |
| OE5MMP-10 | 2026-08-31 12:25:19 | 46.23015 | 14.10006 | 36° | 20km/h | 23652m | 5.5m/s | 0°C | 0% | 0hPa | 2.6V | 00:00:00 | 01:59:46 | 00:00:00 | |
| 9A1FER-3 | 2026-08-31 12:25:15 | 46.23007 | 14.09986 | 76° | 22km/h | 23630m | 5.9m/s | -52.9°C | 4.2% | 0hPa | 2.6V | 00:00:00 | 01:59:42 | 00:00:00 | |
| 9A1FER-10 | 2026-08-31 12:25:14 | 46.23006 | 14.09981 | 70° | 22km/h | 23624m | 4.7m/s | -52.8°C | 4.1% | 0hPa | 2.7V | 00:00:00 | 01:59:41 | 00:00:00 | |
| PG1ADW-2 | 2026-08-31 12:25:13 | 46.23004 | 14.09976 | 59° | 24km/h | 23620m | 5.0m/s | -52.8°C | 4.2% | 0hPa | 2.7V | 00:00:00 | 00:00:00 | 00:00:00 | |
| DO3MHA-12 | 2026-08-31 12:25:12 | 46.23002 | 14.09971 | 51° | 24km/h | 23614m | 6.0m/s | -52.8°C | 4.2% | 0hPa | 2.7V | 00:00:00 | 01:59:39 | 00:00:00 | |
| PETON7-10 | 2026-08-31 12:25:09 | 46.22988 | 14.09952 | 41° | 24km/h | 23599m | 5.2m/s | -52.8°C | 4.2% | 0hPa | 2.6V | 00:00:00 | 00:00:00 | 08:30:00 | |
| OE5DXL-15 | 2026-08-31 12:25:08 | 46.22984 | 14.09947 | 40° | 24km/h | 23593m | 6.1m/s | -52.8°C | 4.2% | 0hPa | 2.7V | 00:00:00 | 00:00:00 | 00:00:00 | |
| OE5MMP-10 | 2026-08-31 12:25:05 | 46.22970 | 14.09933 | 34° | 24km/h | 23576m | 6.1m/s | 0°C | 0% | 0hPa | 2.7V | 00:00:00 | 01:59:32 | 00:00:00 | |
| DO3MHA-12 | 2026-08-31 12:25:02 | 46.22955 | 14.09920 | 30° | 24km/h | 23560m | 6.0m/s | -52.7°C | 4.2% | 0hPa | 2.7V | 00:00:00 | 01:59:29 | 00:00:00 | |
| IN3HCDX1 | 2026-08-31 12:25:01 | 46.22955 | 14.09920 | 30° | 22km/h | 23560m | 6.1m/s | -52.8°C | 1.5% | 0hPa | 2.7V | 00:00:00 | 00:00:00 | 00:00:00 | |
| 9A1FER-3 | 2026-08-31 12:25:00 | 46.22946 | 14.09912 | 27° | 24km/h | 23549m | 4.7m/s | -52.6°C | 4.2% | 0hPa | 2.7V | 00:00:00 | 01:59:27 | 00:00:00 | |
| 9A1FER-10 | 2026-08-31 12:24:59 | 46.22940 | 14.09908 | 28° | 24km/h | 23544m | 6.1m/s | -52.7°C | 4.2% | 0hPa | 2.7V | 00:00:00 | 01:59:26 | 00:00:00 | |
| OE5WHR-10 | 2026-08-31 12:24:58 | 46.22934 | 14.09904 | 28° | 24km/h | 23538m | 5.4m/s | -52.6°C | 4.2% | 0hPa | 2.7V | 00:00:00 | 00:00:00 | 00:00:00 | |
| OE8JPQ-2 | 2026-08-31 12:24:55 | 46.22914 | 14.09892 | 17° | 24km/h | 23523m | 6.1m/s | -52.6°C | 4.2% | 0hPa | 2.6V | 00:00:00 | 01:59:22 | 00:00:00 | |
| PETON7-10 | 2026-08-31 12:24:54 | 46.22909 | 14.09890 | 8° | 22km/h | 23517m | 5.2m/s | -52.5°C | 4.2% | 0hPa | 2.6V | 00:00:00 | 00:00:00 | 00:00:00 | |
| PG1ADW-2 | 2026-08-31 12:24:53 | 46.22903 | 14.09889 | 3° | 24km/h | 23512m | 4.4m/s | -52.5°C | 4.1% | 0hPa | 2.6V | 00:00:00 | 01:59:20 | 00:00:00 | |
| DO3MHA-12 | 2026-08-31 12:24:52 | 46.22898 | 14.09889 | 1° | 20km/h | 23507m | 5.3m/s | -52.5°C | 4.1% | 0hPa | 2.6V | 00:00:00 | 01:59:19 | 00:00:00 | |
| DO3MHA-11 | 2026-08-31 12:24:50 | 46.22882 | 14.09886 | 14° | 22km/h | 23491m | 5.0m/s | -52.5°C | 4.1% | 0hPa | 2.6V | 00:00:00 | 01:59:16 | 00:00:00 | |
| OE5MMP-10 | 2026-08-31 12:24:49 | 46.22882 | 14.09886 | 14° | 22km/h | 23491m | 5.0m/s | 0°C | 0% | 0hPa | 2.6V | 00:00:00 | 01:59:16 | 00:00:00 | |
| OE5DRO-10 | 2026-08-31 12:24:46 | 46.22866 | 14.09882 | 2° | 26km/h | 23474m | 4.8m/s | 0°C | 0% | 0hPa | 2.6V | 00:00:00 | 00:00:00 | 00:00:00 | |
| 9A1FER-3 | 2026-08-31 12:24:45 | 46.22862 | 14.09882 | 2° | 27km/h | 23469m | 4.3m/s | -52.6°C | 4.2% | 0hPa | 2.6V | 00:00:00 | 01:59:12 | 00:00:00 | |
| 9A1FER-10 | 2026-08-31 12:24:44 | 46.22857 | 14.09881 | 9° | 27km/h | 23464m | 5.4m/s | -52.7°C | 4.2% | 0hPa | 2.6V | 00:00:00 | 01:59:11 | 00:00:00 | |
| DO3MHA-12 | 2026-08-31 12:24:42 | 46.22846 | 14.09877 | 16° | 29km/h | 23454m | 4.6m/s | -52.6°C | 4.2% | 0hPa | 2.7V | 00:00:00 | 01:59:09 | 08:30:00 | |
| IN3HCDX1 | 2026-08-31 12:24:41 | 46.22846 | 14.09877 | 17° | 24km/h | 23454m | 4.7m/s | -52.7°C | 1.5% | 0hPa | 2.6V | 00:00:00 | 00:00:00 | 00:00:00 | |
| DO3MHA-11 | 2026-08-31 12:24:39 | 46.22828 | 14.09875 | 350° | 29km/h | 23438m | 5.6m/s | -52.6°C | 4.2% | 0hPa | 2.6V | 00:00:00 | 01:59:06 | 00:00:00 | |
| OE5MMP-10 | 2026-08-31 12:24:38 | 46.22821 | 14.09877 | 342° | 29km/h | 23432m | 4.9m/s | 0°C | 0% | 0hPa | 2.6V | 00:00:00 | 01:59:05 | 00:00:00 | |
| OE5WHR-10 | 2026-08-31 12:24:37 | 46.22814 | 14.09880 | 343° | 26km/h | 23427m | 4.9m/s | -52.6°C | 4.1% | 0hPa | 2.6V | 00:00:00 | 00:00:00 | 00:00:00 | |
| NBG1-10 | 2026-08-31 12:24:36 | 46.22807 | 14.09884 | 346° | 26km/h | 23422m | 6.3m/s | -52.6°C | 4.1% | 0hPa | 2.6V | 00:00:00 | 01:59:03 | 08:30:00 | |
| OE8JPQ-2 | 2026-08-31 12:24:35 | 46.22798 | 14.09886 | 350° | 26km/h | 23416m | 5.3m/s | -52.6°C | 4.1% | 0hPa | 2.6V | 00:00:00 | 00:00:00 | 00:00:00 | |
| IN3HCDX | 2026-08-31 12:24:33 | 46.22782 | 14.09890 | 349° | 31km/h | 23406m | 6.1m/s | -52.6°C | 1.5% | 0hPa | 2.6V | 00:00:00 | 00:00:00 | 00:00:00 | |
| DO3MHA-12 | 2026-08-31 12:24:32 | 46.22775 | 14.09893 | 342° | 22km/h | 23399m | 5.7m/s | -52.6°C | 4.2% | 0hPa | 2.6V | 00:00:00 | 01:58:59 | 00:00:00 | |
| 9A1FER-3 | 2026-08-31 12:24:30 | 46.22764 | 14.09900 | 335° | 24km/h | 23389m | 5.1m/s | -52.6°C | 4.2% | 0hPa | 2.6V | 00:00:00 | 01:58:57 | 08:30:00 | |
| DO3MHA-11 | 2026-08-31 12:24:29 | 46.22760 | 14.09903 | 338° | 24km/h | 23383m | 6.3m/s | -52.5°C | 4.2% | 0hPa | 2.6V | 00:00:00 | 01:58:56 | 08:30:00 | |
| OE5DRO-10 | 2026-08-31 12:24:27 | 46.22740 | 14.09923 | 314° | 26km/h | 23355m | 5.2m/s | -52.6°C | 4.2% | 0hPa | 2.6V | 00:00:00 | 00:00:00 | 00:00:00 | |
| PETON7-10 | 2026-08-31 12:24:24 | 46.22740 | 14.09923 | 314° | 26km/h | 23355m | 5.2m/s | -52.6°C | 4.2% | 0hPa | 2.6V | 00:00:00 | 00:00:00 | 00:00:00 | |
| DO3MHA-12 | 2026-08-31 12:24:22 | 46.22730 | 14.09936 | 323° | 26km/h | 23344m | 6.2m/s | -52.5°C | 4.2% | 0hPa | 2.7V | 00:00:00 | 01:58:49 | 00:00:00 | |
| IN3HCDX1 | 2026-08-31 12:24:20 | 46.22724 | 14.09942 | 330° | 29km/h | 23339m | 4.8m/s | -52.6°C | 1.5% | 0hPa | 2.7V | 00:00:00 | 00:00:00 | 00:00:00 | |
| DO3MHA-11 | 2026-08-31 12:24:19 | 46.22712 | 14.09953 | 325° | 24km/h | 23329m | 5.6m/s | -52.4°C | 4.1% | 0hPa | 2.7V | 00:00:00 | 01:58:46 | 00:00:00 | |
| IV3AMH | 2026-08-31 12:24:17 | 46.22706 | 14.09959 | 318° | 27km/h | 23323m | 5.5m/s | -52.4°C | 1.5% | 0hPa | 2.7V | 00:00:00 | 00:00:00 | 00:00:00 | |
| OE5WHR-10 | 2026-08-31 12:24:16 | 46.22697 | 14.09973 | 314° | 26km/h | 23313m | 5.0m/s | -52.4°C | 4.1% | 0hPa | 2.7V | 00:00:00 | 01:58:43 | 00:00:00 | |
| OE8JPQ-2 | 2026-08-31 12:24:15 | 46.22693 | 14.09980 | 316° | 26km/h | 23307m | 5.2m/s | -52.3°C | 4.1% | 0hPa | 2.7V | 00:00:00 | 00:00:00 | 00:00:00 | |
| 9A1FER-10 | 2026-08-31 12:24:14 | 46.22688 | 14.09986 | 317° | 26km/h | 23302m | 5.0m/s | -52.2°C | 4.1% | 0hPa | 2.7V | 00:00:00 | 01:58:41 | 00:00:00 | |
| PG1ADW-2 | 2026-08-31 12:24:13 | 46.22685 | 14.09991 | 312° | 26km/h | 23297m | 5.1m/s | -52.3°C | 4.1% | 0hPa | 2.7V | 00:00:00 | 00:00:00 | 08:30:00 | |
| DO3MHA-12 | 2026-08-31 12:24:12 | 46.22682 | 14.09996 | 301° | 27km/h | 23292m | 5.5m/s | -52.3°C | 4.1% | 0hPa | 2.7V | 00:00:00 | 01:58:39 | 00:00:00 | |
| IN3HCDX | 2026-08-31 12:24:11 | 46.22682 | 14.09996 | 302° | 16km/h | 23292m | 5.6m/s | -52.4°C | 1.4% | 0hPa | 2.6V | 00:00:00 | 00:00:00 | 00:00:00 | |
| DO3MHA-11 | 2026-08-31 12:24:09 | 46.22676 | 14.10018 | 296° | 29km/h | 23277m | 5.4m/s | -52.1°C | 4.1% | 0hPa | 2.6V | 00:00:00 | 01:58:36 | 00:00:00 | |
| OE5DXL-15 | 2026-08-31 12:24:08 | 46.22672 | 14.10027 | 303° | 27km/h | 23271m | 5.5m/s | -52.1°C | 4.1% | 0hPa | 2.6V | 00:00:00 | 00:00:00 | 00:00:00 | |
| OE5DRO-10 | 2026-08-31 12:24:07 | 46.22667 | 14.10037 | 310° | 27km/h | 23266m | 5.3m/s | -52.1°C | 4.0% | 0hPa | 2.6V | 00:00:00 | 00:00:00 | 00:00:00 | |
| NBG1-10 | 2026-08-31 12:24:03 | 46.22647 | 14.10069 | 305° | 26km/h | 23245m | 5.8m/s | -52.1°C | 4.1% | 0hPa | 2.6V | 00:00:00 | 01:58:30 | 00:00:00 | |
| DO3MHA-12 | 2026-08-31 12:24:02 | 46.22644 | 14.10077 | 295° | 26km/h | 23239m | 5.7m/s | -52.1°C | 4.1% | 0hPa | 2.6V | 00:00:00 | 01:58:29 | 00:00:00 | |
| 9A1FER-3 | 2026-08-31 12:24:00 | 46.22640 | 14.10095 | 286° | 27km/h | 23228m | 4.9m/s | -52.2°C | 4.1% | 0hPa | 2.6V | 00:00:00 | 01:58:27 | 00:00:00 | |
| DO3MHA-11 | 2026-08-31 12:23:59 | 46.22638 | 14.10103 | 289° | 26km/h | 23223m | 5.4m/s | -52.3°C | 4.1% | 0hPa | 2.6V | 00:00:00 | 01:58:26 | 00:00:00 | |
| OE3JTB-15 | 2026-08-31 12:23:56 | 46.22630 | 14.10125 | 305° | 26km/h | 23205m | 5.3m/s | -52.4°C | 4.1% | 0hPa | 2.6V | 00:00:00 | 00:00:00 | 00:00:00 | |
| OE5WHR-10 | 2026-08-31 12:23:55 | 46.22626 | 14.10133 | 302° | 27km/h | 23200m | 6.4m/s | -52.3°C | 4.1% | 0hPa | 2.6V | 00:00:00 | 00:00:00 | 08:30:00 | |
| PETON7-10 | 2026-08-31 12:23:54 | 46.22623 | 14.10142 | 298° | 27km/h | 23193m | 5.2m/s | -52.3°C | 4.1% | 0hPa | 2.7V | 00:00:00 | 01:58:21 | 00:00:00 | |
| PG1ADW-2 | 2026-08-31 12:23:53 | 46.22619 | 14.10152 | 296° | 27km/h | 23189m | 4.2m/s | -52.3°C | 4.1% | 0hPa | 2.7V | 00:00:00 | 00:00:00 | 00:00:00 | |
| DO3MHA-12 | 2026-08-31 12:23:52 | 46.22616 | 14.10162 | 294° | 27km/h | 23184m | 5.8m/s | -52.4°C | 4.1% | 0hPa | 2.7V | 00:00:00 | 01:58:19 | 00:00:00 | |
| IN3HCDX | 2026-08-31 12:23:50 | 46.22613 | 14.10172 | 293° | 27km/h | 23178m | 5.5m/s | -52.4°C | 0% | 0hPa | 2.7V | 00:00:00 | 00:00:00 | 00:00:00 | |
| DO3MHA-11 | 2026-08-31 12:23:49 | 46.22609 | 14.10190 | 283° | 26km/h | 23168m | 5.4m/s | -52.3°C | 4.0% | 0hPa | 2.7V | 00:00:00 | 01:58:16 | 00:00:00 | |
| OE5DRO-10 | 2026-08-31 12:23:48 | 46.22608 | 14.10200 | 278° | 26km/h | 23162m | 6.0m/s | -52.2°C | 4.0% | 0hPa | 2.7V | 00:00:00 | 00:00:00 | 00:00:00 | |
| 9A1FER-3 | 2026-08-31 12:23:45 | 46.22606 | 14.10231 | 273° | 26km/h | 23145m | 6.3m/s | -52.2°C | 4.1% | 0hPa | 2.6V | 00:00:00 | 01:58:12 | 00:00:00 | |
| 9A1FER-10 | 2026-08-31 12:23:44 | 46.22606 | 14.10240 | 272° | 26km/h | 23139m | 4.9m/s | -52.1°C | 4.1% | 0hPa | 2.7V | 00:00:00 | 01:58:11 | 00:00:00 | |
| DO3MHA-12 | 2026-08-31 12:23:42 | 46.22606 | 14.10256 | 269° | 26km/h | 23129m | 6.3m/s | -52.1°C | 4.1% | 0hPa | 2.7V | 00:00:00 | 01:58:09 | 00:00:00 | |
| PETON7-10 | 2026-08-31 12:23:39 | 46.22606 | 14.10286 | 271° | 26km/h | 23111m | 6.3m/s | -52.2°C | 4.1% | 0hPa | 2.6V | 00:00:00 | 00:00:00 | 00:00:00 | |
| OE5DXL-15 | 2026-08-31 12:23:38 | 46.22606 | 14.10295 | 270° | 20km/h | 23106m | 5.3m/s | -52.2°C | 4.2% | 0hPa | 2.6V | 00:00:00 | 00:00:00 | 00:00:00 | |
| OE8JPQ-2 | 2026-08-31 12:23:35 | 46.22608 | 14.10322 | 260° | 22km/h | 23090m | 5.7m/s | -52.4°C | 4.1% | 0hPa | 2.6V | 00:00:00 | 00:00:00 | 08:30:00 | |
| OE5WHR-10 | 2026-08-31 12:23:34 | 46.22610 | 14.10332 | 258° | 22km/h | 23084m | 4.6m/s | -52.4°C | 4.2% | 0hPa | 2.6V | 00:00:00 | 00:00:00 | 00:00:00 | |
| PG1ADW-2 | 2026-08-31 12:23:33 | 46.22611 | 14.10342 | 257° | 22km/h | 23080m | 4.7m/s | -52.4°C | 4.2% | 0hPa | 2.6V | 00:00:00 | 01:58:00 | 00:00:00 | |
| DO3MHA-12 | 2026-08-31 12:23:32 | 46.22613 | 14.10351 | 255° | 24km/h | 23074m | 6.1m/s | -52.4°C | 4.2% | 0hPa | 2.6V | 00:00:00 | 01:57:59 | 00:00:00 | |
| 9A1FER-3 | 2026-08-31 12:23:30 | 46.22617 | 14.10367 | 247° | 22km/h | 23063m | 4.8m/s | -52.3°C | 4.1% | 0hPa | 2.6V | 00:00:00 | 01:57:57 | 00:00:00 | |
| 9A1FER-10 | 2026-08-31 12:23:29 | 46.22619 | 14.10374 | 245° | 20km/h | 23058m | 6.1m/s | -52.2°C | 4.1% | 0hPa | 2.6V | 00:00:00 | 01:57:56 | 00:00:00 | |
| OE3JTB-15 | 2026-08-31 12:23:27 | 46.22625 | 14.10392 | 245° | 15km/h | 23047m | 4.2m/s | -52.2°C | 4.1% | 0hPa | 2.6V | 00:00:00 | 01:57:54 | 00:00:00 | |
| PETON7-10 | 2026-08-31 12:23:24 | 46.22632 | 14.10416 | 254° | 18km/h | 23031m | 4.9m/s | -52.1°C | 4.1% | 0hPa | 2.6V | 00:00:00 | 00:00:00 | 00:00:00 | |
| DO3MHA-12 | 2026-08-31 12:23:22 | 46.22634 | 14.10430 | 262° | 18km/h | 23020m | 5.9m/s | -52.1°C | 4.1% | 0hPa | 2.6V | 00:00:00 | 01:57:49 | 00:00:00 | |
| DO3MHA-11 | 2026-08-31 12:23:19 | 46.22635 | 14.10451 | 274° | 16km/h | 23003m | 6.0m/s | -52.1°C | 4.1% | 0hPa | 2.6V | 00:00:00 | 01:57:46 | 00:00:00 | |
| 9A1FER-3 | 2026-08-31 12:23:16 | 46.22635 | 14.10476 | 266° | 13km/h | 22982m | 5.0m/s | -51.9°C | 4.0% | 0hPa | 2.6V | 00:00:00 | 01:57:42 | 00:00:00 | |
| 9A1FER-10 | 2026-08-31 12:23:14 | 46.22635 | 14.10483 | 263° | 11km/h | 22977m | 5.1m/s | -51.9°C | 4.0% | 0hPa | 2.6V | 00:00:00 | 01:57:41 | 00:00:00 | |
| OE5WHR-10 | 2026-08-31 12:23:13 | 46.22636 | 14.10489 | 260° | 9km/h | 22971m | 6.2m/s | -51.9°C | 4.0% | 0hPa | 2.7V | 00:00:00 | 01:57:40 | 00:00:00 | |
| DO3MHA-12 | 2026-08-31 12:23:12 | 46.22636 | 14.10494 | 254° | 11km/h | 22965m | 4.6m/s | -51.9°C | 4.0% | 0hPa | 2.7V | 00:00:00 | 01:57:39 | 08:30:00 | |
| OE5DRO-10 | 2026-08-31 12:23:10 | 46.22639 | 14.10503 | 248° | 9km/h | 22955m | 5.8m/s | -51.9°C | 4.0% | 0hPa | 2.7V | 00:00:00 | 00:00:00 | 00:00:00 | |
| PETON7-10 | 2026-08-31 12:23:09 | 46.22640 | 14.10508 | 244° | 7km/h | 22950m | 4.5m/s | -52.0°C | 4.0% | 0hPa | 2.7V | 00:00:00 | 01:57:36 | 00:00:00 | |
| OE5DXL-15 | 2026-08-31 12:23:08 | 46.22642 | 14.10512 | 238° | 7km/h | 22945m | 4.9m/s | -51.9°C | 4.0% | 0hPa | 2.7V | 00:00:00 | 00:00:00 | 00:00:00 | |
| DO3MHA-12 | 2026-08-31 12:23:02 | 46.22649 | 14.10528 | 253° | 7km/h | 22913m | 4.4m/s | -51.9°C | 4.0% | 0hPa | 2.6V | 00:00:00 | 01:57:29 | 00:00:00 | |
| IV3AMH | 2026-08-31 12:23:01 | 46.22649 | 14.10528 | 253° | 13km/h | 22913m | 4.4m/s | -51.9°C | 1.5% | 0hPa | 2.6V | 00:00:00 | 00:00:00 | 00:00:00 | |
| 9A1FER-3 | 2026-08-31 12:23:00 | 46.22650 | 14.10536 | 251° | 7km/h | 22903m | 6.2m/s | -51.8°C | 4.0% | 0hPa | 2.6V | 00:00:00 | 01:57:27 | 00:00:00 | |
| DO3MHA-11 | 2026-08-31 12:22:59 | 46.22651 | 14.10537 | 243° | 7km/h | 22897m | 5.3m/s | -51.8°C | 4.0% | 0hPa | 2.6V | 00:00:00 | 01:57:26 | 08:30:00 | |
| OE3JTB-15 | 2026-08-31 12:22:58 | 46.22651 | 14.10538 | 219° | 9km/h | 22892m | 4.9m/s | -51.8°C | 4.0% | 0hPa | 2.7V | 00:00:00 | 00:00:00 | 00:00:00 | |
| NBG1-10 | 2026-08-31 12:22:57 | 46.22652 | 14.10539 | 216° | 11km/h | 22886m | 6.1m/s | -51.9°C | 4.0% | 0hPa | 2.7V | 00:00:00 | 01:57:24 | 00:00:00 | |
| OE8JPQ-2 | 2026-08-31 12:22:55 | 46.22655 | 14.10541 | 191° | 7km/h | 22876m | 4.0m/s | -51.9°C | 4.0% | 0hPa | 2.6V | 00:00:00 | 01:57:22 | 00:00:00 | |
| PETON7-10 | 2026-08-31 12:22:54 | 46.22657 | 14.10541 | 171° | 7km/h | 22871m | 5.6m/s | -51.9°C | 4.0% | 0hPa | 2.6V | 00:00:00 | 00:00:00 | 08:30:00 | |
| PG1ADW-2 | 2026-08-31 12:22:53 | 46.22659 | 14.10540 | 154° | 9km/h | 22865m | 5.8m/s | -51.9°C | 4.0% | 0hPa | 2.7V | 00:00:00 | 00:00:00 | 00:00:00 | |
| OE5WHR-10 | 2026-08-31 12:22:52 | 46.22661 | 14.10538 | 149° | 9km/h | 22860m | 4.5m/s | -51.9°C | 4.0% | 0hPa | 2.7V | 00:00:00 | 00:00:00 | 00:00:00 | |
| OE5DRO-10 | 2026-08-31 12:22:51 | 46.22665 | 14.10536 | 279° | 13km/h | 22844m | 4.7m/s | -51.8°C | 4.1% | 0hPa | 2.6V | 00:00:00 | 00:00:00 | 08:30:00 | |
| DO3MHA-11 | 2026-08-31 12:22:49 | 46.22665 | 14.10536 | 279° | 7km/h | 22844m | 4.7m/s | -51.8°C | 4.1% | 0hPa | 2.7V | 00:00:00 | 01:57:16 | 00:00:00 | |
| IN3HCDX | 2026-08-31 12:22:48 | 46.22665 | 14.10536 | 279° | 4km/h | 22844m | 4.7m/s | -51.9°C | 1.5% | 0hPa | 2.7V | 00:00:00 | 00:00:00 | 00:00:00 | |
| 9A1FER-3 | 2026-08-31 12:22:45 | 46.22660 | 14.10539 | 20° | 11km/h | 22824m | 4.6m/s | -51.9°C | 4.0% | 0hPa | 2.7V | 00:00:00 | 01:57:12 | 00:00:00 | |
| DO3MHA-12 | 2026-08-31 12:22:42 | 46.22655 | 14.10536 | 39° | 11km/h | 22808m | 4.8m/s | -52.0°C | 4.0% | 0hPa | 2.7V | 00:00:00 | 01:57:09 | 00:00:00 | |
| PETON7-10 | 2026-08-31 12:22:39 | 46.22653 | 14.10527 | 83° | 15km/h | 22792m | 5.2m/s | -51.8°C | 4.0% | 0hPa | 2.6V | 00:00:00 | 00:00:00 | 00:00:00 | |
| OE5DXL-15 | 2026-08-31 12:22:38 | 46.22653 | 14.10522 | 80° | 13km/h | 22788m | 3.9m/s | -51.8°C | 4.0% | 0hPa | 2.6V | 00:00:00 | 00:00:00 | 00:00:00 | |
| IN3HCDX1 | 2026-08-31 12:22:37 | 46.22653 | 14.10522 | 80° | 13km/h | 22788m | 3.9m/s | -51.8°C | 1.5% | 0hPa | 2.6V | 00:00:00 | 00:00:00 | 00:00:00 | |
| OE8JPQ-2 | 2026-08-31 12:22:35 | 46.22649 | 14.10512 | 32° | 13km/h | 22772m | 4.9m/s | -51.8°C | 4.1% | 0hPa | 2.6V | 00:00:00 | 00:00:00 | 00:00:00 | |
| PG1ADW-2 | 2026-08-31 12:22:33 | 46.22643 | 14.10508 | 24° | 13km/h | 22761m | 5.5m/s | -51.7°C | 4.1% | 0hPa | 2.6V | 00:00:00 | 00:00:00 | 00:00:00 | |
| DO3MHA-12 | 2026-08-31 12:22:32 | 46.22639 | 14.10506 | 22° | 15km/h | 22756m | 4.2m/s | -51.7°C | 4.1% | 0hPa | 2.6V | 00:00:00 | 01:56:59 | 00:00:00 | |
| OE5WHR-10 | 2026-08-31 12:22:31 | 46.22634 | 14.10503 | 18° | 13km/h | 22751m | 4.4m/s | -51.8°C | 4.1% | 0hPa | 2.6V | 00:00:00 | 00:00:00 | 00:00:00 | |
| 9A1FER-3 | 2026-08-31 12:22:30 | 46.22630 | 14.10502 | 14° | 13km/h | 22747m | 5.6m/s | -51.8°C | 4.1% | 0hPa | 2.6V | 00:00:00 | 01:56:57 | 00:00:00 | |
| 9A1FER-10 | 2026-08-31 12:22:29 | 46.22626 | 14.10501 | 10° | 13km/h | 22741m | 4.7m/s | -51.8°C | 4.1% | 0hPa | 2.6V | 00:00:00 | 01:56:56 | 00:00:00 | |
| IN3HCDX | 2026-08-31 12:22:27 | 46.22623 | 14.10499 | 20° | 13km/h | 22737m | 4.2m/s | -51.8°C | 1.5% | 0hPa | 2.6V | 00:00:00 | 00:00:00 | 00:00:00 | |
| NBG1-10 | 2026-08-31 12:22:24 | 46.22616 | 14.10483 | 86° | 9km/h | 22716m | 5.0m/s | -51.9°C | 4.1% | 0hPa | 2.6V | 00:00:00 | 01:56:51 | 00:00:00 | |
| DO3MHA-12 | 2026-08-31 12:22:22 | 46.22616 | 14.10474 | 97° | 11km/h | 22705m | 4.3m/s | -51.7°C | 4.0% | 0hPa | 2.6V | 00:00:00 | 01:56:49 | 00:00:00 | |
| DO3MHA-11 | 2026-08-31 12:22:19 | 46.22614 | 14.10468 | 15° | 11km/h | 22691m | 5.3m/s | -51.6°C | 4.0% | 0hPa | 2.6V | 00:00:00 | 01:56:46 | 00:00:00 | |
| IN3HCDX1 | 2026-08-31 12:22:16 | 46.22609 | 14.10469 | 339° | 13km/h | 22681m | 5.2m/s | -51.7°C | 1.4% | 0hPa | 2.6V | 00:00:00 | 00:00:00 | 00:00:00 | |
| 9A1FER-3 | 2026-08-31 12:22:15 | 46.22603 | 14.10475 | 318° | 11km/h | 22670m | 4.8m/s | -51.4°C | 3.9% | 0hPa | 2.6V | 00:00:00 | 01:56:42 | 08:30:00 | |
| 9A1FER-10 | 2026-08-31 12:22:14 | 46.22600 | 14.10478 | 317° | 11km/h | 22666m | 3.7m/s | -51.4°C | 3.9% | 0hPa | 2.7V | 00:00:00 | 01:56:41 | 00:00:00 | |
| OE5DRO-10 | 2026-08-31 12:22:13 | 46.22596 | 14.10481 | 13° | 9km/h | 22657m | 5.8m/s | -51.5°C | 3.9% | 0hPa | 2.7V | 00:00:00 | 00:00:00 | 00:00:00 | |
| DO3MHA-12 | 2026-08-31 12:22:12 | 46.22596 | 14.10481 | 13° | 11km/h | 22657m | 5.8m/s | -51.5°C | 3.9% | 0hPa | 2.7V | 00:00:00 | 01:56:39 | 00:00:00 | |
| OE5WHR-10 | 2026-08-31 12:22:10 | 46.22594 | 14.10475 | 82° | 7km/h | 22646m | 4.0m/s | -51.5°C | 3.9% | 0hPa | 2.7V | 00:00:00 | 01:56:37 | 00:00:00 | |
| DO3MHA-11 | 2026-08-31 12:22:09 | 46.22594 | 14.10471 | 101° | 11km/h | 22642m | 4.2m/s | -51.7°C | 3.9% | 0hPa | 2.7V | 00:00:00 | 01:56:36 | 00:00:00 | |
| OE5DXL-15 | 2026-08-31 12:22:08 | 46.22595 | 14.10467 | 126° | 7km/h | 22637m | 5.3m/s | -51.7°C | 4.0% | 0hPa | 2.7V | 00:00:00 | 00:00:00 | 00:00:00 | |
| IN3HCDX | 2026-08-31 12:22:06 | 46.22597 | 14.10465 | 170° | 9km/h | 22632m | 4.9m/s | -51.8°C | 1.5% | 0hPa | 2.7V | 00:00:00 | 00:00:00 | 00:00:00 | |
| DO3MHA-12 | 2026-08-31 12:22:02 | 46.22601 | 14.10480 | 282° | 5km/h | 22607m | 4.5m/s | -51.7°C | 4.0% | 0hPa | 2.7V | 00:00:00 | 01:56:29 | 00:00:00 | |
| 9A1FER-10 | 2026-08-31 12:21:59 | 46.22601 | 14.10491 | 243° | 4km/h | 22592m | 4.4m/s | -51.6°C | 4.0% | 0hPa | 2.7V | 00:00:00 | 01:56:26 | 00:00:00 | |
| OE8JPQ-2 | 2026-08-31 12:21:55 | 46.22603 | 14.10494 | 95° | 7km/h | 22571m | 4.3m/s | -51.6°C | 3.9% | 0hPa | 2.7V | 00:00:00 | 01:56:22 | 00:00:00 | |
| PETON7-10 | 2026-08-31 12:21:54 | 46.22604 | 14.10493 | 123° | 5km/h | 22566m | 5.6m/s | -51.5°C | 3.9% | 0hPa | 2.7V | 00:00:00 | 00:00:00 | 00:00:00 | |
| OE5DRO-10 | 2026-08-31 12:21:53 | 46.22605 | 14.10492 | 144° | 7km/h | 22561m | 5.2m/s | -51.5°C | 3.9% | 0hPa | 2.7V | 00:00:00 | 00:00:00 | 00:00:00 | |
| DO3MHA-12 | 2026-08-31 12:21:52 | 46.22605 | 14.10491 | 121° | 5km/h | 22556m | 4.4m/s | -51.6°C | 4.0% | 0hPa | 2.6V | 00:00:00 | 01:56:19 | 00:00:00 | |
| NBG1-10 | 2026-08-31 12:21:51 | 46.22605 | 14.10490 | 40° | 11km/h | 22551m | 6.0m/s | -51.6°C | 3.9% | 0hPa | 2.6V | 00:00:00 | 01:56:18 | 00:00:00 | |
| OE5WHR-10 | 2026-08-31 12:21:49 | 46.22603 | 14.10490 | 2° | 11km/h | 22541m | 4.1m/s | -51.7°C | 4.0% | 0hPa | 2.6V | 00:00:00 | 00:00:00 | 00:00:00 | |
| IV3AMH | 2026-08-31 12:21:46 | 46.22600 | 14.10490 | 343° | 5km/h | 22530m | 4.8m/s | -51.7°C | 1.5% | 0hPa | 2.6V | 00:00:00 | 00:00:00 | 00:00:00 | |
| 9A1FER-3 | 2026-08-31 12:21:45 | 46.22597 | 14.10490 | 17° | 13km/h | 22521m | 5.4m/s | -51.7°C | 4.0% | 0hPa | 2.6V | 00:00:00 | 01:56:12 | 00:00:00 | |
| 9A1FER-10 | 2026-08-31 12:21:44 | 46.22595 | 14.10489 | 34° | 13km/h | 22516m | 5.2m/s | -51.8°C | 3.9% | 0hPa | 2.6V | 00:00:00 | 01:56:11 | 08:30:00 | |
| DO3MHA-12 | 2026-08-31 12:21:42 | 46.22592 | 14.10483 | 61° | 11km/h | 22506m | 5.3m/s | -51.8°C | 4.0% | 0hPa | 2.7V | 00:00:00 | 01:56:09 | 08:30:00 | |
| DO3MHA-11 | 2026-08-31 12:21:39 | 46.22590 | 14.10474 | 58° | 15km/h | 22492m | 4.7m/s | -51.9°C | 4.0% | 0hPa | 2.7V | 00:00:00 | 01:56:06 | 00:00:00 | |
| OE5DXL-15 | 2026-08-31 12:21:38 | 46.22588 | 14.10472 | 33° | 11km/h | 22486m | 5.6m/s | -51.9°C | 4.0% | 0hPa | 2.7V | 00:00:00 | 00:00:00 | 08:30:00 | |
| OE8JPQ-2 | 2026-08-31 12:21:35 | 46.22579 | 14.10469 | 5° | 13km/h | 22471m | 5.4m/s | -51.9°C | 4.0% | 0hPa | 2.6V | 00:00:00 | 00:00:00 | 00:00:00 | |
| OE5DRO-10 | 2026-08-31 12:21:34 | 46.22576 | 14.10469 | 10° | 13km/h | 22466m | 4.5m/s | -51.9°C | 4.0% | 0hPa | 2.7V | 00:00:00 | 00:00:00 | 00:00:00 | |
| PG1ADW-2 | 2026-08-31 12:21:33 | 46.22572 | 14.10468 | 12° | 13km/h | 22461m | 5.1m/s | -51.8°C | 3.9% | 0hPa | 2.7V | 00:00:00 | 00:00:00 | 00:00:00 | |
| DO3MHA-12 | 2026-08-31 12:21:32 | 46.22568 | 14.10466 | 16° | 15km/h | 22456m | 5.9m/s | -51.9°C | 3.9% | 0hPa | 2.7V | 00:00:00 | 01:55:59 | 00:00:00 | |
| 9A1FER-3 | 2026-08-31 12:21:30 | 46.22558 | 14.10462 | 25° | 13km/h | 22446m | 4.4m/s | -51.8°C | 4.0% | 0hPa | 2.7V | 00:00:00 | 01:55:57 | 00:00:00 | |
| DO3MHA-11 | 2026-08-31 12:21:29 | 46.22555 | 14.10459 | 31° | 11km/h | 22441m | 5.9m/s | -51.9°C | 4.0% | 0hPa | 2.6V | 00:00:00 | 01:55:56 | 08:30:00 | |
| OE5WHR-10 | 2026-08-31 12:21:28 | 46.22552 | 14.10456 | 41° | 9km/h | 22435m | 4.5m/s | -51.9°C | 4.0% | 0hPa | 2.7V | 00:00:00 | 00:00:00 | 00:00:00 | |
| PETON7-10 | 2026-08-31 12:21:24 | 46.22543 | 14.10450 | 3° | 9km/h | 22415m | 4.8m/s | -51.9°C | 4.0% | 0hPa | 2.7V | 00:00:00 | 00:00:00 | 00:00:00 | |
| DO3MHA-12 | 2026-08-31 12:21:22 | 46.22536 | 14.10449 | 2° | 11km/h | 22406m | 5.4m/s | -52.0°C | 4.0% | 0hPa | 2.6V | 00:00:00 | 01:55:49 | 00:00:00 | |
| DO3MHA-11 | 2026-08-31 12:21:19 | 46.22528 | 14.10449 | 8° | 9km/h | 22391m | 4.3m/s | -52.1°C | 4.1% | 0hPa | 2.6V | 00:00:00 | 01:55:46 | 00:00:00 | |
| NBG1-10 | 2026-08-31 12:21:18 | 46.22525 | 14.10448 | 3° | 5km/h | 22386m | 5.6m/s | -52.2°C | 4.1% | 0hPa | 2.6V | 00:00:00 | 01:55:45 | 00:00:00 | |
| 9A1FER-3 | 2026-08-31 12:21:15 | 46.22514 | 14.10448 | 359° | 5km/h | 22371m | 5.2m/s | -52.1°C | 4.0% | 0hPa | 2.6V | 00:00:00 | 01:55:42 | 00:00:00 | |
| 9A1FER-10 | 2026-08-31 12:21:14 | 46.22512 | 14.10448 | 360° | 5km/h | 22366m | 5.6m/s | -52.1°C | 4.0% | 0hPa | 2.6V | 00:00:00 | 01:55:41 | 00:00:00 | |
| PG1ADW-2 | 2026-08-31 12:21:13 | 46.22511 | 14.10449 | 334° | 5km/h | 22361m | 4.7m/s | -52.0°C | 4.0% | 0hPa | 2.6V | 00:00:00 | 00:00:00 | 08:30:00 | |
| DO3MHA-12 | 2026-08-31 12:21:12 | 46.22511 | 14.10449 | 266° | 5km/h | 22356m | 5.4m/s | -52.1°C | 4.0% | 0hPa | 2.6V | 00:00:00 | 01:55:39 | 00:00:00 | |
| DO3MHA-11 | 2026-08-31 12:21:09 | 46.22512 | 14.10453 | 241° | 7km/h | 22341m | 4.4m/s | -52.1°C | 4.0% | 0hPa | 2.7V | 00:00:00 | 01:55:36 | 00:00:00 | |
| OE5DXL-15 | 2026-08-31 12:21:08 | 46.22512 | 14.10455 | 225° | 7km/h | 22336m | 5.5m/s | -52.1°C | 4.1% | 0hPa | 2.7V | 00:00:00 | 01:55:35 | 00:00:00 | |
| OE5WHR-10 | 2026-08-31 12:21:07 | 46.22514 | 14.10457 | 219° | 5km/h | 22331m | 4.7m/s | -52.1°C | 4.0% | 0hPa | 2.7V | 00:00:00 | 01:55:34 | 00:00:00 | |
| IN3HCDX | 2026-08-31 12:21:04 | 46.22515 | 14.10461 | 270° | 7km/h | 22322m | 5.5m/s | -52.1°C | 1.4% | 0hPa | 2.7V | 00:00:00 | 00:00:00 | 00:00:00 | |
| DO3MHA-12 | 2026-08-31 12:21:02 | 46.22512 | 14.10468 | 334° | 5km/h | 22307m | 5.7m/s | -52.1°C | 4.1% | 0hPa | 2.7V | 00:00:00 | 01:55:29 | 00:00:00 | |
| 9A1FER-3 | 2026-08-31 12:21:00 | 46.22509 | 14.10468 | 22° | 4km/h | 22296m | 4.5m/s | -52.1°C | 4.1% | 0hPa | 2.7V | 00:00:00 | 01:55:27 | 00:00:00 | |
| 9A1FER-10 | 2026-08-31 12:20:59 | 46.22507 | 14.10467 | 29° | 5km/h | 22292m | 4.5m/s | -52.1°C | 4.1% | 0hPa | 2.7V | 00:00:00 | 01:55:26 | 00:00:00 | |
| OE5DRO-10 | 2026-08-31 12:20:56 | 46.22503 | 14.10466 | 360° | 7km/h | 22277m | 5.0m/s | -52.1°C | 4.1% | 0hPa | 2.6V | 00:00:00 | 00:00:00 | 00:00:00 | |
| OE8JPQ-2 | 2026-08-31 12:20:55 | 46.22502 | 14.10466 | 30° | 7km/h | 22271m | 6.0m/s | -52.1°C | 4.1% | 0hPa | 2.6V | 00:00:00 | 01:55:22 | 00:00:00 | |
| PETON7-10 | 2026-08-31 12:20:54 | 46.22502 | 14.10465 | 111° | 7km/h | 22265m | 5.5m/s | -52.1°C | 4.1% | 0hPa | 2.6V | 00:00:00 | 01:55:21 | 00:00:00 | |
| PG1ADW-2 | 2026-08-31 12:20:53 | 46.22502 | 14.10464 | 126° | 9km/h | 22260m | 4.3m/s | -52.1°C | 4.1% | 0hPa | 2.6V | 00:00:00 | 01:55:20 | 00:00:00 | |
| DO3MHA-12 | 2026-08-31 12:20:52 | 46.22503 | 14.10462 | 119° | 5km/h | 22256m | 5.5m/s | -52.1°C | 4.1% | 0hPa | 2.6V | 00:00:00 | 01:55:19 | 00:00:00 | |
| DO3MHA-11 | 2026-08-31 12:20:49 | 46.22502 | 14.10461 | 75° | 9km/h | 22241m | 5.6m/s | -52.0°C | 4.1% | 0hPa | 2.6V | 00:00:00 | 01:55:16 | 00:00:00 | |
| OE5WHR-10 | 2026-08-31 12:20:46 | 46.22501 | 14.10456 | 54° | 13km/h | 22225m | 5.9m/s | -51.9°C | 4.0% | 0hPa | 2.6V | 00:00:00 | 00:00:00 | 08:30:00 | |
| 9A1FER-3 | 2026-08-31 12:20:45 | 46.22500 | 14.10454 | 43° | 13km/h | 22220m | 5.1m/s | -51.9°C | 3.9% | 0hPa | 2.7V | 00:00:00 | 01:55:12 | 00:00:00 | |
| OE5DXL-15 | 2026-08-31 12:20:39 | 46.22496 | 14.10427 | 107° | 16km/h | 22184m | 4.1m/s | -51.8°C | 3.9% | 0hPa | 2.7V | 00:00:00 | 00:00:00 | 00:00:00 | |
| OE5DRO-10 | 2026-08-31 12:20:37 | 46.22497 | 14.10423 | 114° | 15km/h | 22179m | 5.9m/s | -51.8°C | 3.9% | 0hPa | 2.7V | 00:00:00 | 00:00:00 | 00:00:00 | |
| OE8JPQ-2 | 2026-08-31 12:20:35 | 46.22500 | 14.10413 | 109° | 16km/h | 22168m | 5.1m/s | -51.8°C | 3.9% | 0hPa | 2.7V | 00:00:00 | 00:00:00 | 08:30:00 | |
| IN3HCDX1 | 2026-08-31 12:20:33 | 46.22501 | 14.10408 | 95° | 11km/h | 22163m | 6.1m/s | -51.9°C | 1.5% | 0hPa | 2.7V | 00:00:00 | 00:00:00 | 00:00:00 | |
| DO3MHA-12 | 2026-08-31 12:20:32 | 46.22499 | 14.10401 | 53° | 15km/h | 22153m | 4.1m/s | -51.9°C | 4.0% | 0hPa | 2.7V | 00:00:00 | 01:54:59 | 00:00:00 | |
| IV3AMH | 2026-08-31 12:20:31 | 46.22499 | 14.10401 | 53° | 13km/h | 22153m | 4.1m/s | -52.0°C | 1.5% | 0hPa | 2.7V | 00:00:00 | 00:00:00 | 00:00:00 | |
| 9A1FER-3 | 2026-08-31 12:20:30 | 46.22495 | 14.10393 | 55° | 16km/h | 22142m | 5.2m/s | -52.1°C | 3.9% | 0hPa | 2.7V | 00:00:00 | 01:54:57 | 00:00:00 | |
| DO3MHA-11 | 2026-08-31 12:20:29 | 46.22492 | 14.10388 | 49° | 15km/h | 22138m | 4.1m/s | -52.1°C | 3.9% | 0hPa | 2.7V | 00:00:00 | 01:54:56 | 00:00:00 | |
| PETON7-10 | 2026-08-31 12:20:24 | 46.22482 | 14.10370 | 75° | 20km/h | 22112m | 4.9m/s | -52.3°C | 4.0% | 0hPa | 2.6V | 00:00:00 | 00:00:00 | 00:00:00 | |
| OE5WHR-10 | 2026-08-31 12:20:23 | 46.22481 | 14.10365 | 78° | 22km/h | 22107m | 4.0m/s | -52.5°C | 4.0% | 0hPa | 2.6V | 00:00:00 | 00:00:00 | 00:00:00 | |
| DO3MHA-12 | 2026-08-31 12:20:22 | 46.22480 | 14.10359 | 74° | 20km/h | 22102m | 5.8m/s | -52.5°C | 4.0% | 0hPa | 2.6V | 00:00:00 | 01:54:49 | 00:00:00 | |
| DO3MHA-11 | 2026-08-31 12:20:19 | 46.22473 | 14.10344 | 46° | 22km/h | 22088m | 4.8m/s | -52.6°C | 4.0% | 0hPa | 2.6V | 00:00:00 | 01:54:46 | 00:00:00 | |
| OE8JPQ-2 | 2026-08-31 12:20:15 | 46.22456 | 14.10319 | 40° | 24km/h | 22067m | 6.1m/s | -52.6°C | 4.0% | 0hPa | 2.6V | 00:00:00 | 00:00:00 | 00:00:00 | |
| 9A1FER-10 | 2026-08-31 12:20:14 | 46.22451 | 14.10314 | 31° | 24km/h | 22061m | 5.5m/s | -52.6°C | 4.0% | 0hPa | 2.6V | 00:00:00 | 01:54:41 | 00:00:00 | |
| PG1ADW-2 | 2026-08-31 12:20:13 | 46.22447 | 14.10310 | 30° | 24km/h | 22056m | 4.6m/s | -52.7°C | 4.0% | 0hPa | 2.6V | 00:00:00 | 00:00:00 | 00:00:00 | |
| DO3MHA-12 | 2026-08-31 12:20:12 | 46.22442 | 14.10306 | 35° | 24km/h | 22051m | 5.9m/s | -52.7°C | 4.0% | 0hPa | 2.7V | 00:00:00 | 01:54:39 | 08:30:00 | |
| PETON7-10 | 2026-08-31 12:20:09 | 46.22429 | 14.10293 | 30° | 24km/h | 22036m | 6.1m/s | -52.8°C | 4.1% | 0hPa | 2.6V | 00:00:00 | 01:54:36 | 00:00:00 | |
| OE5DXL-15 | 2026-08-31 12:20:08 | 46.22423 | 14.10289 | 26° | 20km/h | 22030m | 5.1m/s | -52.9°C | 4.1% | 0hPa | 2.6V | 00:00:00 | 00:00:00 | 00:00:00 | |
| OE5WHR-10 | 2026-08-31 12:20:02 | 46.22389 | 14.10263 | 17° | 20km/h | 21999m | 5.2m/s | -53.3°C | 4.3% | 0hPa | 2.6V | 00:00:00 | 01:54:29 | 00:00:00 | |
| 9A1FER-3 | 2026-08-31 12:20:00 | 46.22377 | 14.10258 | 18° | 20km/h | 21989m | 6.0m/s | -53.1°C | 4.2% | 0hPa | 2.6V | 00:00:00 | 01:54:27 | 08:30:00 | |
| DO3MHA-11 | 2026-08-31 12:19:59 | 46.22373 | 14.10256 | 20° | 22km/h | 21983m | 4.8m/s | -53.1°C | 4.2% | 0hPa | 2.6V | 00:00:00 | 01:54:26 | 08:30:00 | |
| OE8JPQ-2 | 2026-08-31 12:19:55 | 46.22351 | 14.10250 | 5° | 18km/h | 21964m | 4.6m/s | -53.1°C | 4.1% | 0hPa | 2.6V | 00:00:00 | 01:54:22 | 00:00:00 | |
| PETON7-10 | 2026-08-31 12:19:54 | 46.22345 | 14.10249 | 11° | 18km/h | 21958m | 5.6m/s | -53.1°C | 4.1% | 0hPa | 2.6V | 00:00:00 | 00:00:00 | 00:00:00 | |
| PG1ADW-2 | 2026-08-31 12:19:53 | 46.22339 | 14.10247 | 17° | 16km/h | 21953m | 5.5m/s | -53.1°C | 4.1% | 0hPa | 2.7V | 00:00:00 | 00:00:00 | 00:00:00 | |
| DO3MHA-12 | 2026-08-31 12:19:52 | 46.22334 | 14.10244 | 20° | 16km/h | 21948m | 4.4m/s | -53.2°C | 4.2% | 0hPa | 2.7V | 00:00:00 | 01:54:19 | 00:00:00 | |
| DO3MHA-11 | 2026-08-31 12:19:49 | 46.22318 | 14.10238 | 10° | 15km/h | 21933m | 4.4m/s | -53.1°C | 4.3% | 0hPa | 2.7V | 00:00:00 | 01:54:16 | 00:00:00 | |
| 9A1FER-3 | 2026-08-31 12:19:45 | 46.22305 | 14.10230 | 30° | 15km/h | 21913m | 4.6m/s | -53.1°C | 4.2% | 0hPa | 2.7V | 00:00:00 | 01:54:12 | 00:00:00 | |
| 9A1FER-10 | 2026-08-31 12:19:44 | 46.22302 | 14.10229 | 19° | 15km/h | 21908m | 5.6m/s | -53.1°C | 4.2% | 0hPa | 2.7V | 00:00:00 | 01:54:11 | 00:00:00 | |
| DO3MHA-12 | 2026-08-31 12:19:42 | 46.22294 | 14.10226 | 11° | 15km/h | 21898m | 4.2m/s | -53.2°C | 4.2% | 0hPa | 2.7V | 00:00:00 | 01:54:09 | 00:00:00 | |
| OE5WHR-10 | 2026-08-31 12:19:41 | 46.22290 | 14.10225 | 17° | 15km/h | 21893m | 5.5m/s | -53.2°C | 4.2% | 0hPa | 2.7V | 00:00:00 | 00:00:00 | 00:00:00 | |
| OE5DRO-10 | 2026-08-31 12:19:40 | 46.22286 | 14.10223 | 25° | 15km/h | 21888m | 5.4m/s | -53.1°C | 4.2% | 0hPa | 2.6V | 00:00:00 | 00:00:00 | 00:00:00 | |
| NBG1-10 | 2026-08-31 12:19:39 | 46.22282 | 14.10220 | 29° | 16km/h | 21883m | 4.2m/s | -53.1°C | 4.2% | 0hPa | 2.6V | 00:00:00 | 01:54:06 | 08:30:00 | |
| OE5DXL-15 | 2026-08-31 12:19:38 | 46.22279 | 14.10217 | 25° | 15km/h | 21879m | 4.5m/s | -53.1°C | 4.2% | 0hPa | 2.6V | 00:00:00 | 00:00:00 | 00:00:00 | |
| OE8JPQ-2 | 2026-08-31 12:19:35 | 46.22268 | 14.10214 | 6° | 13km/h | 21863m | 4.7m/s | -53.2°C | 4.2% | 0hPa | 2.6V | 00:00:00 | 00:00:00 | 00:00:00 | |
| PG1ADW-2 | 2026-08-31 12:19:33 | 46.22261 | 14.10211 | 26° | 13km/h | 21852m | 5.3m/s | -53.2°C | 4.2% | 0hPa | 2.7V | 00:00:00 | 01:54:00 | 00:00:00 | |
| DO3MHA-12 | 2026-08-31 12:19:32 | 46.22259 | 14.10210 | 29° | 13km/h | 21847m | 4.2m/s | -53.2°C | 4.2% | 0hPa | 2.7V | 00:00:00 | 01:53:59 | 00:00:00 | |
| IN3HCDX1 | 2026-08-31 12:19:31 | 46.22259 | 14.10210 | 29° | 9km/h | 21847m | 4.2m/s | -53.3°C | 1.5% | 0hPa | 2.7V | 00:00:00 | 00:00:00 | 00:00:00 | |
| 9A1FER-3 | 2026-08-31 12:19:30 | 46.22254 | 14.10208 | 7° | 13km/h | 21837m | 5.4m/s | -53.3°C | 4.3% | 0hPa | 2.7V | 00:00:00 | 01:53:57 | 00:00:00 | |
| 9A1FER-10 | 2026-08-31 12:19:29 | 46.22251 | 14.10207 | 10° | 24km/h | 21832m | 4.5m/s | -53.4°C | 4.3% | 0hPa | 2.7V | 00:00:00 | 01:53:56 | 08:30:00 | |
| PETON7-10 | 2026-08-31 12:19:24 | 46.22236 | 14.10195 | 23° | 16km/h | 21804m | 5.4m/s | -53.4°C | 4.2% | 0hPa | 2.6V | 00:00:00 | 01:53:51 | 00:00:00 | |
| DO3MHA-12 | 2026-08-31 12:19:22 | 46.22228 | 14.10190 | 30° | 13km/h | 21794m | 5.8m/s | -53.3°C | 4.2% | 0hPa | 2.6V | 00:00:00 | 01:53:49 | 00:00:00 | |
| OE5DRO-10 | 2026-08-31 12:19:21 | 46.22225 | 14.10187 | 40° | 20km/h | 21788m | 5.5m/s | -53.3°C | 4.2% | 0hPa | 2.6V | 00:00:00 | 00:00:00 | 00:00:00 | |
| OE5WHR-10 | 2026-08-31 12:19:20 | 46.22222 | 14.10184 | 44° | 20km/h | 21783m | 4.0m/s | -53.3°C | 4.2% | 0hPa | 2.6V | 00:00:00 | 00:00:00 | 00:00:00 | |
| DO3MHA-11 | 2026-08-31 12:19:19 | 46.22220 | 14.10181 | 36° | 16km/h | 21779m | 5.4m/s | -53.3°C | 4.2% | 0hPa | 2.6V | 00:00:00 | 01:53:46 | 00:00:00 | |
| IV3AMH | 2026-08-31 12:19:16 | 46.22215 | 14.10179 | 13° | 11km/h | 21768m | 4.9m/s | -53.4°C | 1.5% | 0hPa | 2.6V | 00:00:00 | 00:00:00 | 00:00:00 | |
| 9A1FER-3 | 2026-08-31 12:19:15 | 46.22210 | 14.10176 | 26° | 24km/h | 21757m | 5.0m/s | -53.5°C | 4.2% | 0hPa | 2.6V | 00:00:00 | 01:53:42 | 00:00:00 | |
| PG1ADW-2 | 2026-08-31 12:19:13 | 46.22202 | 14.10171 | 17° | 26km/h | 21747m | 5.9m/s | -53.5°C | 4.3% | 0hPa | 2.7V | 00:00:00 | 00:00:00 | 00:00:00 | |
| DO3MHA-12 | 2026-08-31 12:19:12 | 46.22197 | 14.10169 | 13° | 26km/h | 21741m | 5.2m/s | -53.5°C | 4.2% | 0hPa | 2.6V | 00:00:00 | 01:53:39 | 00:00:00 | |
| IN3HCDX1 | 2026-08-31 12:19:10 | 46.22190 | 14.10167 | 17° | 27km/h | 21737m | 4.5m/s | -53.6°C | 1.5% | 0hPa | 2.6V | 00:00:00 | 00:00:00 | 00:00:00 | |
| DO3MHA-11 | 2026-08-31 12:19:09 | 46.22177 | 14.10160 | 28° | 26km/h | 21726m | 5.1m/s | -53.5°C | 4.3% | 0hPa | 2.6V | 00:00:00 | 01:53:36 | 00:00:00 | |
| OE5DXL-15 | 2026-08-31 12:19:08 | 46.22172 | 14.10156 | 30° | 31km/h | 21721m | 3.9m/s | -53.6°C | 4.3% | 0hPa | 2.6V | 00:00:00 | 00:00:00 | 00:00:00 | |
| NBG1-10 | 2026-08-31 12:19:06 | 46.22161 | 14.10147 | 22° | 31km/h | 21711m | 5.4m/s | -53.7°C | 4.3% | 0hPa | 2.6V | 00:00:00 | 01:53:33 | 00:00:00 | |
| IN3HCDX | 2026-08-31 12:19:05 | 46.22161 | 14.10148 | 22° | 24km/h | 21711m | 5.4m/s | -53.8°C | 1.6% | 0hPa | 2.6V | 00:00:00 | 00:00:00 | 00:00:00 | |
| DO3MHA-12 | 2026-08-31 12:19:02 | 46.22137 | 14.10136 | 23° | 26km/h | 21692m | 5.1m/s | -53.7°C | 4.3% | 0hPa | 2.6V | 00:00:00 | 01:53:29 | 00:00:00 | |
| 9A1FER-3 | 2026-08-31 12:19:00 | 46.22124 | 14.10129 | 20° | 31km/h | 21682m | 5.8m/s | -53.8°C | 4.3% | 0hPa | 2.6V | 00:00:00 | 01:53:27 | 00:00:00 | |
| OE5WHR-10 | 2026-08-31 12:18:59 | 46.22118 | 14.10126 | 16° | 33km/h | 21676m | 5.3m/s | -53.8°C | 4.3% | 0hPa | 2.6V | 00:00:00 | 01:53:26 | 00:00:00 | |
| OE8JPQ-2 | 2026-08-31 12:18:55 | 46.22092 | 14.10114 | 19° | 35km/h | 21656m | 4.5m/s | -53.9°C | 4.3% | 0hPa | 2.6V | 00:00:00 | 01:53:22 | 00:00:00 | |
| PETON7-10 | 2026-08-31 12:18:54 | 46.22084 | 14.10111 | 14° | 35km/h | 21651m | 5.0m/s | -54.0°C | 4.3% | 0hPa | 2.6V | 00:00:00 | 00:00:00 | 00:00:00 | |
| PG1ADW-2 | 2026-08-31 12:18:53 | 46.22076 | 14.10109 | 8° | 37km/h | 21646m | 5.9m/s | -53.9°C | 4.3% | 0hPa | 2.6V | 00:00:00 | 00:00:00 | 00:00:00 | |
| IN3HCDX1 | 2026-08-31 12:18:50 | 46.22058 | 14.10108 | 1° | 35km/h | 21636m | 4.4m/s | -53.9°C | 1.6% | 0hPa | 2.6V | 00:00:00 | 00:00:00 | 00:00:00 | |
| DO3MHA-11 | 2026-08-31 12:18:49 | 46.22041 | 14.10106 | 5° | 35km/h | 21626m | 4.9m/s | -53.9°C | 4.3% | 0hPa | 2.6V | 00:00:00 | 01:53:16 | 00:00:00 | |
| 9A1FER-3 | 2026-08-31 12:18:45 | 46.22005 | 14.10105 | 357° | 38km/h | 21605m | 4.2m/s | -54.1°C | 4.5% | 0hPa | 2.6V | 00:00:00 | 01:53:12 | 00:00:00 | |
| OE5DRO-10 | 2026-08-31 12:18:43 | 46.21988 | 14.10106 | 3° | 40km/h | 21596m | 5.9m/s | -54.2°C | 4.4% | 0hPa | 2.6V | 00:00:00 | 00:00:00 | 00:00:00 | |
| IV3AMH | 2026-08-31 12:18:39 | 46.21964 | 14.10104 | 360° | 31km/h | 21580m | 5.8m/s | -54.2°C | 1.7% | 0hPa | 2.6V | 00:00:00 | 00:00:00 | 00:00:00 | |
| OE5WHR-10 | 2026-08-31 12:18:38 | 46.21947 | 14.10107 | 349° | 40km/h | 21569m | 4.3m/s | -54.1°C | 4.4% | 0hPa | 2.6V | 00:00:00 | 00:00:00 | 00:00:00 | |
| 9A1FER-10 | 2026-08-31 12:18:36 | 46.21927 | 14.10112 | 351° | 42km/h | 21559m | 5.3m/s | -54.3°C | 4.4% | 0hPa | 2.7V | 00:00:00 | 01:53:03 | 00:00:00 | |
| OE8JPQ-2 | 2026-08-31 12:18:35 | 46.21917 | 14.10114 | 350° | 40km/h | 21553m | 5.0m/s | -54.2°C | 4.5% | 0hPa | 2.7V | 00:00:00 | 00:00:00 | 00:00:00 | |
| NBG1-10 | 2026-08-31 12:18:33 | 46.21894 | 14.10122 | 345° | 37km/h | 21542m | 5.1m/s | -54.1°C | 4.5% | 0hPa | 2.7V | 00:00:00 | 01:53:00 | 00:00:00 | |
| 9A1FER-3 | 2026-08-31 12:18:30 | 46.21861 | 14.10134 | 351° | 40km/h | 21527m | 5.1m/s | -54.0°C | 4.5% | 0hPa | 2.7V | 00:00:00 | 01:52:57 | 00:00:00 | |
| DO3MHA-11 | 2026-08-31 12:18:29 | 46.21850 | 14.10136 | 352° | 40km/h | 21522m | 4.2m/s | -54.0°C | 4.5% | 0hPa | 2.6V | 00:00:00 | 01:52:56 | 08:30:00 | |
| PETON7-10 | 2026-08-31 12:18:24 | 46.21804 | 14.10159 | 338° | 37km/h | 21498m | 5.3m/s | -54.0°C | 4.5% | 0hPa | 2.6V | 00:00:00 | 00:00:00 | 08:30:00 | |
| IN3HCDX | 2026-08-31 12:18:22 | 46.21795 | 14.10164 | 342° | 40km/h | 21492m | 5.5m/s | -54.0°C | 2.2% | 0hPa | 2.6V | 00:00:00 | 00:00:00 | 00:00:00 | |
| 9A1FER-10 | 2026-08-31 12:18:21 | 46.21775 | 14.10173 | 343° | 35km/h | 21482m | 4.5m/s | -53.9°C | 4.4% | 0hPa | 2.6V | 00:00:00 | 01:52:48 | 00:00:00 | |
| DO3MHA-11 | 2026-08-31 12:18:19 | 46.21756 | 14.10183 | 336° | 37km/h | 21472m | 5.0m/s | -53.8°C | 4.4% | 0hPa | 2.6V | 00:00:00 | 01:52:46 | 00:00:00 | |
| OE5WHR-10 | 2026-08-31 12:18:17 | 46.21738 | 14.10195 | 337° | 33km/h | 21462m | 5.8m/s | -53.7°C | 4.3% | 0hPa | 2.6V | 00:00:00 | 00:00:00 | 00:00:00 | |
| 9A1FER-3 | 2026-08-31 12:18:15 | 46.21722 | 14.10206 | 333° | 33km/h | 21452m | 4.6m/s | -53.8°C | 4.3% | 0hPa | 2.6V | 00:00:00 | 01:52:42 | 00:00:00 | |
| PG1ADW-2 | 2026-08-31 12:18:13 | 46.21706 | 14.10219 | 327° | 31km/h | 21441m | 4.7m/s | -53.7°C | 4.4% | 0hPa | 2.6V | 00:00:00 | 01:52:40 | 08:30:00 | |
| DO3MHA-11 | 2026-08-31 12:18:09 | 46.21677 | 14.10241 | 341° | 31km/h | 21421m | 3.9m/s | -53.6°C | 4.5% | 0hPa | 2.6V | 00:00:00 | 01:52:36 | 00:00:00 | |
| OE5DXL-15 | 2026-08-31 12:18:08 | 46.21669 | 14.10245 | 338° | 26km/h | 21416m | 5.4m/s | -53.6°C | 4.4% | 0hPa | 2.6V | 00:00:00 | 00:00:00 | 00:00:00 | |
| IN3HCDX1 | 2026-08-31 12:18:07 | 46.21669 | 14.10245 | 339° | 31km/h | 21416m | 5.4m/s | -53.6°C | 1.6% | 0hPa | 2.6V | 00:00:00 | 00:00:00 | 00:00:00 | |
| 9A1FER-10 | 2026-08-31 12:18:06 | 46.21655 | 14.10255 | 329° | 29km/h | 21405m | 4.9m/s | -53.6°C | 4.4% | 0hPa | 2.6V | 00:00:00 | 01:52:33 | 00:00:00 | |
| OE5DRO-10 | 2026-08-31 12:18:05 | 46.21648 | 14.10261 | 330° | 27km/h | 21400m | 4.8m/s | -53.7°C | 4.5% | 0hPa | 2.6V | 00:00:00 | 00:00:00 | 00:00:00 | |
| IV3AMH | 2026-08-31 12:18:02 | 46.21634 | 14.10272 | 335° | 31km/h | 21388m | 5.0m/s | -53.7°C | 1.6% | 0hPa | 2.6V | 00:00:00 | 00:00:00 | 00:00:00 | |
| 9A1FER-3 | 2026-08-31 12:18:01 | 46.21614 | 14.10290 | 324° | 26km/h | 21373m | 4.9m/s | -53.6°C | 4.4% | 0hPa | 2.6V | 00:00:00 | 01:52:27 | 00:00:00 | |
| NBG1-10 | 2026-08-31 12:18:00 | 46.21614 | 14.10290 | 324° | 20km/h | 21373m | 4.9m/s | -53.6°C | 4.4% | 0hPa | 2.6V | 00:00:00 | 01:52:27 | 00:00:00 | |
| DO3MHA-11 | 2026-08-31 12:17:59 | 46.21608 | 14.10296 | 325° | 26km/h | 21368m | 4.7m/s | -53.6°C | 4.3% | 0hPa | 2.6V | 00:00:00 | 01:52:26 | 00:00:00 | |
| OE5WHR-10 | 2026-08-31 12:17:56 | 46.21590 | 14.10310 | 334° | 22km/h | 21353m | 4.4m/s | -53.4°C | 4.3% | 0hPa | 2.6V | 00:00:00 | 01:52:23 | 00:00:00 | |
| OE8JPQ-2 | 2026-08-31 12:17:55 | 46.21585 | 14.10315 | 330° | 22km/h | 21348m | 5.6m/s | -53.3°C | 4.2% | 0hPa | 2.6V | 00:00:00 | 01:52:22 | 00:00:00 | |
| PETON7-10 | 2026-08-31 12:17:54 | 46.21579 | 14.10320 | 324° | 22km/h | 21342m | 5.3m/s | -53.2°C | 4.2% | 0hPa | 2.6V | 00:00:00 | 01:52:21 | 00:00:00 | |
| PG1ADW-2 | 2026-08-31 12:17:53 | 46.21574 | 14.10326 | 321° | 20km/h | 21338m | 4.3m/s | -53.2°C | 4.2% | 0hPa | 2.6V | 00:00:00 | 00:00:00 | 00:00:00 | |
| 9A1FER-10 | 2026-08-31 12:17:51 | 46.21564 | 14.10337 | 326° | 20km/h | 21327m | 5.4m/s | -53.2°C | 4.2% | 0hPa | 2.6V | 00:00:00 | 01:52:18 | 00:00:00 | |
| DO3MHA-11 | 2026-08-31 12:17:49 | 46.21555 | 14.10346 | 326° | 24km/h | 21318m | 4.8m/s | -53.2°C | 4.3% | 0hPa | 2.6V | 00:00:00 | 01:52:16 | 00:00:00 | |
| OE5DRO-10 | 2026-08-31 12:17:46 | 46.21541 | 14.10362 | 320° | 16km/h | 21303m | 4.3m/s | -53.0°C | 4.2% | 0hPa | 2.6V | 00:00:00 | 00:00:00 | 00:00:00 | |
| 9A1FER-3 | 2026-08-31 12:17:45 | 46.21537 | 14.10366 | 322° | 16km/h | 21298m | 5.6m/s | -53.0°C | 4.2% | 0hPa | 2.6V | 00:00:00 | 01:52:12 | 08:30:00 | |
| PETON7-10 | 2026-08-31 12:17:39 | 46.21519 | 14.10397 | 313° | 13km/h | 21269m | 5.1m/s | -53.1°C | 4.1% | 0hPa | 2.6V | 00:00:00 | 00:00:00 | 00:00:00 | |
| OE5DXL-15 | 2026-08-31 12:17:38 | 46.21515 | 14.10402 | 319° | 11km/h | 21264m | 5.0m/s | -53.1°C | 4.1% | 0hPa | 2.6V | 00:00:00 | 00:00:00 | 00:00:00 | |
| 9A1FER-10 | 2026-08-31 12:17:36 | 46.21509 | 14.10410 | 312° | 11km/h | 21254m | 5.0m/s | -53.0°C | 4.1% | 0hPa | 2.6V | 00:00:00 | 01:52:03 | 00:00:00 | |
| OE5WHR-10 | 2026-08-31 12:17:35 | 46.21507 | 14.10414 | 297° | 9km/h | 21249m | 4.9m/s | -53.1°C | 4.1% | 0hPa | 2.6V | 00:00:00 | 00:00:00 | 08:30:00 | |
| PG1ADW-2 | 2026-08-31 12:17:33 | 46.21505 | 14.10422 | 293° | 9km/h | 21240m | 4.8m/s | -53.3°C | 4.2% | 0hPa | 2.6V | 00:00:00 | 00:00:00 | 00:00:00 | |
| 9A1FER-3 | 2026-08-31 12:17:30 | 46.21500 | 14.10434 | 300° | 9km/h | 21225m | 4.3m/s | -53.5°C | 4.3% | 0hPa | 2.6V | 00:00:00 | 01:51:57 | 00:00:00 | |
| NBG1-10 | 2026-08-31 12:17:27 | 46.21498 | 14.10447 | 269° | 13km/h | 21210m | 4.3m/s | -53.6°C | 4.4% | 0hPa | 2.6V | 00:00:00 | 01:51:54 | 00:00:00 | |
| IV3AMH | 2026-08-31 12:17:25 | 46.21498 | 14.10451 | 275° | 13km/h | 21205m | 5.6m/s | -53.5°C | 1.6% | 0hPa | 2.6V | 00:00:00 | 00:00:00 | 00:00:00 | |
| PETON7-10 | 2026-08-31 12:17:24 | 46.21497 | 14.10459 | 280° | 7km/h | 21195m | 4.4m/s | -53.5°C | 4.2% | 0hPa | 2.6V | 00:00:00 | 00:00:00 | 00:00:00 | |
| 9A1FER-10 | 2026-08-31 12:17:21 | 46.21499 | 14.10469 | 247° | 7km/h | 21180m | 4.3m/s | -53.6°C | 4.2% | 0hPa | 2.6V | 00:00:00 | 01:51:48 | 00:00:00 | |
| IN3HCDX1 | 2026-08-31 12:17:16 | 46.21499 | 14.10478 | 279° | 5km/h | 21160m | 5.8m/s | -53.6°C | 1.5% | 0hPa | 2.6V | 00:00:00 | 00:00:00 | 00:00:00 | |
| 9A1FER-3 | 2026-08-31 12:17:15 | 46.21498 | 14.10482 | 314° | 11km/h | 21151m | 3.8m/s | -53.6°C | 4.2% | 0hPa | 2.6V | 00:00:00 | 01:51:42 | 00:00:00 | |
| OE5WHR-10 | 2026-08-31 12:17:14 | 46.21497 | 14.10483 | 338° | 13km/h | 21146m | 5.8m/s | -53.6°C | 4.3% | 0hPa | 2.6V | 00:00:00 | 00:00:00 | 00:00:00 | |
| PG1ADW-2 | 2026-08-31 12:17:13 | 46.21495 | 14.10484 | 354° | 11km/h | 21140m | 5.0m/s | -53.6°C | 4.2% | 0hPa | 2.6V | 00:00:00 | 00:00:00 | 00:00:00 | |
| PETON7-10 | 2026-08-31 12:17:09 | 46.21486 | 14.10482 | 8° | 15km/h | 21121m | 3.6m/s | -53.6°C | 4.2% | 0hPa | 2.6V | 00:00:00 | 01:51:36 | 00:00:00 | |
| OE5DRO-10 | 2026-08-31 12:17:08 | 46.21479 | 14.10484 | 339° | 18km/h | 21107m | 4.0m/s | -53.6°C | 4.1% | 0hPa | 2.6V | 00:00:00 | 00:00:00 | 08:30:00 | |
| 9A1FER-10 | 2026-08-31 12:17:06 | 46.21479 | 14.10484 | 339° | 16km/h | 21107m | 4.0m/s | -53.6°C | 4.1% | 0hPa | 2.6V | 00:00:00 | 01:51:33 | 00:00:00 | |
| 9A1FER-3 | 2026-08-31 12:17:00 | 46.21461 | 14.10497 | 351° | 22km/h | 21079m | 3.8m/s | -54.1°C | 4.3% | 0hPa | 2.6V | 00:00:00 | 01:51:27 | 00:00:00 | |
| OE3JTB-15 | 2026-08-31 12:16:59 | 46.21442 | 14.10502 | 340° | 24km/h | 21060m | 4.6m/s | -54.3°C | 4.4% | 0hPa | 2.6V | 00:00:00 | 00:00:00 | 00:00:00 | |
| OE8JPQ-2 | 2026-08-31 12:16:55 | 46.21437 | 14.10505 | 338° | 24km/h | 21055m | 5.2m/s | -54.3°C | 4.4% | 0hPa | 2.6V | 00:00:00 | 01:51:22 | 00:00:00 | |
| PETON7-10 | 2026-08-31 12:16:54 | 46.21432 | 14.10508 | 340° | 24km/h | 21050m | 5.3m/s | -54.2°C | 4.5% | 0hPa | 2.6V | 00:00:00 | 00:00:00 | 00:00:00 | |
| PG1ADW-2 | 2026-08-31 12:16:53 | 46.21427 | 14.10510 | 341° | 26km/h | 21045m | 4.2m/s | -54.3°C | 4.5% | 0hPa | 2.7V | 00:00:00 | 01:51:20 | 00:00:00 | |
| 9A1FER-10 | 2026-08-31 12:16:51 | 46.21417 | 14.10515 | 347° | 26km/h | 21035m | 5.5m/s | -54.3°C | 4.5% | 0hPa | 2.7V | 00:00:00 | 01:51:18 | 00:00:00 | |
| IV3AMH | 2026-08-31 12:16:48 | 46.21408 | 14.10516 | 7° | 20km/h | 21026m | 4.8m/s | -54.4°C | 1.6% | 0hPa | 2.7V | 00:00:00 | 00:00:00 | 00:00:00 | |
| 9A1FER-3 | 2026-08-31 12:16:45 | 46.21381 | 14.10506 | 14° | 26km/h | 21007m | 4.7m/s | -54.5°C | 4.3% | 0hPa | 2.7V | 00:00:00 | 01:51:12 | 00:00:00 | |
| PETON7-10 | 2026-08-31 12:16:39 | 46.21344 | 14.10515 | 335° | 24km/h | 20978m | 4.1m/s | -54.4°C | 4.5% | 0hPa | 2.7V | 00:00:00 | 00:00:00 | 00:00:00 | |
| OE5DXL-15 | 2026-08-31 12:16:38 | 46.21338 | 14.10519 | 335° | 26km/h | 20973m | 5.4m/s | -54.4°C | 4.5% | 0hPa | 2.7V | 00:00:00 | 00:00:00 | 00:00:00 | |
| 9A1FER-10 | 2026-08-31 12:16:36 | 46.21326 | 14.10525 | 348° | 24km/h | 20964m | 3.9m/s | -54.4°C | 4.5% | 0hPa | 2.7V | 00:00:00 | 01:51:03 | 08:30:00 | |
| OE8JPQ-2 | 2026-08-31 12:16:35 | 46.21320 | 14.10527 | 355° | 26km/h | 20959m | 4.9m/s | -54.4°C | 4.5% | 0hPa | 2.6V | 00:00:00 | 00:00:00 | 00:00:00 | |
| IN3HCDX1 | 2026-08-31 12:16:34 | 46.21320 | 14.10527 | 355° | 24km/h | 20959m | 4.9m/s | -54.5°C | 1.7% | 0hPa | 2.6V | 00:00:00 | 00:00:00 | 00:00:00 | |
| OE5WHR-10 | 2026-08-31 12:16:32 | 46.21301 | 14.10528 | 359° | 26km/h | 20945m | 5.3m/s | -54.4°C | 4.4% | 0hPa | 2.6V | 00:00:00 | 00:00:00 | 00:00:00 | |
| 9A1FER-3 | 2026-08-31 12:16:30 | 46.21291 | 14.10530 | 346° | 26km/h | 20935m | 4.1m/s | -54.4°C | 4.3% | 0hPa | 2.6V | 00:00:00 | 01:50:57 | 00:00:00 | |
| PETON7-10 | 2026-08-31 12:16:24 | 46.21257 | 14.10548 | 350° | 27km/h | 20906m | 4.1m/s | -54.4°C | 4.4% | 0hPa | 2.6V | 00:00:00 | 01:50:51 | 00:00:00 | |
| NBG1-10 | 2026-08-31 12:16:21 | 46.21239 | 14.10549 | 6° | 27km/h | 20891m | 4.5m/s | -54.5°C | 4.4% | 0hPa | 2.6V | 00:00:00 | 01:50:48 | 00:00:00 | |
| OE8JPQ-2 | 2026-08-31 12:16:15 | 46.21196 | 14.10545 | 351° | 27km/h | 20862m | 4.3m/s | -54.7°C | 4.5% | 0hPa | 2.6V | 00:00:00 | 00:00:00 | 00:00:00 | |
| IN3HCDX1 | 2026-08-31 12:16:13 | 46.21188 | 14.10547 | 346° | 31km/h | 20858m | 4.5m/s | -54.9°C | 1.6% | 0hPa | 2.6V | 00:00:00 | 00:00:00 | 00:00:00 | |
| OE5DRO-10 | 2026-08-31 12:16:12 | 46.21167 | 14.10558 | 340° | 26km/h | 20844m | 3.9m/s | -54.8°C | 4.5% | 0hPa | 2.6V | 00:00:00 | 00:00:00 | 00:00:00 | |
| OE5WHR-10 | 2026-08-31 12:16:11 | 46.21167 | 14.10558 | 340° | 26km/h | 20844m | 3.9m/s | -54.8°C | 4.5% | 0hPa | 2.7V | 00:00:00 | 00:00:00 | 00:00:00 | |
| PETON7-10 | 2026-08-31 12:16:09 | 46.21152 | 14.10564 | 347° | 27km/h | 20834m | 4.3m/s | -55.0°C | 4.6% | 0hPa | 2.7V | 00:00:00 | 00:00:00 | 08:30:00 | |
| OE5DXL-15 | 2026-08-31 12:16:08 | 46.21144 | 14.10567 | 348° | 22km/h | 20830m | 4.0m/s | -55.0°C | 4.6% | 0hPa | 2.7V | 00:00:00 | 00:00:00 | 00:00:00 | |
| 9A1FER-10 | 2026-08-31 12:16:06 | 46.21129 | 14.10572 | 346° | 24km/h | 20819m | 5.0m/s | -54.9°C | 4.6% | 0hPa | 2.7V | 00:00:00 | 01:50:33 | 00:00:00 | |
| 9A1FER-3 | 2026-08-31 12:16:00 | 46.21094 | 14.10596 | 318° | 22km/h | 20790m | 4.3m/s | -54.7°C | 4.6% | 0hPa | 2.7V | 00:00:00 | 01:50:27 | 00:00:00 | |
| OE8JPQ-2 | 2026-08-31 12:15:55 | 46.21069 | 14.10620 | 333° | 18km/h | 20765m | 5.1m/s | -54.6°C | 4.5% | 0hPa | 2.7V | 00:00:00 | 01:50:22 | 00:00:00 | |
| PETON7-10 | 2026-08-31 12:15:54 | 46.21064 | 14.10623 | 336° | 20km/h | 20759m | 4.6m/s | -54.5°C | 4.5% | 0hPa | 2.7V | 00:00:00 | 00:00:00 | 00:00:00 | |
| IN3HCDX1 | 2026-08-31 12:15:53 | 46.21064 | 14.10623 | 337° | 22km/h | 20759m | 4.6m/s | -54.5°C | 1.7% | 0hPa | 2.7V | 00:00:00 | 00:00:00 | 00:00:00 | |
| 9A1FER-10 | 2026-08-31 12:15:51 | 46.21049 | 14.10633 | 331° | 18km/h | 20744m | 5.2m/s | -54.5°C | 4.5% | 0hPa | 2.7V | 00:00:00 | 01:50:18 | 00:00:00 | |
| OE5WHR-10 | 2026-08-31 12:15:50 | 46.21046 | 14.10636 | 321° | 15km/h | 20739m | 5.5m/s | -54.4°C | 4.6% | 0hPa | 2.6V | 00:00:00 | 01:50:17 | 00:00:00 | |
| NBG1-10 | 2026-08-31 12:15:48 | 46.21040 | 14.10645 | 313° | 11km/h | 20729m | 5.1m/s | -54.4°C | 4.6% | 0hPa | 2.6V | 00:00:00 | 01:50:15 | 00:00:00 | |
| 9A1FER-3 | 2026-08-31 12:15:45 | 46.21028 | 14.10661 | 319° | 15km/h | 20715m | 5.2m/s | -54.3°C | 4.5% | 0hPa | 2.6V | 00:00:00 | 01:50:12 | 00:00:00 | |
| PETON7-10 | 2026-08-31 12:15:39 | 46.21003 | 14.10683 | 338° | 11km/h | 20687m | 4.3m/s | -54.2°C | 4.3% | 0hPa | 2.6V | 00:00:00 | 01:50:06 | 00:00:00 | |
| OE5DXL-15 | 2026-08-31 12:15:38 | 46.20999 | 14.10686 | 333° | 9km/h | 20682m | 5.8m/s | -54.2°C | 4.4% | 0hPa | 2.6V | 00:00:00 | 00:00:00 | 00:00:00 | |
| 9A1FER-10 | 2026-08-31 12:15:36 | 46.20995 | 14.10691 | 313° | 11km/h | 20672m | 4.7m/s | -54.1°C | 4.3% | 0hPa | 2.7V | 00:00:00 | 01:50:03 | 00:00:00 | |
| OE8JPQ-2 | 2026-08-31 12:15:35 | 46.20993 | 14.10694 | 313° | 11km/h | 20667m | 5.4m/s | -54.1°C | 4.3% | 0hPa | 2.7V | 00:00:00 | 00:00:00 | 00:00:00 | |
| IV3AMH | 2026-08-31 12:15:34 | 46.20993 | 14.10694 | 313° | 11km/h | 20667m | 5.5m/s | -54.1°C | 1.6% | 0hPa | 2.7V | 00:00:00 | 00:00:00 | 00:00:00 | |
| IN3HCDX1 | 2026-08-31 12:15:32 | 46.20990 | 14.10700 | 305° | 9km/h | 20657m | 4.8m/s | -54.1°C | 1.6% | 0hPa | 2.7V | 00:00:00 | 00:00:00 | 00:00:00 | |
| 9A1FER-3 | 2026-08-31 12:15:30 | 46.20986 | 14.10707 | 321° | 11km/h | 20642m | 5.1m/s | -54.0°C | 4.3% | 0hPa | 2.7V | 00:00:00 | 01:49:57 | 08:30:00 | |
| OE5WHR-10 | 2026-08-31 12:15:29 | 46.20984 | 14.10709 | 336° | 9km/h | 20637m | 5.4m/s | -54.1°C | 4.3% | 0hPa | 2.7V | 00:00:00 | 00:00:00 | 00:00:00 | |
| OE3JTB-15 | 2026-08-31 12:15:24 | 46.20963 | 14.10729 | 282° | 5km/h | 20597m | 5.6m/s | -54.2°C | 4.4% | 0hPa | 2.7V | 00:00:00 | 00:00:00 | 00:00:00 | |
| 9A1FER-10 | 2026-08-31 12:15:21 | 46.20963 | 14.10729 | 282° | 5km/h | 20597m | 5.6m/s | -54.2°C | 4.4% | 0hPa | 2.7V | 00:00:00 | 01:49:48 | 00:00:00 | |
| 9A1FER-3 | 2026-08-31 12:15:15 | 46.20961 | 14.10740 | 359° | 4km/h | 20569m | 3.9m/s | -54.3°C | 4.4% | 0hPa | 2.7V | 00:00:00 | 01:49:42 | 00:00:00 | |
| PETON7-10 | 2026-08-31 12:15:09 | 46.20954 | 14.10739 | 295° | 4km/h | 20541m | 4.4m/s | -54.4°C | 4.4% | 0hPa | 2.7V | 00:00:00 | 00:00:00 | 00:00:00 | |
| OE5DXL-15 | 2026-08-31 12:15:08 | 46.20954 | 14.10740 | 281° | 5km/h | 20537m | 4.2m/s | -54.3°C | 4.3% | 0hPa | 2.7V | 00:00:00 | 00:00:00 | 00:00:00 | |
| PG1ADW-2 | 2026-08-31 12:15:07 | 46.20954 | 14.10741 | 231° | 5km/h | 20532m | 5.6m/s | -54.3°C | 4.4% | 0hPa | 2.7V | 00:00:00 | 00:00:00 | 08:30:00 | |
| 9A1FER-10 | 2026-08-31 12:15:06 | 46.20954 | 14.10742 | 170° | 5km/h | 20527m | 4.2m/s | -54.3°C | 4.3% | 0hPa | 2.6V | 00:00:00 | 01:49:33 | 00:00:00 | |
| DO3MHA-11 | 2026-08-31 12:15:05 | 46.20955 | 14.10742 | 189° | 5km/h | 20523m | 4.2m/s | -54.3°C | 4.3% | 0hPa | 2.6V | 00:00:00 | 01:49:32 | 00:00:00 | |
| 9A1FER-3 | 2026-08-31 12:15:00 | 46.20956 | 14.10746 | 202° | 7km/h | 20499m | 4.3m/s | -54.4°C | 4.4% | 0hPa | 2.6V | 00:00:00 | 01:49:27 | 00:00:00 | |
| IV3AMH | 2026-08-31 12:14:57 | 46.20958 | 14.10748 | 247° | 5km/h | 20490m | 5.3m/s | -54.5°C | 1.7% | 0hPa | 2.6V | 00:00:00 | 00:00:00 | 00:00:00 | |
| OE8JPQ-2 | 2026-08-31 12:14:55 | 46.20958 | 14.10756 | 286° | 7km/h | 20476m | 5.7m/s | -54.6°C | 4.5% | 0hPa | 2.6V | 00:00:00 | 01:49:22 | 00:00:00 | |
| PETON7-10 | 2026-08-31 12:14:54 | 46.20958 | 14.10759 | 279° | 7km/h | 20470m | 5.1m/s | -54.7°C | 4.5% | 0hPa | 2.6V | 00:00:00 | 01:49:21 | 00:00:00 | |
| 9A1FER-10 | 2026-08-31 12:14:52 | 46.20958 | 14.10766 | 246° | 9km/h | 20455m | 4.0m/s | -54.7°C | 4.5% | 0hPa | 2.6V | 00:00:00 | 01:49:18 | 00:00:00 | |
| DO3MHA-11 | 2026-08-31 12:14:51 | 46.20958 | 14.10766 | 246° | 5km/h | 20455m | 4.0m/s | -54.7°C | 4.5% | 0hPa | 2.6V | 00:00:00 | 01:49:18 | 00:00:00 | |
| IN3HCDX1 | 2026-08-31 12:14:50 | 46.20958 | 14.10766 | 246° | 7km/h | 20455m | 4.0m/s | -54.7°C | 1.7% | 0hPa | 2.7V | 00:00:00 | 00:00:00 | 00:00:00 | |
| OE5WHR-10 | 2026-08-31 12:14:47 | 46.20967 | 14.10770 | 182° | 7km/h | 20436m | 3.9m/s | -54.7°C | 4.6% | 0hPa | 2.7V | 00:00:00 | 01:49:14 | 00:00:00 | |
| OE5DRO-10 | 2026-08-31 12:14:46 | 46.20970 | 14.10770 | 194° | 7km/h | 20432m | 5.1m/s | -54.7°C | 4.6% | 0hPa | 2.7V | 00:00:00 | 00:00:00 | 00:00:00 | |
| 9A1FER-3 | 2026-08-31 12:14:45 | 46.20973 | 14.10772 | 211° | 7km/h | 20427m | 4.5m/s | -54.7°C | 4.6% | 0hPa | 2.7V | 00:00:00 | 01:49:12 | 00:00:00 | |
| PETON7-10 | 2026-08-31 12:14:39 | 46.20975 | 14.10782 | 308° | 5km/h | 20398m | 5.0m/s | -54.6°C | 4.5% | 0hPa | 2.7V | 00:00:00 | 00:00:00 | 00:00:00 | |
| OE5DXL-15 | 2026-08-31 12:14:38 | 46.20974 | 14.10784 | 308° | 5km/h | 20393m | 3.9m/s | -54.6°C | 4.4% | 0hPa | 2.6V | 00:00:00 | 00:00:00 | 00:00:00 | |
| DO3MHA-11 | 2026-08-31 12:14:37 | 46.20973 | 14.10787 | 309° | 5km/h | 20389m | 5.0m/s | -54.5°C | 4.4% | 0hPa | 2.6V | 00:00:00 | 01:49:04 | 00:00:00 | |
| 9A1FER-10 | 2026-08-31 12:14:36 | 46.20972 | 14.10789 | 315° | 5km/h | 20384m | 4.9m/s | -54.5°C | 4.4% | 0hPa | 2.6V | 00:00:00 | 01:49:03 | 00:00:00 | |
| OE8JPQ-2 | 2026-08-31 12:14:35 | 46.20971 | 14.10790 | 306° | 5km/h | 20379m | 4.4m/s | -54.6°C | 4.3% | 0hPa | 2.6V | 00:00:00 | 00:00:00 | 08:30:00 | |
| 9A1FER-3 | 2026-08-31 12:14:30 | 46.20973 | 14.10800 | 225° | 5km/h | 20355m | 6.2m/s | -54.6°C | 4.4% | 0hPa | 2.7V | 00:00:00 | 01:48:57 | 00:00:00 | |
| IN3HCDX1 | 2026-08-31 12:14:29 | 46.20973 | 14.10800 | 225° | 7km/h | 20355m | 6.2m/s | -54.6°C | 1.6% | 0hPa | 2.7V | 00:00:00 | 00:00:00 | 00:00:00 | |
| PG1ADW-2 | 2026-08-31 12:14:27 | 46.20978 | 14.10805 | 227° | 5km/h | 20338m | 5.4m/s | -54.6°C | 4.5% | 0hPa | 2.7V | 00:00:00 | 00:00:00 | 00:00:00 | |
| OE5WHR-10 | 2026-08-31 12:14:26 | 46.20978 | 14.10806 | 245° | 5km/h | 20334m | 3.9m/s | -54.6°C | 4.5% | 0hPa | 2.7V | 00:00:00 | 00:00:00 | 08:30:00 | |
| OE3JTB-15 | 2026-08-31 12:14:24 | 46.20979 | 14.10806 | 82° | 7km/h | 20319m | 4.0m/s | -54.6°C | 4.4% | 0hPa | 2.6V | 00:00:00 | 00:00:00 | 08:30:00 | |
| PETON7-10 | 2026-08-31 12:14:23 | 46.20979 | 14.10806 | 82° | 5km/h | 20319m | 4.0m/s | -54.6°C | 4.4% | 0hPa | 2.7V | 00:00:00 | 00:00:00 | 00:00:00 | |
| 9A1FER-10 | 2026-08-31 12:14:21 | 46.20978 | 14.10807 | 295° | 7km/h | 20309m | 4.7m/s | -54.5°C | 4.4% | 0hPa | 2.7V | 00:00:00 | 01:48:48 | 08:30:00 | |
| IV3AMH | 2026-08-31 12:14:19 | 46.20978 | 14.10808 | 257° | 4km/h | 20304m | 4.1m/s | -54.6°C | 1.6% | 0hPa | 2.6V | 00:00:00 | 00:00:00 | 00:00:00 | |
| OE8JPQ-2 | 2026-08-31 12:14:15 | 46.20987 | 14.10814 | 201° | 7km/h | 20279m | 3.7m/s | -54.7°C | 4.4% | 0hPa | 2.6V | 00:00:00 | 00:00:00 | 00:00:00 | |
| OE5DXL-15 | 2026-08-31 12:14:08 | 46.20998 | 14.10810 | 114° | 11km/h | 20244m | 5.6m/s | -54.7°C | 4.4% | 0hPa | 2.6V | 00:00:00 | 00:00:00 | 00:00:00 | |
| PG1ADW-2 | 2026-08-31 12:14:07 | 46.20998 | 14.10808 | 114° | 9km/h | 20239m | 5.3m/s | -54.7°C | 4.4% | 0hPa | 2.6V | 00:00:00 | 01:48:34 | 00:00:00 | |
| 9A1FER-10 | 2026-08-31 12:14:06 | 46.20999 | 14.10806 | 126° | 9km/h | 20234m | 4.0m/s | -54.8°C | 4.4% | 0hPa | 2.6V | 00:00:00 | 01:48:33 | 00:00:00 | |
| OE5WHR-10 | 2026-08-31 12:14:05 | 46.21000 | 14.10805 | 140° | 11km/h | 20230m | 4.7m/s | -54.9°C | 4.4% | 0hPa | 2.6V | 00:00:00 | 00:00:00 | 00:00:00 | |
| 9A1FER-3 | 2026-08-31 12:14:00 | 46.21005 | 14.10802 | 131° | 13km/h | 20205m | 4.9m/s | -55.2°C | 4.5% | 0hPa | 2.6V | 00:00:00 | 01:48:27 | 00:00:00 | |
| OE8JPQ-2 | 2026-08-31 12:13:55 | 46.21012 | 14.10784 | 113° | 13km/h | 20180m | 5.8m/s | -55.2°C | 4.5% | 0hPa | 2.7V | 00:00:00 | 01:48:22 | 00:00:00 | |
| OE3JTB-15 | 2026-08-31 12:13:54 | 46.21014 | 14.10780 | 110° | 15km/h | 20175m | 5.1m/s | -55.3°C | 4.5% | 0hPa | 2.7V | 00:00:00 | 00:00:00 | 00:00:00 | |
| PETON7-10 | 2026-08-31 12:13:53 | 46.21014 | 14.10776 | 104° | 13km/h | 20170m | 4.5m/s | -55.3°C | 4.5% | 0hPa | 2.7V | 00:00:00 | 00:00:00 | 08:30:00 | |
| 9A1FER-10 | 2026-08-31 12:13:51 | 46.21015 | 14.10769 | 93° | 15km/h | 20160m | 3.6m/s | -55.3°C | 4.5% | 0hPa | 2.7V | 00:00:00 | 01:48:18 | 00:00:00 | |
| OE5DRO-10 | 2026-08-31 12:13:49 | 46.21016 | 14.10762 | 97° | 15km/h | 20152m | 5.2m/s | -55.3°C | 4.5% | 0hPa | 2.7V | 00:00:00 | 00:00:00 | 00:00:00 | |
| PG1ADW-2 | 2026-08-31 12:13:47 | 46.21017 | 14.10749 | 102° | 16km/h | 20142m | 4.8m/s | -55.4°C | 4.6% | 0hPa | 2.7V | 00:00:00 | 00:00:00 | 00:00:00 | |
| 9A1FER-3 | 2026-08-31 12:13:45 | 46.21019 | 14.10736 | 110° | 15km/h | 20131m | 5.2m/s | -55.3°C | 4.7% | 0hPa | 2.7V | 00:00:00 | 01:48:12 | 00:00:00 | |
| OE5WHR-10 | 2026-08-31 12:13:44 | 46.21021 | 14.10731 | 115° | 16km/h | 20127m | 3.9m/s | -55.2°C | 4.6% | 0hPa | 2.7V | 00:00:00 | 01:48:11 | 00:00:00 | |
| IV3AMH | 2026-08-31 12:13:42 | 46.21023 | 14.10726 | 120° | 15km/h | 20123m | 4.8m/s | -55.3°C | 1.8% | 0hPa | 2.7V | 00:00:00 | 00:00:00 | 00:00:00 | |
| PETON7-10 | 2026-08-31 12:13:38 | 46.21031 | 14.10706 | 106° | 16km/h | 20098m | 3.9m/s | -55.2°C | 4.5% | 0hPa | 2.7V | 00:00:00 | 00:00:00 | 00:00:00 | |
| 9A1FER-10 | 2026-08-31 12:13:36 | 46.21031 | 14.10698 | 89° | 18km/h | 20088m | 4.5m/s | -55.2°C | 4.5% | 0hPa | 2.7V | 00:00:00 | 01:48:03 | 00:00:00 | |
| OE8JPQ-2 | 2026-08-31 12:13:35 | 46.21031 | 14.10693 | 85° | 18km/h | 20084m | 3.8m/s | -55.3°C | 4.5% | 0hPa | 2.7V | 00:00:00 | 00:00:00 | 00:00:00 | |
| 9A1FER-3 | 2026-08-31 12:13:30 | 46.21031 | 14.10665 | 107° | 18km/h | 20061m | 5.4m/s | -55.4°C | 4.6% | 0hPa | 2.7V | 00:00:00 | 01:47:57 | 00:00:00 | |
| PG1ADW-2 | 2026-08-31 12:13:27 | 46.21037 | 14.10642 | 117° | 20km/h | 20046m | 5.5m/s | -55.3°C | 4.6% | 0hPa | 2.7V | 00:00:00 | 00:00:00 | 00:00:00 | |
| IN3HCDX1 | 2026-08-31 12:13:26 | 46.21037 | 14.10642 | 118° | 22km/h | 20046m | 5.6m/s | -55.4°C | 1.7% | 0hPa | 2.7V | 00:00:00 | 00:00:00 | 00:00:00 | |
| OE3JTB-15 | 2026-08-31 12:13:25 | 46.21041 | 14.10630 | 116° | 20km/h | 20038m | 4.0m/s | -55.3°C | 4.6% | 0hPa | 2.7V | 00:00:00 | 01:47:52 | 00:00:00 | |
| PETON7-10 | 2026-08-31 12:13:23 | 46.21044 | 14.10619 | 109° | 20km/h | 20027m | 4.7m/s | -55.4°C | 4.7% | 0hPa | 2.7V | 00:00:00 | 01:47:50 | 00:00:00 | |
| 9A1FER-10 | 2026-08-31 12:13:21 | 46.21046 | 14.10608 | 98° | 20km/h | 20018m | 4.7m/s | -55.5°C | 4.6% | 0hPa | 2.7V | 00:00:00 | 01:47:48 | 00:00:00 | |
| OE5WHR-10 | 2026-08-31 12:13:20 | 46.21046 | 14.10603 | 91° | 22km/h | 20013m | 5.3m/s | -55.4°C | 4.6% | 0hPa | 2.7V | 00:00:00 | 00:00:00 | 00:00:00 | |
| 9A1FER-3 | 2026-08-31 12:13:15 | 46.21046 | 14.10569 | 97° | 22km/h | 19990m | 4.3m/s | -55.3°C | 4.6% | 0hPa | 2.6V | 00:00:00 | 01:47:42 | 08:30:00 | |
| OE5DRO-10 | 2026-08-31 12:13:11 | 46.21049 | 14.10535 | 93° | 22km/h | 19971m | 5.4m/s | -55.2°C | 4.6% | 0hPa | 2.6V | 00:00:00 | 00:00:00 | 00:00:00 | |
| PETON7-10 | 2026-08-31 12:13:08 | 46.21047 | 14.10510 | 78° | 22km/h | 19957m | 5.5m/s | -55.2°C | 4.5% | 0hPa | 2.7V | 00:00:00 | 00:00:00 | 00:00:00 | |
| PG1ADW-2 | 2026-08-31 12:13:07 | 46.21046 | 14.10503 | 73° | 22km/h | 19952m | 4.2m/s | -55.1°C | 4.5% | 0hPa | 2.7V | 00:00:00 | 00:00:00 | 00:00:00 | |
| 9A1FER-10 | 2026-08-31 12:13:06 | 46.21045 | 14.10496 | 73° | 20km/h | 19948m | 3.8m/s | -55.2°C | 4.5% | 0hPa | 2.7V | 00:00:00 | 01:47:33 | 00:00:00 | |
| IN3HCDX1 | 2026-08-31 12:13:05 | 46.21045 | 14.10496 | 73° | 20km/h | 19948m | 3.9m/s | -55.2°C | 1.7% | 0hPa | 2.7V | 00:00:00 | 00:00:00 | 00:00:00 | |
| IV3AMH | 2026-08-31 12:13:04 | 46.21043 | 14.10488 | 74° | 22km/h | 19943m | 5.7m/s | -55.3°C | 1.7% | 0hPa | 2.7V | 00:00:00 | 00:00:00 | 00:00:00 | |
| 9A1FER-3 | 2026-08-31 12:13:00 | 46.21038 | 14.10451 | 80° | 22km/h | 19919m | 3.8m/s | -55.1°C | 4.5% | 0hPa | 2.7V | 00:00:00 | 01:47:27 | 00:00:00 | |
| OE3JTB-15 | 2026-08-31 12:12:57 | 46.21034 | 14.10419 | 80° | 22km/h | 19901m | 4.5m/s | -55.2°C | 4.5% | 0hPa | 2.7V | 00:00:00 | 00:00:00 | 00:00:00 | |
| OE5WHR-10 | 2026-08-31 12:12:56 | 46.21034 | 14.10419 | 80° | 22km/h | 19901m | 4.5m/s | -55.2°C | 4.5% | 0hPa | 2.6V | 00:00:00 | 00:00:00 | 00:00:00 | |
| OE8JPQ-2 | 2026-08-31 12:12:55 | 46.21032 | 14.10410 | 81° | 22km/h | 19896m | 5.6m/s | -55.3°C | 4.5% | 0hPa | 2.6V | 00:00:00 | 01:47:22 | 00:00:00 | |
| PETON7-10 | 2026-08-31 12:12:53 | 46.21030 | 14.10395 | 77° | 22km/h | 19887m | 3.5m/s | -55.4°C | 4.6% | 0hPa | 2.6V | 00:00:00 | 00:00:00 | 00:00:00 | |
| OE5DRO-10 | 2026-08-31 12:12:52 | 46.21029 | 14.10388 | 73° | 22km/h | 19882m | 5.1m/s | -55.5°C | 4.6% | 0hPa | 2.6V | 00:00:00 | 00:00:00 | 00:00:00 | |
| PG1ADW-2 | 2026-08-31 12:12:47 | 46.21017 | 14.10353 | 54° | 22km/h | 19857m | 3.8m/s | -55.5°C | 4.5% | 0hPa | 2.6V | 00:00:00 | 01:47:14 | 00:00:00 | |
| 9A1FER-3 | 2026-08-31 12:12:45 | 46.21010 | 14.10340 | 57° | 22km/h | 19848m | 5.1m/s | -55.6°C | 4.5% | 0hPa | 2.6V | 00:00:00 | 01:47:12 | 00:00:00 | |
| IN3HCDX1 | 2026-08-31 12:12:44 | 46.21010 | 14.10340 | 57° | 24km/h | 19848m | 5.1m/s | -55.6°C | 2.0% | 0hPa | 2.6V | 00:00:00 | 00:00:00 | 00:00:00 | |
| OE5DXL-15 | 2026-08-31 12:12:38 | 46.20991 | 14.10292 | 61° | 18km/h | 19814m | 4.1m/s | -55.5°C | 4.6% | 0hPa | 2.6V | 00:00:00 | 00:00:00 | 08:30:00 | |
| OE8JPQ-2 | 2026-08-31 12:12:35 | 46.20982 | 14.10274 | 49° | 18km/h | 19800m | 4.0m/s | -55.6°C | 4.5% | 0hPa | 2.7V | 00:00:00 | 00:00:00 | 00:00:00 | |
| OE5WHR-10 | 2026-08-31 12:12:33 | 46.20975 | 14.10263 | 46° | 18km/h | 19791m | 4.6m/s | -55.7°C | 4.5% | 0hPa | 2.6V | 00:00:00 | 01:47:00 | 00:00:00 | |
| 9A1FER-3 | 2026-08-31 12:12:30 | 46.20962 | 14.10249 | 31° | 18km/h | 19776m | 4.6m/s | -55.8°C | 4.5% | 0hPa | 2.6V | 00:00:00 | 01:46:57 | 00:00:00 | |
| PG1ADW-2 | 2026-08-31 12:12:27 | 46.20949 | 14.10235 | 48° | 18km/h | 19761m | 4.6m/s | -55.8°C | 4.7% | 0hPa | 2.6V | 00:00:00 | 00:00:00 | 00:00:00 | |
| PETON7-10 | 2026-08-31 12:12:23 | 46.20939 | 14.10214 | 59° | 16km/h | 19743m | 3.9m/s | -55.9°C | 4.6% | 0hPa | 2.6V | 00:00:00 | 00:00:00 | 00:00:00 | |
| 9A1FER-3 | 2026-08-31 12:12:15 | 46.20918 | 14.10173 | 62° | 16km/h | 19705m | 4.5m/s | -56.3°C | 4.8% | 0hPa | 2.6V | 00:00:00 | 01:46:42 | 00:00:00 | |
| OE5DRO-10 | 2026-08-31 12:12:14 | 46.20917 | 14.10169 | 60° | 15km/h | 19700m | 4.6m/s | -56.3°C | 4.8% | 0hPa | 2.6V | 00:00:00 | 00:00:00 | 00:00:00 | |
| OE5WHR-10 | 2026-08-31 12:12:11 | 46.20910 | 14.10157 | 50° | 13km/h | 19686m | 5.4m/s | -56.4°C | 4.9% | 0hPa | 2.7V | 00:00:00 | 00:00:00 | 00:00:00 | |
| PETON7-10 | 2026-08-31 12:12:08 | 46.20899 | 14.10141 | 39° | 13km/h | 19671m | 5.5m/s | -56.1°C | 4.9% | 0hPa | 2.6V | 00:00:00 | 00:00:00 | 00:00:00 | |
| PG1ADW-2 | 2026-08-31 12:12:07 | 46.20894 | 14.10136 | 33° | 13km/h | 19666m | 4.4m/s | -56.1°C | 4.8% | 0hPa | 2.6V | 00:00:00 | 00:00:00 | 08:30:00 | |
| 9A1FER-3 | 2026-08-31 12:12:00 | 46.20870 | 14.10113 | 17° | 11km/h | 19633m | 4.0m/s | -56.0°C | 4.9% | 0hPa | 2.7V | 00:00:00 | 01:46:27 | 00:00:00 | |
| OE3JTB-15 | 2026-08-31 12:11:58 | 46.20867 | 14.10111 | 43° | 9km/h | 19623m | 4.8m/s | -55.8°C | 4.8% | 0hPa | 2.7V | 00:00:00 | 01:46:25 | 00:00:00 | |
| OE8JPQ-2 | 2026-08-31 12:11:55 | 46.20862 | 14.10106 | 23° | 9km/h | 19609m | 4.4m/s | -55.7°C | 4.8% | 0hPa | 2.7V | 00:00:00 | 01:46:22 | 00:00:00 | |
| PETON7-10 | 2026-08-31 12:11:53 | 46.20857 | 14.10102 | 40° | 9km/h | 19600m | 5.9m/s | -55.7°C | 4.7% | 0hPa | 2.7V | 00:00:00 | 01:46:20 | 00:00:00 | |
| NBG1-10 | 2026-08-31 12:11:49 | 46.20845 | 14.10088 | 24° | 7km/h | 19580m | 4.6m/s | -55.5°C | 4.7% | 0hPa | 2.7V | 00:00:00 | 01:46:16 | 08:30:00 | |
| PG1ADW-2 | 2026-08-31 12:11:47 | 46.20840 | 14.10085 | 13° | 5km/h | 19572m | 4.8m/s | -55.4°C | 4.7% | 0hPa | 2.6V | 00:00:00 | 00:00:00 | 00:00:00 | |
| 9A1FER-3 | 2026-08-31 12:11:45 | 46.20838 | 14.10084 | 58° | 5km/h | 19561m | 4.5m/s | -55.4°C | 4.8% | 0hPa | 2.6V | 00:00:00 | 01:46:12 | 00:00:00 | |
| PETON7-10 | 2026-08-31 12:11:38 | 46.20839 | 14.10073 | 92° | 9km/h | 19528m | 4.7m/s | -55.1°C | 4.6% | 0hPa | 2.6V | 00:00:00 | 00:00:00 | 08:30:00 | |
| OE5DRO-10 | 2026-08-31 12:11:37 | 46.20837 | 14.10068 | 43° | 7km/h | 19518m | 4.2m/s | -55.0°C | 4.5% | 0hPa | 2.7V | 00:00:00 | 00:00:00 | 00:00:00 | |
| OE8JPQ-2 | 2026-08-31 12:11:35 | 46.20836 | 14.10066 | 30° | 7km/h | 19514m | 3.7m/s | -54.9°C | 4.5% | 0hPa | 2.7V | 00:00:00 | 00:00:00 | 08:30:00 | |
| 9A1FER-3 | 2026-08-31 12:11:30 | 46.20830 | 14.10056 | 147° | 7km/h | 19489m | 5.8m/s | -54.8°C | 4.5% | 0hPa | 2.6V | 00:00:00 | 01:45:57 | 00:00:00 | |
| OE3JTB-15 | 2026-08-31 12:11:29 | 46.20832 | 14.10056 | 183° | 13km/h | 19484m | 4.7m/s | -54.8°C | 4.5% | 0hPa | 2.6V | 00:00:00 | 00:00:00 | 00:00:00 | |
| OE5WHR-10 | 2026-08-31 12:11:28 | 46.20833 | 14.10056 | 181° | 9km/h | 19479m | 4.5m/s | -54.8°C | 4.5% | 0hPa | 2.7V | 00:00:00 | 01:45:55 | 00:00:00 | |
| PG1ADW-2 | 2026-08-31 12:11:27 | 46.20836 | 14.10055 | 168° | 9km/h | 19474m | 5.6m/s | -54.7°C | 4.5% | 0hPa | 2.7V | 00:00:00 | 01:45:54 | 00:00:00 | |
| PETON7-10 | 2026-08-31 12:11:23 | 46.20844 | 14.10051 | 163° | 11km/h | 19455m | 4.7m/s | -54.6°C | 4.5% | 0hPa | 2.7V | 00:00:00 | 00:00:00 | 00:00:00 | |
| OE5DRO-10 | 2026-08-31 12:11:17 | 46.20844 | 14.10037 | 74° | 16km/h | 19427m | 5.0m/s | -54.7°C | 4.6% | 0hPa | 2.7V | 00:00:00 | 00:00:00 | 08:30:00 | |
| NBG1-10 | 2026-08-31 12:11:16 | 46.20844 | 14.10035 | 96° | 15km/h | 19423m | 4.0m/s | -54.7°C | 4.5% | 0hPa | 2.7V | 00:00:00 | 01:45:43 | 00:00:00 | |
| 9A1FER-3 | 2026-08-31 12:11:15 | 46.20844 | 14.10034 | 133° | 16km/h | 19419m | 3.8m/s | -54.8°C | 4.6% | 0hPa | 2.7V | 00:00:00 | 01:45:42 | 00:00:00 | |
| IV3AMH | 2026-08-31 12:11:12 | 46.20847 | 14.10030 | 134° | 13km/h | 19409m | 4.9m/s | -54.7°C | 1.7% | 0hPa | 2.7V | 00:00:00 | 00:00:00 | 00:00:00 | |
| OE5DXL-15 | 2026-08-31 12:11:08 | 46.20862 | 14.10014 | 157° | 16km/h | 19385m | 4.9m/s | -54.7°C | 4.5% | 0hPa | 2.7V | 00:00:00 | 00:00:00 | 00:00:00 | |
| OE5WHR-10 | 2026-08-31 12:11:07 | 46.20867 | 14.10011 | 151° | 18km/h | 19379m | 5.3m/s | -54.7°C | 4.5% | 0hPa | 2.7V | 00:00:00 | 00:00:00 | 08:30:00 | |
| 9A1FER-3 | 2026-08-31 12:11:00 | 46.20894 | 14.09974 | 120° | 16km/h | 19349m | 4.0m/s | -54.4°C | 4.6% | 0hPa | 2.7V | 00:00:00 | 01:45:27 | 08:30:00 | |
| OE5DRO-10 | 2026-08-31 12:10:58 | 46.20899 | 14.09961 | 116° | 15km/h | 19339m | 5.2m/s | -54.4°C | 4.5% | 0hPa | 2.6V | 00:00:00 | 00:00:00 | 00:00:00 | |
| OE8JPQ-2 | 2026-08-31 12:10:55 | 46.20903 | 14.09944 | 107° | 15km/h | 19325m | 5.0m/s | -54.4°C | 4.4% | 0hPa | 2.6V | 00:00:00 | 01:45:22 | 00:00:00 | |
| PETON7-10 | 2026-08-31 12:10:52 | 46.20907 | 14.09928 | 122° | 13km/h | 19311m | 4.9m/s | -54.2°C | 4.5% | 0hPa | 2.6V | 00:00:00 | 00:00:00 | 00:00:00 | |
| PG1ADW-2 | 2026-08-31 12:10:47 | 46.20918 | 14.09903 | 122° | 13km/h | 19288m | 5.2m/s | -53.9°C | 4.3% | 0hPa | 2.6V | 00:00:00 | 00:00:00 | 00:00:00 | |
| OE5WHR-10 | 2026-08-31 12:10:46 | 46.20920 | 14.09899 | 125° | 13km/h | 19283m | 4.5m/s | -53.9°C | 4.3% | 0hPa | 2.6V | 00:00:00 | 00:00:00 | 00:00:00 | |
| 9A1FER-3 | 2026-08-31 12:10:45 | 46.20922 | 14.09895 | 121° | 13km/h | 19279m | 3.7m/s | -54.0°C | 4.3% | 0hPa | 2.6V | 00:00:00 | 01:45:12 | 00:00:00 | |
| OE5DRO-10 | 2026-08-31 12:10:40 | 46.20930 | 14.09873 | 125° | 11km/h | 19250m | 4.1m/s | -53.9°C | 4.3% | 0hPa | 2.6V | 00:00:00 | 00:00:00 | 00:00:00 | |
| OE5DXL-15 | 2026-08-31 12:10:38 | 46.20931 | 14.09869 | 119° | 11km/h | 19245m | 5.6m/s | -53.8°C | 4.3% | 0hPa | 2.6V | 00:00:00 | 00:00:00 | 00:00:00 | |
| PETON7-10 | 2026-08-31 12:10:37 | 46.20933 | 14.09864 | 117° | 11km/h | 19240m | 4.5m/s | 0°C | 0% | 0hPa | 2.6V | 00:00:00 | 00:00:00 | 00:00:00 | |
| OE8JPQ-2 | 2026-08-31 12:10:35 | 46.20937 | 14.09854 | 129° | 9km/h | 19231m | 5.8m/s | -54.0°C | 4.3% | 0hPa | 2.6V | 00:00:00 | 00:00:00 | 00:00:00 | |
| OE3JTB-15 | 2026-08-31 12:10:31 | 46.20946 | 14.09838 | 115° | 11km/h | 19211m | 4.5m/s | -54.1°C | 4.4% | 0hPa | 2.6V | 00:00:00 | 01:44:58 | 00:00:00 | |
| 9A1FER-3 | 2026-08-31 12:10:30 | 46.20947 | 14.09834 | 114° | 9km/h | 19206m | 4.5m/s | -54.0°C | 4.4% | 0hPa | 2.6V | 00:00:00 | 01:44:57 | 00:00:00 | |
| PG1ADW-2 | 2026-08-31 12:10:27 | 46.20950 | 14.09828 | 125° | 9km/h | 19192m | 3.7m/s | -54.0°C | 4.3% | 0hPa | 2.6V | 00:00:00 | 00:00:00 | 00:00:00 | |
| OE5WHR-10 | 2026-08-31 12:10:25 | 46.20951 | 14.09825 | 86° | 11km/h | 19183m | 4.6m/s | -54.2°C | 4.4% | 0hPa | 2.6V | 00:00:00 | 01:44:52 | 00:00:00 | |
| PETON7-10 | 2026-08-31 12:10:22 | 46.20952 | 14.09816 | 120° | 11km/h | 19168m | 4.4m/s | 0°C | 0% | 0hPa | 2.6V | 00:00:00 | 01:44:49 | 00:00:00 | |
| OE5DRO-10 | 2026-08-31 12:10:20 | 46.20954 | 14.09810 | 108° | 13km/h | 19160m | 5.0m/s | -54.2°C | 4.3% | 0hPa | 2.6V | 00:00:00 | 00:00:00 | 00:00:00 | |
| 9A1FER-3 | 2026-08-31 12:10:15 | 46.20952 | 14.09792 | 53° | 13km/h | 19136m | 3.8m/s | -54.1°C | 4.2% | 0hPa | 2.6V | 00:00:00 | 01:44:42 | 00:00:00 | |
| OE5DXL-15 | 2026-08-31 12:10:08 | 46.20940 | 14.09768 | 64° | 20km/h | 19104m | 4.9m/s | -54.2°C | 4.2% | 0hPa | 2.6V | 00:00:00 | 00:00:00 | 00:00:00 | |
| PETON7-10 | 2026-08-31 12:10:07 | 46.20938 | 14.09763 | 58° | 15km/h | 19099m | 3.5m/s | 0°C | 0% | 0hPa | 2.6V | 00:00:00 | 00:00:00 | 00:00:00 | |
| OE5WHR-10 | 2026-08-31 12:10:04 | 46.20932 | 14.09754 | 26° | 20km/h | 19086m | 4.2m/s | -54.6°C | 4.3% | 0hPa | 2.6V | 00:00:00 | 00:00:00 | 00:00:00 | |
| OE3JTB-15 | 2026-08-31 12:10:02 | 46.20925 | 14.09750 | 24° | 22km/h | 19076m | 4.3m/s | -55.0°C | 4.4% | 0hPa | 2.6V | 00:00:00 | 00:00:00 | 08:30:00 | |
| OE5DRO-10 | 2026-08-31 12:10:01 | 46.20921 | 14.09747 | 29° | 22km/h | 19072m | 3.8m/s | -55.2°C | 4.5% | 0hPa | 2.6V | 00:00:00 | 00:00:00 | 00:00:00 | |
| 9A1FER-3 | 2026-08-31 12:10:00 | 46.20918 | 14.09745 | 35° | 20km/h | 19067m | 5.3m/s | -55.3°C | 4.5% | 0hPa | 2.6V | 00:00:00 | 01:44:27 | 00:00:00 | |
| IV3AMH | 2026-08-31 12:09:58 | 46.20916 | 14.09742 | 51° | 11km/h | 19062m | 4.0m/s | -55.3°C | 1.8% | 0hPa | 2.6V | 00:00:00 | 00:00:00 | 00:00:00 | |
| OE8JPQ-2 | 2026-08-31 12:09:55 | 46.20909 | 14.09723 | 62° | 24km/h | 19045m | 4.5m/s | -55.2°C | 4.6% | 0hPa | 2.6V | 00:00:00 | 01:44:22 | 00:00:00 | |
| PETON7-10 | 2026-08-31 12:09:52 | 46.20899 | 14.09703 | 49° | 24km/h | 19031m | 3.7m/s | 0°C | 0% | 0hPa | 2.6V | 00:00:00 | 00:00:00 | 00:00:00 | |
| PG1ADW-2 | 2026-08-31 12:09:47 | 46.20875 | 14.09669 | 42° | 22km/h | 19008m | 5.5m/s | -55.2°C | 4.6% | 0hPa | 2.6V | 00:00:00 | 00:00:00 | 00:00:00 | |
| NBG1-10 | 2026-08-31 12:09:45 | 46.20866 | 14.09658 | 45° | 22km/h | 18999m | 4.1m/s | -55.1°C | 4.6% | 0hPa | 2.6V | 00:00:00 | 01:44:12 | 00:00:00 | |
| OE5WHR-10 | 2026-08-31 12:09:43 | 46.20858 | 14.09645 | 49° | 22km/h | 18989m | 4.2m/s | -55.1°C | 4.6% | 0hPa | 2.7V | 00:00:00 | 00:00:00 | 00:00:00 | |
| OE5DXL-15 | 2026-08-31 12:09:38 | 46.20835 | 14.09616 | 41° | 18km/h | 18967m | 5.0m/s | -55.1°C | 4.5% | 0hPa | 2.7V | 00:00:00 | 00:00:00 | 00:00:00 | |
| PETON7-10 | 2026-08-31 12:09:36 | 46.20822 | 14.09596 | 50° | 18km/h | 18953m | 5.5m/s | 0°C | 0% | 0hPa | 2.7V | 00:00:00 | 01:44:02 | 00:00:00 | |
| OE3JTB-15 | 2026-08-31 12:09:33 | 46.20816 | 14.09586 | 51° | 16km/h | 18944m | 3.9m/s | -54.9°C | 4.5% | 0hPa | 2.7V | 00:00:00 | 00:00:00 | 00:00:00 | |
| 9A1FER-3 | 2026-08-31 12:09:30 | 46.20807 | 14.09572 | 40° | 16km/h | 18930m | 4.7m/s | -54.9°C | 4.5% | 0hPa | 2.7V | 00:00:00 | 01:43:57 | 00:00:00 | |
| PG1ADW-2 | 2026-08-31 12:09:27 | 46.20796 | 14.09562 | 35° | 16km/h | 18915m | 5.1m/s | -54.9°C | 4.5% | 0hPa | 2.6V | 00:00:00 | 00:00:00 | 00:00:00 | |
| 9A1FER-10 | 2026-08-31 12:09:23 | 46.20780 | 14.09543 | 40° | 15km/h | 18898m | 4.9m/s | -54.8°C | 4.4% | 0hPa | 2.6V | 00:00:00 | 01:43:50 | 00:00:00 | |
| OE5WHR-10 | 2026-08-31 12:09:21 | 46.20773 | 14.09536 | 28° | 20km/h | 18889m | 4.6m/s | -54.8°C | 4.4% | 0hPa | 2.6V | 00:00:00 | 01:43:48 | 00:00:00 | |
| PETON7-10 | 2026-08-31 12:09:20 | 46.20769 | 14.09533 | 25° | 13km/h | 18884m | 5.4m/s | 0°C | 0% | 0hPa | 2.6V | 00:00:00 | 00:00:00 | 00:00:00 | |
| 9A1FER-3 | 2026-08-31 12:09:15 | 46.20753 | 14.09522 | 36° | 16km/h | 18861m | 4.9m/s | -55.1°C | 4.5% | 0hPa | 2.6V | 00:00:00 | 01:43:42 | 00:00:00 | |
| OE5DXL-15 | 2026-08-31 12:09:08 | 46.20732 | 14.09503 | 37° | 20km/h | 18829m | 5.2m/s | -55.4°C | 4.6% | 0hPa | 2.6V | 00:00:00 | 00:00:00 | 00:00:00 | |
| 9A1FER-10 | 2026-08-31 12:09:07 | 46.20729 | 14.09499 | 49° | 20km/h | 18824m | 4.4m/s | -55.4°C | 4.7% | 0hPa | 2.6V | 00:00:00 | 01:43:34 | 00:00:00 | |
| OE5DRO-10 | 2026-08-31 12:09:05 | 46.20724 | 14.09484 | 84° | 20km/h | 18810m | 4.5m/s | -55.4°C | 4.7% | 0hPa | 2.6V | 00:00:00 | 00:00:00 | 00:00:00 | |
| 9A1FER-3 | 2026-08-31 12:09:00 | 46.20723 | 14.09456 | 81° | 20km/h | 18792m | 3.9m/s | -55.4°C | 4.7% | 0hPa | 2.6V | 00:00:00 | 01:43:27 | 00:00:00 | |
| OE8JPQ-2 | 2026-08-31 12:08:55 | 46.20711 | 14.09421 | 55° | 20km/h | 18768m | 4.3m/s | -55.4°C | 4.6% | 0hPa | 2.6V | 00:00:00 | 01:43:22 | 00:00:00 | |
| NBG1-10 | 2026-08-31 12:08:54 | 46.20707 | 14.09414 | 55° | 20km/h | 18763m | 4.5m/s | -55.3°C | 4.6% | 0hPa | 2.6V | 00:00:00 | 01:43:21 | 00:00:00 | |
| 9A1FER-10 | 2026-08-31 12:08:51 | 46.20699 | 14.09395 | 69° | 20km/h | 18749m | 5.4m/s | -55.3°C | 4.5% | 0hPa | 2.6V | 00:00:00 | 01:43:18 | 00:00:00 | |
| PG1ADW-2 | 2026-08-31 12:08:47 | 46.20692 | 14.09369 | 56° | 20km/h | 18730m | 4.6m/s | -55.2°C | 4.6% | 0hPa | 2.6V | 00:00:00 | 01:43:14 | 00:00:00 | |
| 9A1FER-3 | 2026-08-31 12:08:45 | 46.20685 | 14.09358 | 46° | 20km/h | 18720m | 5.3m/s | -55.2°C | 4.6% | 0hPa | 2.6V | 00:00:00 | 01:43:12 | 08:30:00 | |
| IV3AMH | 2026-08-31 12:08:43 | 46.20681 | 14.09353 | 46° | 24km/h | 18715m | 4.3m/s | -55.3°C | 1.8% | 0hPa | 2.6V | 00:00:00 | 00:00:00 | 00:00:00 | |
| OE5DXL-15 | 2026-08-31 12:08:38 | 46.20662 | 14.09321 | 65° | 20km/h | 18688m | 4.0m/s | -55.1°C | 4.6% | 0hPa | 2.6V | 00:00:00 | 00:00:00 | 00:00:00 | |
| 9A1FER-10 | 2026-08-31 12:08:36 | 46.20658 | 14.09309 | 64° | 20km/h | 18678m | 4.7m/s | -55.0°C | 4.6% | 0hPa | 2.6V | 00:00:00 | 01:43:03 | 08:30:00 | |
| OE8JPQ-2 | 2026-08-31 12:08:35 | 46.20656 | 14.09303 | 64° | 18km/h | 18674m | 3.5m/s | -55.0°C | 4.6% | 0hPa | 2.6V | 00:00:00 | 00:00:00 | 08:30:00 | |
| PG1ADW-2 | 2026-08-31 12:08:27 | 46.20626 | 14.09259 | 34° | 20km/h | 18639m | 4.6m/s | -55.0°C | 4.4% | 0hPa | 2.6V | 00:00:00 | 00:00:00 | 00:00:00 | |
| 9A1FER-10 | 2026-08-31 12:08:20 | 46.20607 | 14.09223 | 67° | 16km/h | 18607m | 5.4m/s | -55.0°C | 4.5% | 0hPa | 2.6V | 00:00:00 | 01:42:47 | 00:00:00 | |
| NBG1-10 | 2026-08-31 12:08:18 | 46.20603 | 14.09213 | 54° | 26km/h | 18598m | 5.2m/s | -55.0°C | 4.5% | 0hPa | 2.6V | 00:00:00 | 01:42:45 | 00:00:00 | |
| OE8JPQ-2 | 2026-08-31 12:08:15 | 46.20594 | 14.09199 | 51° | 27km/h | 18584m | 5.6m/s | -55.0°C | 4.5% | 0hPa | 2.6V | 00:00:00 | 00:00:00 | 00:00:00 | |
| OE5DXL-15 | 2026-08-31 12:08:08 | 46.20573 | 14.09145 | 64° | 29km/h | 18552m | 5.2m/s | -55.1°C | 4.6% | 0hPa | 2.6V | 00:00:00 | 00:00:00 | 08:30:00 | |
| PG1ADW-2 | 2026-08-31 12:08:07 | 46.20570 | 14.09137 | 67° | 29km/h | 18547m | 4.0m/s | -55.1°C | 4.5% | 0hPa | 2.6V | 00:00:00 | 00:00:00 | 00:00:00 | |
| OE3JTB-15 | 2026-08-31 12:08:06 | 46.20567 | 14.09128 | 68° | 29km/h | 18542m | 5.3m/s | -55.2°C | 4.5% | 0hPa | 2.7V | 00:00:00 | 00:00:00 | 00:00:00 | |
| 9A1FER-10 | 2026-08-31 12:08:01 | 46.20556 | 14.09082 | 72° | 29km/h | 18520m | 4.2m/s | -55.1°C | 4.5% | 0hPa | 2.7V | 00:00:00 | 01:42:28 | 00:00:00 | |
| 9A1FER-3 | 2026-08-31 12:08:00 | 46.20554 | 14.09071 | 72° | 29km/h | 18515m | 4.9m/s | -55.2°C | 4.5% | 0hPa | 2.7V | 00:00:00 | 01:42:27 | 00:00:00 | |
| OE8JPQ-2 | 2026-08-31 12:07:55 | 46.20541 | 14.09019 | 71° | 29km/h | 18492m | 3.9m/s | -55.2°C | 4.3% | 0hPa | 2.7V | 00:00:00 | 01:42:22 | 00:00:00 | |
| OE5DRO-10 | 2026-08-31 12:07:48 | 46.20535 | 14.08948 | 100° | 29km/h | 18458m | 4.8m/s | -55.6°C | 4.5% | 0hPa | 2.7V | 00:00:00 | 00:00:00 | 00:00:00 | |
| PG1ADW-2 | 2026-08-31 12:07:47 | 46.20536 | 14.08938 | 100° | 29km/h | 18454m | 4.1m/s | -55.6°C | 4.6% | 0hPa | 2.7V | 00:00:00 | 00:00:00 | 00:00:00 | |
| 9A1FER-3 | 2026-08-31 12:07:45 | 46.20537 | 14.08918 | 88° | 29km/h | 18445m | 4.4m/s | -55.6°C | 4.6% | 0hPa | 2.7V | 00:00:00 | 01:42:12 | 00:00:00 | |
| 9A1FER-10 | 2026-08-31 12:07:44 | 46.20537 | 14.08907 | 84° | 33km/h | 18440m | 4.1m/s | -55.7°C | 4.6% | 0hPa | 2.7V | 00:00:00 | 01:42:11 | 00:00:00 | |
| OE5DXL-15 | 2026-08-31 12:07:38 | 46.20532 | 14.08842 | 84° | 35km/h | 18412m | 3.9m/s | -56.3°C | 4.6% | 0hPa | 2.6V | 00:00:00 | 00:00:00 | 00:00:00 | |
| OE3JTB-15 | 2026-08-31 12:07:37 | 46.20531 | 14.08831 | 86° | 35km/h | 18407m | 5.5m/s | -56.4°C | 4.7% | 0hPa | 2.6V | 00:00:00 | 01:42:04 | 00:00:00 | |
| OE8JPQ-2 | 2026-08-31 12:07:35 | 46.20530 | 14.08810 | 87° | 35km/h | 18398m | 4.1m/s | -56.7°C | 4.8% | 0hPa | 2.6V | 00:00:00 | 00:00:00 | 00:00:00 | |
| OE5DRO-10 | 2026-08-31 12:07:30 | 46.20519 | 14.08748 | 68° | 38km/h | 18371m | 3.8m/s | -56.8°C | 5.0% | 0hPa | 2.6V | 00:00:00 | 00:00:00 | 00:00:00 | |
| IV3AMH | 2026-08-31 12:07:28 | 46.20519 | 14.08748 | 69° | 33km/h | 18371m | 3.8m/s | -56.8°C | 2.0% | 0hPa | 2.6V | 00:00:00 | 00:00:00 | 00:00:00 | |
| PG1ADW-2 | 2026-08-31 12:07:27 | 46.20512 | 14.08724 | 63° | 38km/h | 18361m | 5.4m/s | -56.7°C | 5.0% | 0hPa | 2.6V | 00:00:00 | 01:41:54 | 00:00:00 | |
| OE8JPQ-2 | 2026-08-31 12:07:15 | 46.20456 | 14.08580 | 53° | 37km/h | 18308m | 5.1m/s | -56.5°C | 5.0% | 0hPa | 2.6V | 00:00:00 | 00:00:00 | 00:00:00 | |
| NBG1-10 | 2026-08-31 12:07:12 | 46.20436 | 14.08547 | 51° | 31km/h | 18295m | 4.8m/s | -56.3°C | 4.9% | 0hPa | 2.6V | 00:00:00 | 01:41:39 | 00:00:00 | |
| OE5DRO-10 | 2026-08-31 12:07:10 | 46.20425 | 14.08526 | 57° | 37km/h | 18286m | 4.3m/s | -56.3°C | 4.9% | 0hPa | 2.6V | 00:00:00 | 00:00:00 | 00:00:00 | |
| OE5DXL-15 | 2026-08-31 12:07:08 | 46.20415 | 14.08503 | 57° | 35km/h | 18276m | 4.7m/s | -56.2°C | 4.9% | 0hPa | 2.6V | 00:00:00 | 00:00:00 | 00:00:00 | |
| PG1ADW-2 | 2026-08-31 12:07:07 | 46.20410 | 14.08492 | 57° | 35km/h | 18272m | 3.6m/s | -56.1°C | 4.8% | 0hPa | 2.6V | 00:00:00 | 00:00:00 | 00:00:00 | |
| DO3MHA-11 | 2026-08-31 12:07:04 | 46.20395 | 14.08461 | 52° | 37km/h | 18259m | 3.5m/s | -56.0°C | 4.7% | 0hPa | 2.6V | 00:00:00 | 01:41:31 | 00:00:00 | |
| 9A1FER-3 | 2026-08-31 12:07:00 | 46.20370 | 14.08421 | 44° | 35km/h | 18241m | 5.3m/s | -56.1°C | 4.6% | 0hPa | 2.6V | 00:00:00 | 01:41:27 | 00:00:00 | |
| OE8JPQ-2 | 2026-08-31 12:06:55 | 46.20335 | 14.08374 | 50° | 31km/h | 18218m | 4.9m/s | -56.4°C | 4.8% | 0hPa | 2.6V | 00:00:00 | 01:41:22 | 00:00:00 | |
| OE5DRO-10 | 2026-08-31 12:06:51 | 46.20317 | 14.08336 | 57° | 31km/h | 18200m | 4.7m/s | -56.5°C | 4.9% | 0hPa | 2.6V | 00:00:00 | 00:00:00 | 00:00:00 | |
| 9A1FER-10 | 2026-08-31 12:06:47 | 46.20296 | 14.08303 | 42° | 31km/h | 18182m | 4.4m/s | -56.7°C | 4.8% | 0hPa | 2.6V | 00:00:00 | 01:41:14 | 00:00:00 | |
| 9A1FER-3 | 2026-08-31 12:06:45 | 46.20282 | 14.08286 | 38° | 31km/h | 18173m | 4.3m/s | -56.8°C | 4.9% | 0hPa | 2.6V | 00:00:00 | 01:41:12 | 00:00:00 | |
| OE3JTB-15 | 2026-08-31 12:06:39 | 46.20242 | 14.08242 | 38° | 31km/h | 18145m | 4.1m/s | -56.7°C | 4.9% | 0hPa | 2.6V | 00:00:00 | 00:00:00 | 00:00:00 | |
| OE5DXL-15 | 2026-08-31 12:06:38 | 46.20236 | 14.08236 | 36° | 33km/h | 18141m | 5.3m/s | -56.7°C | 4.9% | 0hPa | 2.6V | 00:00:00 | 00:00:00 | 00:00:00 | |
| OE8JPQ-2 | 2026-08-31 12:06:35 | 46.20219 | 14.08221 | 35° | 31km/h | 18128m | 5.2m/s | -56.7°C | 4.9% | 0hPa | 2.6V | 00:00:00 | 00:00:00 | 00:00:00 | |
| 9A1FER-10 | 2026-08-31 12:06:32 | 46.20201 | 14.08203 | 32° | 35km/h | 18113m | 4.8m/s | -56.6°C | 4.8% | 0hPa | 2.6V | 00:00:00 | 01:40:59 | 00:00:00 | |
| 9A1FER-3 | 2026-08-31 12:06:30 | 46.20187 | 14.08190 | 33° | 33km/h | 18104m | 5.3m/s | -56.6°C | 4.9% | 0hPa | 2.6V | 00:00:00 | 01:40:57 | 08:30:00 | |
| PG1ADW-2 | 2026-08-31 12:06:27 | 46.20165 | 14.08168 | 38° | 33km/h | 18090m | 5.1m/s | -56.6°C | 4.9% | 0hPa | 2.6V | 00:00:00 | 00:00:00 | 00:00:00 | |
| DO3MHA-11 | 2026-08-31 12:06:16 | 46.20105 | 14.08079 | 36° | 38km/h | 18040m | 4.6m/s | -56.9°C | 4.9% | 0hPa | 2.6V | 00:00:00 | 01:40:43 | 00:00:00 | |
| OE8JPQ-2 | 2026-08-31 12:06:15 | 46.20097 | 14.08071 | 35° | 38km/h | 18036m | 3.7m/s | -56.9°C | 4.9% | 0hPa | 2.6V | 00:00:00 | 00:00:00 | 00:00:00 | |
| OE5DRO-10 | 2026-08-31 12:06:13 | 46.20080 | 14.08053 | 39° | 37km/h | 18026m | 4.5m/s | -56.9°C | 4.9% | 0hPa | 2.6V | 00:00:00 | 00:00:00 | 00:00:00 | |
| OE3JTB-15 | 2026-08-31 12:06:10 | 46.20060 | 14.08027 | 45° | 40km/h | 18013m | 4.2m/s | -56.7°C | 4.8% | 0hPa | 2.6V | 00:00:00 | 01:40:37 | 00:00:00 | |
| OE5DXL-15 | 2026-08-31 12:06:08 | 46.20050 | 14.08010 | 55° | 42km/h | 18005m | 4.8m/s | -56.7°C | 4.9% | 0hPa | 2.6V | 00:00:00 | 00:00:00 | 00:00:00 | |
| PG1ADW-2 | 2026-08-31 12:06:07 | 46.20045 | 14.08000 | 59° | 38km/h | 18001m | 5.1m/s | -56.7°C | 4.9% | 0hPa | 2.6V | 00:00:00 | 01:40:34 | 08:30:00 | |
| DO3MHA-11 | 2026-08-31 12:06:04 | 46.20029 | 14.07967 | 51° | 40km/h | 17986m | 4.3m/s | -56.8°C | 4.9% | 0hPa | 2.7V | 00:00:00 | 01:40:31 | 00:00:00 | |
| 9A1FER-3 | 2026-08-31 12:06:00 | 46.20003 | 14.07922 | 48° | 40km/h | 17966m | 5.0m/s | -56.8°C | 4.9% | 0hPa | 2.7V | 00:00:00 | 01:40:27 | 00:00:00 | |
| OE5DRO-10 | 2026-08-31 12:05:55 | 46.19964 | 14.07859 | 61° | 46km/h | 17939m | 3.9m/s | -56.9°C | 4.9% | 0hPa | 2.7V | 00:00:00 | 00:00:00 | 00:00:00 | |
| DO3MHA-11 | 2026-08-31 12:05:53 | 46.19959 | 14.07847 | 61° | 46km/h | 17934m | 4.3m/s | -57.0°C | 4.9% | 0hPa | 2.7V | 00:00:00 | 01:40:20 | 00:00:00 | |
| 9A1FER-10 | 2026-08-31 12:05:52 | 46.19953 | 14.07835 | 58° | 46km/h | 17930m | 4.7m/s | -57.1°C | 4.9% | 0hPa | 2.7V | 00:00:00 | 01:40:19 | 00:00:00 | |
| PG1ADW-2 | 2026-08-31 12:05:47 | 46.19926 | 14.07775 | 62° | 53km/h | 17907m | 3.9m/s | -57.2°C | 4.9% | 0hPa | 2.7V | 00:00:00 | 00:00:00 | 00:00:00 | |
| 9A1FER-3 | 2026-08-31 12:05:45 | 46.19915 | 14.07745 | 59° | 55km/h | 17898m | 5.2m/s | -57.2°C | 4.9% | 0hPa | 2.7V | 00:00:00 | 01:40:12 | 00:00:00 | |
| NBG1-10 | 2026-08-31 12:05:44 | 46.19908 | 14.07730 | 57° | 49km/h | 17893m | 4.7m/s | 0°C | 0% | 0hPa | 2.6V | 00:00:00 | 01:40:11 | 00:00:00 | |
| OE3JTB-15 | 2026-08-31 12:05:41 | 46.19889 | 14.07685 | 61° | 47km/h | 17879m | 3.8m/s | -57.4°C | 5.1% | 0hPa | 2.6V | 00:00:00 | 00:00:00 | 08:30:00 | |
| 9A1FER-10 | 2026-08-31 12:05:37 | 46.19860 | 14.07622 | 51° | 47km/h | 17862m | 4.3m/s | -57.3°C | 5.1% | 0hPa | 2.7V | 00:00:00 | 01:40:04 | 00:00:00 | |
| OE8JPQ-2 | 2026-08-31 12:05:35 | 46.19841 | 14.07588 | 54° | 53km/h | 17852m | 4.9m/s | -57.4°C | 5.1% | 0hPa | 2.7V | 00:00:00 | 00:00:00 | 08:30:00 | |
| 9A1FER-3 | 2026-08-31 12:05:30 | 46.19795 | 14.07504 | 54° | 49km/h | 17830m | 5.2m/s | -57.2°C | 5.1% | 0hPa | 2.6V | 00:00:00 | 01:39:57 | 00:00:00 | |
| PG1ADW-2 | 2026-08-31 12:05:27 | 46.19772 | 14.07457 | 52° | 46km/h | 17817m | 5.3m/s | -57.3°C | 5.1% | 0hPa | 2.6V | 00:00:00 | 00:00:00 | 00:00:00 | |
| DO3MHA-11 | 2026-08-31 12:05:17 | 46.19695 | 14.07315 | 52° | 40km/h | 17771m | 4.2m/s | -57.1°C | 5.1% | 0hPa | 2.6V | 00:00:00 | 01:39:44 | 00:00:00 | |
| OE5DRO-10 | 2026-08-31 12:05:16 | 46.19688 | 14.07302 | 52° | 38km/h | 17767m | 3.8m/s | -57.0°C | 5.0% | 0hPa | 2.6V | 00:00:00 | 00:00:00 | 00:00:00 | |
| OE8JPQ-2 | 2026-08-31 12:05:15 | 46.19680 | 14.07290 | 50° | 38km/h | 17762m | 5.4m/s | -57.1°C | 5.1% | 0hPa | 2.6V | 00:00:00 | 00:00:00 | 00:00:00 | |
| OE5DXL-15 | 2026-08-31 12:05:08 | 46.19634 | 14.07208 | 52° | 35km/h | 17730m | 4.1m/s | -56.9°C | 5.1% | 0hPa | 2.6V | 00:00:00 | 00:00:00 | 00:00:00 | |
| PG1ADW-2 | 2026-08-31 12:05:07 | 46.19628 | 14.07198 | 52° | 37km/h | 17726m | 4.0m/s | -56.9°C | 5.1% | 0hPa | 2.6V | 00:00:00 | 00:00:00 | 00:00:00 | |
| DO3MHA-11 | 2026-08-31 12:05:06 | 46.19622 | 14.07187 | 53° | 37km/h | 17722m | 4.8m/s | -56.9°C | 5.1% | 0hPa | 2.6V | 00:00:00 | 01:39:33 | 00:00:00 | |
| OE3JTB-15 | 2026-08-31 12:05:01 | 46.19589 | 14.07136 | 44° | 33km/h | 17701m | 3.7m/s | -56.8°C | 5.1% | 0hPa | 2.6V | 00:00:00 | 00:00:00 | 00:00:00 | |
| 9A1FER-3 | 2026-08-31 12:05:00 | 46.19583 | 14.07127 | 48° | 35km/h | 17696m | 5.2m/s | -56.8°C | 5.1% | 0hPa | 2.6V | 00:00:00 | 01:39:27 | 00:00:00 | |
| OE5WHR-10 | 2026-08-31 12:04:58 | 46.19572 | 14.07107 | 50° | 33km/h | 17688m | 4.4m/s | -56.7°C | 5.0% | 0hPa | 2.7V | 00:00:00 | 00:00:00 | 00:00:00 | |
| OE5DRO-10 | 2026-08-31 12:04:57 | 46.19566 | 14.07098 | 49° | 33km/h | 17683m | 5.2m/s | -56.7°C | 5.0% | 0hPa | 2.7V | 00:00:00 | 00:00:00 | 00:00:00 | |
| DO3MHA-11 | 2026-08-31 12:04:56 | 46.19560 | 14.07088 | 49° | 35km/h | 17678m | 3.8m/s | -56.8°C | 5.0% | 0hPa | 2.7V | 00:00:00 | 01:39:23 | 00:00:00 | |
| OE8JPQ-2 | 2026-08-31 12:04:55 | 46.19554 | 14.07078 | 51° | 33km/h | 17673m | 5.4m/s | -56.7°C | 5.0% | 0hPa | 2.7V | 00:00:00 | 01:39:22 | 00:00:00 | |
| 9A1FER-10 | 2026-08-31 12:04:51 | 46.19530 | 14.07039 | 41° | 33km/h | 17655m | 3.7m/s | -56.6°C | 4.9% | 0hPa | 2.7V | 00:00:00 | 01:39:18 | 08:30:00 | |
| PG1ADW-2 | 2026-08-31 12:04:47 | 46.19502 | 14.07007 | 38° | 29km/h | 17638m | 4.3m/s | -56.5°C | 4.9% | 0hPa | 2.7V | 00:00:00 | 01:39:14 | 00:00:00 | |
| 9A1FER-3 | 2026-08-31 12:04:45 | 46.19488 | 14.06992 | 37° | 29km/h | 17629m | 3.8m/s | -56.4°C | 4.9% | 0hPa | 2.7V | 00:00:00 | 01:39:12 | 00:00:00 | |
| DO3MHA-11 | 2026-08-31 12:04:43 | 46.19476 | 14.06977 | 45° | 29km/h | 17620m | 3.8m/s | -56.4°C | 4.9% | 0hPa | 2.7V | 00:00:00 | 01:39:10 | 00:00:00 | |
| OE5DXL-15 | 2026-08-31 12:04:38 | 46.19448 | 14.06943 | 39° | 27km/h | 17599m | 5.0m/s | -56.4°C | 5.0% | 0hPa | 2.7V | 00:00:00 | 00:00:00 | 00:00:00 | |
| 9A1FER-10 | 2026-08-31 12:04:36 | 46.19437 | 14.06928 | 47° | 22km/h | 17589m | 3.8m/s | -56.3°C | 4.9% | 0hPa | 2.7V | 00:00:00 | 01:39:03 | 00:00:00 | |
| OE8JPQ-2 | 2026-08-31 12:04:35 | 46.19431 | 14.06920 | 45° | 29km/h | 17585m | 4.6m/s | -56.3°C | 4.8% | 0hPa | 2.7V | 00:00:00 | 00:00:00 | 00:00:00 | |
| DO3MHA-11 | 2026-08-31 12:04:32 | 46.19414 | 14.06899 | 43° | 27km/h | 17571m | 5.3m/s | -56.4°C | 4.8% | 0hPa | 2.6V | 00:00:00 | 01:38:59 | 08:30:00 | |
| OE5WHR-10 | 2026-08-31 12:04:31 | 46.19409 | 14.06892 | 45° | 27km/h | 17567m | 4.2m/s | -56.3°C | 4.8% | 0hPa | 2.7V | 00:00:00 | 00:00:00 | 00:00:00 | |
| 9A1FER-3 | 2026-08-31 12:04:30 | 46.19404 | 14.06885 | 44° | 29km/h | 17562m | 4.5m/s | -56.3°C | 4.8% | 0hPa | 2.7V | 00:00:00 | 01:38:57 | 00:00:00 | |
| PG1ADW-2 | 2026-08-31 12:04:27 | 46.19389 | 14.06866 | 46° | 27km/h | 17549m | 4.6m/s | -56.5°C | 4.8% | 0hPa | 2.7V | 00:00:00 | 00:00:00 | 00:00:00 | |
| DO3MHA-11 | 2026-08-31 12:04:22 | 46.19366 | 14.06826 | 52° | 31km/h | 17526m | 4.4m/s | -56.5°C | 4.9% | 0hPa | 2.7V | 00:00:00 | 01:38:49 | 00:00:00 | |
| IV3AMH | 2026-08-31 12:04:21 | 46.19366 | 14.06826 | 53° | 33km/h | 17526m | 4.4m/s | -56.5°C | 2.1% | 0hPa | 2.7V | 00:00:00 | 00:00:00 | 00:00:00 | |
| OE5DRO-10 | 2026-08-31 12:04:19 | 46.19351 | 14.06796 | 52° | 27km/h | 17513m | 4.3m/s | -56.5°C | 4.9% | 0hPa | 2.7V | 00:00:00 | 00:00:00 | 00:00:00 | |
| 9A1FER-3 | 2026-08-31 12:04:15 | 46.19330 | 14.06768 | 44° | 27km/h | 17495m | 4.6m/s | -56.6°C | 4.9% | 0hPa | 2.7V | 00:00:00 | 01:38:42 | 08:30:00 | |
| DO3MHA-11 | 2026-08-31 12:04:12 | 46.19316 | 14.06751 | 33° | 26km/h | 17481m | 5.0m/s | -56.6°C | 5.0% | 0hPa | 2.6V | 00:00:00 | 01:38:39 | 00:00:00 | |
| OE5WHR-10 | 2026-08-31 12:04:10 | 46.19306 | 14.06742 | 35° | 29km/h | 17472m | 5.1m/s | -56.6°C | 5.0% | 0hPa | 2.6V | 00:00:00 | 01:38:37 | 00:00:00 | |
| OE5DXL-15 | 2026-08-31 12:04:08 | 46.19295 | 14.06730 | 38° | 31km/h | 17464m | 3.2m/s | -56.7°C | 4.9% | 0hPa | 2.6V | 00:00:00 | 00:00:00 | 00:00:00 | |
| PG1ADW-2 | 2026-08-31 12:04:07 | 46.19289 | 14.06724 | 35° | 31km/h | 17460m | 5.1m/s | -56.8°C | 4.9% | 0hPa | 2.6V | 00:00:00 | 00:00:00 | 00:00:00 | |
| OE3JTB-15 | 2026-08-31 12:04:03 | 46.19263 | 14.06698 | 41° | 29km/h | 17441m | 4.8m/s | -56.7°C | 4.8% | 0hPa | 2.6V | 00:00:00 | 00:00:00 | 00:00:00 | |
| DO3MHA-11 | 2026-08-31 12:04:02 | 46.19257 | 14.06690 | 44° | 26km/h | 17437m | 3.4m/s | -56.7°C | 4.8% | 0hPa | 2.6V | 00:00:00 | 01:38:29 | 00:00:00 | |
| 9A1FER-3 | 2026-08-31 12:04:00 | 46.19246 | 14.06675 | 39° | 31km/h | 17428m | 4.7m/s | -56.6°C | 4.8% | 0hPa | 2.6V | 00:00:00 | 01:38:27 | 00:00:00 | |
| OE8JPQ-2 | 2026-08-31 12:03:55 | 46.19218 | 14.06645 | 30° | 31km/h | 17405m | 5.3m/s | -56.6°C | 4.9% | 0hPa | 2.6V | 00:00:00 | 01:38:22 | 00:00:00 | |
| OE5WHR-10 | 2026-08-31 12:03:49 | 46.19173 | 14.06613 | 24° | 26km/h | 17377m | 3.5m/s | -57.2°C | 5.1% | 0hPa | 2.6V | 00:00:00 | 00:00:00 | 08:30:00 | |
| PG1ADW-2 | 2026-08-31 12:03:47 | 46.19159 | 14.06602 | 35° | 20km/h | 17368m | 4.9m/s | -57.4°C | 5.1% | 0hPa | 2.7V | 00:00:00 | 00:00:00 | 00:00:00 | |
| 9A1FER-3 | 2026-08-31 12:03:45 | 46.19147 | 14.06589 | 39° | 26km/h | 17360m | 5.1m/s | -57.4°C | 5.0% | 0hPa | 2.7V | 00:00:00 | 01:38:12 | 00:00:00 | |
| IV3AMH | 2026-08-31 12:03:44 | 46.19147 | 14.06589 | 40° | 29km/h | 17360m | 5.2m/s | -57.4°C | 2.1% | 0hPa | 2.7V | 00:00:00 | 00:00:00 | 00:00:00 | |
| OE5DRO-10 | 2026-08-31 12:03:41 | 46.19125 | 14.06559 | 45° | 20km/h | 17341m | 3.6m/s | -57.4°C | 4.9% | 0hPa | 2.7V | 00:00:00 | 00:00:00 | 00:00:00 | |
| OE5DXL-15 | 2026-08-31 12:03:38 | 46.19107 | 14.06539 | 35° | 18km/h | 17327m | 4.6m/s | -57.7°C | 5.2% | 0hPa | 2.6V | 00:00:00 | 00:00:00 | 08:30:00 | |
| OE3JTB-15 | 2026-08-31 12:03:34 | 46.19085 | 14.06517 | 30° | 18km/h | 17310m | 5.3m/s | -57.8°C | 5.3% | 0hPa | 2.6V | 00:00:00 | 00:00:00 | 00:00:00 | |
| 9A1FER-3 | 2026-08-31 12:03:30 | 46.19072 | 14.06503 | 54° | 16km/h | 17291m | 3.9m/s | -57.9°C | 5.3% | 0hPa | 2.6V | 00:00:00 | 01:37:57 | 00:00:00 | |
| OE5WHR-10 | 2026-08-31 12:03:28 | 46.19068 | 14.06496 | 44° | 16km/h | 17281m | 5.0m/s | -58.0°C | 5.4% | 0hPa | 2.7V | 00:00:00 | 00:00:00 | 00:00:00 | |
| 9A1FER-10 | 2026-08-31 12:03:25 | 46.19060 | 14.06486 | 45° | 18km/h | 17268m | 4.7m/s | -57.9°C | 5.4% | 0hPa | 2.7V | 00:00:00 | 01:37:52 | 00:00:00 | |
| OE5DRO-10 | 2026-08-31 12:03:22 | 46.19049 | 14.06470 | 47° | 20km/h | 17255m | 5.4m/s | -57.9°C | 5.3% | 0hPa | 2.7V | 00:00:00 | 00:00:00 | 00:00:00 | |
| DO3MHA-11 | 2026-08-31 12:03:19 | 46.19040 | 14.06455 | 57° | 16km/h | 17241m | 5.3m/s | -57.9°C | 5.3% | 0hPa | 2.7V | 00:00:00 | 01:37:46 | 00:00:00 | |
| 9A1FER-3 | 2026-08-31 12:03:15 | 46.19036 | 14.06433 | 87° | 20km/h | 17222m | 4.6m/s | -57.8°C | 5.3% | 0hPa | 2.7V | 00:00:00 | 01:37:42 | 00:00:00 | |
| 9A1FER-10 | 2026-08-31 12:03:10 | 46.19034 | 14.06402 | 83° | 22km/h | 17199m | 5.5m/s | -57.8°C | 5.3% | 0hPa | 2.7V | 00:00:00 | 01:37:37 | 00:00:00 | |
| DO3MHA-11 | 2026-08-31 12:03:09 | 46.19033 | 14.06395 | 85° | 24km/h | 17194m | 3.9m/s | -57.9°C | 5.3% | 0hPa | 2.6V | 00:00:00 | 01:37:36 | 00:00:00 | |
| OE5DXL-15 | 2026-08-31 12:03:08 | 46.19033 | 14.06388 | 86° | 27km/h | 17189m | 4.9m/s | -57.9°C | 5.3% | 0hPa | 2.6V | 00:00:00 | 00:00:00 | 00:00:00 | |
| OE5WHR-10 | 2026-08-31 12:03:07 | 46.19032 | 14.06380 | 87° | 26km/h | 17184m | 4.7m/s | -57.8°C | 5.4% | 0hPa | 2.6V | 00:00:00 | 01:37:34 | 00:00:00 | |
| OE5DRO-10 | 2026-08-31 12:03:03 | 46.19035 | 14.06329 | 94° | 26km/h | 17158m | 4.4m/s | -57.8°C | 5.3% | 0hPa | 2.6V | 00:00:00 | 00:00:00 | 00:00:00 | |
| 9A1FER-3 | 2026-08-31 12:03:00 | 46.19036 | 14.06319 | 94° | 26km/h | 17154m | 3.9m/s | -57.8°C | 5.3% | 0hPa | 2.6V | 00:00:00 | 01:37:27 | 00:00:00 | |
| DO3MHA-11 | 2026-08-31 12:02:59 | 46.19036 | 14.06311 | 97° | 26km/h | 17149m | 5.3m/s | -57.8°C | 5.3% | 0hPa | 2.6V | 00:00:00 | 01:37:26 | 00:00:00 | |
| 9A1FER-10 | 2026-08-31 12:02:55 | 46.19038 | 14.06279 | 92° | 29km/h | 17131m | 3.9m/s | -57.9°C | 5.4% | 0hPa | 2.6V | 00:00:00 | 01:37:22 | 00:00:00 | |
| DO3MHA-12 | 2026-08-31 12:02:52 | 46.19040 | 14.06251 | 104° | 29km/h | 17118m | 4.2m/s | -57.9°C | 5.5% | 0hPa | 2.6V | 00:00:00 | 01:37:19 | 00:00:00 | |
| DO3MHA-11 | 2026-08-31 12:02:49 | 46.19045 | 14.06219 | 101° | 31km/h | 17104m | 3.6m/s | -57.9°C | 5.4% | 0hPa | 2.6V | 00:00:00 | 01:37:16 | 00:00:00 | |
| OE5WHR-10 | 2026-08-31 12:02:46 | 46.19049 | 14.06188 | 102° | 37km/h | 17090m | 4.1m/s | -58.1°C | 5.5% | 0hPa | 2.6V | 00:00:00 | 00:00:00 | 00:00:00 | |
| 9A1FER-3 | 2026-08-31 12:02:45 | 46.19051 | 14.06178 | 98° | 35km/h | 17085m | 5.3m/s | -58.1°C | 5.5% | 0hPa | 2.6V | 00:00:00 | 01:37:12 | 00:00:00 | |
| OE5DRO-10 | 2026-08-31 12:02:44 | 46.19051 | 14.06167 | 98° | 37km/h | 17081m | 3.7m/s | -58.1°C | 5.5% | 0hPa | 2.6V | 00:00:00 | 00:00:00 | 08:30:00 | |
| DO3MHA-12 | 2026-08-31 12:02:41 | 46.19056 | 14.06135 | 106° | 38km/h | 17067m | 3.7m/s | -58.1°C | 5.5% | 0hPa | 2.7V | 00:00:00 | 01:37:08 | 08:30:00 | |
| 9A1FER-10 | 2026-08-31 12:02:40 | 46.19058 | 14.06123 | 105° | 38km/h | 17063m | 5.3m/s | -58.0°C | 5.5% | 0hPa | 2.7V | 00:00:00 | 01:37:07 | 00:00:00 | |
| DO3MHA-11 | 2026-08-31 12:02:39 | 46.19061 | 14.06111 | 105° | 38km/h | 17058m | 4.1m/s | -57.9°C | 5.5% | 0hPa | 2.7V | 00:00:00 | 01:37:06 | 00:00:00 | |
| OE5DXL-15 | 2026-08-31 12:02:38 | 46.19063 | 14.06098 | 107° | 44km/h | 17054m | 4.5m/s | -57.9°C | 5.4% | 0hPa | 2.7V | 00:00:00 | 00:00:00 | 00:00:00 | |
| OE8JPQ-2 | 2026-08-31 12:02:35 | 46.19072 | 14.06061 | 111° | 44km/h | 17040m | 5.0m/s | -57.9°C | 5.4% | 0hPa | 2.7V | 00:00:00 | 00:00:00 | 08:30:00 | |
| DO3MHA-12 | 2026-08-31 12:02:31 | 46.19086 | 14.06006 | 114° | 42km/h | 17022m | 5.1m/s | -57.9°C | 5.5% | 0hPa | 2.7V | 00:00:00 | 01:36:58 | 00:00:00 | |
| 9A1FER-3 | 2026-08-31 12:02:30 | 46.19090 | 14.05993 | 115° | 44km/h | 17018m | 4.0m/s | -57.8°C | 5.4% | 0hPa | 2.7V | 00:00:00 | 01:36:57 | 00:00:00 | |
| DO3MHA-11 | 2026-08-31 12:02:29 | 46.19094 | 14.05980 | 114° | 44km/h | 17014m | 4.1m/s | -57.8°C | 5.4% | 0hPa | 2.7V | 00:00:00 | 01:36:56 | 08:30:00 | |
| 9A1FER-10 | 2026-08-31 12:02:25 | 46.19107 | 14.05922 | 108° | 46km/h | 16996m | 5.3m/s | -58.0°C | 5.6% | 0hPa | 2.7V | 00:00:00 | 01:36:52 | 00:00:00 | |
| DO3MHA-11 | 2026-08-31 12:02:19 | 46.19129 | 14.05829 | 113° | 47km/h | 16968m | 3.9m/s | -58.0°C | 5.5% | 0hPa | 2.6V | 00:00:00 | 01:36:46 | 00:00:00 | |
| PG1ADW-2 | 2026-08-31 12:02:17 | 46.19137 | 14.05797 | 111° | 47km/h | 16960m | 5.0m/s | 0°C | 0% | 0hPa | 2.6V | 00:00:00 | 00:00:00 | 00:00:00 | |
| 9A1FER-3 | 2026-08-31 12:02:15 | 46.19145 | 14.05762 | 107° | 44km/h | 16951m | 3.8m/s | -58.1°C | 5.5% | 0hPa | 2.6V | 00:00:00 | 01:36:42 | 00:00:00 | |
| 9A1FER-10 | 2026-08-31 12:02:10 | 46.19156 | 14.05681 | 94° | 44km/h | 16928m | 3.9m/s | -58.4°C | 5.7% | 0hPa | 2.6V | 00:00:00 | 01:36:37 | 00:00:00 | |
| DO3MHA-11 | 2026-08-31 12:02:09 | 46.19157 | 14.05665 | 95° | 44km/h | 16924m | 4.6m/s | -58.4°C | 5.7% | 0hPa | 2.6V | 00:00:00 | 01:36:36 | 00:00:00 | |
| OE5DXL-15 | 2026-08-31 12:02:08 | 46.19158 | 14.05650 | 98° | 49km/h | 16919m | 4.6m/s | -58.5°C | 5.7% | 0hPa | 2.6V | 00:00:00 | 00:00:00 | 00:00:00 | |
| OE5DRO-10 | 2026-08-31 12:02:06 | 46.19161 | 14.05620 | 100° | 47km/h | 16910m | 5.0m/s | -58.7°C | 5.7% | 0hPa | 2.6V | 00:00:00 | 00:00:00 | 00:00:00 | |
| 9A1FER-3 | 2026-08-31 12:02:00 | 46.19174 | 14.05524 | 99° | 49km/h | 16883m | 5.1m/s | -58.9°C | 5.9% | 0hPa | 2.6V | 00:00:00 | 01:36:27 | 08:30:00 | |
| DO3MHA-11 | 2026-08-31 12:01:59 | 46.19176 | 14.05507 | 96° | 49km/h | 16878m | 4.4m/s | -59.0°C | 6.0% | 0hPa | 2.6V | 00:00:00 | 01:36:26 | 00:00:00 | |
| 9A1FER-10 | 2026-08-31 12:01:55 | 46.19179 | 14.05437 | 92° | 57km/h | 16861m | 3.7m/s | -59.0°C | 6.0% | 0hPa | 2.6V | 00:00:00 | 01:36:22 | 00:00:00 | |
| OE3JTB-15 | 2026-08-31 12:01:54 | 46.19179 | 14.05420 | 90° | 53km/h | 16857m | 5.0m/s | -59.0°C | 6.1% | 0hPa | 2.6V | 00:00:00 | 00:00:00 | 00:00:00 | |
| PG1ADW-2 | 2026-08-31 12:01:53 | 46.19179 | 14.05401 | 88° | 53km/h | 16852m | 3.9m/s | 0°C | 0% | 0hPa | 2.6V | 00:00:00 | 01:36:20 | 00:00:00 | |
| IV3AMH | 2026-08-31 12:01:52 | 46.19179 | 14.05401 | 89° | 51km/h | 16852m | 3.9m/s | -59.1°C | 2.9% | 0hPa | 2.6V | 00:00:00 | 00:00:00 | 00:00:00 | |
| DO3MHA-11 | 2026-08-31 12:01:49 | 46.19178 | 14.05329 | 92° | 53km/h | 16836m | 3.0m/s | -59.2°C | 6.2% | 0hPa | 2.6V | 00:00:00 | 01:36:16 | 00:00:00 | |
| OE5DRO-10 | 2026-08-31 12:01:47 | 46.19178 | 14.05294 | 89° | 55km/h | 16827m | 4.4m/s | -59.2°C | 6.2% | 0hPa | 2.6V | 00:00:00 | 00:00:00 | 00:00:00 | |
| 9A1FER-3 | 2026-08-31 12:01:45 | 46.19177 | 14.05256 | 85° | 55km/h | 16819m | 4.0m/s | -59.2°C | 6.1% | 0hPa | 2.7V | 00:00:00 | 01:36:12 | 00:00:00 | |
| OE5WHR-10 | 2026-08-31 12:01:43 | 46.19174 | 14.05218 | 86° | 60km/h | 16809m | 4.1m/s | -59.3°C | 6.0% | 0hPa | 2.7V | 00:00:00 | 00:00:00 | 00:00:00 | |
| OE5DXL-15 | 2026-08-31 12:01:38 | 46.19168 | 14.05120 | 86° | 60km/h | 16787m | 5.3m/s | -59.3°C | 6.0% | 0hPa | 2.6V | 00:00:00 | 00:00:00 | 00:00:00 | |
| DO3MHA-11 | 2026-08-31 12:01:37 | 46.19167 | 14.05100 | 85° | 57km/h | 16783m | 4.0m/s | -59.3°C | 6.0% | 0hPa | 2.6V | 00:00:00 | 01:36:04 | 00:00:00 | |
| OE8JPQ-2 | 2026-08-31 12:01:35 | 46.19163 | 14.05060 | 81° | 62km/h | 16775m | 4.9m/s | -59.4°C | 6.0% | 0hPa | 2.6V | 00:00:00 | 00:00:00 | 00:00:00 | |
| PG1ADW-2 | 2026-08-31 12:01:33 | 46.19158 | 14.05020 | 79° | 62km/h | 16766m | 4.0m/s | 0°C | 0% | 0hPa | 2.6V | 00:00:00 | 00:00:00 | 00:00:00 | |
| 9A1FER-3 | 2026-08-31 12:01:30 | 46.19150 | 14.04959 | 79° | 64km/h | 16752m | 5.0m/s | -60.0°C | 6.3% | 0hPa | 2.6V | 00:00:00 | 01:35:57 | 00:00:00 | |
| OE5DRO-10 | 2026-08-31 12:01:28 | 46.19143 | 14.04917 | 77° | 62km/h | 16743m | 3.2m/s | -60.1°C | 6.4% | 0hPa | 2.6V | 00:00:00 | 00:00:00 | 00:00:00 | |
| DO3MHA-11 | 2026-08-31 12:01:27 | 46.19140 | 14.04896 | 77° | 64km/h | 16739m | 5.2m/s | -60.3°C | 6.5% | 0hPa | 2.6V | 00:00:00 | 01:35:54 | 00:00:00 | |
| OE3JTB-15 | 2026-08-31 12:01:25 | 46.19132 | 14.04853 | 76° | 62km/h | 16730m | 4.5m/s | -60.6°C | 6.7% | 0hPa | 2.6V | 00:00:00 | 01:35:52 | 00:00:00 | |
| DO3MHA-11 | 2026-08-31 12:01:17 | 46.19104 | 14.04669 | 80° | 60km/h | 16695m | 3.6m/s | -60.9°C | 6.7% | 0hPa | 2.6V | 00:00:00 | 01:35:44 | 00:00:00 | |
| 9A1FER-3 | 2026-08-31 12:01:15 | 46.19098 | 14.04623 | 80° | 60km/h | 16687m | 4.1m/s | -61.0°C | 6.8% | 0hPa | 2.6V | 00:00:00 | 01:35:42 | 00:00:00 | |
| OE5WHR-10 | 2026-08-31 12:01:10 | 46.19080 | 14.04518 | 75° | 60km/h | 16665m | 5.1m/s | -61.4°C | 6.9% | 0hPa | 2.6V | 00:00:00 | 00:00:00 | 00:00:00 | |
| OE5DRO-10 | 2026-08-31 12:01:09 | 46.19076 | 14.04499 | 76° | 62km/h | 16660m | 4.0m/s | -61.4°C | 7.0% | 0hPa | 2.6V | 00:00:00 | 00:00:00 | 00:00:00 | |
| OE5DXL-15 | 2026-08-31 12:01:08 | 46.19073 | 14.04479 | 76° | 64km/h | 16656m | 3.8m/s | -61.4°C | 6.9% | 0hPa | 2.6V | 00:00:00 | 00:00:00 | 00:00:00 | |
| DO3MHA-11 | 2026-08-31 12:01:07 | 46.19069 | 14.04458 | 76° | 64km/h | 16652m | 4.7m/s | -61.5°C | 7.0% | 0hPa | 2.6V | 00:00:00 | 01:35:34 | 00:00:00 | |
| 9A1FER-3 | 2026-08-31 12:01:00 | 46.19036 | 14.04301 | 68° | 64km/h | 16622m | 3.6m/s | -61.9°C | 7.2% | 0hPa | 2.6V | 00:00:00 | 01:35:27 | 00:00:00 | |
| PG1ADW-2 | 2026-08-31 12:00:59 | 46.19018 | 14.04237 | 70° | 62km/h | 16609m | 4.3m/s | 0°C | 0% | 0hPa | 2.6V | 00:00:00 | 00:00:00 | 00:00:00 | |
| OE8JPQ-2 | 2026-08-31 12:00:55 | 46.19007 | 14.04198 | 68° | 64km/h | 16601m | 5.1m/s | -62.0°C | 7.6% | 0hPa | 2.6V | 00:00:00 | 01:35:22 | 00:00:00 | |
| DO3MHA-11 | 2026-08-31 12:00:54 | 46.19002 | 14.04178 | 69° | 64km/h | 16596m | 4.0m/s | -61.9°C | 7.5% | 0hPa | 2.6V | 00:00:00 | 01:35:21 | 08:30:00 | |
| OE3JTB-15 | 2026-08-31 12:00:50 | 46.18981 | 14.04097 | 68° | 64km/h | 16578m | 5.0m/s | -61.9°C | 7.4% | 0hPa | 2.7V | 00:00:00 | 00:00:00 | 08:30:00 | |
| OE5WHR-10 | 2026-08-31 12:00:49 | 46.18974 | 14.04076 | 66° | 66km/h | 16574m | 4.2m/s | -62.0°C | 7.4% | 0hPa | 2.7V | 00:00:00 | 01:35:16 | 00:00:00 | |
| 9A1FER-10 | 2026-08-31 12:00:45 | 46.18945 | 14.03980 | 67° | 66km/h | 16557m | 3.7m/s | -61.9°C | 7.3% | 0hPa | 2.7V | 00:00:00 | 01:35:12 | 08:30:00 | |
| DO3MHA-11 | 2026-08-31 12:00:42 | 46.18923 | 14.03910 | 64° | 64km/h | 16545m | 3.5m/s | -61.9°C | 7.4% | 0hPa | 2.6V | 00:00:00 | 01:35:09 | 00:00:00 | |
| PG1ADW-2 | 2026-08-31 12:00:39 | 46.18903 | 14.03847 | 69° | 58km/h | 16531m | 3.8m/s | 0°C | 0% | 0hPa | 2.6V | 00:00:00 | 00:00:00 | 00:00:00 | |
| OE5DXL-15 | 2026-08-31 12:00:38 | 46.18897 | 14.03827 | 68° | 64km/h | 16527m | 4.6m/s | -61.9°C | 7.4% | 0hPa | 2.6V | 00:00:00 | 00:00:00 | 00:00:00 | |
| IV3AMH | 2026-08-31 12:00:37 | 46.18897 | 14.03827 | 69° | 60km/h | 16527m | 4.6m/s | -61.9°C | 3.6% | 0hPa | 2.7V | 00:00:00 | 00:00:00 | 00:00:00 | |
| OE8JPQ-2 | 2026-08-31 12:00:35 | 46.18878 | 14.03765 | 66° | 64km/h | 16514m | 5.1m/s | -61.7°C | 7.3% | 0hPa | 2.7V | 00:00:00 | 00:00:00 | 00:00:00 | |
| DO3MHA-11 | 2026-08-31 12:00:32 | 46.18856 | 14.03701 | 62° | 64km/h | 16500m | 4.7m/s | -61.7°C | 7.3% | 0hPa | 2.6V | 00:00:00 | 01:34:59 | 00:00:00 | |
| OE5DRO-10 | 2026-08-31 12:00:31 | 46.18849 | 14.03680 | 61° | 64km/h | 16496m | 3.2m/s | -61.6°C | 7.3% | 0hPa | 2.6V | 00:00:00 | 00:00:00 | 00:00:00 | |
| 9A1FER-10 | 2026-08-31 12:00:30 | 46.18840 | 14.03659 | 62° | 62km/h | 16492m | 5.0m/s | -61.7°C | 7.3% | 0hPa | 2.6V | 00:00:00 | 01:34:57 | 00:00:00 | |
| OE5WHR-10 | 2026-08-31 12:00:28 | 46.18825 | 14.03618 | 63° | 62km/h | 16483m | 4.3m/s | -61.6°C | 7.2% | 0hPa | 2.6V | 00:00:00 | 00:00:00 | 08:30:00 | |
| DO3MHA-11 | 2026-08-31 12:00:22 | 46.18780 | 14.03493 | 62° | 64km/h | 16457m | 4.8m/s | -61.5°C | 7.3% | 0hPa | 2.6V | 00:00:00 | 01:34:49 | 00:00:00 | |
| OE8JPQ-2 | 2026-08-31 12:00:15 | 46.18719 | 14.03357 | 57° | 58km/h | 16425m | 4.1m/s | -61.2°C | 7.2% | 0hPa | 2.6V | 00:00:00 | 00:00:00 | 00:00:00 | |
| OE5DRO-10 | 2026-08-31 12:00:12 | 46.18695 | 14.03298 | 62° | 58km/h | 16412m | 3.8m/s | -61.1°C | 7.2% | 0hPa | 2.6V | 00:00:00 | 00:00:00 | 00:00:00 | |
| DO3MHA-11 | 2026-08-31 12:00:10 | 46.18680 | 14.03260 | 60° | 58km/h | 16403m | 3.9m/s | -61.0°C | 7.2% | 0hPa | 2.6V | 00:00:00 | 01:34:37 | 00:00:00 | |
| OE5DXL-15 | 2026-08-31 12:00:08 | 46.18666 | 14.03224 | 61° | 57km/h | 16394m | 4.5m/s | -60.9°C | 7.2% | 0hPa | 2.6V | 00:00:00 | 00:00:00 | 00:00:00 | |
| OE5WHR-10 | 2026-08-31 12:00:07 | 46.18659 | 14.03206 | 60° | 57km/h | 16390m | 4.3m/s | 0°C | 0% | 0hPa | 2.6V | 00:00:00 | 00:00:00 | 00:00:00 | |
| PG1ADW-2 | 2026-08-31 12:00:01 | 46.18603 | 14.03081 | 60° | 64km/h | 16359m | 4.8m/s | 0°C | 0% | 0hPa | 2.6V | 00:00:00 | 01:34:27 | 00:00:00 | |
| 9A1FER-3 | 2026-08-31 12:00:00 | 46.18603 | 14.03081 | 60° | 57km/h | 16359m | 4.8m/s | -60.7°C | 7.0% | 0hPa | 2.6V | 00:00:00 | 01:34:27 | 00:00:00 | |
| IV3AMH | 2026-08-31 11:59:59 | 46.18603 | 14.03081 | 61° | 57km/h | 16359m | 4.8m/s | -60.7°C | 3.4% | 0hPa | 2.6V | 00:00:00 | 00:00:00 | 00:00:00 | |
| 9A1FER-10 | 2026-08-31 11:59:58 | 46.18588 | 14.03046 | 58° | 57km/h | 16350m | 3.7m/s | -60.6°C | 6.9% | 0hPa | 2.6V | 00:00:00 | 01:34:25 | 00:00:00 | |
| DO3MHA-11 | 2026-08-31 11:59:57 | 46.18580 | 14.03029 | 59° | 58km/h | 16346m | 5.1m/s | -60.6°C | 6.9% | 0hPa | 2.6V | 00:00:00 | 01:34:24 | 00:00:00 | |
| OE8JPQ-2 | 2026-08-31 11:59:55 | 46.18565 | 14.02993 | 58° | 55km/h | 16337m | 4.6m/s | -60.5°C | 6.8% | 0hPa | 2.6V | 00:00:00 | 01:34:22 | 00:00:00 | |
| OE5DRO-10 | 2026-08-31 11:59:53 | 46.18548 | 14.02957 | 56° | 55km/h | 16328m | 4.1m/s | -60.4°C | 6.8% | 0hPa | 2.6V | 00:00:00 | 00:00:00 | 08:30:00 | |
| DO3MHA-11 | 2026-08-31 11:59:47 | 46.18502 | 14.02853 | 60° | 55km/h | 16300m | 5.2m/s | -60.2°C | 6.8% | 0hPa | 2.6V | 00:00:00 | 01:34:14 | 00:00:00 | |
| OE3JTB-15 | 2026-08-31 11:59:46 | 46.18495 | 14.02836 | 62° | 53km/h | 16296m | 3.8m/s | -60.2°C | 6.7% | 0hPa | 2.7V | 00:00:00 | 01:34:13 | 00:00:00 | |
| 9A1FER-3 | 2026-08-31 11:59:45 | 46.18488 | 14.02819 | 61° | 53km/h | 16292m | 3.7m/s | -60.3°C | 6.8% | 0hPa | 2.7V | 00:00:00 | 01:34:12 | 08:30:00 | |
| OE5WHR-10 | 2026-08-31 11:59:43 | 46.18475 | 14.02786 | 56° | 53km/h | 16283m | 4.1m/s | 0°C | 0% | 0hPa | 2.7V | 00:00:00 | 01:34:10 | 00:00:00 | |
| OE5DXL-15 | 2026-08-31 11:59:38 | 46.18435 | 14.02703 | 56° | 53km/h | 16261m | 4.7m/s | -60.3°C | 6.8% | 0hPa | 2.7V | 00:00:00 | 00:00:00 | 00:00:00 | |
| DO3MHA-11 | 2026-08-31 11:59:37 | 46.18427 | 14.02686 | 56° | 53km/h | 16257m | 3.6m/s | -60.3°C | 6.8% | 0hPa | 2.7V | 00:00:00 | 01:34:04 | 00:00:00 | |
| OE8JPQ-2 | 2026-08-31 11:59:35 | 46.18413 | 14.02654 | 60° | 53km/h | 16248m | 4.6m/s | -60.4°C | 6.8% | 0hPa | 2.7V | 00:00:00 | 00:00:00 | 08:30:00 | |
| OE5DRO-10 | 2026-08-31 11:59:34 | 46.18407 | 14.02638 | 60° | 53km/h | 16244m | 3.8m/s | -60.4°C | 6.8% | 0hPa | 2.6V | 00:00:00 | 00:00:00 | 00:00:00 | |
| 9A1FER-3 | 2026-08-31 11:59:30 | 46.18378 | 14.02575 | 57° | 53km/h | 16227m | 4.7m/s | -60.5°C | 6.9% | 0hPa | 2.6V | 00:00:00 | 01:33:57 | 00:00:00 | |
| DO3MHA-11 | 2026-08-31 11:59:27 | 46.18355 | 14.02529 | 51° | 55km/h | 16214m | 4.2m/s | -60.6°C | 7.0% | 0hPa | 2.6V | 00:00:00 | 01:33:54 | 00:00:00 | |
| OE5WHR-10 | 2026-08-31 11:59:22 | 46.18312 | 14.02452 | 51° | 51km/h | 16192m | 5.2m/s | 0°C | 0% | 0hPa | 2.6V | 00:00:00 | 00:00:00 | 00:00:00 | |
| DO3MHA-11 | 2026-08-31 11:59:17 | 46.18266 | 14.02379 | 46° | 51km/h | 16170m | 4.6m/s | -60.2°C | 6.9% | 0hPa | 2.6V | 00:00:00 | 01:33:44 | 08:30:00 | |
| OE8JPQ-2 | 2026-08-31 11:59:15 | 46.18247 | 14.02352 | 44° | 51km/h | 16161m | 3.8m/s | -60.2°C | 6.8% | 0hPa | 2.7V | 00:00:00 | 00:00:00 | 00:00:00 | |
| OE3JTB-15 | 2026-08-31 11:59:10 | 46.18203 | 14.02284 | 49° | 51km/h | 16138m | 4.1m/s | -60.0°C | 6.8% | 0hPa | 2.7V | 00:00:00 | 00:00:00 | 00:00:00 | |
| OE5DXL-15 | 2026-08-31 11:59:08 | 46.18186 | 14.02254 | 53° | 49km/h | 16128m | 4.2m/s | -59.9°C | 6.8% | 0hPa | 2.6V | 00:00:00 | 01:33:35 | 08:30:00 | |
| 9A1FER-10 | 2026-08-31 11:59:05 | 46.18162 | 14.02212 | 46° | 49km/h | 16116m | 4.3m/s | -59.8°C | 6.8% | 0hPa | 2.7V | 00:00:00 | 01:33:32 | 00:00:00 | |
| DO3MHA-11 | 2026-08-31 11:59:02 | 46.18136 | 14.02173 | 48° | 51km/h | 16102m | 4.1m/s | -59.7°C | 6.8% | 0hPa | 2.7V | 00:00:00 | 01:33:29 | 00:00:00 | |
| 9A1FER-3 | 2026-08-31 11:59:00 | 46.18118 | 14.02148 | 46° | 51km/h | 16093m | 4.3m/s | -59.7°C | 6.7% | 0hPa | 2.7V | 00:00:00 | 01:33:27 | 00:00:00 | |
| OE5WHR-10 | 2026-08-31 11:58:56 | 46.18084 | 14.02091 | 51° | 46km/h | 16075m | 4.1m/s | 0°C | 0% | 0hPa | 2.6V | 00:00:00 | 00:00:00 | 00:00:00 | |
| OE8JPQ-2 | 2026-08-31 11:58:55 | 46.18075 | 14.02077 | 49° | 47km/h | 16071m | 4.6m/s | -59.5°C | 6.7% | 0hPa | 2.6V | 00:00:00 | 01:33:22 | 00:00:00 | |
| DO3MHA-11 | 2026-08-31 11:58:52 | 46.18048 | 14.02035 | 48° | 49km/h | 16058m | 4.7m/s | -59.5°C | 6.6% | 0hPa | 2.6V | 00:00:00 | 01:33:19 | 00:00:00 | |
| OM5KV | 2026-08-31 11:58:51 | 46.18048 | 14.02035 | 49° | 51km/h | 16058m | 4.8m/s | -59.5°C | 3.2% | 0hPa | 2.6V | 00:00:00 | 00:00:00 | 00:00:00 | |
| 9A1FER-10 | 2026-08-31 11:58:50 | 46.18031 | 14.02008 | 45° | 47km/h | 16050m | 5.2m/s | -59.4°C | 6.6% | 0hPa | 2.6V | 00:00:00 | 01:33:17 | 00:00:00 | |
| OM5KV | 2026-08-31 11:58:46 | 46.17996 | 14.01960 | 49° | 47km/h | 16032m | 3.7m/s | -59.3°C | 3.2% | 0hPa | 2.6V | 00:00:00 | 00:00:00 | 00:00:00 | |
| 9A1FER-3 | 2026-08-31 11:58:45 | 46.17988 | 14.01947 | 49° | 46km/h | 16029m | 4.7m/s | -59.3°C | 6.6% | 0hPa | 2.6V | 00:00:00 | 01:33:12 | 00:00:00 | |
| IV3AMH | 2026-08-31 11:58:44 | 46.17988 | 14.01947 | 49° | 47km/h | 16029m | 4.7m/s | -59.4°C | 3.3% | 0hPa | 2.6V | 00:00:00 | 00:00:00 | 00:00:00 | |
| DO3MHA-11 | 2026-08-31 11:58:42 | 46.17963 | 14.01907 | 50° | 44km/h | 16015m | 4.7m/s | -59.2°C | 6.6% | 0hPa | 2.6V | 00:00:00 | 01:33:09 | 00:00:00 | |
| OM5KV | 2026-08-31 11:58:41 | 46.17955 | 14.01893 | 52° | 49km/h | 16011m | 4.7m/s | -59.2°C | 3.2% | 0hPa | 2.6V | 00:00:00 | 00:00:00 | 00:00:00 | |
| OE5DXL-15 | 2026-08-31 11:58:38 | 46.17931 | 14.01856 | 41° | 42km/h | 15997m | 4.4m/s | -59.1°C | 6.7% | 0hPa | 2.6V | 00:00:00 | 00:00:00 | 00:00:00 | |
| OE5DRO-10 | 2026-08-31 11:58:37 | 46.17923 | 14.01847 | 37° | 42km/h | 15993m | 4.0m/s | -59.1°C | 6.7% | 0hPa | 2.6V | 00:00:00 | 00:00:00 | 00:00:00 | |
| OE5WHR-10 | 2026-08-31 11:58:35 | 46.17906 | 14.01828 | 41° | 44km/h | 15984m | 4.1m/s | 0°C | 0% | 0hPa | 2.6V | 00:00:00 | 01:33:02 | 00:00:00 | |
| OM5KV | 2026-08-31 11:58:34 | 46.17899 | 14.01819 | 44° | 42km/h | 15981m | 3.7m/s | -59.0°C | 3.1% | 0hPa | 2.6V | 00:00:00 | 00:00:00 | 00:00:00 | |
| OM5KV | 2026-08-31 11:58:33 | 46.17891 | 14.01808 | 46° | 44km/h | 15977m | 4.2m/s | -59.0°C | 3.1% | 0hPa | 2.6V | 00:00:00 | 00:00:00 | 00:00:00 | |
| DO3MHA-11 | 2026-08-31 11:58:32 | 46.17882 | 14.01796 | 45° | 44km/h | 15972m | 5.0m/s | -59.0°C | 6.5% | 0hPa | 2.6V | 00:00:00 | 01:32:59 | 00:00:00 | |
| 9A1FER-3 | 2026-08-31 11:58:30 | 46.17865 | 14.01773 | 42° | 42km/h | 15962m | 5.4m/s | -58.9°C | 6.6% | 0hPa | 2.6V | 00:00:00 | 01:32:57 | 00:00:00 | |
| OM5KV | 2026-08-31 11:58:26 | 46.17840 | 14.01739 | 48° | 44km/h | 15949m | 5.7m/s | -58.7°C | 3.2% | 0hPa | 2.6V | 00:00:00 | 00:00:00 | 00:00:00 | |
| OM5KV | 2026-08-31 11:58:24 | 46.17826 | 14.01716 | 53° | 40km/h | 15940m | 4.2m/s | -58.6°C | 3.1% | 0hPa | 2.6V | 00:00:00 | 00:00:00 | 00:00:00 | |
| DO3MHA-12 | 2026-08-31 11:58:22 | 46.17807 | 14.01683 | 46° | 44km/h | 15927m | 4.6m/s | -58.4°C | 6.4% | 0hPa | 2.6V | 00:00:00 | 01:32:49 | 00:00:00 | |
| OM5KV | 2026-08-31 11:58:19 | 46.17784 | 14.01651 | 41° | 44km/h | 15912m | 5.2m/s | -58.4°C | 3.1% | 0hPa | 2.6V | 00:00:00 | 00:00:00 | 00:00:00 | |
| OE5DRO-10 | 2026-08-31 11:58:18 | 46.17775 | 14.01641 | 38° | 42km/h | 15907m | 4.9m/s | -58.2°C | 6.3% | 0hPa | 2.6V | 00:00:00 | 00:00:00 | 00:00:00 | |
| OE8JPQ-2 | 2026-08-31 11:58:15 | 46.17750 | 14.01610 | 48° | 42km/h | 15893m | 4.3m/s | -58.1°C | 6.4% | 0hPa | 2.6V | 00:00:00 | 00:00:00 | 00:00:00 | |
| OE5WHR-10 | 2026-08-31 11:58:14 | 46.17743 | 14.01597 | 52° | 49km/h | 15889m | 4.0m/s | 0°C | 0% | 0hPa | 2.6V | 00:00:00 | 00:00:00 | 00:00:00 | |
| DO3MHA-12 | 2026-08-31 11:58:12 | 46.17729 | 14.01572 | 54° | 40km/h | 15879m | 4.5m/s | -58.0°C | 6.3% | 0hPa | 2.6V | 00:00:00 | 01:32:39 | 00:00:00 | |
| 9A1FER-10 | 2026-08-31 11:58:11 | 46.17724 | 14.01560 | 58° | 42km/h | 15875m | 4.0m/s | -57.9°C | 6.3% | 0hPa | 2.7V | 00:00:00 | 01:32:38 | 00:00:00 | |
| OM5KV | 2026-08-31 11:58:09 | 46.17719 | 14.01549 | 62° | 37km/h | 15870m | 5.7m/s | -58.0°C | 3.1% | 0hPa | 2.6V | 00:00:00 | 00:00:00 | 00:00:00 | |
| OE5DXL-15 | 2026-08-31 11:58:08 | 46.17710 | 14.01527 | 54° | 40km/h | 15861m | 3.9m/s | -57.8°C | 6.4% | 0hPa | 2.6V | 00:00:00 | 00:00:00 | 00:00:00 | |
| IV3AMH | 2026-08-31 11:58:07 | 46.17710 | 14.01527 | 54° | 33km/h | 15861m | 3.9m/s | -57.8°C | 3.2% | 0hPa | 2.6V | 00:00:00 | 00:00:00 | 00:00:00 | |
| OM5KV | 2026-08-31 11:58:06 | 46.17697 | 14.01510 | 34° | 38km/h | 15852m | 4.0m/s | -57.6°C | 3.1% | 0hPa | 2.6V | 00:00:00 | 00:00:00 | 00:00:00 | |
| OE5DRO-10 | 2026-08-31 11:57:59 | 46.17634 | 14.01433 | 53° | 38km/h | 15820m | 5.4m/s | -57.5°C | 6.4% | 0hPa | 2.6V | 00:00:00 | 00:00:00 | 00:00:00 | |
| OM5KV | 2026-08-31 11:57:57 | 46.17628 | 14.01421 | 55° | 40km/h | 15815m | 5.5m/s | -57.5°C | 3.2% | 0hPa | 2.6V | 00:00:00 | 00:00:00 | 00:00:00 | |
| 9A1FER-10 | 2026-08-31 11:57:56 | 46.17616 | 14.01397 | 56° | 38km/h | 15805m | 5.7m/s | -57.5°C | 6.3% | 0hPa | 2.6V | 00:00:00 | 01:32:23 | 00:00:00 | |
| OE8JPQ-2 | 2026-08-31 11:57:55 | 46.17611 | 14.01386 | 56° | 38km/h | 15799m | 5.3m/s | -57.4°C | 6.3% | 0hPa | 2.6V | 00:00:00 | 01:32:22 | 00:00:00 | |
| OM5KV | 2026-08-31 11:57:52 | 46.17595 | 14.01351 | 55° | 35km/h | 15784m | 4.9m/s | -57.3°C | 3.2% | 0hPa | 2.6V | 00:00:00 | 00:00:00 | 00:00:00 | |
| OM5KV | 2026-08-31 11:57:44 | 46.17554 | 14.01271 | 55° | 42km/h | 15752m | 5.5m/s | -57.0°C | 3.2% | 0hPa | 2.6V | 00:00:00 | 00:00:00 | 00:00:00 | |
| OE3JTB-15 | 2026-08-31 11:57:43 | 46.17542 | 14.01247 | 54° | 35km/h | 15744m | 3.8m/s | -56.9°C | 6.3% | 0hPa | 2.6V | 00:00:00 | 00:00:00 | 00:00:00 | |
| DO3MHA-11 | 2026-08-31 11:57:42 | 46.17536 | 14.01236 | 53° | 35km/h | 15739m | 5.3m/s | -56.9°C | 6.4% | 0hPa | 2.6V | 00:00:00 | 01:32:09 | 08:30:00 | |
| 9A1FER-10 | 2026-08-31 11:57:41 | 46.17531 | 14.01226 | 56° | 35km/h | 15734m | 3.7m/s | -56.8°C | 6.5% | 0hPa | 2.6V | 00:00:00 | 01:32:08 | 00:00:00 | |
| 9A1FER-3 | 2026-08-31 11:57:40 | 46.17527 | 14.01216 | 59° | 35km/h | 15730m | 4.1m/s | -56.7°C | 6.4% | 0hPa | 2.6V | 00:00:00 | 01:32:07 | 00:00:00 | |
| OE5DXL-15 | 2026-08-31 11:57:38 | 46.17518 | 14.01195 | 64° | 35km/h | 15722m | 3.8m/s | -56.6°C | 6.3% | 0hPa | 2.6V | 00:00:00 | 00:00:00 | 00:00:00 | |
| OE8JPQ-2 | 2026-08-31 11:57:35 | 46.17503 | 14.01160 | 52° | 33km/h | 15708m | 5.8m/s | -56.8°C | 6.3% | 0hPa | 2.7V | 00:00:00 | 00:00:00 | 00:00:00 | |
| OM5KV | 2026-08-31 11:57:33 | 46.17497 | 14.01149 | 50° | 37km/h | 15702m | 4.6m/s | -56.8°C | 0% | 0hPa | 2.7V | 00:00:00 | 00:00:00 | 00:00:00 | |
| DO3MHA-12 | 2026-08-31 11:57:32 | 46.17486 | 14.01129 | 55° | 33km/h | 15693m | 5.3m/s | -56.5°C | 6.3% | 0hPa | 2.7V | 00:00:00 | 01:31:59 | 00:00:00 | |
| IV3AMH | 2026-08-31 11:57:29 | 46.17477 | 14.01107 | 66° | 33km/h | 15683m | 4.5m/s | -56.5°C | 3.3% | 0hPa | 2.7V | 00:00:00 | 00:00:00 | 00:00:00 | |
| OM5KV | 2026-08-31 11:57:27 | 46.17471 | 14.01086 | 71° | 29km/h | 15673m | 4.1m/s | -56.5°C | 0% | 0hPa | 2.7V | 00:00:00 | 00:00:00 | 00:00:00 | |
| 9A1FER-10 | 2026-08-31 11:57:26 | 46.17467 | 14.01065 | 76° | 33km/h | 15665m | 5.6m/s | -56.5°C | 6.1% | 0hPa | 2.7V | 00:00:00 | 01:31:53 | 08:30:00 | |
| 9A1FER-3 | 2026-08-31 11:57:25 | 46.17465 | 14.01054 | 76° | 33km/h | 15659m | 5.1m/s | -56.5°C | 6.1% | 0hPa | 2.6V | 00:00:00 | 01:31:52 | 00:00:00 | |
| OM5KV | 2026-08-31 11:57:23 | 46.17459 | 14.01031 | 70° | 33km/h | 15650m | 6.0m/s | -56.6°C | 0% | 0hPa | 2.6V | 00:00:00 | 00:00:00 | 00:00:00 | |
| DO3MHA-11 | 2026-08-31 11:57:22 | 46.17456 | 14.01020 | 64° | 33km/h | 15644m | 4.7m/s | -56.5°C | 6.2% | 0hPa | 2.6V | 00:00:00 | 01:31:49 | 00:00:00 | |
| OE5DRO-10 | 2026-08-31 11:57:21 | 46.17453 | 14.01010 | 63° | 37km/h | 15640m | 4.4m/s | -56.6°C | 6.2% | 0hPa | 2.6V | 00:00:00 | 00:00:00 | 00:00:00 | |
| OM5KV | 2026-08-31 11:57:17 | 46.17438 | 14.00965 | 66° | 35km/h | 15620m | 5.0m/s | -57.3°C | 0% | 0hPa | 2.6V | 00:00:00 | 00:00:00 | 00:00:00 | |
| OE8JPQ-2 | 2026-08-31 11:57:15 | 46.17432 | 14.00942 | 71° | 42km/h | 15611m | 5.2m/s | -57.7°C | 6.8% | 0hPa | 2.6V | 00:00:00 | 00:00:00 | 00:00:00 | |
| OE3JTB-15 | 2026-08-31 11:57:14 | 46.17429 | 14.00931 | 76° | 46km/h | 15606m | 3.9m/s | -57.8°C | 7.0% | 0hPa | 2.6V | 00:00:00 | 00:00:00 | 00:00:00 | |
| DO3MHA-12 | 2026-08-31 11:57:12 | 46.17425 | 14.00908 | 73° | 40km/h | 15598m | 4.7m/s | -58.0°C | 7.0% | 0hPa | 2.6V | 00:00:00 | 01:31:39 | 08:30:00 | |
| 9A1FER-10 | 2026-08-31 11:57:11 | 46.17422 | 14.00897 | 70° | 44km/h | 15594m | 3.9m/s | -58.0°C | 7.0% | 0hPa | 2.7V | 00:00:00 | 01:31:38 | 00:00:00 | |
| 9A1FER-3 | 2026-08-31 11:57:10 | 46.17419 | 14.00885 | 70° | 46km/h | 15591m | 3.2m/s | -58.2°C | 7.1% | 0hPa | 2.7V | 00:00:00 | 01:31:37 | 08:30:00 | |
| OE5DXL-15 | 2026-08-31 11:57:08 | 46.17413 | 14.00858 | 75° | 51km/h | 15581m | 4.9m/s | -58.5°C | 7.2% | 0hPa | 2.6V | 00:00:00 | 00:00:00 | 00:00:00 | |
| OM5KV | 2026-08-31 11:57:03 | 46.17397 | 14.00780 | 76° | 46km/h | 15556m | 5.2m/s | -58.6°C | 0% | 0hPa | 2.6V | 00:00:00 | 00:00:00 | 00:00:00 | |
| DO3MHA-11 | 2026-08-31 11:57:02 | 46.17394 | 14.00764 | 75° | 49km/h | 15552m | 3.5m/s | -58.5°C | 7.4% | 0hPa | 2.6V | 00:00:00 | 01:31:29 | 00:00:00 | |
| 9A1FER-10 | 2026-08-31 11:56:56 | 46.17362 | 14.00669 | 62° | 53km/h | 15527m | 4.4m/s | -58.5°C | 7.5% | 0hPa | 2.6V | 00:00:00 | 01:31:23 | 00:00:00 | |
| 9A1FER-3 | 2026-08-31 11:56:55 | 46.17355 | 14.00652 | 61° | 53km/h | 15523m | 4.1m/s | -58.6°C | 7.5% | 0hPa | 2.6V | 00:00:00 | 01:31:22 | 00:00:00 | |
| OM5KV | 2026-08-31 11:56:53 | 46.17349 | 14.00636 | 61° | 51km/h | 15518m | 5.3m/s | -58.7°C | 4.2% | 0hPa | 2.6V | 00:00:00 | 00:00:00 | 00:00:00 | |
| OE3JTB-15 | 2026-08-31 11:56:45 | 46.17305 | 14.00484 | 70° | 62km/h | 15479m | 4.3m/s | -59.1°C | 7.9% | 0hPa | 2.6V | 00:00:00 | 01:31:12 | 00:00:00 | |
| OE5DRO-10 | 2026-08-31 11:56:43 | 46.17294 | 14.00444 | 68° | 60km/h | 15470m | 4.7m/s | -59.2°C | 7.9% | 0hPa | 2.6V | 00:00:00 | 00:00:00 | 00:00:00 | |
| OM5KV | 2026-08-31 11:56:42 | 46.17288 | 14.00425 | 69° | 57km/h | 15466m | 3.4m/s | -59.3°C | 4.5% | 0hPa | 2.6V | 00:00:00 | 00:00:00 | 00:00:00 | |
| 9A1FER-10 | 2026-08-31 11:56:41 | 46.17284 | 14.00406 | 71° | 60km/h | 15462m | 4.9m/s | -59.3°C | 7.9% | 0hPa | 2.6V | 00:00:00 | 01:31:08 | 00:00:00 | |
| OM5KV | 2026-08-31 11:56:40 | 46.17279 | 14.00387 | 75° | 55km/h | 15457m | 4.8m/s | -59.4°C | 0% | 0hPa | 2.6V | 00:00:00 | 00:00:00 | 00:00:00 | |
| OE5DXL-15 | 2026-08-31 11:56:38 | 46.17273 | 14.00348 | 77° | 66km/h | 15449m | 5.0m/s | -59.5°C | 8.0% | 0hPa | 2.6V | 00:00:00 | 00:00:00 | 00:00:00 | |
| OE8JPQ-2 | 2026-08-31 11:56:35 | 46.17263 | 14.00287 | 80° | 66km/h | 15433m | 5.4m/s | -59.4°C | 8.1% | 0hPa | 2.6V | 00:00:00 | 00:00:00 | 08:30:00 | |
| OM5KV | 2026-08-31 11:56:33 | 46.17260 | 14.00266 | 82° | 62km/h | 15429m | 3.8m/s | 0°C | 0% | 0hPa | 2.6V | 00:00:00 | 00:00:00 | 00:00:00 | |
| DO3MHA-12 | 2026-08-31 11:56:32 | 46.17254 | 14.00221 | 78° | 64km/h | 15419m | 5.7m/s | -59.4°C | 8.1% | 0hPa | 2.6V | 00:00:00 | 01:30:59 | 00:00:00 | |
| OM5KV | 2026-08-31 11:56:29 | 46.17247 | 14.00174 | 78° | 66km/h | 15410m | 4.0m/s | -59.5°C | 4.6% | 0hPa | 2.6V | 00:00:00 | 00:00:00 | 00:00:00 | |
| OM5KV | 2026-08-31 11:56:28 | 46.17243 | 14.00151 | 79° | 66km/h | 15406m | 5.2m/s | 0°C | 0% | 0hPa | 2.6V | 00:00:00 | 00:00:00 | 00:00:00 | |
| 9A1FER-10 | 2026-08-31 11:56:26 | 46.17235 | 14.00082 | 81° | 68km/h | 15393m | 4.7m/s | -59.4°C | 8.2% | 0hPa | 2.6V | 00:00:00 | 01:30:53 | 00:00:00 | |
| 9A1FER-3 | 2026-08-31 11:56:25 | 46.17232 | 14.00059 | 81° | 68km/h | 15388m | 4.1m/s | -59.4°C | 8.1% | 0hPa | 2.6V | 00:00:00 | 01:30:52 | 00:00:00 | |
| OE5DRO-10 | 2026-08-31 11:56:24 | 46.17230 | 14.00037 | 83° | 69km/h | 15384m | 4.4m/s | -59.4°C | 8.0% | 0hPa | 2.6V | 00:00:00 | 00:00:00 | 00:00:00 | |
| DO3MHA-11 | 2026-08-31 11:56:22 | 46.17226 | 13.99990 | 84° | 68km/h | 15376m | 3.0m/s | -59.4°C | 8.1% | 0hPa | 2.6V | 00:00:00 | 01:30:49 | 00:00:00 | |
| OM5KV | 2026-08-31 11:56:16 | 46.17212 | 13.99866 | 82° | 73km/h | 15354m | 4.3m/s | 0°C | 0% | 0hPa | 2.6V | 00:00:00 | 00:00:00 | 00:00:00 | |
| OE8JPQ-2 | 2026-08-31 11:56:15 | 46.17206 | 13.99815 | 82° | 73km/h | 15347m | 4.1m/s | -59.5°C | 8.1% | 0hPa | 2.6V | 00:00:00 | 00:00:00 | 00:00:00 | |
| OE3JTB-15 | 2026-08-31 11:56:14 | 46.17204 | 13.99791 | 81° | 75km/h | 15342m | 4.5m/s | -59.6°C | 8.1% | 0hPa | 2.6V | 00:00:00 | 00:00:00 | 08:30:00 | |
| DO3MHA-11 | 2026-08-31 11:56:12 | 46.17199 | 13.99744 | 84° | 71km/h | 15334m | 4.7m/s | -59.8°C | 8.3% | 0hPa | 2.7V | 00:00:00 | 01:30:39 | 08:30:00 | |
| OE5WHR-10 | 2026-08-31 11:56:11 | 46.17198 | 13.99720 | 86° | 77km/h | 15330m | 3.9m/s | 0°C | 0% | 0hPa | 2.6V | 00:00:00 | 00:00:00 | 00:00:00 | |
| 9A1FER-3 | 2026-08-31 11:56:10 | 46.17196 | 13.99695 | 86° | 75km/h | 15326m | 3.9m/s | -59.8°C | 8.2% | 0hPa | 2.6V | 00:00:00 | 01:30:37 | 00:00:00 | |
| OE5DXL-15 | 2026-08-31 11:56:08 | 46.17193 | 13.99644 | 84° | 77km/h | 15317m | 3.8m/s | -59.7°C | 8.1% | 0hPa | 2.6V | 00:00:00 | 00:00:00 | 00:00:00 | |
| OM5KV | 2026-08-31 11:56:07 | 46.17191 | 13.99618 | 85° | 73km/h | 15313m | 4.5m/s | 0°C | 0% | 0hPa | 2.6V | 00:00:00 | 00:00:00 | 00:00:00 | |
| OM5KV | 2026-08-31 11:56:06 | 46.17189 | 13.99592 | 86° | 73km/h | 15309m | 4.6m/s | -59.8°C | 4.6% | 0hPa | 2.6V | 00:00:00 | 00:00:00 | 00:00:00 | |
| OE5DRO-10 | 2026-08-31 11:56:05 | 46.17187 | 13.99565 | 84° | 77km/h | 15304m | 4.4m/s | -59.8°C | 8.1% | 0hPa | 2.6V | 00:00:00 | 00:00:00 | 00:00:00 | |
| DO3MHA-11 | 2026-08-31 11:56:02 | 46.17180 | 13.99484 | 83° | 77km/h | 15291m | 5.1m/s | -59.8°C | 8.0% | 0hPa | 2.6V | 00:00:00 | 01:30:29 | 00:00:00 | |
| 9A1FER-3 | 2026-08-31 11:55:56 | 46.17160 | 13.99290 | 82° | 78km/h | 15260m | 4.3m/s | -59.7°C | 8.1% | 0hPa | 2.6V | 00:00:00 | 01:30:22 | 00:00:00 | |
| DO3MHA-11 | 2026-08-31 11:55:52 | 46.17150 | 13.99208 | 80° | 77km/h | 15246m | 4.9m/s | -59.7°C | 8.1% | 0hPa | 2.6V | 00:00:00 | 01:30:19 | 00:00:00 | |
| OM5KV | 2026-08-31 11:55:50 | 46.17142 | 13.99153 | 80° | 77km/h | 15238m | 3.8m/s | 0°C | 0% | 0hPa | 2.6V | 00:00:00 | 00:00:00 | 00:00:00 | |
| OM5KV | 2026-08-31 11:55:48 | 46.17135 | 13.99099 | 79° | 77km/h | 15229m | 3.7m/s | -59.8°C | 0% | 0hPa | 2.6V | 00:00:00 | 00:00:00 | 00:00:00 | |
| OE5DRO-10 | 2026-08-31 11:55:46 | 46.17127 | 13.99044 | 79° | 80km/h | 15220m | 3.9m/s | -59.7°C | 7.7% | 0hPa | 2.6V | 00:00:00 | 00:00:00 | 00:00:00 | |
| OE3JTB-15 | 2026-08-31 11:55:45 | 46.17123 | 13.99016 | 78° | 80km/h | 15216m | 4.8m/s | -59.7°C | 7.7% | 0hPa | 2.6V | 00:00:00 | 00:00:00 | 00:00:00 | |
| DO3MHA-11 | 2026-08-31 11:55:42 | 46.17109 | 13.98931 | 77° | 80km/h | 15203m | 4.9m/s | -59.6°C | 7.7% | 0hPa | 2.6V | 00:00:00 | 01:30:09 | 00:00:00 | |
| 9A1FER-10 | 2026-08-31 11:55:41 | 46.17104 | 13.98902 | 78° | 80km/h | 15199m | 4.1m/s | -59.6°C | 7.8% | 0hPa | 2.7V | 00:00:00 | 01:30:08 | 00:00:00 | |
| 9A1FER-3 | 2026-08-31 11:55:40 | 46.17100 | 13.98874 | 78° | 78km/h | 15195m | 4.2m/s | -59.6°C | 7.7% | 0hPa | 2.7V | 00:00:00 | 01:30:07 | 00:00:00 | |
| OE5DXL-15 | 2026-08-31 11:55:38 | 46.17090 | 13.98819 | 76° | 80km/h | 15187m | 3.3m/s | -59.7°C | 7.8% | 0hPa | 2.6V | 00:00:00 | 00:00:00 | 00:00:00 | |
| IV3AMH | 2026-08-31 11:55:37 | 46.17090 | 13.98819 | 77° | 77km/h | 15187m | 3.3m/s | -59.7°C | 4.3% | 0hPa | 2.6V | 00:00:00 | 00:00:00 | 00:00:00 | |
| OM5KV | 2026-08-31 11:55:36 | 46.17086 | 13.98791 | 78° | 77km/h | 15183m | 4.6m/s | -59.8°C | 0% | 0hPa | 2.6V | 00:00:00 | 00:00:00 | 00:00:00 | |
| OE8JPQ-2 | 2026-08-31 11:55:35 | 46.17076 | 13.98736 | 77° | 80km/h | 15174m | 3.9m/s | -59.8°C | 7.9% | 0hPa | 2.6V | 00:00:00 | 00:00:00 | 00:00:00 | |
| DO3MHA-11 | 2026-08-31 11:55:32 | 46.17060 | 13.98650 | 75° | 78km/h | 15161m | 4.5m/s | -59.8°C | 7.8% | 0hPa | 2.7V | 00:00:00 | 01:29:59 | 00:00:00 | |
| OM5KV | 2026-08-31 11:55:31 | 46.17060 | 13.98650 | 75° | 82km/h | 15161m | 4.5m/s | -59.9°C | 0% | 0hPa | 2.7V | 00:00:00 | 00:00:00 | 00:00:00 | |
| OE5WHR-10 | 2026-08-31 11:55:27 | 46.17035 | 13.98508 | 76° | 78km/h | 15139m | 3.7m/s | 0°C | 0% | 0hPa | 2.7V | 00:00:00 | 00:00:00 | 00:00:00 | |
| 9A1FER-10 | 2026-08-31 11:55:26 | 46.17030 | 13.98481 | 76° | 82km/h | 15135m | 4.7m/s | -60.0°C | 8.0% | 0hPa | 2.7V | 00:00:00 | 01:29:53 | 00:00:00 | |
| 9A1FER-3 | 2026-08-31 11:55:25 | 46.17026 | 13.98454 | 77° | 82km/h | 15131m | 4.7m/s | -59.9°C | 7.9% | 0hPa | 2.7V | 00:00:00 | 01:29:52 | 00:00:00 | |
| OM5KV | 2026-08-31 11:55:20 | 46.17006 | 13.98345 | 74° | 78km/h | 15114m | 3.7m/s | -59.9°C | 0% | 0hPa | 2.7V | 00:00:00 | 00:00:00 | 00:00:00 | |
| DO3MHA-11 | 2026-08-31 11:55:19 | 46.16993 | 13.98289 | 75° | 84km/h | 15106m | 4.5m/s | -59.8°C | 7.9% | 0hPa | 2.7V | 00:00:00 | 01:29:46 | 00:00:00 | |
| DO3MHA-12 | 2026-08-31 11:55:18 | 46.16988 | 13.98259 | 75° | 84km/h | 15102m | 3.0m/s | -59.8°C | 7.9% | 0hPa | 2.7V | 00:00:00 | 01:29:45 | 00:00:00 | |
| OE3JTB-15 | 2026-08-31 11:55:16 | 46.16977 | 13.98200 | 74° | 78km/h | 15094m | 4.6m/s | -59.9°C | 8.0% | 0hPa | 2.7V | 00:00:00 | 01:29:43 | 00:00:00 | |
| OE8JPQ-2 | 2026-08-31 11:55:15 | 46.16971 | 13.98171 | 74° | 82km/h | 15089m | 3.9m/s | -59.9°C | 8.0% | 0hPa | 2.7V | 00:00:00 | 00:00:00 | 00:00:00 | |
| 9A1FER-10 | 2026-08-31 11:55:10 | 46.16938 | 13.98027 | 72° | 84km/h | 15069m | 4.9m/s | -59.9°C | 7.9% | 0hPa | 2.7V | 00:00:00 | 01:29:37 | 08:30:00 | |
| DO3MHA-11 | 2026-08-31 11:55:09 | 46.16931 | 13.97999 | 72° | 82km/h | 15064m | 4.3m/s | -59.9°C | 8.0% | 0hPa | 2.6V | 00:00:00 | 01:29:36 | 00:00:00 | |
| DO3MHA-12 | 2026-08-31 11:55:08 | 46.16925 | 13.97971 | 71° | 82km/h | 15060m | 4.5m/s | -59.9°C | 8.0% | 0hPa | 2.6V | 00:00:00 | 01:29:35 | 00:00:00 | |
| PG1ADW-2 | 2026-08-31 11:55:07 | 46.16918 | 13.97942 | 70° | 80km/h | 15055m | 4.3m/s | 0°C | 0% | 0hPa | 2.7V | 00:00:00 | 00:00:00 | 00:00:00 | |
| DO3MHA-11 | 2026-08-31 11:54:59 | 46.16856 | 13.97722 | 70° | 84km/h | 15023m | 4.8m/s | -60.0°C | 8.2% | 0hPa | 2.7V | 00:00:00 | 01:29:26 | 00:00:00 | |
| DO3MHA-12 | 2026-08-31 11:54:58 | 46.16849 | 13.97694 | 70° | 84km/h | 15018m | 4.0m/s | -60.0°C | 8.2% | 0hPa | 2.7V | 00:00:00 | 01:29:25 | 00:00:00 | |
| OE8JPQ-2 | 2026-08-31 11:54:55 | 46.16825 | 13.97608 | 67° | 80km/h | 15006m | 3.3m/s | -60.0°C | 8.4% | 0hPa | 2.7V | 00:00:00 | 01:29:22 | 00:00:00 | |
| 9A1FER-10 | 2026-08-31 11:54:53 | 46.16808 | 13.97552 | 65° | 77km/h | 14997m | 4.5m/s | -60.0°C | 8.4% | 0hPa | 2.7V | 00:00:00 | 01:29:20 | 00:00:00 | |
| OM5KV | 2026-08-31 11:54:51 | 46.16798 | 13.97525 | 64° | 82km/h | 14993m | 3.7m/s | 0°C | 0% | 0hPa | 2.7V | 00:00:00 | 00:00:00 | 00:00:00 | |
| DO3MHA-11 | 2026-08-31 11:54:49 | 46.16769 | 13.97445 | 62° | 80km/h | 14980m | 5.0m/s | -60.0°C | 8.4% | 0hPa | 2.7V | 00:00:00 | 01:29:16 | 00:00:00 | |
| DO3MHA-12 | 2026-08-31 11:54:48 | 46.16760 | 13.97420 | 62° | 80km/h | 14975m | 4.0m/s | -60.0°C | 8.4% | 0hPa | 2.7V | 00:00:00 | 01:29:15 | 00:00:00 | |
| OM5KV | 2026-08-31 11:54:47 | 46.16750 | 13.97394 | 63° | 80km/h | 14971m | 4.0m/s | 0°C | 0% | 0hPa | 2.7V | 00:00:00 | 00:00:00 | 00:00:00 | |
| OM5KV | 2026-08-31 11:54:40 | 46.16699 | 13.97237 | 67° | 80km/h | 14946m | 4.7m/s | 0°C | 0% | 0hPa | 2.7V | 00:00:00 | 00:00:00 | 00:00:00 | |
| DO3MHA-11 | 2026-08-31 11:54:39 | 46.16682 | 13.97184 | 63° | 75km/h | 14939m | 3.8m/s | -59.7°C | 8.1% | 0hPa | 2.7V | 00:00:00 | 01:29:06 | 08:30:00 | |
| DO3MHA-12 | 2026-08-31 11:54:38 | 46.16673 | 13.97159 | 62° | 75km/h | 14935m | 4.7m/s | -59.7°C | 8.2% | 0hPa | 2.6V | 00:00:00 | 01:29:05 | 00:00:00 | |
| PG1ADW-2 | 2026-08-31 11:54:36 | 46.16654 | 13.97112 | 60° | 75km/h | 14927m | 3.5m/s | 0°C | 0% | 0hPa | 2.7V | 00:00:00 | 00:00:00 | 00:00:00 | |
| OE8JPQ-2 | 2026-08-31 11:54:35 | 46.16645 | 13.97088 | 61° | 75km/h | 14922m | 4.7m/s | -59.7°C | 8.2% | 0hPa | 2.7V | 00:00:00 | 00:00:00 | 00:00:00 | |
| OE3JTB-15 | 2026-08-31 11:54:30 | 46.16600 | 13.96967 | 62° | 71km/h | 14902m | 3.8m/s | -59.7°C | 8.5% | 0hPa | 2.7V | 00:00:00 | 00:00:00 | 00:00:00 | |
| DO3MHA-11 | 2026-08-31 11:54:29 | 46.16591 | 13.96942 | 62° | 75km/h | 14898m | 4.8m/s | -59.7°C | 8.5% | 0hPa | 2.6V | 00:00:00 | 01:28:56 | 00:00:00 | |
| DO3MHA-12 | 2026-08-31 11:54:28 | 46.16581 | 13.96918 | 61° | 75km/h | 14893m | 4.2m/s | -59.7°C | 8.5% | 0hPa | 2.6V | 00:00:00 | 01:28:55 | 00:00:00 | |
| 9A1FER-3 | 2026-08-31 11:54:25 | 46.16553 | 13.96846 | 62° | 73km/h | 14880m | 4.5m/s | -59.7°C | 8.4% | 0hPa | 2.6V | 00:00:00 | 01:28:52 | 08:30:00 | |
| IV3AMH | 2026-08-31 11:54:23 | 46.16535 | 13.96797 | 63° | 77km/h | 14872m | 3.0m/s | -59.8°C | 5.0% | 0hPa | 2.6V | 00:00:00 | 00:00:00 | 00:00:00 | |
| DO3MHA-11 | 2026-08-31 11:54:19 | 46.16500 | 13.96702 | 61° | 71km/h | 14856m | 4.6m/s | -59.7°C | 8.7% | 0hPa | 2.6V | 00:00:00 | 01:28:46 | 00:00:00 | |
| DO3MHA-12 | 2026-08-31 11:54:18 | 46.16491 | 13.96679 | 61° | 69km/h | 14851m | 3.5m/s | -59.7°C | 8.6% | 0hPa | 2.6V | 00:00:00 | 01:28:45 | 00:00:00 | |
| OE8JPQ-2 | 2026-08-31 11:54:15 | 46.16464 | 13.96611 | 61° | 69km/h | 14838m | 3.9m/s | -59.7°C | 8.6% | 0hPa | 2.6V | 00:00:00 | 00:00:00 | 00:00:00 | |
| OE5DRO-10 | 2026-08-31 11:54:11 | 46.16430 | 13.96522 | 62° | 69km/h | 14821m | 5.2m/s | -59.7°C | 8.7% | 0hPa | 2.6V | 00:00:00 | 00:00:00 | 08:30:00 | |
| 9A1FER-3 | 2026-08-31 11:54:10 | 46.16422 | 13.96501 | 64° | 69km/h | 14816m | 4.2m/s | -59.7°C | 8.8% | 0hPa | 2.7V | 00:00:00 | 01:28:37 | 00:00:00 | |
| DO3MHA-11 | 2026-08-31 11:54:09 | 46.16414 | 13.96479 | 65° | 69km/h | 14812m | 3.7m/s | -59.6°C | 8.8% | 0hPa | 2.7V | 00:00:00 | 01:28:36 | 00:00:00 | |
| DO3MHA-12 | 2026-08-31 11:54:08 | 46.16407 | 13.96456 | 65° | 69km/h | 14807m | 4.7m/s | -59.6°C | 8.7% | 0hPa | 2.7V | 00:00:00 | 01:28:35 | 08:30:00 | |
| OE3JTB-15 | 2026-08-31 11:54:01 | 46.16354 | 13.96295 | 66° | 75km/h | 14779m | 3.2m/s | -59.6°C | 8.5% | 0hPa | 2.7V | 00:00:00 | 00:00:00 | 00:00:00 | |
| DO3MHA-11 | 2026-08-31 11:53:59 | 46.16340 | 13.96249 | 69° | 73km/h | 14770m | 4.1m/s | -59.7°C | 8.8% | 0hPa | 2.7V | 00:00:00 | 01:28:26 | 00:00:00 | |
| DO3MHA-12 | 2026-08-31 11:53:58 | 46.16334 | 13.96225 | 71° | 75km/h | 14766m | 4.3m/s | -59.8°C | 8.9% | 0hPa | 2.7V | 00:00:00 | 01:28:25 | 00:00:00 | |
| 9A1FER-3 | 2026-08-31 11:53:55 | 46.16317 | 13.96151 | 73° | 75km/h | 14753m | 4.0m/s | -59.7°C | 9.0% | 0hPa | 2.7V | 00:00:00 | 01:28:22 | 00:00:00 | |
| OE5DRO-10 | 2026-08-31 11:53:52 | 46.16301 | 13.96075 | 73° | 77km/h | 14741m | 4.5m/s | -59.7°C | 9.1% | 0hPa | 2.7V | 00:00:00 | 00:00:00 | 00:00:00 | |
| DO3MHA-11 | 2026-08-31 11:53:49 | 46.16281 | 13.95995 | 70° | 77km/h | 14729m | 3.7m/s | -59.7°C | 9.2% | 0hPa | 2.7V | 00:00:00 | 01:28:16 | 00:00:00 | |
| DO3MHA-12 | 2026-08-31 11:53:48 | 46.16275 | 13.95969 | 70° | 77km/h | 14725m | 4.5m/s | -59.8°C | 9.2% | 0hPa | 2.7V | 00:00:00 | 01:28:15 | 00:00:00 | |
| IV3AMH | 2026-08-31 11:53:45 | 46.16262 | 13.95918 | 73° | 75km/h | 14717m | 3.8m/s | -59.9°C | 5.7% | 0hPa | 2.7V | 00:00:00 | 00:00:00 | 00:00:00 | |
| 9A1FER-3 | 2026-08-31 11:53:40 | 46.16226 | 13.95759 | 71° | 78km/h | 14692m | 4.7m/s | -59.7°C | 9.3% | 0hPa | 2.7V | 00:00:00 | 01:28:07 | 00:00:00 | |
| DO3MHA-11 | 2026-08-31 11:53:39 | 46.16219 | 13.95732 | 71° | 78km/h | 14688m | 4.0m/s | -59.8°C | 9.3% | 0hPa | 2.6V | 00:00:00 | 01:28:06 | 00:00:00 | |
| DO3MHA-12 | 2026-08-31 11:53:38 | 46.16212 | 13.95704 | 70° | 78km/h | 14684m | 3.3m/s | -59.9°C | 9.4% | 0hPa | 2.6V | 00:00:00 | 01:28:05 | 00:00:00 | |
| OE8JPQ-2 | 2026-08-31 11:53:35 | 46.16193 | 13.95623 | 74° | 77km/h | 14672m | 4.1m/s | -59.9°C | 9.6% | 0hPa | 2.7V | 00:00:00 | 00:00:00 | 08:30:00 | |
| OE5DRO-10 | 2026-08-31 11:53:33 | 46.16182 | 13.95568 | 74° | 75km/h | 14663m | 3.1m/s | -59.8°C | 9.8% | 0hPa | 2.7V | 00:00:00 | 00:00:00 | 00:00:00 | |
| OE3JTB-15 | 2026-08-31 11:53:32 | 46.16176 | 13.95540 | 74° | 75km/h | 14659m | 4.0m/s | -59.8°C | 9.8% | 0hPa | 2.7V | 00:00:00 | 01:27:59 | 00:00:00 | |
| DO3MHA-11 | 2026-08-31 11:53:29 | 46.16159 | 13.95461 | 70° | 75km/h | 14647m | 3.7m/s | -59.8°C | 10.1% | 0hPa | 2.7V | 00:00:00 | 01:27:56 | 00:00:00 | |
| DO3MHA-12 | 2026-08-31 11:53:28 | 46.16152 | 13.95436 | 69° | 75km/h | 14643m | 4.2m/s | -59.8°C | 10.2% | 0hPa | 2.7V | 00:00:00 | 01:27:55 | 00:00:00 | |
| 9A1FER-3 | 2026-08-31 11:53:25 | 46.16129 | 13.95358 | 68° | 73km/h | 14630m | 5.0m/s | -59.9°C | 10.1% | 0hPa | 2.7V | 00:00:00 | 01:27:52 | 00:00:00 | |
| DO3MHA-12 | 2026-08-31 11:53:19 | 46.16078 | 13.95183 | 68° | 73km/h | 14601m | 4.0m/s | -59.8°C | 10.3% | 0hPa | 2.7V | 00:00:00 | 01:27:45 | 00:00:00 | |
| OE8JPQ-2 | 2026-08-31 11:53:15 | 46.16056 | 13.95110 | 67° | 71km/h | 14589m | 4.8m/s | -59.8°C | 10.5% | 0hPa | 2.7V | 00:00:00 | 00:00:00 | 00:00:00 | |
| OE5DRO-10 | 2026-08-31 11:53:14 | 46.16049 | 13.95085 | 68° | 71km/h | 14584m | 4.3m/s | -59.7°C | 10.5% | 0hPa | 2.7V | 00:00:00 | 00:00:00 | 00:00:00 | |
| DO3MHA-11 | 2026-08-31 11:53:09 | 46.16014 | 13.94964 | 70° | 71km/h | 14563m | 4.3m/s | -59.6°C | 10.8% | 0hPa | 2.6V | 00:00:00 | 01:27:36 | 08:30:00 | |
| DO3MHA-12 | 2026-08-31 11:53:08 | 46.16007 | 13.94939 | 70° | 71km/h | 14559m | 3.4m/s | -59.7°C | 10.8% | 0hPa | 2.7V | 00:00:00 | 01:27:35 | 00:00:00 | |
| IV3AMH | 2026-08-31 11:53:07 | 46.16007 | 13.94939 | 71° | 71km/h | 14559m | 3.4m/s | -59.7°C | 7.1% | 0hPa | 2.6V | 00:00:00 | 00:00:00 | 00:00:00 | |
| OE3JTB-15 | 2026-08-31 11:53:03 | 46.15976 | 13.94813 | 72° | 71km/h | 14538m | 3.9m/s | -60.1°C | 11.4% | 0hPa | 2.6V | 00:00:00 | 00:00:00 | 00:00:00 | |
| DO3MHA-11 | 2026-08-31 11:52:59 | 46.15951 | 13.94718 | 69° | 69km/h | 14522m | 3.7m/s | -60.2°C | 11.5% | 0hPa | 2.7V | 00:00:00 | 01:27:26 | 00:00:00 | |
| DO3MHA-12 | 2026-08-31 11:52:58 | 46.15945 | 13.94695 | 71° | 69km/h | 14517m | 4.5m/s | -60.2°C | 11.7% | 0hPa | 2.7V | 00:00:00 | 01:27:25 | 00:00:00 | |
| 9A1FER-3 | 2026-08-31 11:52:55 | 46.15929 | 13.94623 | 73° | 89km/h | 14504m | 4.6m/s | -60.4°C | 12.1% | 0hPa | 2.7V | 00:00:00 | 01:27:22 | 00:00:00 | |
| DO3MHA-11 | 2026-08-31 11:52:49 | 46.15900 | 13.94475 | 76° | 69km/h | 14479m | 3.9m/s | -60.4°C | 12.7% | 0hPa | 2.7V | 00:00:00 | 01:27:16 | 00:00:00 | |
| DO3MHA-12 | 2026-08-31 11:52:48 | 46.15896 | 13.94451 | 77° | 80km/h | 14475m | 4.1m/s | -60.4°C | 12.8% | 0hPa | 2.7V | 00:00:00 | 01:27:15 | 00:00:00 | |
| DO3MHA-11 | 2026-08-31 11:52:39 | 46.15865 | 13.94225 | 81° | 77km/h | 14437m | 4.5m/s | -60.7°C | 14.0% | 0hPa | 2.7V | 00:00:00 | 01:27:06 | 00:00:00 | |
| OE5DXL-15 | 2026-08-31 11:52:38 | 46.15862 | 13.94198 | 82° | 84km/h | 14433m | 3.3m/s | -60.8°C | 14.1% | 0hPa | 2.7V | 00:00:00 | 00:00:00 | 00:00:00 | |
| OE5DRO-10 | 2026-08-31 11:52:36 | 46.15858 | 13.94144 | 85° | 82km/h | 14424m | 4.3m/s | -60.9°C | 14.2% | 0hPa | 2.7V | 00:00:00 | 00:00:00 | 00:00:00 | |
| OE8JPQ-2 | 2026-08-31 11:52:35 | 46.15855 | 13.94117 | 84° | 84km/h | 14420m | 4.0m/s | -61.0°C | 14.3% | 0hPa | 2.7V | 00:00:00 | 00:00:00 | 00:00:00 | |
| OE3JTB-15 | 2026-08-31 11:52:33 | 46.15843 | 13.94006 | 81° | 88km/h | 14403m | 4.7m/s | -61.0°C | 14.6% | 0hPa | 2.7V | 00:00:00 | 00:00:00 | 00:00:00 | |
| IV3AMH | 2026-08-31 11:52:30 | 46.15843 | 13.94006 | 81° | 82km/h | 14403m | 4.7m/s | -61.1°C | 10.3% | 0hPa | 2.7V | 00:00:00 | 00:00:00 | 00:00:00 | |
| DO3MHA-11 | 2026-08-31 11:52:29 | 46.15836 | 13.93946 | 81° | 86km/h | 14394m | 5.5m/s | -61.0°C | 15.3% | 0hPa | 2.7V | 00:00:00 | 01:26:56 | 00:00:00 | |
| OE5DRO-10 | 2026-08-31 11:52:17 | 46.15805 | 13.93577 | 82° | 89km/h | 14342m | 3.3m/s | -61.0°C | 15.9% | 0hPa | 2.7V | 00:00:00 | 00:00:00 | 00:00:00 | |
| OE8JPQ-2 | 2026-08-31 11:52:16 | 46.15799 | 13.93516 | 83° | 89km/h | 14333m | 4.7m/s | -61.0°C | 16.1% | 0hPa | 2.7V | 00:00:00 | 00:00:00 | 00:00:00 | |
| DO3MHA-11 | 2026-08-31 11:52:09 | 46.15786 | 13.93324 | 86° | 91km/h | 14307m | 3.8m/s | -61.0°C | 16.8% | 0hPa | 2.7V | 00:00:00 | 01:26:36 | 00:00:00 | |
| OE5DXL-15 | 2026-08-31 11:52:08 | 46.15784 | 13.93292 | 85° | 97km/h | 14303m | 4.9m/s | -61.0°C | 16.9% | 0hPa | 2.7V | 00:00:00 | 00:00:00 | 00:00:00 | |
| DO3MHA-11 | 2026-08-31 11:51:59 | 46.15759 | 13.92995 | 85° | 93km/h | 14265m | 4.1m/s | -61.7°C | 17.9% | 0hPa | 2.7V | 00:00:00 | 01:26:26 | 00:00:00 | |
| OE5DRO-10 | 2026-08-31 11:51:58 | 46.15756 | 13.92962 | 85° | 99km/h | 14260m | 4.8m/s | -61.7°C | 17.8% | 0hPa | 2.7V | 00:00:00 | 00:00:00 | 00:00:00 | |
| OE8JPQ-2 | 2026-08-31 11:51:55 | 46.15749 | 13.92862 | 84° | 102km/h | 14247m | 4.9m/s | -61.7°C | 17.8% | 0hPa | 2.7V | 00:00:00 | 01:26:22 | 00:00:00 | |
| IV3AMH | 2026-08-31 11:51:53 | 46.15746 | 13.92828 | 83° | 97km/h | 14242m | 3.5m/s | -61.7°C | 13.1% | 0hPa | 2.7V | 00:00:00 | 00:00:00 | 00:00:00 | |
| OE5DRO-10 | 2026-08-31 11:51:39 | 46.15688 | 13.92279 | 82° | 106km/h | 14177m | 4.9m/s | -61.8°C | 18.5% | 0hPa | 2.7V | 00:00:00 | 00:00:00 | 00:00:00 | |
| OE5DXL-15 | 2026-08-31 11:51:38 | 46.15684 | 13.92242 | 81° | 106km/h | 14173m | 4.1m/s | -61.8°C | 18.5% | 0hPa | 2.7V | 00:00:00 | 00:00:00 | 00:00:00 | |
| OE8JPQ-2 | 2026-08-31 11:51:35 | 46.15668 | 13.92129 | 78° | 106km/h | 14159m | 3.9m/s | -61.8°C | 18.8% | 0hPa | 2.7V | 00:00:00 | 00:00:00 | 00:00:00 | |
| OE3JTB-15 | 2026-08-31 11:51:30 | 46.15636 | 13.91899 | 81° | 110km/h | 14133m | 4.6m/s | -61.7°C | 18.4% | 0hPa | 2.7V | 00:00:00 | 00:00:00 | 08:30:00 | |
| DO3MHA-11 | 2026-08-31 11:51:24 | 46.15612 | 13.91711 | 80° | 106km/h | 14112m | 3.6m/s | -62.0°C | 18.1% | 0hPa | 2.7V | 00:00:00 | 01:25:51 | 00:00:00 | |
| OE5DRO-10 | 2026-08-31 11:51:20 | 46.15591 | 13.91560 | 78° | 104km/h | 14094m | 5.2m/s | -62.0°C | 18.5% | 0hPa | 2.7V | 00:00:00 | 00:00:00 | 08:30:00 | |
| OE8JPQ-2 | 2026-08-31 11:51:15 | 46.15560 | 13.91375 | 76° | 104km/h | 14071m | 5.7m/s | -62.0°C | 18.6% | 0hPa | 2.7V | 00:00:00 | 00:00:00 | 00:00:00 | |
| 9A1FER-3 | 2026-08-31 11:51:09 | 46.15520 | 13.91158 | 74° | 104km/h | 14045m | 4.6m/s | -61.9°C | 18.6% | 0hPa | 2.7V | 00:00:00 | 01:25:36 | 00:00:00 | |
| OE5DXL-15 | 2026-08-31 11:51:08 | 46.15512 | 13.91121 | 74° | 104km/h | 14040m | 4.3m/s | -61.9°C | 18.6% | 0hPa | 2.7V | 00:00:00 | 00:00:00 | 00:00:00 | |
| OE5DRO-10 | 2026-08-31 11:51:01 | 46.15464 | 13.90861 | 77° | 104km/h | 14009m | 4.7m/s | -61.8°C | 18.7% | 0hPa | 2.7V | 00:00:00 | 00:00:00 | 00:00:00 | |
| OE8JPQ-2 | 2026-08-31 11:50:55 | 46.15423 | 13.90645 | 74° | 104km/h | 13982m | 4.0m/s | -61.6°C | 18.4% | 0hPa | 2.7V | 00:00:00 | 01:25:22 | 00:00:00 | |
| 9A1FER-3 | 2026-08-31 11:50:54 | 46.15416 | 13.90609 | 73° | 104km/h | 13978m | 4.7m/s | -61.6°C | 18.4% | 0hPa | 2.7V | 00:00:00 | 01:25:21 | 00:00:00 | |
| OE5DXL-15 | 2026-08-31 11:50:38 | 46.15301 | 13.90023 | 74° | 108km/h | 13908m | 4.1m/s | -61.3°C | 17.7% | 0hPa | 2.7V | 00:00:00 | 00:00:00 | 00:00:00 | |
| OE8JPQ-2 | 2026-08-31 11:50:35 | 46.15277 | 13.89914 | 72° | 108km/h | 13895m | 5.1m/s | -61.2°C | 17.7% | 0hPa | 2.7V | 00:00:00 | 00:00:00 | 08:30:00 | |
| DO3MHA-11 | 2026-08-31 11:50:30 | 46.15241 | 13.89730 | 78° | 108km/h | 13873m | 4.7m/s | -61.1°C | 17.8% | 0hPa | 2.7V | 00:00:00 | 01:24:57 | 08:30:00 | |
| OE5DRO-10 | 2026-08-31 11:50:23 | 46.15198 | 13.89460 | 76° | 108km/h | 13844m | 4.0m/s | -61.0°C | 17.5% | 0hPa | 2.7V | 00:00:00 | 00:00:00 | 00:00:00 | |
| DO3MHA-11 | 2026-08-31 11:50:18 | 46.15164 | 13.89269 | 77° | 106km/h | 13821m | 3.8m/s | -60.9°C | 17.4% | 0hPa | 2.7V | 00:00:00 | 01:24:45 | 00:00:00 | |
| OE8JPQ-2 | 2026-08-31 11:50:15 | 46.15145 | 13.89155 | 77° | 108km/h | 13808m | 4.7m/s | -60.8°C | 17.6% | 0hPa | 2.7V | 00:00:00 | 00:00:00 | 00:00:00 | |
| DO3MHA-11 | 2026-08-31 11:50:08 | 46.15098 | 13.88893 | 76° | 108km/h | 13778m | 5.2m/s | -60.6°C | 17.4% | 0hPa | 2.7V | 00:00:00 | 01:24:35 | 00:00:00 | |
| DO3MHA-12 | 2026-08-31 11:50:05 | 46.15079 | 13.88777 | 79° | 108km/h | 13764m | 4.7m/s | -60.5°C | 17.5% | 0hPa | 2.7V | 00:00:00 | 01:24:32 | 08:30:00 | |
| OE5DRO-10 | 2026-08-31 11:50:04 | 46.15074 | 13.88739 | 79° | 108km/h | 13760m | 3.7m/s | -60.5°C | 17.5% | 0hPa | 2.7V | 00:00:00 | 00:00:00 | 00:00:00 | |
| IV3AMH | 2026-08-31 11:50:02 | 46.15063 | 13.88662 | 79° | 110km/h | 13751m | 4.2m/s | -60.5°C | 12.7% | 0hPa | 2.7V | 00:00:00 | 00:00:00 | 00:00:00 | |
| IN3HCDX1 | 2026-08-31 11:50:01 | 46.15063 | 13.88662 | 79° | 110km/h | 13751m | 4.2m/s | -60.5°C | 12.7% | 0hPa | 2.7V | 00:00:00 | 00:00:00 | 00:00:00 | |
| DO3MHA-11 | 2026-08-31 11:49:58 | 46.15038 | 13.88509 | 77° | 108km/h | 13735m | 4.2m/s | -60.4°C | 17.0% | 0hPa | 2.7V | 00:00:00 | 01:24:25 | 00:00:00 | |
| 9A1FER-3 | 2026-08-31 11:49:57 | 46.15031 | 13.88472 | 77° | 110km/h | 13730m | 4.9m/s | -60.4°C | 17.1% | 0hPa | 2.7V | 00:00:00 | 01:24:24 | 08:30:00 | |
| OE8JPQ-2 | 2026-08-31 11:49:55 | 46.15019 | 13.88395 | 79° | 110km/h | 13721m | 4.3m/s | -60.2°C | 17.1% | 0hPa | 2.7V | 00:00:00 | 01:24:22 | 00:00:00 | |
| DO3MHA-12 | 2026-08-31 11:49:53 | 46.15008 | 13.88318 | 79° | 110km/h | 13712m | 4.8m/s | -60.2°C | 17.0% | 0hPa | 2.7V | 00:00:00 | 01:24:20 | 00:00:00 | |
| DO3MHA-11 | 2026-08-31 11:49:48 | 46.14977 | 13.88124 | 77° | 110km/h | 13690m | 4.9m/s | -60.0°C | 17.1% | 0hPa | 2.7V | 00:00:00 | 01:24:15 | 00:00:00 | |
| OE5DRO-10 | 2026-08-31 11:49:45 | 46.14960 | 13.88007 | 80° | 111km/h | 13676m | 4.6m/s | -59.9°C | 17.0% | 0hPa | 2.7V | 00:00:00 | 00:00:00 | 00:00:00 | |
| DO3MHA-12 | 2026-08-31 11:49:43 | 46.14951 | 13.87927 | 81° | 111km/h | 13668m | 4.8m/s | -59.9°C | 16.8% | 0hPa | 2.7V | 00:00:00 | 01:24:10 | 00:00:00 | |
| IN3HCDX1 | 2026-08-31 11:49:41 | 46.14941 | 13.87849 | 80° | 108km/h | 13659m | 2.9m/s | -60.0°C | 12.3% | 0hPa | 2.7V | 00:00:00 | 00:00:00 | 00:00:00 | |
| DO3MHA-11 | 2026-08-31 11:49:38 | 46.14924 | 13.87731 | 78° | 111km/h | 13647m | 3.6m/s | -59.9°C | 16.7% | 0hPa | 2.7V | 00:00:00 | 01:24:05 | 00:00:00 | |
| OE8JPQ-2 | 2026-08-31 11:49:35 | 46.14906 | 13.87612 | 78° | 111km/h | 13634m | 3.3m/s | -59.8°C | 16.4% | 0hPa | 2.7V | 00:00:00 | 00:00:00 | 00:00:00 | |
| DO3MHA-12 | 2026-08-31 11:49:32 | 46.14888 | 13.87491 | 79° | 111km/h | 13622m | 3.5m/s | -59.7°C | 16.3% | 0hPa | 2.7V | 00:00:00 | 01:23:59 | 00:00:00 | |
| DO3MHA-11 | 2026-08-31 11:49:28 | 46.14866 | 13.87333 | 80° | 111km/h | 13605m | 5.5m/s | -59.5°C | 16.1% | 0hPa | 2.7V | 00:00:00 | 01:23:55 | 00:00:00 | |
| IV3AMH | 2026-08-31 11:49:25 | 46.14851 | 13.87215 | 81° | 110km/h | 13591m | 4.3m/s | -59.4°C | 11.7% | 0hPa | 2.7V | 00:00:00 | 00:00:00 | 00:00:00 | |
| DO3MHA-12 | 2026-08-31 11:49:22 | 46.14836 | 13.87096 | 80° | 111km/h | 13577m | 4.5m/s | -59.2°C | 15.8% | 0hPa | 2.7V | 00:00:00 | 01:23:49 | 00:00:00 | |
| IN3HCDX1 | 2026-08-31 11:49:19 | 46.14825 | 13.87016 | 80° | 110km/h | 13568m | 3.3m/s | -59.2°C | 11.7% | 0hPa | 2.7V | 00:00:00 | 00:00:00 | 00:00:00 | |
| DO3MHA-11 | 2026-08-31 11:49:18 | 46.14814 | 13.86937 | 79° | 110km/h | 13559m | 4.9m/s | -59.0°C | 15.9% | 0hPa | 2.7V | 00:00:00 | 01:23:45 | 00:00:00 | |
| OE8JPQ-2 | 2026-08-31 11:49:15 | 46.14798 | 13.86819 | 79° | 110km/h | 13546m | 3.6m/s | -58.9°C | 16.1% | 0hPa | 2.7V | 00:00:00 | 00:00:00 | 00:00:00 | |
| DO3MHA-12 | 2026-08-31 11:49:12 | 46.14782 | 13.86701 | 80° | 108km/h | 13533m | 3.9m/s | -58.7°C | 16.1% | 0hPa | 2.7V | 00:00:00 | 01:23:39 | 00:00:00 | |
| DO3MHA-11 | 2026-08-31 11:49:08 | 46.14764 | 13.86547 | 81° | 110km/h | 13515m | 4.7m/s | -58.6°C | 16.4% | 0hPa | 2.7V | 00:00:00 | 01:23:35 | 00:00:00 | |
| 9A1FER-10 | 2026-08-31 11:49:07 | 46.14759 | 13.86509 | 80° | 108km/h | 13511m | 3.8m/s | -58.6°C | 16.5% | 0hPa | 2.7V | 00:00:00 | 01:23:34 | 00:00:00 | |
| DO3MHA-12 | 2026-08-31 11:49:02 | 46.14734 | 13.86313 | 80° | 111km/h | 13490m | 3.9m/s | -58.5°C | 16.6% | 0hPa | 2.7V | 00:00:00 | 01:23:29 | 00:00:00 | |
| IN3HCDX1 | 2026-08-31 11:48:59 | 46.14724 | 13.86232 | 81° | 111km/h | 13481m | 3.7m/s | -58.4°C | 12.4% | 0hPa | 2.7V | 00:00:00 | 00:00:00 | 00:00:00 | |
| DO3MHA-11 | 2026-08-31 11:48:58 | 46.14714 | 13.86153 | 79° | 106km/h | 13472m | 4.2m/s | -58.4°C | 16.6% | 0hPa | 2.7V | 00:00:00 | 01:23:25 | 08:30:00 | |
| DO3MHA-11 | 2026-08-31 11:48:48 | 46.14668 | 13.85769 | 81° | 111km/h | 13427m | 4.5m/s | -58.0°C | 16.8% | 0hPa | 2.7V | 00:00:00 | 01:23:15 | 00:00:00 | |
| IV3AMH | 2026-08-31 11:48:47 | 46.14668 | 13.85769 | 81° | 115km/h | 13427m | 4.5m/s | -58.0°C | 12.7% | 0hPa | 2.7V | 00:00:00 | 00:00:00 | 00:00:00 | |
| IN3HCDX1 | 2026-08-31 11:48:39 | 46.14624 | 13.85412 | 81° | 108km/h | 13388m | 5.2m/s | -58.0°C | 12.9% | 0hPa | 2.7V | 00:00:00 | 00:00:00 | 00:00:00 | |
| DO3MHA-11 | 2026-08-31 11:48:38 | 46.14619 | 13.85373 | 79° | 111km/h | 13383m | 4.4m/s | -58.0°C | 17.2% | 0hPa | 2.7V | 00:00:00 | 01:23:05 | 00:00:00 | |
| OE8JPQ-2 | 2026-08-31 11:48:35 | 46.14603 | 13.85253 | 79° | 113km/h | 13371m | 3.4m/s | -57.9°C | 16.9% | 0hPa | 2.7V | 00:00:00 | 00:00:00 | 00:00:00 | |
| OE5DRO-10 | 2026-08-31 11:48:29 | 46.14568 | 13.85013 | 80° | 113km/h | 13345m | 4.3m/s | -58.1°C | 16.7% | 0hPa | 2.7V | 00:00:00 | 00:00:00 | 08:30:00 | |
| DO3MHA-11 | 2026-08-31 11:48:28 | 46.14562 | 13.84974 | 79° | 113km/h | 13340m | 4.7m/s | -58.2°C | 16.8% | 0hPa | 2.7V | 00:00:00 | 01:22:55 | 00:00:00 | |
| DO3MHA-11 | 2026-08-31 11:48:18 | 46.14518 | 13.84567 | 82° | 115km/h | 13297m | 4.9m/s | -58.3°C | 16.8% | 0hPa | 2.7V | 00:00:00 | 01:22:45 | 00:00:00 | |
| DO3MHA-12 | 2026-08-31 11:48:16 | 46.14508 | 13.84483 | 82° | 126km/h | 13287m | 5.0m/s | -58.4°C | 16.8% | 0hPa | 2.7V | 00:00:00 | 01:22:43 | 00:00:00 | |
| OE8JPQ-2 | 2026-08-31 11:48:15 | 46.14504 | 13.84442 | 82° | 115km/h | 13283m | 3.8m/s | -58.4°C | 16.8% | 0hPa | 2.7V | 00:00:00 | 00:00:00 | 00:00:00 | |
| OE5DRO-10 | 2026-08-31 11:48:10 | 46.14478 | 13.84237 | 81° | 115km/h | 13262m | 4.7m/s | -58.4°C | 17.2% | 0hPa | 2.7V | 00:00:00 | 00:00:00 | 00:00:00 | |
| DO3MHA-11 | 2026-08-31 11:48:08 | 46.14469 | 13.84153 | 82° | 115km/h | 13254m | 4.8m/s | -58.5°C | 17.3% | 0hPa | 2.7V | 00:00:00 | 01:22:35 | 00:00:00 | |
| OE8JPQ-2 | 2026-08-31 11:47:55 | 46.14411 | 13.83617 | 81° | 119km/h | 13198m | 4.7m/s | -58.3°C | 17.3% | 0hPa | 2.7V | 00:00:00 | 01:22:22 | 00:00:00 | |
| OE5DRO-10 | 2026-08-31 11:47:51 | 46.14393 | 13.83455 | 82° | 120km/h | 13180m | 4.2m/s | -58.2°C | 17.2% | 0hPa | 2.7V | 00:00:00 | 00:00:00 | 00:00:00 | |
| DO3MHA-11 | 2026-08-31 11:47:48 | 46.14380 | 13.83331 | 82° | 120km/h | 13167m | 5.1m/s | -58.3°C | 17.1% | 0hPa | 2.7V | 00:00:00 | 01:22:15 | 00:00:00 | |
| OE5DXL-15 | 2026-08-31 11:47:38 | 46.14338 | 13.82897 | 83° | 120km/h | 13123m | 3.8m/s | -58.2°C | 16.9% | 0hPa | 2.7V | 00:00:00 | 00:00:00 | 00:00:00 | |
| IN3HCDX1 | 2026-08-31 11:47:37 | 46.14338 | 13.82897 | 83° | 122km/h | 13123m | 3.8m/s | -58.2°C | 12.8% | 0hPa | 2.7V | 00:00:00 | 00:00:00 | 00:00:00 | |
| OE8JPQ-2 | 2026-08-31 11:47:35 | 46.14326 | 13.82763 | 83° | 120km/h | 13110m | 4.6m/s | -58.1°C | 16.8% | 0hPa | 2.7V | 00:00:00 | 00:00:00 | 08:30:00 | |
| SOBLACK | 2026-08-31 11:47:34 | 46.14326 | 13.82763 | 84° | 122km/h | 13110m | 4.7m/s | -58.2°C | 12.7% | 0hPa | 2.7V | 00:00:00 | 00:00:00 | 00:00:00 | |
| IV3AMH | 2026-08-31 11:47:33 | 46.14322 | 13.82719 | 84° | 120km/h | 13106m | 4.5m/s | -58.2°C | 12.9% | 0hPa | 2.7V | 00:00:00 | 00:00:00 | 00:00:00 | |
| OE5DRO-10 | 2026-08-31 11:47:32 | 46.14314 | 13.82632 | 84° | 120km/h | 13098m | 4.8m/s | -58.1°C | 17.4% | 0hPa | 2.7V | 00:00:00 | 00:00:00 | 00:00:00 | |
| IN3HCDX1 | 2026-08-31 11:47:16 | 46.14253 | 13.81980 | 85° | 119km/h | 13035m | 4.9m/s | -58.1°C | 13.4% | 0hPa | 2.7V | 00:00:00 | 00:00:00 | 00:00:00 | |
| OE8JPQ-2 | 2026-08-31 11:47:15 | 46.14247 | 13.81895 | 84° | 122km/h | 13026m | 4.7m/s | -58.0°C | 17.9% | 0hPa | 2.7V | 00:00:00 | 00:00:00 | 00:00:00 | |
| OE5DRO-10 | 2026-08-31 11:47:13 | 46.14240 | 13.81811 | 83° | 122km/h | 13018m | 3.5m/s | -57.9°C | 18.2% | 0hPa | 2.7V | 00:00:00 | 00:00:00 | 00:00:00 | |
| OE5DXL-15 | 2026-08-31 11:47:08 | 46.14219 | 13.81596 | 82° | 126km/h | 12998m | 3.7m/s | -57.8°C | 18.3% | 0hPa | 2.7V | 00:00:00 | 00:00:00 | 00:00:00 | |
| DO3MHA-11 | 2026-08-31 11:47:07 | 46.14215 | 13.81552 | 83° | 122km/h | 12994m | 4.6m/s | -57.8°C | 18.3% | 0hPa | 2.7V | 00:00:00 | 01:21:34 | 00:00:00 | |
| OE8JPQ-2 | 2026-08-31 11:46:55 | 46.14177 | 13.81014 | 82° | 130km/h | 12945m | 4.2m/s | -57.6°C | 18.7% | 0hPa | 2.7V | 00:00:00 | 01:21:22 | 00:00:00 | |
| OE5DRO-10 | 2026-08-31 11:46:54 | 46.14173 | 13.80969 | 82° | 130km/h | 12941m | 3.7m/s | -57.6°C | 18.8% | 0hPa | 2.7V | 00:00:00 | 00:00:00 | 00:00:00 | |
| SOBLACK | 2026-08-31 11:46:52 | 46.14168 | 13.80924 | 83° | 128km/h | 12936m | 4.9m/s | -57.7°C | 15.0% | 0hPa | 2.7V | 00:00:00 | 00:00:00 | 00:00:00 | |
| DO3MHA-11 | 2026-08-31 11:46:49 | 46.14156 | 13.80738 | 87° | 130km/h | 12920m | 3.9m/s | -57.7°C | 20.4% | 0hPa | 2.7V | 00:00:00 | 01:21:16 | 08:30:00 | |
| 9A1FER-3 | 2026-08-31 11:46:40 | 46.14133 | 13.80315 | 84° | 139km/h | 12883m | 4.1m/s | -57.6°C | 20.9% | 0hPa | 2.7V | 00:00:00 | 01:21:07 | 00:00:00 | |
| OE5DXL-15 | 2026-08-31 11:46:38 | 46.14125 | 13.80222 | 84° | 128km/h | 12875m | 4.4m/s | -57.6°C | 21.1% | 0hPa | 2.7V | 00:00:00 | 00:00:00 | 00:00:00 | |
| OE8JPQ-2 | 2026-08-31 11:46:35 | 46.14114 | 13.80081 | 84° | 130km/h | 12863m | 3.8m/s | -57.5°C | 21.4% | 0hPa | 2.7V | 00:00:00 | 00:00:00 | 00:00:00 | |
| DO3MHA-11 | 2026-08-31 11:46:34 | 46.14111 | 13.80034 | 84° | 130km/h | 12859m | 4.2m/s | -57.5°C | 21.3% | 0hPa | 2.7V | 00:00:00 | 01:21:01 | 00:00:00 | |
| SOBLACK | 2026-08-31 11:46:31 | 46.14099 | 13.79894 | 84° | 128km/h | 12846m | 4.6m/s | -57.5°C | 17.5% | 0hPa | 2.7V | 00:00:00 | 00:00:00 | 00:00:00 | |
| DO3MHA-11 | 2026-08-31 11:46:24 | 46.14073 | 13.79569 | 85° | 130km/h | 12818m | 4.3m/s | -57.3°C | 22.9% | 0hPa | 2.7V | 00:00:00 | 01:20:51 | 00:00:00 | |
| IV3AMH | 2026-08-31 11:46:20 | 46.14062 | 13.79380 | 87° | 130km/h | 12801m | 4.3m/s | -57.3°C | 19.2% | 0hPa | 2.7V | 00:00:00 | 00:00:00 | 00:00:00 | |
| OE5DRO-10 | 2026-08-31 11:46:16 | 46.14050 | 13.79194 | 84° | 130km/h | 12785m | 3.2m/s | -57.2°C | 23.4% | 0hPa | 2.7V | 00:00:00 | 00:00:00 | 00:00:00 | |
| OE8JPQ-2 | 2026-08-31 11:46:15 | 46.14046 | 13.79148 | 84° | 131km/h | 12782m | 3.3m/s | -57.2°C | 23.1% | 0hPa | 2.7V | 00:00:00 | 00:00:00 | 00:00:00 | |
| DO3MHA-11 | 2026-08-31 11:46:14 | 46.14042 | 13.79103 | 82° | 128km/h | 12778m | 4.4m/s | -57.2°C | 22.9% | 0hPa | 2.7V | 00:00:00 | 01:20:41 | 00:00:00 | |
| SOBLACK | 2026-08-31 11:46:10 | 46.14029 | 13.78967 | 84° | 124km/h | 12767m | 3.5m/s | 0°C | 0% | 0hPa | 2.7V | 00:00:00 | 00:00:00 | 00:00:00 | |
| OE5DXL-15 | 2026-08-31 11:46:08 | 46.14019 | 13.78827 | 86° | 135km/h | 12756m | 3.8m/s | -57.0°C | 23.0% | 0hPa | 2.7V | 00:00:00 | 00:00:00 | 00:00:00 | |
| DO3MHA-11 | 2026-08-31 11:46:04 | 46.14009 | 13.78636 | 85° | 133km/h | 12740m | 3.4m/s | -56.9°C | 23.9% | 0hPa | 2.7V | 00:00:00 | 01:20:31 | 00:00:00 | |
| OE5DRO-10 | 2026-08-31 11:45:57 | 46.13987 | 13.78296 | 84° | 137km/h | 12714m | 4.0m/s | -57.4°C | 25.0% | 0hPa | 2.7V | 00:00:00 | 00:00:00 | 00:00:00 | |
| OE8JPQ-2 | 2026-08-31 11:45:55 | 46.13980 | 13.78200 | 84° | 139km/h | 12707m | 3.6m/s | -57.4°C | 25.1% | 0hPa | 2.7V | 00:00:00 | 01:20:22 | 00:00:00 | |
| IN3HCDX1 | 2026-08-31 11:45:54 | 46.13976 | 13.78152 | 86° | 131km/h | 12703m | 4.2m/s | -57.5°C | 20.4% | 0hPa | 2.7V | 00:00:00 | 00:00:00 | 00:00:00 | |
| SOBLACK | 2026-08-31 11:45:49 | 46.13963 | 13.77960 | 84° | 137km/h | 12687m | 3.0m/s | 0°C | 0% | 0hPa | 2.7V | 00:00:00 | 00:00:00 | 00:00:00 | |
| DO3MHA-11 | 2026-08-31 11:45:44 | 46.13940 | 13.77653 | 84° | 141km/h | 12665m | 4.1m/s | -57.6°C | 25.3% | 0hPa | 2.7V | 00:00:00 | 01:20:11 | 00:00:00 | |
| IV3AMH | 2026-08-31 11:45:42 | 46.13936 | 13.77601 | 85° | 141km/h | 12660m | 4.0m/s | -57.6°C | 20.9% | 0hPa | 2.7V | 00:00:00 | 00:00:00 | 00:00:00 | |
| OE5DXL-15 | 2026-08-31 11:45:38 | 46.13917 | 13.77349 | 84° | 144km/h | 12642m | 4.2m/s | -57.4°C | 26.2% | 0hPa | 2.7V | 00:00:00 | 00:00:00 | 08:30:00 | |
| OE8JPQ-2 | 2026-08-31 11:45:35 | 46.13905 | 13.77195 | 83° | 144km/h | 12631m | 4.0m/s | -57.4°C | 26.3% | 0hPa | 2.7V | 00:00:00 | 00:00:00 | 00:00:00 | |
| DO3MHA-11 | 2026-08-31 11:45:34 | 46.13900 | 13.77143 | 82° | 144km/h | 12628m | 2.6m/s | -57.3°C | 26.4% | 0hPa | 2.7V | 00:00:00 | 01:20:01 | 00:00:00 | |
| IN3HCDX1 | 2026-08-31 11:45:33 | 46.13900 | 13.77143 | 83° | 144km/h | 12628m | 2.7m/s | -57.3°C | 21.6% | 0hPa | 2.7V | 00:00:00 | 00:00:00 | 00:00:00 | |
| DO3MHA-12 | 2026-08-31 11:45:32 | 46.13890 | 13.77039 | 83° | 142km/h | 12621m | 3.9m/s | -57.3°C | 26.4% | 0hPa | 2.7V | 00:00:00 | 01:19:59 | 00:00:00 | |
| SOBLACK | 2026-08-31 11:45:28 | 46.13878 | 13.76882 | 85° | 146km/h | 12610m | 3.7m/s | 0°C | 0% | 0hPa | 2.7V | 00:00:00 | 00:00:00 | 00:00:00 | |
| DO3MHA-11 | 2026-08-31 11:45:24 | 46.13858 | 13.76624 | 84° | 144km/h | 12591m | 3.7m/s | -57.2°C | 27.0% | 0hPa | 2.7V | 00:00:00 | 01:19:51 | 00:00:00 | |
| DO3MHA-12 | 2026-08-31 11:45:21 | 46.13845 | 13.76468 | 83° | 144km/h | 12579m | 3.3m/s | -57.2°C | 27.2% | 0hPa | 2.7V | 00:00:00 | 01:19:48 | 08:30:00 | |
| OE5DRO-10 | 2026-08-31 11:45:19 | 46.13835 | 13.76363 | 83° | 142km/h | 12572m | 2.8m/s | -57.1°C | 27.7% | 0hPa | 2.7V | 00:00:00 | 00:00:00 | 00:00:00 | |
| OE3JTB-15 | 2026-08-31 11:45:18 | 46.13827 | 13.76259 | 84° | 144km/h | 12564m | 3.7m/s | 0°C | 0% | 0hPa | 2.7V | 00:00:00 | 01:19:44 | 00:00:00 | |
| OE8JPQ-2 | 2026-08-31 11:45:15 | 46.13818 | 13.76156 | 84° | 141km/h | 12556m | 4.1m/s | -57.1°C | 27.8% | 0hPa | 2.7V | 00:00:00 | 00:00:00 | 00:00:00 | |
| DO3MHA-11 | 2026-08-31 11:45:14 | 46.13814 | 13.76103 | 84° | 142km/h | 12553m | 2.9m/s | -57.0°C | 27.9% | 0hPa | 2.7V | 00:00:00 | 01:19:41 | 08:30:00 | |
| IN3HCDX1 | 2026-08-31 11:45:12 | 46.13810 | 13.76051 | 85° | 144km/h | 12549m | 4.1m/s | -57.1°C | 22.9% | 0hPa | 2.7V | 00:00:00 | 00:00:00 | 00:00:00 | |
| DO3MHA-12 | 2026-08-31 11:45:11 | 46.13801 | 13.75948 | 83° | 141km/h | 12542m | 3.4m/s | -57.0°C | 27.4% | 0hPa | 2.7V | 00:00:00 | 01:19:38 | 00:00:00 | |
| SOBLACK | 2026-08-31 11:45:09 | 46.13791 | 13.75845 | 82° | 144km/h | 12534m | 3.2m/s | 0°C | 0% | 0hPa | 2.7V | 00:00:00 | 00:00:00 | 00:00:00 | |
| OE5DXL-15 | 2026-08-31 11:45:08 | 46.13785 | 13.75794 | 81° | 142km/h | 12530m | 3.2m/s | -57.0°C | 27.1% | 0hPa | 2.7V | 00:00:00 | 00:00:00 | 00:00:00 | |
| DO3MHA-11 | 2026-08-31 11:45:04 | 46.13761 | 13.75591 | 81° | 141km/h | 12515m | 3.2m/s | -57.0°C | 27.3% | 0hPa | 2.7V | 00:00:00 | 01:19:31 | 00:00:00 | |
| DO3MHA-12 | 2026-08-31 11:45:01 | 46.13744 | 13.75442 | 81° | 141km/h | 12503m | 3.5m/s | -56.8°C | 26.9% | 0hPa | 2.7V | 00:00:00 | 01:19:28 | 00:00:00 | |
| OE5DRO-10 | 2026-08-31 11:45:00 | 46.13738 | 13.75393 | 82° | 142km/h | 12499m | 4.4m/s | -56.8°C | 27.0% | 0hPa | 2.7V | 00:00:00 | 00:00:00 | 00:00:00 | |
| OE8JPQ-2 | 2026-08-31 11:44:55 | 46.13713 | 13.75139 | 82° | 144km/h | 12481m | 3.4m/s | -56.7°C | 26.7% | 0hPa | 2.7V | 00:00:00 | 01:19:22 | 00:00:00 | |
| DO3MHA-11 | 2026-08-31 11:44:54 | 46.13707 | 13.75088 | 82° | 142km/h | 12477m | 4.1m/s | -56.7°C | 26.7% | 0hPa | 2.7V | 00:00:00 | 01:19:21 | 00:00:00 | |
| IN3HCDX1 | 2026-08-31 11:44:53 | 46.13702 | 13.75035 | 82° | 146km/h | 12473m | 3.0m/s | -56.7°C | 22.1% | 0hPa | 2.7V | 00:00:00 | 00:00:00 | 00:00:00 | |
| DO3MHA-12 | 2026-08-31 11:44:51 | 46.13690 | 13.74932 | 81° | 141km/h | 12466m | 4.1m/s | -56.5°C | 26.3% | 0hPa | 2.7V | 00:00:00 | 01:19:18 | 00:00:00 | |
| SOBLACK | 2026-08-31 11:44:48 | 46.13673 | 13.74782 | 81° | 141km/h | 12456m | 3.5m/s | 0°C | 0% | 0hPa | 2.7V | 00:00:00 | 00:00:00 | 00:00:00 | |
| DO3MHA-11 | 2026-08-31 11:44:44 | 46.13651 | 13.74579 | 83° | 146km/h | 12442m | 3.8m/s | -56.5°C | 26.3% | 0hPa | 2.7V | 00:00:00 | 01:19:11 | 00:00:00 | |
| DO3MHA-12 | 2026-08-31 11:44:41 | 46.13635 | 13.74424 | 82° | 148km/h | 12430m | 3.4m/s | -56.4°C | 26.4% | 0hPa | 2.7V | 00:00:00 | 01:19:08 | 00:00:00 | |
| OE5DXL-15 | 2026-08-31 11:44:38 | 46.13620 | 13.74264 | 82° | 148km/h | 12419m | 4.4m/s | -56.4°C | 26.0% | 0hPa | 2.7V | 00:00:00 | 00:00:00 | 00:00:00 | |
| OE8JPQ-2 | 2026-08-31 11:44:35 | 46.13603 | 13.74104 | 82° | 148km/h | 12406m | 3.9m/s | -56.4°C | 26.2% | 0hPa | 2.7V | 00:00:00 | 00:00:00 | 08:30:00 | |
| DO3MHA-11 | 2026-08-31 11:44:34 | 46.13597 | 13.74051 | 82° | 146km/h | 12403m | 3.6m/s | -56.4°C | 26.0% | 0hPa | 2.7V | 00:00:00 | 01:19:01 | 00:00:00 | |
| IN3HCDX1 | 2026-08-31 11:44:33 | 46.13591 | 13.73999 | 82° | 146km/h | 12399m | 4.2m/s | -56.4°C | 21.4% | 0hPa | 2.7V | 00:00:00 | 00:00:00 | 00:00:00 | |
| IV3AMH | 2026-08-31 11:44:27 | 46.13566 | 13.73737 | 83° | 146km/h | 12380m | 4.4m/s | -56.3°C | 21.0% | 0hPa | 2.7V | 00:00:00 | 00:00:00 | 00:00:00 | |
| SOBLACK | 2026-08-31 11:44:25 | 46.13555 | 13.73631 | 82° | 150km/h | 12373m | 3.9m/s | 0°C | 0% | 0hPa | 2.7V | 00:00:00 | 00:00:00 | 00:00:00 | |
| DO3MHA-11 | 2026-08-31 11:44:24 | 46.13544 | 13.73523 | 83° | 148km/h | 12365m | 3.3m/s | -56.1°C | 25.4% | 0hPa | 2.7V | 00:00:00 | 01:18:51 | 00:00:00 | |
| OE3JTB-15 | 2026-08-31 11:44:23 | 46.13539 | 13.73470 | 82° | 146km/h | 12361m | 4.1m/s | 0°C | 0% | 0hPa | 2.7V | 00:00:00 | 00:00:00 | 00:00:00 | |
| OE5DRO-10 | 2026-08-31 11:44:22 | 46.13533 | 13.73416 | 82° | 150km/h | 12358m | 3.4m/s | -56.2°C | 25.8% | 0hPa | 2.7V | 00:00:00 | 00:00:00 | 00:00:00 | |
| OE8JPQ-2 | 2026-08-31 11:44:15 | 46.13493 | 13.73043 | 82° | 150km/h | 12331m | 4.3m/s | -55.9°C | 27.3% | 0hPa | 2.7V | 00:00:00 | 00:00:00 | 00:00:00 | |
| DO3MHA-11 | 2026-08-31 11:44:14 | 46.13488 | 13.72990 | 82° | 150km/h | 12327m | 3.2m/s | -55.8°C | 27.5% | 0hPa | 2.7V | 00:00:00 | 01:18:41 | 00:00:00 | |
| OE5DXL-15 | 2026-08-31 11:44:08 | 46.13453 | 13.72669 | 81° | 150km/h | 12303m | 5.1m/s | -55.7°C | 27.6% | 0hPa | 2.7V | 00:00:00 | 00:00:00 | 00:00:00 | |
| DO3MHA-11 | 2026-08-31 11:44:04 | 46.13427 | 13.72452 | 81° | 150km/h | 12286m | 4.6m/s | -55.7°C | 28.8% | 0hPa | 2.7V | 00:00:00 | 01:18:31 | 00:00:00 | |
| OE5DRO-10 | 2026-08-31 11:44:03 | 46.13421 | 13.72399 | 80° | 150km/h | 12282m | 3.9m/s | -55.7°C | 29.2% | 0hPa | 2.7V | 00:00:00 | 00:00:00 | 00:00:00 | |
| OE8JPQ-2 | 2026-08-31 11:43:55 | 46.13372 | 13.71972 | 81° | 150km/h | 12251m | 4.8m/s | -55.5°C | 30.7% | 0hPa | 2.7V | 00:00:00 | 01:18:22 | 00:00:00 | |
| DO3MHA-11 | 2026-08-31 11:43:54 | 46.13366 | 13.71917 | 81° | 150km/h | 12247m | 3.2m/s | -55.4°C | 31.0% | 0hPa | 2.7V | 00:00:00 | 01:18:21 | 00:00:00 | |
| IN3HCDX1 | 2026-08-31 11:43:52 | 46.13360 | 13.71863 | 82° | 151km/h | 12244m | 4.4m/s | -55.5°C | 26.4% | 0hPa | 2.7V | 00:00:00 | 00:00:00 | 00:00:00 | |
| IV3AMH | 2026-08-31 11:43:50 | 46.13338 | 13.71701 | 80° | 148km/h | 12231m | 3.8m/s | -55.4°C | 27.4% | 0hPa | 2.7V | 00:00:00 | 00:00:00 | 00:00:00 | |
| DO3MHA-11 | 2026-08-31 11:43:44 | 46.13296 | 13.71383 | 80° | 150km/h | 12208m | 4.0m/s | -55.4°C | 33.8% | 0hPa | 2.7V | 00:00:00 | 01:18:11 | 08:30:00 | |
| OE5DXL-15 | 2026-08-31 11:43:38 | 46.13253 | 13.71062 | 79° | 151km/h | 12185m | 4.4m/s | -55.4°C | 36.8% | 0hPa | 2.7V | 00:00:00 | 00:00:00 | 00:00:00 | |
| OE8JPQ-2 | 2026-08-31 11:43:35 | 46.13230 | 13.70900 | 78° | 153km/h | 12173m | 3.7m/s | -55.3°C | 37.5% | 0hPa | 2.7V | 00:00:00 | 00:00:00 | 00:00:00 | |
| DO3MHA-11 | 2026-08-31 11:43:34 | 46.13221 | 13.70845 | 78° | 153km/h | 12169m | 3.9m/s | -55.3°C | 37.4% | 0hPa | 2.7V | 00:00:00 | 01:18:01 | 00:00:00 | |
| IN3HCDX1 | 2026-08-31 11:43:32 | 46.13204 | 13.70735 | 78° | 155km/h | 12161m | 3.7m/s | -55.3°C | 32.5% | 0hPa | 2.7V | 00:00:00 | 00:00:00 | 00:00:00 | |
| OE5DRO-10 | 2026-08-31 11:43:25 | 46.13143 | 13.70356 | 77° | 151km/h | 12133m | 3.1m/s | -55.2°C | 38.5% | 0hPa | 2.7V | 00:00:00 | 00:00:00 | 00:00:00 | |
| DO3MHA-11 | 2026-08-31 11:43:24 | 46.13134 | 13.70303 | 77° | 151km/h | 12129m | 4.9m/s | -55.2°C | 38.8% | 0hPa | 2.7V | 00:00:00 | 01:17:51 | 00:00:00 | |
| 9A1FER-10 | 2026-08-31 11:43:17 | 46.13068 | 13.69928 | 76° | 151km/h | 12101m | 4.3m/s | -55.1°C | 42.5% | 0hPa | 2.7V | 00:00:00 | 01:17:44 | 00:00:00 | |
| OE8JPQ-2 | 2026-08-31 11:43:15 | 46.13049 | 13.69820 | 76° | 150km/h | 12092m | 4.2m/s | -55.1°C | 44.1% | 0hPa | 2.7V | 00:00:00 | 00:00:00 | 00:00:00 | |
| DO3MHA-11 | 2026-08-31 11:43:14 | 46.13039 | 13.69766 | 77° | 151km/h | 12088m | 4.4m/s | -55.1°C | 45.0% | 0hPa | 2.7V | 00:00:00 | 01:17:41 | 00:00:00 | |
| IV3AMH | 2026-08-31 11:43:12 | 46.13030 | 13.69712 | 78° | 151km/h | 12084m | 3.6m/s | -55.2°C | 40.2% | 0hPa | 2.7V | 00:00:00 | 00:00:00 | 00:00:00 | |
| IN3HCDX1 | 2026-08-31 11:43:11 | 46.13021 | 13.69659 | 77° | 150km/h | 12080m | 4.7m/s | -55.2°C | 40.5% | 0hPa | 2.7V | 00:00:00 | 00:00:00 | 00:00:00 | |
| OE5DXL-15 | 2026-08-31 11:43:08 | 46.12983 | 13.69447 | 75° | 150km/h | 12062m | 4.3m/s | -55.3°C | 49.5% | 0hPa | 2.7V | 00:00:00 | 00:00:00 | 00:00:00 | |
| OE5DRO-10 | 2026-08-31 11:43:06 | 46.12962 | 13.69340 | 75° | 148km/h | 12054m | 3.4m/s | -55.3°C | 50.6% | 0hPa | 2.7V | 00:00:00 | 00:00:00 | 00:00:00 | |
| DO3MHA-11 | 2026-08-31 11:43:04 | 46.12942 | 13.69234 | 77° | 148km/h | 12046m | 3.2m/s | -55.3°C | 51.6% | 0hPa | 2.7V | 00:00:00 | 01:17:31 | 00:00:00 | |
| DO3MHA-12 | 2026-08-31 11:42:57 | 46.12879 | 13.68866 | 77° | 148km/h | 12017m | 3.6m/s | -55.2°C | 52.9% | 0hPa | 2.7V | 00:00:00 | 01:17:24 | 00:00:00 | |
| OE8JPQ-2 | 2026-08-31 11:42:55 | 46.12861 | 13.68764 | 76° | 150km/h | 12010m | 4.5m/s | -55.1°C | 53.2% | 0hPa | 2.7V | 00:00:00 | 01:17:22 | 00:00:00 | |
| DO3MHA-11 | 2026-08-31 11:42:54 | 46.12852 | 13.68712 | 76° | 148km/h | 12006m | 3.9m/s | -55.0°C | 53.4% | 0hPa | 2.7V | 00:00:00 | 01:17:21 | 00:00:00 | |
| IN3HCDX1 | 2026-08-31 11:42:50 | 46.12823 | 13.68555 | 76° | 146km/h | 11994m | 4.1m/s | -55.0°C | 47.3% | 0hPa | 2.7V | 00:00:00 | 00:00:00 | 00:00:00 | |
| DO3MHA-12 | 2026-08-31 11:42:47 | 46.12784 | 13.68347 | 76° | 151km/h | 11979m | 4.0m/s | -54.8°C | 52.9% | 0hPa | 2.7V | 00:00:00 | 01:17:14 | 00:00:00 | |
| DO3MHA-11 | 2026-08-31 11:42:44 | 46.12756 | 13.68187 | 77° | 150km/h | 11966m | 4.8m/s | -54.7°C | 54.5% | 0hPa | 2.7V | 00:00:00 | 01:17:11 | 00:00:00 | |
| OE5DXL-15 | 2026-08-31 11:42:38 | 46.12700 | 13.67867 | 76° | 151km/h | 11943m | 3.8m/s | -54.4°C | 54.0% | 0hPa | 2.7V | 00:00:00 | 00:00:00 | 00:00:00 | |
| DO3MHA-12 | 2026-08-31 11:42:37 | 46.12690 | 13.67814 | 76° | 150km/h | 11939m | 3.9m/s | -54.4°C | 53.7% | 0hPa | 2.7V | 00:00:00 | 01:17:04 | 00:00:00 | |
| IV3AMH | 2026-08-31 11:42:36 | 46.12680 | 13.67762 | 76° | 148km/h | 11935m | 4.3m/s | -54.5°C | 48.2% | 0hPa | 2.7V | 00:00:00 | 00:00:00 | 00:00:00 | |
| OE8JPQ-2 | 2026-08-31 11:42:35 | 46.12671 | 13.67710 | 75° | 151km/h | 11931m | 3.7m/s | -54.5°C | 54.0% | 0hPa | 2.7V | 00:00:00 | 00:00:00 | 00:00:00 | |
| DO3MHA-11 | 2026-08-31 11:42:34 | 46.12660 | 13.67658 | 75° | 151km/h | 11927m | 4.7m/s | -54.5°C | 54.3% | 0hPa | 2.7V | 00:00:00 | 01:17:01 | 00:00:00 | |
| IN3HCDX1 | 2026-08-31 11:42:30 | 46.12631 | 13.67499 | 76° | 150km/h | 11915m | 4.3m/s | -54.4°C | 48.7% | 0hPa | 2.7V | 00:00:00 | 00:00:00 | 00:00:00 | |
| OE5DRO-10 | 2026-08-31 11:42:28 | 46.12602 | 13.67338 | 76° | 151km/h | 11902m | 3.7m/s | -54.2°C | 53.7% | 0hPa | 2.7V | 00:00:00 | 00:00:00 | 00:00:00 | |
| DO3MHA-12 | 2026-08-31 11:42:27 | 46.12592 | 13.67284 | 76° | 150km/h | 11898m | 3.8m/s | -54.2°C | 53.2% | 0hPa | 2.7V | 00:00:00 | 01:16:54 | 00:00:00 | |
| DO3MHA-11 | 2026-08-31 11:42:24 | 46.12563 | 13.67127 | 75° | 151km/h | 11886m | 5.1m/s | -54.2°C | 52.5% | 0hPa | 2.7V | 00:00:00 | 01:16:51 | 00:00:00 | |
| DO3MHA-12 | 2026-08-31 11:42:17 | 46.12487 | 13.66757 | 75° | 153km/h | 11858m | 3.8m/s | -53.9°C | 50.8% | 0hPa | 2.7V | 00:00:00 | 01:16:44 | 08:30:00 | |
| OE8JPQ-2 | 2026-08-31 11:42:15 | 46.12467 | 13.66648 | 76° | 153km/h | 11850m | 3.2m/s | -53.8°C | 50.5% | 0hPa | 2.7V | 00:00:00 | 00:00:00 | 00:00:00 | |
| DO3MHA-11 | 2026-08-31 11:42:14 | 46.12457 | 13.66593 | 76° | 151km/h | 11846m | 3.7m/s | -53.9°C | 50.2% | 0hPa | 2.7V | 00:00:00 | 01:16:41 | 08:30:00 | |
| IN3HCDX1 | 2026-08-31 11:42:10 | 46.12416 | 13.66378 | 75° | 150km/h | 11829m | 4.0m/s | -53.8°C | 45.5% | 0hPa | 2.7V | 00:00:00 | 00:00:00 | 00:00:00 | |
| OE5DRO-10 | 2026-08-31 11:42:09 | 46.12406 | 13.66325 | 74° | 153km/h | 11825m | 3.7m/s | -53.7°C | 51.0% | 0hPa | 2.7V | 00:00:00 | 00:00:00 | 00:00:00 | |
| OE5DXL-15 | 2026-08-31 11:42:08 | 46.12395 | 13.66273 | 74° | 153km/h | 11821m | 4.7m/s | -53.6°C | 51.0% | 0hPa | 2.7V | 00:00:00 | 00:00:00 | 00:00:00 | |
| DO3MHA-12 | 2026-08-31 11:42:07 | 46.12384 | 13.66220 | 74° | 155km/h | 11817m | 3.6m/s | -53.6°C | 50.8% | 0hPa | 2.7V | 00:00:00 | 01:16:34 | 00:00:00 | |
| DO3MHA-11 | 2026-08-31 11:42:04 | 46.12353 | 13.66060 | 75° | 155km/h | 11805m | 3.8m/s | -53.5°C | 49.4% | 0hPa | 2.7V | 00:00:00 | 01:16:31 | 00:00:00 | |
| IV3AMH | 2026-08-31 11:41:58 | 46.12300 | 13.65785 | 75° | 155km/h | 11785m | 3.1m/s | -53.4°C | 43.1% | 0hPa | 2.7V | 00:00:00 | 00:00:00 | 00:00:00 | |
| DO3MHA-12 | 2026-08-31 11:41:57 | 46.12277 | 13.65677 | 73° | 151km/h | 11777m | 4.4m/s | 0°C | 0% | 0hPa | 2.7V | 00:00:00 | 01:16:24 | 00:00:00 | |
| OE8JPQ-2 | 2026-08-31 11:41:55 | 46.12254 | 13.65570 | 73° | 151km/h | 11769m | 4.8m/s | -53.2°C | 47.8% | 0hPa | 2.7V | 00:00:00 | 01:16:22 | 00:00:00 | |
| DO3MHA-11 | 2026-08-31 11:41:54 | 46.12243 | 13.65518 | 74° | 151km/h | 11765m | 3.6m/s | -53.1°C | 47.7% | 0hPa | 2.7V | 00:00:00 | 01:16:21 | 00:00:00 | |
| 9A1FER-10 | 2026-08-31 11:41:51 | 46.12210 | 13.65363 | 73° | 144km/h | 11753m | 3.8m/s | -53.0°C | 47.3% | 0hPa | 2.7V | 00:00:00 | 01:16:18 | 00:00:00 | |
| OE5DRO-10 | 2026-08-31 11:41:50 | 46.12199 | 13.65312 | 74° | 153km/h | 11749m | 4.5m/s | -53.0°C | 47.5% | 0hPa | 2.7V | 00:00:00 | 00:00:00 | 00:00:00 | |
| IN3HCDX1 | 2026-08-31 11:41:49 | 46.12199 | 13.65312 | 74° | 150km/h | 11749m | 4.5m/s | -53.0°C | 42.3% | 0hPa | 2.7V | 00:00:00 | 00:00:00 | 00:00:00 | |
| DO3MHA-12 | 2026-08-31 11:41:47 | 46.12166 | 13.65152 | 73° | 153km/h | 11737m | 4.4m/s | 0°C | 0% | 0hPa | 2.7V | 00:00:00 | 01:16:14 | 00:00:00 | |
| DO3MHA-11 | 2026-08-31 11:41:44 | 46.12130 | 13.64990 | 73° | 153km/h | 11725m | 4.0m/s | -52.8°C | 46.7% | 0hPa | 2.7V | 00:00:00 | 01:16:11 | 00:00:00 | |
| OE5DXL-15 | 2026-08-31 11:41:38 | 46.12064 | 13.64672 | 75° | 153km/h | 11701m | 3.3m/s | -52.5°C | 46.0% | 0hPa | 2.7V | 00:00:00 | 00:00:00 | 00:00:00 | |
| DO3MHA-12 | 2026-08-31 11:41:36 | 46.12043 | 13.64563 | 75° | 153km/h | 11693m | 4.5m/s | 0°C | 0% | 0hPa | 2.7V | 00:00:00 | 01:16:03 | 00:00:00 | |
| OE8JPQ-2 | 2026-08-31 11:41:35 | 46.12033 | 13.64509 | 74° | 153km/h | 11689m | 4.2m/s | -52.4°C | 45.8% | 0hPa | 2.7V | 00:00:00 | 00:00:00 | 08:30:00 | |
| DO3MHA-11 | 2026-08-31 11:41:34 | 46.12022 | 13.64456 | 74° | 153km/h | 11685m | 3.6m/s | -52.3°C | 45.5% | 0hPa | 2.7V | 00:00:00 | 01:16:01 | 00:00:00 | |
| OE5DRO-10 | 2026-08-31 11:41:31 | 46.11987 | 13.64296 | 73° | 153km/h | 11674m | 2.9m/s | -52.2°C | 44.9% | 0hPa | 2.7V | 00:00:00 | 00:00:00 | 00:00:00 | |
| IN3HCDX1 | 2026-08-31 11:41:28 | 46.11964 | 13.64189 | 73° | 153km/h | 11666m | 4.1m/s | -52.2°C | 39.6% | 0hPa | 2.7V | 00:00:00 | 00:00:00 | 00:00:00 | |
| DO3MHA-12 | 2026-08-31 11:41:26 | 46.11929 | 13.64029 | 73° | 153km/h | 11653m | 3.9m/s | 0°C | 0% | 0hPa | 2.7V | 00:00:00 | 01:15:53 | 00:00:00 | |
| DO3MHA-11 | 2026-08-31 11:41:24 | 46.11906 | 13.63923 | 73° | 153km/h | 11644m | 3.7m/s | -52.0°C | 44.2% | 0hPa | 2.7V | 00:00:00 | 01:15:51 | 00:00:00 | |
| IV3AMH | 2026-08-31 11:41:21 | 46.11883 | 13.63816 | 74° | 155km/h | 11636m | 4.5m/s | -52.0°C | 39.2% | 0hPa | 2.7V | 00:00:00 | 00:00:00 | 00:00:00 | |
| DO3MHA-12 | 2026-08-31 11:41:16 | 46.11818 | 13.63495 | 74° | 153km/h | 11611m | 3.0m/s | 0°C | 0% | 0hPa | 2.7V | 00:00:00 | 01:15:43 | 00:00:00 | |
| OE8JPQ-2 | 2026-08-31 11:41:15 | 46.11807 | 13.63441 | 74° | 153km/h | 11607m | 4.6m/s | -51.7°C | 43.7% | 0hPa | 2.7V | 00:00:00 | 00:00:00 | 00:00:00 | |
| DO3MHA-11 | 2026-08-31 11:41:14 | 46.11796 | 13.63387 | 74° | 153km/h | 11603m | 4.0m/s | -51.7°C | 44.1% | 0hPa | 2.7V | 00:00:00 | 01:15:41 | 00:00:00 | |
| OE5DRO-10 | 2026-08-31 11:41:13 | 46.11774 | 13.63279 | 73° | 151km/h | 11595m | 4.5m/s | -51.6°C | 44.0% | 0hPa | 2.7V | 00:00:00 | 00:00:00 | 00:00:00 | |
| OE5DXL-15 | 2026-08-31 11:41:08 | 46.11728 | 13.63065 | 73° | 151km/h | 11578m | 4.3m/s | -51.5°C | 43.4% | 0hPa | 2.7V | 00:00:00 | 00:00:00 | 08:30:00 | |
| DO3MHA-12 | 2026-08-31 11:41:06 | 46.11705 | 13.62960 | 73° | 151km/h | 11570m | 3.9m/s | 0°C | 0% | 0hPa | 2.7V | 00:00:00 | 01:15:33 | 00:00:00 | |
| DO3MHA-11 | 2026-08-31 11:41:04 | 46.11683 | 13.62857 | 74° | 151km/h | 11562m | 3.6m/s | -51.3°C | 43.1% | 0hPa | 2.7V | 00:00:00 | 01:15:31 | 00:00:00 | |
| DO3MHA-12 | 2026-08-31 11:40:56 | 46.11597 | 13.62432 | 75° | 151km/h | 11530m | 3.6m/s | 0°C | 0% | 0hPa | 2.7V | 00:00:00 | 01:15:23 | 00:00:00 | |
| OE8JPQ-2 | 2026-08-31 11:40:55 | 46.11587 | 13.62378 | 75° | 151km/h | 11526m | 4.8m/s | -51.1°C | 43.2% | 0hPa | 2.7V | 00:00:00 | 01:15:22 | 00:00:00 | |
| DO3MHA-11 | 2026-08-31 11:40:54 | 46.11577 | 13.62324 | 75° | 151km/h | 11521m | 3.5m/s | -51.1°C | 43.4% | 0hPa | 2.7V | 00:00:00 | 01:15:21 | 00:00:00 | |
| OE5DRO-10 | 2026-08-31 11:40:53 | 46.11566 | 13.62271 | 75° | 150km/h | 11517m | 4.7m/s | -51.1°C | 43.3% | 0hPa | 2.7V | 00:00:00 | 00:00:00 | 00:00:00 | |
| IN3HCDX1 | 2026-08-31 11:40:47 | 46.11511 | 13.62008 | 74° | 151km/h | 11497m | 3.5m/s | -51.0°C | 37.0% | 0hPa | 2.7V | 00:00:00 | 00:00:00 | 00:00:00 | |
| DO3MHA-12 | 2026-08-31 11:40:46 | 46.11488 | 13.61901 | 73° | 153km/h | 11488m | 3.8m/s | 0°C | 0% | 0hPa | 2.7V | 00:00:00 | 01:15:13 | 00:00:00 | |
| DO3MHA-11 | 2026-08-31 11:40:44 | 46.11465 | 13.61794 | 74° | 150km/h | 11479m | 3.8m/s | -50.8°C | 40.6% | 0hPa | 2.7V | 00:00:00 | 01:15:11 | 08:30:00 | |
| IV3AMH | 2026-08-31 11:40:43 | 46.11465 | 13.61794 | 75° | 153km/h | 11479m | 3.9m/s | -50.9°C | 36.2% | 0hPa | 2.7V | 00:00:00 | 00:00:00 | 00:00:00 | |
| OE5DXL-15 | 2026-08-31 11:40:38 | 46.11400 | 13.61481 | 73° | 148km/h | 11457m | 3.8m/s | -50.6°C | 40.2% | 0hPa | 2.7V | 00:00:00 | 00:00:00 | 00:00:00 | |
| OE8JPQ-2 | 2026-08-31 11:40:35 | 46.11366 | 13.61329 | 73° | 148km/h | 11446m | 3.8m/s | -50.5°C | 39.3% | 0hPa | 2.7V | 00:00:00 | 00:00:00 | 00:00:00 | |
| DO3MHA-11 | 2026-08-31 11:40:34 | 46.11354 | 13.61277 | 73° | 148km/h | 11442m | 4.2m/s | -50.5°C | 39.1% | 0hPa | 2.7V | 00:00:00 | 01:15:01 | 00:00:00 | |
| IN3HCDX1 | 2026-08-31 11:40:27 | 46.11289 | 13.60967 | 74° | 148km/h | 11417m | 4.2m/s | -50.3°C | 34.1% | 0hPa | 2.7V | 00:00:00 | 00:00:00 | 00:00:00 | |
| DO3MHA-11 | 2026-08-31 11:40:24 | 46.11243 | 13.60762 | 73° | 148km/h | 11401m | 4.1m/s | -50.1°C | 37.5% | 0hPa | 2.7V | 00:00:00 | 01:14:51 | 00:00:00 | |
| OE5DRO-10 | 2026-08-31 11:40:15 | 46.11143 | 13.60300 | 73° | 146km/h | 11364m | 4.6m/s | 0°C | 0% | 0hPa | 2.7V | 00:00:00 | 00:00:00 | 00:00:00 | |
| DO3MHA-11 | 2026-08-31 11:40:14 | 46.11132 | 13.60249 | 73° | 146km/h | 11360m | 3.7m/s | -49.8°C | 36.6% | 0hPa | 2.7V | 00:00:00 | 01:14:41 | 00:00:00 | |
| OE5DXL-15 | 2026-08-31 11:40:08 | 46.11064 | 13.59946 | 73° | 146km/h | 11335m | 3.3m/s | -49.7°C | 36.2% | 0hPa | 2.7V | 00:00:00 | 00:00:00 | 00:00:00 | |
| IN3HCDX1 | 2026-08-31 11:40:07 | 46.11053 | 13.59896 | 75° | 144km/h | 11331m | 4.5m/s | -49.6°C | 31.8% | 0hPa | 2.7V | 00:00:00 | 00:00:00 | 00:00:00 | |
| IV3AMH | 2026-08-31 11:40:05 | 46.11043 | 13.59845 | 75° | 146km/h | 11327m | 4.0m/s | -49.6°C | 31.9% | 0hPa | 2.7V | 00:00:00 | 00:00:00 | 00:00:00 | |
| DO3MHA-11 | 2026-08-31 11:40:02 | 46.10999 | 13.59642 | 73° | 148km/h | 11312m | 4.0m/s | -49.4°C | 36.3% | 0hPa | 2.7V | 00:00:00 | 01:14:29 | 00:00:00 | |
| OE5DRO-10 | 2026-08-31 11:39:56 | 46.10931 | 13.59337 | 73° | 148km/h | 11287m | 3.3m/s | 0°C | 0% | 0hPa | 2.7V | 00:00:00 | 00:00:00 | 00:00:00 | |
| OE8JPQ-2 | 2026-08-31 11:39:55 | 46.10919 | 13.59286 | 72° | 148km/h | 11284m | 3.9m/s | -49.2°C | 36.5% | 0hPa | 2.7V | 00:00:00 | 01:14:22 | 00:00:00 | |
| DO3MHA-11 | 2026-08-31 11:39:49 | 46.10846 | 13.58979 | 71° | 146km/h | 11259m | 4.4m/s | -49.1°C | 36.1% | 0hPa | 2.7V | 00:00:00 | 01:14:16 | 00:00:00 | |
| IN3HCDX1 | 2026-08-31 11:39:46 | 46.10821 | 13.58877 | 72° | 150km/h | 11251m | 4.8m/s | -49.0°C | 32.2% | 0hPa | 2.7V | 00:00:00 | 00:00:00 | 00:00:00 | |
| DO3MHA-11 | 2026-08-31 11:39:39 | 46.10732 | 13.58470 | 72° | 146km/h | 11218m | 4.7m/s | -48.8°C | 35.5% | 0hPa | 2.7V | 00:00:00 | 01:14:06 | 00:00:00 | |
| OE5DXL-15 | 2026-08-31 11:39:38 | 46.10720 | 13.58420 | 72° | 146km/h | 11215m | 3.7m/s | -48.7°C | 35.5% | 0hPa | 2.7V | 00:00:00 | 00:00:00 | 00:00:00 | |
| OE8JPQ-2 | 2026-08-31 11:39:35 | 46.10685 | 13.58268 | 73° | 146km/h | 11201m | 3.4m/s | -48.6°C | 35.0% | 0hPa | 2.7V | 00:00:00 | 00:00:00 | 00:00:00 | |
| IV3AMH | 2026-08-31 11:39:29 | 46.10621 | 13.57963 | 75° | 148km/h | 11177m | 4.0m/s | -48.4°C | 30.3% | 0hPa | 2.9V | 00:00:00 | 00:00:00 | 00:00:00 | |
| IN3HCDX1 | 2026-08-31 11:39:26 | 46.10601 | 13.57860 | 75° | 150km/h | 11169m | 3.8m/s | -48.4°C | 30.3% | 0hPa | 2.9V | 00:00:00 | 00:00:00 | 00:00:00 | |
| DO3MHA-11 | 2026-08-31 11:39:19 | 46.10510 | 13.57451 | 72° | 146km/h | 11136m | 4.4m/s | -48.1°C | 33.5% | 0hPa | 2.9V | 00:00:00 | 01:13:46 | 00:00:00 | |
| OE8JPQ-2 | 2026-08-31 11:39:15 | 46.10465 | 13.57248 | 74° | 146km/h | 11120m | 3.8m/s | -47.9°C | 33.0% | 0hPa | 2.9V | 00:00:00 | 00:00:00 | 00:00:00 | |
| OE5DXL-15 | 2026-08-31 11:39:08 | 46.10392 | 13.56890 | 73° | 146km/h | 11091m | 3.4m/s | -47.6°C | 33.2% | 0hPa | 2.9V | 00:00:00 | 00:00:00 | 00:00:00 | |
| IN3HCDX1 | 2026-08-31 11:39:06 | 46.10381 | 13.56841 | 73° | 142km/h | 11087m | 5.0m/s | -47.6°C | 29.3% | 0hPa | 2.9V | 00:00:00 | 00:00:00 | 00:00:00 | |
| OE8JPQ-2 | 2026-08-31 11:38:55 | 46.10252 | 13.56231 | 73° | 146km/h | 11038m | 4.5m/s | -47.2°C | 33.0% | 0hPa | 2.9V | 00:00:00 | 01:13:22 | 00:00:00 | |
| IV3AMH | 2026-08-31 11:38:50 | 46.10207 | 13.56034 | 72° | 146km/h | 11022m | 3.8m/s | -47.1°C | 29.4% | 0hPa | 2.9V | 00:00:00 | 00:00:00 | 00:00:00 | |
| IN3HCDX1 | 2026-08-31 11:38:45 | 46.10151 | 13.55779 | 75° | 150km/h | 11004m | 4.5m/s | -46.9°C | 29.0% | 0hPa | 2.9V | 00:00:00 | 00:00:00 | 00:00:00 | |
| OE5DXL-15 | 2026-08-31 11:38:38 | 46.10064 | 13.55369 | 72° | 146km/h | 10972m | 4.8m/s | -46.6°C | 31.5% | 0hPa | 2.9V | 00:00:00 | 00:00:00 | 00:00:00 | |
| OE8JPQ-2 | 2026-08-31 11:38:35 | 46.10029 | 13.55219 | 72° | 148km/h | 10959m | 4.0m/s | -46.5°C | 32.0% | 0hPa | 2.9V | 00:00:00 | 00:00:00 | 08:30:00 | |
| DO3MHA-11 | 2026-08-31 11:38:32 | 46.09996 | 13.55065 | 74° | 148km/h | 10947m | 3.0m/s | -46.4°C | 32.2% | 0hPa | 2.9V | 00:00:00 | 01:12:59 | 00:00:00 | |
| IN3HCDX1 | 2026-08-31 11:38:24 | 46.09918 | 13.54701 | 74° | 148km/h | 10920m | 4.9m/s | -46.3°C | 29.6% | 0hPa | 2.9V | 00:00:00 | 00:00:00 | 00:00:00 | |
| DO3MHA-11 | 2026-08-31 11:38:21 | 46.09875 | 13.54497 | 73° | 146km/h | 10903m | 4.0m/s | -46.2°C | 33.8% | 0hPa | 2.9V | 00:00:00 | 01:12:48 | 00:00:00 | |
| OE8JPQ-2 | 2026-08-31 11:38:15 | 46.09810 | 13.54193 | 74° | 144km/h | 10880m | 4.8m/s | -46.0°C | 32.9% | 0hPa | 2.9V | 00:00:00 | 00:00:00 | 00:00:00 | |
| IV3AMH | 2026-08-31 11:38:12 | 46.09788 | 13.54091 | 74° | 148km/h | 10872m | 3.7m/s | -46.0°C | 28.9% | 0hPa | 2.9V | 00:00:00 | 00:00:00 | 00:00:00 | |
| OE5DXL-15 | 2026-08-31 11:38:08 | 46.09734 | 13.53838 | 72° | 142km/h | 10851m | 3.4m/s | -45.7°C | 32.1% | 0hPa | 2.9V | 00:00:00 | 00:00:00 | 00:00:00 | |
| IN3HCDX1 | 2026-08-31 11:38:03 | 46.09688 | 13.53640 | 72° | 142km/h | 10836m | 4.0m/s | -45.7°C | 28.7% | 0hPa | 2.9V | 00:00:00 | 00:00:00 | 00:00:00 | |
| DO3MHA-11 | 2026-08-31 11:37:56 | 46.09594 | 13.53241 | 72° | 144km/h | 10804m | 4.2m/s | -45.3°C | 31.4% | 0hPa | 2.9V | 00:00:00 | 01:12:23 | 00:00:00 | |
| OE8JPQ-2 | 2026-08-31 11:37:55 | 46.09582 | 13.53191 | 72° | 142km/h | 10799m | 4.8m/s | -45.3°C | 31.4% | 0hPa | 2.9V | 00:00:00 | 01:12:22 | 00:00:00 | |
| IN3HCDX1 | 2026-08-31 11:37:43 | 46.09464 | 13.52653 | 72° | 144km/h | 10752m | 3.4m/s | -44.9°C | 27.1% | 0hPa | 2.9V | 00:00:00 | 00:00:00 | 00:00:00 | |
| OE5DXL-15 | 2026-08-31 11:37:38 | 46.09395 | 13.52354 | 73° | 142km/h | 10729m | 4.4m/s | 0°C | 0% | 0hPa | 2.9V | 00:00:00 | 00:00:00 | 00:00:00 | |
| OE8JPQ-2 | 2026-08-31 11:37:35 | 46.09363 | 13.52205 | 73° | 142km/h | 10716m | 4.3m/s | -44.5°C | 29.0% | 0hPa | 2.9V | 00:00:00 | 00:00:00 | 00:00:00 | |
| 9A1FER-10 | 2026-08-31 11:37:23 | 46.09232 | 13.51612 | 75° | 142km/h | 10667m | 4.2m/s | -44.2°C | 27.2% | 0hPa | 2.9V | 00:00:00 | 01:11:50 | 00:00:00 | |
| OE8JPQ-2 | 2026-08-31 11:37:15 | 46.09147 | 13.51217 | 73° | 144km/h | 10637m | 4.5m/s | -43.8°C | 25.6% | 0hPa | 2.9V | 00:00:00 | 00:00:00 | 00:00:00 | |
| OE5DXL-15 | 2026-08-31 11:37:08 | 46.09072 | 13.50867 | 74° | 142km/h | 10609m | 4.9m/s | 0°C | 0% | 0hPa | 2.9V | 00:00:00 | 01:11:35 | 00:00:00 | |
| 9A1FER-3 | 2026-08-31 11:37:05 | 46.09040 | 13.50719 | 73° | 144km/h | 10596m | 3.3m/s | -43.5°C | 24.3% | 0hPa | 2.9V | 00:00:00 | 01:11:32 | 00:00:00 | |
| IN3HCDX1 | 2026-08-31 11:37:02 | 46.09019 | 13.50621 | 73° | 142km/h | 10589m | 4.3m/s | -43.4°C | 21.2% | 0hPa | 2.9V | 00:00:00 | 00:00:00 | 00:00:00 | |
| IV3AMH | 2026-08-31 11:36:57 | 46.08965 | 13.50371 | 74° | 144km/h | 10569m | 4.7m/s | -43.3°C | 20.0% | 0hPa | 2.9V | 00:00:00 | 00:00:00 | 00:00:00 | |
| OE8JPQ-2 | 2026-08-31 11:36:55 | 46.08934 | 13.50220 | 75° | 144km/h | 10557m | 4.0m/s | -43.1°C | 21.6% | 0hPa | 2.9V | 00:00:00 | 01:11:22 | 00:00:00 | |
| 9A1FER-10 | 2026-08-31 11:36:52 | 46.08904 | 13.50069 | 74° | 144km/h | 10546m | 3.0m/s | -43.0°C | 20.3% | 0hPa | 2.9V | 00:00:00 | 01:11:19 | 00:00:00 | |
| DO3MHA-11 | 2026-08-31 11:36:51 | 46.08894 | 13.50019 | 74° | 144km/h | 10542m | 4.8m/s | -43.0°C | 19.9% | 0hPa | 2.9V | 00:00:00 | 01:11:18 | 00:00:00 | |
| 9A1FER-3 | 2026-08-31 11:36:50 | 46.08884 | 13.49969 | 75° | 146km/h | 10538m | 3.6m/s | -43.0°C | 20.0% | 0hPa | 2.9V | 00:00:00 | 01:11:17 | 00:00:00 | |
| IN3HCDX1 | 2026-08-31 11:36:41 | 46.08801 | 13.49567 | 74° | 148km/h | 10508m | 3.5m/s | -42.8°C | 17.6% | 0hPa | 2.7V | 00:00:00 | 00:00:00 | 00:00:00 | |
| DO3MHA-11 | 2026-08-31 11:36:40 | 46.08780 | 13.49465 | 74° | 142km/h | 10500m | 4.4m/s | -42.8°C | 20.2% | 0hPa | 2.7V | 00:00:00 | 01:11:07 | 00:00:00 | |
| OE5DXL-15 | 2026-08-31 11:36:38 | 46.08758 | 13.49365 | 74° | 144km/h | 10493m | 3.6m/s | 0°C | 0% | 0hPa | 2.9V | 00:00:00 | 00:00:00 | 00:00:00 | |
| 9A1FER-10 | 2026-08-31 11:36:37 | 46.08748 | 13.49315 | 74° | 142km/h | 10489m | 4.1m/s | -42.6°C | 20.3% | 0hPa | 2.9V | 00:00:00 | 01:11:04 | 00:00:00 | |
| OE8JPQ-2 | 2026-08-31 11:36:35 | 46.08727 | 13.49214 | 74° | 142km/h | 10482m | 3.6m/s | -42.7°C | 20.3% | 0hPa | 2.7V | 00:00:00 | 00:00:00 | 00:00:00 | |
| DO3MHA-11 | 2026-08-31 11:36:30 | 46.08682 | 13.48969 | 76° | 142km/h | 10463m | 4.6m/s | -42.6°C | 22.6% | 0hPa | 2.9V | 00:00:00 | 01:10:57 | 00:00:00 | |
| 9A1FER-3 | 2026-08-31 11:36:25 | 46.08631 | 13.48717 | 73° | 141km/h | 10445m | 4.1m/s | -42.5°C | 26.8% | 0hPa | 2.9V | 00:00:00 | 01:10:52 | 00:00:00 | |
| 9A1FER-10 | 2026-08-31 11:36:22 | 46.08598 | 13.48566 | 74° | 139km/h | 10434m | 3.7m/s | -42.5°C | 26.3% | 0hPa | 2.9V | 00:00:00 | 01:10:49 | 00:00:00 | |
| DO3MHA-11 | 2026-08-31 11:36:20 | 46.08579 | 13.48466 | 75° | 137km/h | 10427m | 2.9m/s | -42.4°C | 26.1% | 0hPa | 2.9V | 00:00:00 | 01:10:47 | 00:00:00 | |
| IV3AMH | 2026-08-31 11:36:19 | 46.08579 | 13.48466 | 76° | 142km/h | 10427m | 2.9m/s | -42.5°C | 23.5% | 0hPa | 2.9V | 00:00:00 | 00:00:00 | 00:00:00 | |
| OE8JPQ-2 | 2026-08-31 11:36:15 | 46.08530 | 13.48222 | 73° | 139km/h | 10408m | 3.4m/s | -42.4°C | 27.0% | 0hPa | 2.9V | 00:00:00 | 00:00:00 | 00:00:00 | |
| 9A1FER-3 | 2026-08-31 11:36:10 | 46.08476 | 13.47982 | 75° | 139km/h | 10389m | 3.4m/s | -42.2°C | 27.6% | 0hPa | 2.9V | 00:00:00 | 01:10:37 | 00:00:00 | |
| 9A1FER-10 | 2026-08-31 11:36:07 | 46.08450 | 13.47837 | 77° | 139km/h | 10378m | 3.2m/s | -42.1°C | 27.6% | 0hPa | 2.9V | 00:00:00 | 01:10:34 | 00:00:00 | |
| IN3HCDX1 | 2026-08-31 11:35:59 | 46.08379 | 13.47498 | 72° | 141km/h | 10353m | 3.2m/s | -41.8°C | 24.0% | 0hPa | 2.9V | 00:00:00 | 00:00:00 | 00:00:00 | |
| OE8JPQ-2 | 2026-08-31 11:35:55 | 46.08325 | 13.47258 | 75° | 139km/h | 10333m | 3.2m/s | -41.6°C | 26.4% | 0hPa | 2.9V | 00:00:00 | 01:10:22 | 00:00:00 | |
| 9A1FER-10 | 2026-08-31 11:35:52 | 46.08298 | 13.47113 | 76° | 139km/h | 10321m | 4.0m/s | -41.5°C | 26.9% | 0hPa | 2.9V | 00:00:00 | 01:10:19 | 00:00:00 | |
| IV3AMH | 2026-08-31 11:35:42 | 46.08206 | 13.46675 | 73° | 141km/h | 10289m | 4.4m/s | -41.4°C | 25.0% | 0hPa | 2.7V | 00:00:00 | 00:00:00 | 00:00:00 | |
| 9A1FER-3 | 2026-08-31 11:35:40 | 46.08175 | 13.46531 | 74° | 139km/h | 10278m | 3.0m/s | -41.2°C | 27.3% | 0hPa | 2.7V | 00:00:00 | 01:10:07 | 00:00:00 | |
| IN3HCDX1 | 2026-08-31 11:35:38 | 46.08165 | 13.46483 | 75° | 137km/h | 10274m | 4.3m/s | -41.2°C | 24.1% | 0hPa | 2.7V | 00:00:00 | 00:00:00 | 00:00:00 | |
| 9A1FER-10 | 2026-08-31 11:35:37 | 46.08146 | 13.46388 | 75° | 139km/h | 10267m | 3.6m/s | -41.1°C | 26.1% | 0hPa | 2.7V | 00:00:00 | 01:10:04 | 00:00:00 | |
| OE8JPQ-2 | 2026-08-31 11:35:35 | 46.08127 | 13.46291 | 75° | 141km/h | 10259m | 3.3m/s | -41.1°C | 25.6% | 0hPa | 2.7V | 00:00:00 | 00:00:00 | 08:30:00 | |
| 9A1FER-3 | 2026-08-31 11:35:25 | 46.08023 | 13.45804 | 74° | 139km/h | 10220m | 4.1m/s | -40.7°C | 23.3% | 0hPa | 2.7V | 00:00:00 | 01:09:52 | 00:00:00 | |
| OE3JTB-15 | 2026-08-31 11:35:24 | 46.08013 | 13.45757 | 74° | 135km/h | 10216m | 4.2m/s | 0°C | 0% | 0hPa | 2.7V | 00:00:00 | 00:00:00 | 00:00:00 | |
| 9A1FER-10 | 2026-08-31 11:35:22 | 46.07994 | 13.45663 | 74° | 141km/h | 10209m | 4.7m/s | -40.7°C | 23.8% | 0hPa | 2.7V | 00:00:00 | 01:09:49 | 00:00:00 | |
| IN3HCDX1 | 2026-08-31 11:35:18 | 46.07964 | 13.45517 | 74° | 141km/h | 10197m | 4.7m/s | -40.6°C | 21.6% | 0hPa | 2.7V | 00:00:00 | 00:00:00 | 00:00:00 | |
| OE8JPQ-2 | 2026-08-31 11:35:15 | 46.07921 | 13.45319 | 74° | 139km/h | 10182m | 3.2m/s | -40.4°C | 24.1% | 0hPa | 2.7V | 00:00:00 | 00:00:00 | 00:00:00 | |
| 9A1FER-3 | 2026-08-31 11:35:10 | 46.07867 | 13.45078 | 73° | 139km/h | 10163m | 4.0m/s | -40.3°C | 24.1% | 0hPa | 2.7V | 00:00:00 | 01:09:37 | 00:00:00 | |
| 9A1FER-10 | 2026-08-31 11:35:07 | 46.07836 | 13.44934 | 73° | 139km/h | 10152m | 4.6m/s | -40.2°C | 23.8% | 0hPa | 2.9V | 00:00:00 | 01:09:34 | 08:30:00 | |
| IV3AMH | 2026-08-31 11:35:04 | 46.07816 | 13.44839 | 74° | 137km/h | 10144m | 4.6m/s | -40.2°C | 21.0% | 0hPa | 2.9V | 00:00:00 | 00:00:00 | 00:00:00 | |
| IN3HCDX1 | 2026-08-31 11:34:57 | 46.07743 | 13.44501 | 74° | 139km/h | 10117m | 4.5m/s | -40.0°C | 18.6% | 0hPa | 2.9V | 00:00:00 | 00:00:00 | 00:00:00 | |
| OE8JPQ-2 | 2026-08-31 11:34:55 | 46.07714 | 13.44358 | 75° | 137km/h | 10106m | 4.1m/s | -39.9°C | 20.5% | 0hPa | 2.9V | 00:00:00 | 01:09:22 | 00:00:00 | |
| 9A1FER-10 | 2026-08-31 11:34:52 | 46.07685 | 13.44212 | 74° | 137km/h | 10096m | 4.3m/s | -39.9°C | 19.9% | 0hPa | 2.9V | 00:00:00 | 01:09:19 | 00:00:00 | |
| 9A1FER-10 | 2026-08-31 11:34:37 | 46.07536 | 13.43500 | 73° | 135km/h | 10036m | 3.4m/s | -39.5°C | 22.2% | 0hPa | 2.9V | 00:00:00 | 01:09:04 | 00:00:00 | |
| IN3HCDX1 | 2026-08-31 11:34:36 | 46.07536 | 13.43500 | 73° | 135km/h | 10036m | 3.5m/s | -39.6°C | 19.9% | 0hPa | 2.9V | 00:00:00 | 00:00:00 | 00:00:00 | |
| OE8JPQ-2 | 2026-08-31 11:34:35 | 46.07514 | 13.43405 | 72° | 135km/h | 10029m | 3.5m/s | -39.5°C | 22.3% | 0hPa | 2.9V | 00:00:00 | 00:00:00 | 00:00:00 | |
| DO3MHA-11 | 2026-08-31 11:34:34 | 46.07503 | 13.43358 | 72° | 135km/h | 10025m | 3.6m/s | -39.4°C | 22.2% | 0hPa | 2.7V | 00:00:00 | 01:09:01 | 08:30:00 | |
| OE3JTB-15 | 2026-08-31 11:34:30 | 46.07460 | 13.43171 | 74° | 137km/h | 10010m | 3.5m/s | 0°C | 0% | 0hPa | 2.9V | 00:00:00 | 01:08:57 | 00:00:00 | |
| IV3AMH | 2026-08-31 11:34:27 | 46.07430 | 13.43029 | 74° | 135km/h | 9998m | 3.1m/s | -39.2°C | 0% | 0hPa | 2.9V | 00:00:00 | 00:00:00 | 00:00:00 | |
| 9A1FER-10 | 2026-08-31 11:34:22 | 46.07382 | 13.42795 | 72° | 135km/h | 9978m | 3.1m/s | -39.1°C | 22.6% | 0hPa | 2.9V | 00:00:00 | 01:08:49 | 00:00:00 | |
| IN3HCDX1 | 2026-08-31 11:34:16 | 46.07329 | 13.42560 | 73° | 137km/h | 9959m | 3.3m/s | -38.9°C | 21.0% | 0hPa | 2.9V | 00:00:00 | 00:00:00 | 00:00:00 | |
| OE8JPQ-2 | 2026-08-31 11:34:15 | 46.07308 | 13.42464 | 75° | 137km/h | 9951m | 3.7m/s | -38.8°C | 23.5% | 0hPa | 2.9V | 00:00:00 | 00:00:00 | 00:00:00 | |
| DO3MHA-11 | 2026-08-31 11:34:14 | 46.07299 | 13.42415 | 75° | 135km/h | 9947m | 2.8m/s | -38.8°C | 23.5% | 0hPa | 2.9V | 00:00:00 | 01:08:41 | 00:00:00 | |
| 9A1FER-10 | 2026-08-31 11:34:07 | 46.07227 | 13.42086 | 73° | 137km/h | 9921m | 3.7m/s | -38.6°C | 23.5% | 0hPa | 2.9V | 00:00:00 | 01:08:34 | 00:00:00 | |
| DO3MHA-11 | 2026-08-31 11:34:04 | 46.07194 | 13.41945 | 71° | 137km/h | 9909m | 2.6m/s | -38.6°C | 23.5% | 0hPa | 2.9V | 00:00:00 | 01:08:31 | 00:00:00 | |
| OE3JTB-15 | 2026-08-31 11:34:01 | 46.07161 | 13.41802 | 73° | 137km/h | 9898m | 3.4m/s | 0°C | 0% | 0hPa | 2.9V | 00:00:00 | 00:00:00 | 00:00:00 | |
| OE8JPQ-2 | 2026-08-31 11:33:55 | 46.07097 | 13.41521 | 72° | 137km/h | 9875m | 3.6m/s | -38.2°C | 23.7% | 0hPa | 2.9V | 00:00:00 | 01:08:22 | 00:00:00 | |
| DO3MHA-11 | 2026-08-31 11:33:54 | 46.07086 | 13.41474 | 71° | 137km/h | 9871m | 3.9m/s | -38.1°C | 23.8% | 0hPa | 2.9V | 00:00:00 | 01:08:21 | 00:00:00 | |
| 9A1FER-10 | 2026-08-31 11:33:52 | 46.07062 | 13.41380 | 71° | 137km/h | 9863m | 4.6m/s | -38.1°C | 23.7% | 0hPa | 2.9V | 00:00:00 | 01:08:19 | 00:00:00 | |
| IV3AMH | 2026-08-31 11:33:48 | 46.07028 | 13.41239 | 71° | 135km/h | 9851m | 4.4m/s | -38.0°C | 0% | 0hPa | 2.9V | 00:00:00 | 00:00:00 | 00:00:00 | |
| 9A1FER-10 | 2026-08-31 11:33:37 | 46.06891 | 13.40677 | 70° | 137km/h | 9806m | 2.9m/s | -37.6°C | 23.7% | 0hPa | 2.9V | 00:00:00 | 01:08:04 | 00:00:00 | |
| OE8JPQ-2 | 2026-08-31 11:33:35 | 46.06867 | 13.40584 | 70° | 137km/h | 9798m | 4.1m/s | -37.5°C | 23.7% | 0hPa | 2.7V | 00:00:00 | 00:00:00 | 00:00:00 | |
| DO3MHA-11 | 2026-08-31 11:33:34 | 46.06855 | 13.40537 | 70° | 137km/h | 9795m | 3.6m/s | -37.5°C | 23.7% | 0hPa | 2.9V | 00:00:00 | 01:08:01 | 00:00:00 | |
| DO3MHA-11 | 2026-08-31 11:33:24 | 46.06736 | 13.40067 | 71° | 135km/h | 9755m | 3.6m/s | 0°C | 0% | 0hPa | 2.9V | 00:00:00 | 01:07:51 | 00:00:00 | |
| 9A1FER-10 | 2026-08-31 11:33:22 | 46.06712 | 13.39974 | 71° | 135km/h | 9748m | 2.7m/s | -37.2°C | 24.4% | 0hPa | 2.9V | 00:00:00 | 01:07:49 | 00:00:00 | |
| OE3JTB-15 | 2026-08-31 11:33:17 | 46.06656 | 13.39744 | 71° | 135km/h | 9728m | 2.8m/s | 0°C | 0% | 0hPa | 2.9V | 00:00:00 | 00:00:00 | 00:00:00 | |
| OE8JPQ-2 | 2026-08-31 11:33:16 | 46.06633 | 13.39651 | 71° | 135km/h | 9721m | 3.4m/s | -37.0°C | 24.4% | 0hPa | 2.9V | 00:00:00 | 00:00:00 | 00:00:00 | |
| DO3MHA-11 | 2026-08-31 11:33:14 | 46.06621 | 13.39604 | 70° | 135km/h | 9717m | 3.5m/s | 0°C | 0% | 0hPa | 2.9V | 00:00:00 | 01:07:41 | 00:00:00 | |
| IV3AMH | 2026-08-31 11:33:10 | 46.06585 | 13.39466 | 70° | 135km/h | 9706m | 4.5m/s | -36.9°C | 0% | 0hPa | 2.9V | 00:00:00 | 00:00:00 | 00:00:00 | |
| 9A1FER-10 | 2026-08-31 11:33:07 | 46.06536 | 13.39284 | 69° | 135km/h | 9690m | 3.1m/s | -36.7°C | 24.1% | 0hPa | 2.9V | 00:00:00 | 01:07:34 | 00:00:00 | |
| DO3MHA-11 | 2026-08-31 11:33:04 | 46.06500 | 13.39149 | 69° | 135km/h | 9678m | 4.3m/s | 0°C | 0% | 0hPa | 2.9V | 00:00:00 | 01:07:31 | 00:00:00 | |
| IN3HCDX1 | 2026-08-31 11:32:55 | 46.06384 | 13.38739 | 70° | 135km/h | 9642m | 3.5m/s | -36.4°C | 21.5% | 0hPa | 2.9V | 00:00:00 | 00:00:00 | 00:00:00 | |
| DO3MHA-11 | 2026-08-31 11:32:54 | 46.06372 | 13.38693 | 69° | 133km/h | 9639m | 3.8m/s | 0°C | 0% | 0hPa | 2.9V | 00:00:00 | 01:07:21 | 00:00:00 | |
| 9A1FER-10 | 2026-08-31 11:32:52 | 46.06347 | 13.38603 | 68° | 133km/h | 9631m | 3.5m/s | -36.2°C | 22.7% | 0hPa | 2.9V | 00:00:00 | 01:07:19 | 08:30:00 | |
| OE3JTB-15 | 2026-08-31 11:32:48 | 46.06296 | 13.38423 | 68° | 128km/h | 9613m | 3.9m/s | 0°C | 0% | 0hPa | 2.9V | 00:00:00 | 01:07:15 | 00:00:00 | |
| DO3MHA-11 | 2026-08-31 11:32:44 | 46.06244 | 13.38243 | 69° | 131km/h | 9597m | 4.4m/s | 0°C | 0% | 0hPa | 2.9V | 00:00:00 | 01:07:11 | 00:00:00 | |
| 9A1FER-10 | 2026-08-31 11:32:37 | 46.06154 | 13.37933 | 68° | 131km/h | 9569m | 3.8m/s | -35.7°C | 19.8% | 0hPa | 2.9V | 00:00:00 | 01:07:04 | 00:00:00 | |
| OE8JPQ-2 | 2026-08-31 11:32:35 | 46.06130 | 13.37845 | 69° | 130km/h | 9560m | 4.0m/s | -35.6°C | 20.1% | 0hPa | 2.9V | 00:00:00 | 00:00:00 | 08:30:00 | |
| IN3HCDX1 | 2026-08-31 11:32:33 | 46.06118 | 13.37801 | 70° | 130km/h | 9556m | 4.3m/s | -35.7°C | 18.2% | 0hPa | 2.9V | 00:00:00 | 00:00:00 | 00:00:00 | |
| IV3AMH | 2026-08-31 11:32:32 | 46.06106 | 13.37757 | 70° | 130km/h | 9552m | 4.0m/s | -35.7°C | 0% | 0hPa | 2.9V | 00:00:00 | 00:00:00 | 00:00:00 | |
| DO3MHA-11 | 2026-08-31 11:32:25 | 46.06005 | 13.37406 | 67° | 130km/h | 9522m | 3.3m/s | 0°C | 0% | 0hPa | 2.9V | 00:00:00 | 01:06:52 | 00:00:00 | |
| 9A1FER-10 | 2026-08-31 11:32:22 | 46.05966 | 13.37273 | 68° | 126km/h | 9511m | 3.5m/s | -35.6°C | 17.2% | 0hPa | 2.9V | 00:00:00 | 01:06:49 | 00:00:00 | |
| DO3MHA-11 | 2026-08-31 11:32:15 | 46.05883 | 13.36977 | 69° | 128km/h | 9482m | 4.6m/s | 0°C | 0% | 0hPa | 2.9V | 00:00:00 | 01:06:42 | 00:00:00 | |
| IN3HCDX1 | 2026-08-31 11:32:13 | 46.05860 | 13.36892 | 70° | 128km/h | 9474m | 3.9m/s | -35.2°C | 15.0% | 0hPa | 2.9V | 00:00:00 | 00:00:00 | 00:00:00 | |
| OE3JTB-15 | 2026-08-31 11:32:09 | 46.05812 | 13.36719 | 70° | 126km/h | 9458m | 4.3m/s | 0°C | 0% | 0hPa | 2.9V | 00:00:00 | 00:00:00 | 00:00:00 | |
| 9A1FER-10 | 2026-08-31 11:32:07 | 46.05789 | 13.36631 | 70° | 126km/h | 9450m | 4.7m/s | -35.1°C | 16.3% | 0hPa | 2.9V | 00:00:00 | 01:06:34 | 00:00:00 | |
| DO3MHA-11 | 2026-08-31 11:32:05 | 46.05767 | 13.36545 | 71° | 126km/h | 9442m | 4.6m/s | 0°C | 0% | 0hPa | 2.7V | 00:00:00 | 01:06:32 | 00:00:00 | |
| OE8JPQ-2 | 2026-08-31 11:31:55 | 46.05650 | 13.36120 | 69° | 122km/h | 9399m | 5.5m/s | -34.8°C | 16.0% | 0hPa | 2.7V | 00:00:00 | 01:06:22 | 00:00:00 | |
| DO3MHA-11 | 2026-08-31 11:31:54 | 46.05639 | 13.36077 | 71° | 122km/h | 9395m | 4.0m/s | 0°C | 0% | 0hPa | 2.7V | 00:00:00 | 01:06:21 | 00:00:00 | |
| 9A1FER-10 | 2026-08-31 11:31:52 | 46.05618 | 13.35992 | 71° | 120km/h | 9387m | 5.0m/s | 0°C | 0% | 0hPa | 2.7V | 00:00:00 | 01:06:19 | 00:00:00 | |
| 9A1FER-10 | 2026-08-31 11:31:37 | 46.05454 | 13.35375 | 72° | 119km/h | 9323m | 4.4m/s | 0°C | 0% | 0hPa | 2.7V | 00:00:00 | 01:06:04 | 00:00:00 | |
| OE8JPQ-2 | 2026-08-31 11:31:35 | 46.05434 | 13.35290 | 73° | 117km/h | 9315m | 3.6m/s | -34.2°C | 15.9% | 0hPa | 2.7V | 00:00:00 | 00:00:00 | 00:00:00 | |
| IN3HCDX1 | 2026-08-31 11:31:30 | 46.05399 | 13.35126 | 73° | 117km/h | 9298m | 4.0m/s | 0°C | 0% | 0hPa | 2.9V | 00:00:00 | 00:00:00 | 00:00:00 | |
| IV3AMH | 2026-08-31 11:31:20 | 46.05298 | 13.34727 | 72° | 117km/h | 9259m | 3.5m/s | -33.8°C | 0% | 0hPa | 2.9V | 00:00:00 | 00:00:00 | 00:00:00 | |
| DO3MHA-11 | 2026-08-31 11:31:19 | 46.05279 | 13.34646 | 72° | 117km/h | 9250m | 4.9m/s | 0°C | 0% | 0hPa | 2.9V | 00:00:00 | 01:05:46 | 00:00:00 | |
| OE8JPQ-2 | 2026-08-31 11:31:15 | 46.05244 | 13.34481 | 74° | 113km/h | 9232m | 5.4m/s | -33.7°C | 18.6% | 0hPa | 2.9V | 00:00:00 | 00:00:00 | 00:00:00 | |
| 9A1FER-10 | 2026-08-31 11:31:14 | 46.05235 | 13.34440 | 73° | 113km/h | 9227m | 4.0m/s | 0°C | 0% | 0hPa | 2.9V | 00:00:00 | 01:05:41 | 00:00:00 | |
| IN3HCDX1 | 2026-08-31 11:31:09 | 46.05190 | 13.34240 | 72° | 115km/h | 9207m | 3.3m/s | 0°C | 0% | 0hPa | 2.9V | 00:00:00 | 00:00:00 | 00:00:00 | |
| 9A1FER-3 | 2026-08-31 11:31:08 | 46.05182 | 13.34201 | 72° | 115km/h | 9203m | 4.9m/s | 0°C | 0% | 0hPa | 2.9V | 00:00:00 | 01:05:35 | 00:00:00 | |
| DO3MHA-11 | 2026-08-31 11:31:06 | 46.05164 | 13.34122 | 73° | 111km/h | 9194m | 3.7m/s | 0°C | 0% | 0hPa | 2.9V | 00:00:00 | 01:05:33 | 00:00:00 | |
| IV3AMH | 2026-08-31 11:30:59 | 46.05114 | 13.33884 | 74° | 110km/h | 9170m | 4.3m/s | 0°C | 0% | 0hPa | 2.9V | 00:00:00 | 00:00:00 | 00:00:00 | |
| DO3MHA-11 | 2026-08-31 11:30:56 | 46.05080 | 13.33732 | 74° | 111km/h | 9153m | 4.5m/s | 0°C | 0% | 0hPa | 2.9V | 00:00:00 | 01:05:23 | 00:00:00 | |
| OE8JPQ-2 | 2026-08-31 11:30:55 | 46.05072 | 13.33693 | 74° | 108km/h | 9148m | 4.7m/s | -33.2°C | 20.6% | 0hPa | 2.9V | 00:00:00 | 01:05:22 | 00:00:00 | |
| 9A1FER-10 | 2026-08-31 11:30:53 | 46.05056 | 13.33613 | 74° | 108km/h | 9139m | 4.6m/s | 0°C | 0% | 0hPa | 2.9V | 00:00:00 | 01:05:20 | 00:00:00 | |
| IN3HCDX1 | 2026-08-31 11:30:47 | 46.05008 | 13.33384 | 74° | 104km/h | 9114m | 4.5m/s | 0°C | 0% | 0hPa | 2.9V | 00:00:00 | 00:00:00 | 00:00:00 | |
| 9A1FER-10 | 2026-08-31 11:30:39 | 46.04938 | 13.33049 | 76° | 106km/h | 9076m | 4.1m/s | 0°C | 0% | 0hPa | 2.9V | 00:00:00 | 01:05:05 | 00:00:00 | |
| OE8JPQ-2 | 2026-08-31 11:30:35 | 46.04919 | 13.32936 | 76° | 104km/h | 9064m | 4.7m/s | -32.6°C | 24.4% | 0hPa | 2.9V | 00:00:00 | 00:00:00 | 00:00:00 | |
| 9A1FER-10 | 2026-08-31 11:30:23 | 46.04827 | 13.32499 | 75° | 106km/h | 9015m | 3.8m/s | 0°C | 0% | 0hPa | 2.9V | 00:00:00 | 01:04:50 | 00:00:00 | |
| IV3AMH | 2026-08-31 11:30:22 | 46.04827 | 13.32499 | 75° | 106km/h | 9015m | 3.9m/s | 0°C | 0% | 0hPa | 2.9V | 00:00:00 | 00:00:00 | 00:00:00 | |
| OE8JPQ-2 | 2026-08-31 11:30:16 | 46.04769 | 13.32209 | 74° | 102km/h | 8983m | 3.7m/s | -32.0°C | 24.0% | 0hPa | 2.9V | 00:00:00 | 00:00:00 | 00:00:00 | |
| OE8JPQ-2 | 2026-08-31 11:29:55 | 46.04617 | 13.31501 | 75° | 102km/h | 8900m | 4.3m/s | -31.3°C | 23.1% | 0hPa | 2.9V | 00:00:00 | 01:04:22 | 00:00:00 | |
| IV3AMH | 2026-08-31 11:29:45 | 46.04550 | 13.31180 | 74° | 102km/h | 8863m | 4.3m/s | 0°C | 0% | 0hPa | 2.9V | 00:00:00 | 00:00:00 | 00:00:00 | |
| OE8JPQ-2 | 2026-08-31 11:29:35 | 46.04466 | 13.30797 | 70° | 99km/h | 8817m | 4.3m/s | -30.8°C | 25.6% | 0hPa | 2.9V | 00:00:00 | 00:00:00 | 08:30:00 | |
| OE8JPQ-2 | 2026-08-31 11:29:15 | 46.04321 | 13.30115 | 73° | 100km/h | 8735m | 3.9m/s | -30.0°C | 25.3% | 0hPa | 2.9V | 00:00:00 | 00:00:00 | 00:00:00 | |
| OE8JPQ-2 | 2026-08-31 11:28:55 | 46.04179 | 13.29416 | 74° | 99km/h | 8651m | 3.8m/s | -29.3°C | 22.3% | 0hPa | 2.9V | 00:00:00 | 01:03:22 | 00:00:00 | |
| OE8JPQ-2 | 2026-08-31 11:28:35 | 46.04039 | 13.28726 | 74° | 95km/h | 8563m | 6.0m/s | -28.9°C | 25.9% | 0hPa | 2.9V | 00:00:00 | 00:00:00 | 00:00:00 | |
| IV3AMH | 2026-08-31 11:28:17 | 46.03917 | 13.28171 | 74° | 93km/h | 8494m | 4.8m/s | 0°C | 0% | 0hPa | 2.7V | 00:00:00 | 00:00:00 | 00:00:00 | |
| OE8JPQ-2 | 2026-08-31 11:28:15 | 46.03895 | 13.28073 | 72° | 95km/h | 8482m | 3.7m/s | -28.3°C | 29.5% | 0hPa | 2.7V | 00:00:00 | 00:00:00 | 00:00:00 | |
| OE8JPQ-2 | 2026-08-31 11:27:55 | 46.03765 | 13.27412 | 73° | 93km/h | 8402m | 4.4m/s | -27.7°C | 31.9% | 0hPa | 2.7V | 00:00:00 | 01:02:22 | 00:00:00 | |
| OE8JPQ-2 | 2026-08-31 11:27:35 | 46.03639 | 13.26759 | 75° | 95km/h | 8323m | 3.2m/s | -27.0°C | 32.2% | 0hPa | 2.7V | 00:00:00 | 00:00:00 | 00:00:00 | |
| OE8JPQ-2 | 2026-08-31 11:27:15 | 46.03508 | 13.26097 | 75° | 95km/h | 8244m | 4.4m/s | -26.3°C | 32.7% | 0hPa | 2.9V | 00:00:00 | 00:00:00 | 00:00:00 | |
| OE8JPQ-2 | 2026-08-31 11:26:55 | 46.03381 | 13.25438 | 74° | 93km/h | 8166m | 4.8m/s | -25.6°C | 32.5% | 0hPa | 2.9V | 00:00:00 | 01:01:22 | 00:00:00 | |
| IV3AMH | 2026-08-31 11:26:43 | 46.03300 | 13.25077 | 74° | 95km/h | 8122m | 4.8m/s | 0°C | 0% | 0hPa | 2.9V | 00:00:00 | 00:00:00 | 00:00:00 | |
| OE8JPQ-2 | 2026-08-31 11:26:35 | 46.03243 | 13.24785 | 73° | 93km/h | 8085m | 3.5m/s | -25.0°C | 31.9% | 0hPa | 2.9V | 00:00:00 | 00:00:00 | 08:30:00 | |
| OE8JPQ-2 | 2026-08-31 11:26:15 | 46.03096 | 13.24138 | 72° | 95km/h | 8007m | 3.5m/s | -24.4°C | 22.1% | 0hPa | 2.9V | 00:00:00 | 00:00:00 | 00:00:00 | |
| OE8JPQ-2 | 2026-08-31 11:25:55 | 46.02955 | 13.23479 | 73° | 99km/h | 7928m | 3.8m/s | -23.7°C | 11.6% | 0hPa | 2.9V | 00:00:00 | 01:00:22 | 00:00:00 | |
| OE8JPQ-2 | 2026-08-31 11:25:35 | 46.02831 | 13.22790 | 75° | 89km/h | 7846m | 4.6m/s | -23.4°C | 12.1% | 0hPa | 2.9V | 00:00:00 | 00:00:00 | 00:00:00 | |
| OE8JPQ-2 | 2026-08-31 11:25:15 | 46.02679 | 13.22179 | 76° | 86km/h | 7735m | 5.0m/s | -22.8°C | 24.3% | 0hPa | 0V | 00:00:00 | 00:00:00 | 00:00:00 | |
| OE8JPQ-2 | 2026-08-31 11:24:55 | 46.02542 | 13.21594 | 76° | 84km/h | 7618m | 4.9m/s | 0°C | 0% | 0hPa | 0V | 00:00:00 | 00:59:22 | 00:00:00 | |
| OE8JPQ-2 | 2026-08-31 11:24:35 | 46.02380 | 13.21030 | 65° | 82km/h | 7515m | 4.4m/s | 0°C | 0% | 0hPa | 0V | 00:00:00 | 00:00:00 | 00:00:00 | |
| OE8JPQ-2 | 2026-08-31 11:24:15 | 46.02221 | 13.20479 | 68° | 80km/h | 7406m | 5.1m/s | 0°C | 0% | 0hPa | 0V | 00:00:00 | 00:00:00 | 00:00:00 | |
| OE8JPQ-2 | 2026-08-31 11:23:55 | 46.02071 | 13.19931 | 71° | 82km/h | 7321m | 4.6m/s | 0°C | 0% | 0hPa | 0V | 00:00:00 | 00:58:22 | 00:00:00 | |
| IN3HCDX | 2026-08-31 11:23:40 | 46.01958 | 13.19558 | 68° | 82km/h | 7258m | 5.5m/s | -19.0°C | 20.9% | 0hPa | 0V | 00:00:00 | 00:00:00 | 00:00:00 | |
| OE8JPQ-2 | 2026-08-31 11:23:35 | 46.01913 | 13.19387 | 71° | 71km/h | 7230m | 4.4m/s | 0°C | 0% | 0hPa | 0V | 00:00:00 | 00:00:00 | 00:00:00 | |
| IN3HCDX | 2026-08-31 11:23:10 | 46.01730 | 13.18758 | 67° | 78km/h | 7108m | 3.9m/s | -17.7°C | 16.9% | 0hPa | 0V | 00:00:00 | 00:00:00 | 00:00:00 | |
| IN3HCDX | 2026-08-31 11:22:50 | 46.01569 | 13.18228 | 70° | 93km/h | 7032m | 2.5m/s | -17.1°C | 17.8% | 0hPa | 0V | 00:00:00 | 00:00:00 | 00:00:00 | |
| IN3HCDX | 2026-08-31 11:22:25 | 46.01398 | 13.17567 | 74° | 78km/h | 6887m | 5.0m/s | -16.7°C | 26.7% | 0hPa | 0V | 00:00:00 | 00:00:00 | 00:00:00 | |
| IN3HCDX | 2026-08-31 11:22:04 | 46.01266 | 13.17050 | 63° | 73km/h | 6799m | 3.5m/s | -16.5°C | 40.1% | 0hPa | 0V | 00:00:00 | 00:00:00 | 00:00:00 | |
| IN3HCDX | 2026-08-31 11:21:43 | 46.01128 | 13.16586 | 68° | 66km/h | 6689m | 4.3m/s | -16.3°C | 40.7% | 0hPa | 0V | 00:00:00 | 00:00:00 | 00:00:00 | |
| IN3HCDX | 2026-08-31 11:21:22 | 46.00988 | 13.16158 | 61° | 53km/h | 6571m | 3.8m/s | -15.3°C | 31.8% | 0hPa | 0V | 00:00:00 | 00:00:00 | 00:00:00 | |
| IN3HCDX | 2026-08-31 11:21:01 | 46.00853 | 13.15714 | 71° | 64km/h | 6469m | 4.9m/s | -14.7°C | 34.9% | 0hPa | 0V | 00:00:00 | 00:00:00 | 00:00:00 | |
| IN3HCDX | 2026-08-31 11:20:40 | 46.00748 | 13.15259 | 70° | 49km/h | 6378m | 5.2m/s | -14.2°C | 45.8% | 0hPa | 0V | 00:00:00 | 00:00:00 | 00:00:00 | |
| IN3HCDX | 2026-08-31 11:20:19 | 46.00661 | 13.14788 | 71° | 58km/h | 6261m | 3.6m/s | -13.3°C | 49.3% | 0hPa | 0V | 00:00:00 | 00:00:00 | 00:00:00 | |
| IN3HCDX | 2026-08-31 11:19:59 | 46.00562 | 13.14342 | 72° | 71km/h | 6155m | 5.1m/s | -12.4°C | 29.8% | 0hPa | 0V | 00:00:00 | 00:00:00 | 00:00:00 | |
| IN3HCDX | 2026-08-31 11:19:38 | 46.00453 | 13.13882 | 72° | 64km/h | 6052m | 4.2m/s | -11.7°C | 23.1% | 0hPa | 0V | 00:00:00 | 00:00:00 | 00:00:00 | |
| IN3HCDX | 2026-08-31 11:19:15 | 46.00375 | 13.13434 | 79° | 51km/h | 5930m | 5.7m/s | -10.8°C | 29.9% | 0hPa | 0V | 00:00:00 | 00:00:00 | 00:00:00 | |
| IN3HCDX | 2026-08-31 11:18:54 | 46.00287 | 13.13006 | 74° | 66km/h | 5825m | 2.8m/s | -9.9°C | 33.9% | 0hPa | 0V | 00:00:00 | 00:00:00 | 00:00:00 | |
| IN3HCDX | 2026-08-31 11:18:33 | 46.00203 | 13.12570 | 72° | 68km/h | 5738m | 3.9m/s | -9.1°C | 22.7% | 0hPa | 0V | 00:00:00 | 00:00:00 | 00:00:00 | |
| IN3HCDX | 2026-08-31 11:18:12 | 46.00107 | 13.12156 | 72° | 53km/h | 5626m | 4.3m/s | -8.1°C | 18.9% | 0hPa | 0V | 00:00:00 | 00:00:00 | 00:00:00 | |
| IN3HCDX | 2026-08-31 11:17:51 | 46.00025 | 13.11746 | 76° | 51km/h | 5527m | 4.0m/s | -7.1°C | 7.7% | 0hPa | 0V | 00:00:00 | 00:00:00 | 00:00:00 | |
| IN3HCDX | 2026-08-31 11:17:31 | 45.99950 | 13.11356 | 77° | 53km/h | 5431m | 4.8m/s | -6.7°C | 6.2% | 0hPa | 0V | 00:00:00 | 00:00:00 | 00:00:00 | |
| IN3HCDX | 2026-08-31 11:17:10 | 45.99867 | 13.10976 | 76° | 53km/h | 5351m | 4.7m/s | -6.5°C | 7.6% | 0hPa | 0V | 00:00:00 | 00:00:00 | 00:00:00 | |
| IN3HCDX | 2026-08-31 11:16:49 | 45.99807 | 13.10660 | 91° | 42km/h | 5250m | 3.5m/s | -6.1°C | 20.4% | 0hPa | 0V | 00:00:00 | 00:00:00 | 00:00:00 | |
| IN3HCDX | 2026-08-31 11:16:27 | 45.99774 | 13.10318 | 80° | 37km/h | 5130m | 4.3m/s | -5.6°C | 24.5% | 0hPa | 0V | 00:00:00 | 00:00:00 | 00:00:00 | |
| IN3HCDX | 2026-08-31 11:16:05 | 45.99727 | 13.10049 | 67° | 40km/h | 5035m | 6.4m/s | -4.8°C | 19.0% | 0hPa | 0V | 00:00:00 | 00:00:00 | 00:00:00 | |
| IN3HCDX | 2026-08-31 11:15:44 | 45.99647 | 13.09755 | 73° | 40km/h | 4926m | 4.4m/s | -4.2°C | 15.8% | 0hPa | 0V | 00:00:00 | 00:00:00 | 00:00:00 | |
| IN3HCDX | 2026-08-31 11:15:23 | 45.99565 | 13.09430 | 72° | 55km/h | 4817m | 5.1m/s | -4.0°C | 34.7% | 0hPa | 0V | 00:00:00 | 00:00:00 | 00:00:00 | |
| IN3HCDX | 2026-08-31 11:14:41 | 45.99439 | 13.08804 | 68° | 35km/h | 4647m | 4.4m/s | -4.0°C | 56.3% | 0hPa | 0V | 00:00:00 | 00:00:00 | 00:00:00 | |
| IN3HCDX | 2026-08-31 11:14:21 | 45.99378 | 13.08583 | 77° | 20km/h | 4569m | 6.2m/s | -3.5°C | 58.3% | 0hPa | 0V | 00:00:00 | 00:00:00 | 00:00:00 | |
| IN3HCDX | 2026-08-31 11:14:00 | 45.99312 | 13.08398 | 70° | 27km/h | 4450m | 4.6m/s | -2.7°C | 55.5% | 0hPa | 0V | 00:00:00 | 00:00:00 | 00:00:00 | |
| IN3HCDX | 2026-08-31 11:13:39 | 45.99234 | 13.08210 | 69° | 27km/h | 4371m | 4.2m/s | -2.3°C | 58.3% | 0hPa | 0V | 00:00:00 | 00:00:00 | 00:00:00 | |
| IN3HCDX | 2026-08-31 11:13:18 | 45.99172 | 13.07985 | 57° | 35km/h | 4293m | 4.9m/s | -2.0°C | 62.7% | 0hPa | 0V | 00:00:00 | 00:00:00 | 00:00:00 | |
| IN3HCDX | 2026-08-31 11:12:56 | 45.99108 | 13.07813 | 74° | 29km/h | 4192m | 7.0m/s | -1.5°C | 71.4% | 0hPa | 0V | 00:00:00 | 00:00:00 | 00:00:00 | |
| IN3HCDX | 2026-08-31 11:12:36 | 45.99053 | 13.07659 | 61° | 27km/h | 4105m | 2.9m/s | -0.6°C | 68.8% | 0hPa | 0V | 00:00:00 | 00:00:00 | 00:00:00 | |
| IN3HCDX | 2026-08-31 11:12:15 | 45.99001 | 13.07444 | 86° | 27km/h | 4007m | 3.6m/s | 0.0°C | 72.2% | 0hPa | 0V | 00:00:00 | 00:00:00 | 00:00:00 | |
| IN3HCDX | 2026-08-31 11:11:53 | 45.98944 | 13.07286 | 77° | 22km/h | 3894m | 6.0m/s | 0.9°C | 54.1% | 0hPa | 0V | 00:00:00 | 00:00:00 | 00:00:00 | |
| IN3HCDX | 2026-08-31 11:11:32 | 45.98885 | 13.07151 | 64° | 22km/h | 3786m | 5.3m/s | 1.6°C | 59.5% | 0hPa | 0V | 00:00:00 | 00:00:00 | 00:00:00 | |
| IN3HCDX | 2026-08-31 11:11:12 | 45.98818 | 13.07022 | 42° | 31km/h | 3698m | 5.2m/s | 0°C | 0% | 0hPa | 0V | 00:00:00 | 00:00:00 | 00:00:00 | |
| IN3HCDX | 2026-08-31 11:10:52 | 45.98724 | 13.06870 | 27° | 18km/h | 3607m | 3.3m/s | 0°C | 0% | 0hPa | 0V | 00:00:00 | 00:00:00 | 00:00:00 | |
| IN3HCDX | 2026-08-31 11:10:31 | 45.98647 | 13.06730 | 52° | 18km/h | 3515m | 4.6m/s | 0°C | 0% | 0hPa | 0V | 00:00:00 | 00:00:00 | 00:00:00 |